# Wetter Temperatur Luftdruck Luftfeuchtigkeit Sichtweite Windgeschwindigkeit Windrichtung Zeit
1 Clear 29 1017 45 6000 2.6 10 19:42 17.10.2019
2 Clear 29 1017 45 6000 2.6 10 19:20 17.10.2019
3 Clear 29 1017 45 6000 2.1 10 18:59 17.10.2019
4 Clear 29 1016 45 6000 3.1 360 18:38 17.10.2019
5 Clear 29 1016 45 6000 3.1 360 18:20 17.10.2019
6 Clear 29 1016 40 6000 3.6 320 17:43 17.10.2019
7 Clear 30 1016 40 6000 3.6 320 17:25 17.10.2019
8 Clear 30 1016 40 6000 3.6 310 16:59 17.10.2019
9 Clear 30 1016 38 6000 3.6 340 16:40 17.10.2019
10 Clear 31 1016 38 6000 3.6 340 16:19 17.10.2019
11 Clear 31 1016 35 6000 3.6 330 15:57 17.10.2019
12 Clear 31 1016 33 6000 2.6 350 15:38 17.10.2019
13 Clear 31 1016 33 6000 2.6 350 15:38 17.10.2019
14 Clear 31 1016 33 6000 2.6 350 15:20 17.10.2019
15 Clear 31 1016 33 6000 3.6 320 14:56 17.10.2019
16 Clear 31 1016 35 6000 2.6 330 14:38 17.10.2019
17 Clear 31 1016 35 6000 2.6 330 14:20 17.10.2019
18 Clear 30 1017 40 6000 2.1 360 13:40 17.10.2019
19 Clear 30 1017 40 6000 2.1 360 13:20 17.10.2019
20 Clear 30 1017 45 6000 2.6 340 12:58 17.10.2019
21 Clear 30 1017 48 6000 2.1 10 12:38 17.10.2019
22 Clear 29 1017 48 6000 2.1 10 12:19 17.10.2019
23 Clear 28 1018 51 6000 2.6 350 11:55 17.10.2019
24 Clear 28 1018 51 6000 2.6 350 11:37 17.10.2019
25 Clear 28 1018 51 6000 2.6 350 11:18 17.10.2019
26 Clouds 26 1018 61 10000 2.6 20 10:41 17.10.2019
27 Clouds 26 1018 61 10000 2.6 20 10:19 17.10.2019
28 Clouds 24 1018 73 6000 3.1 70 09:57 17.10.2019
29 Clouds 24 1018 73 6000 3.1 70 09:38 17.10.2019
30 Clouds 24 1018 73 6000 3.1 70 09:19 17.10.2019
31 -273 0 0 0 0 0 08:56 17.10.2019
32 Clouds 23 1018 78 6000 3.1 60 08:37 17.10.2019
33 Clouds 23 1018 78 6000 3.1 60 08:18 17.10.2019
34 Clear 22 1017 88 6000 2.6 80 07:41 17.10.2019
35 Clear 22 1017 88 6000 2.6 80 07:21 17.10.2019
36 Clear 22 1017 83 6000 2.1 20 06:55 17.10.2019
37 Clear 22 1016 83 6000 2.1 90 06:37 17.10.2019
38 Clear 22 1016 83 6000 2.1 90 06:18 17.10.2019
39 Clear 22 1016 83 6000 2.1 90 05:41 17.10.2019
40 Clear 22 1016 83 6000 2.1 90 05:20 17.10.2019
41 Clear 22 1016 78 6000 2.1 80 04:48 17.10.2019
42 Clear 23 1016 73 10000 3.114 58 03:49 17.10.2019
43 Clear 23 1016 78 10000 1.5 90 02:32 17.10.2019
44 Clear 24 1017 73 10000 2.6 10 00:43 17.10.2019
45 Clear 24 1017 73 10000 2.6 10 00:21 17.10.2019
46 Clear 25 1017 69 10000 2.1 30 23:59 16.10.2019
47 Clear 25 1017 69 10000 2.6 60 23:41 16.10.2019
48 Clear 25 1017 69 10000 2.6 60 23:19 16.10.2019
49 Clear 25 1017 69 10000 2.1 80 22:54 16.10.2019
50 Clear 26 1017 65 10000 2.1 360 22:36 16.10.2019
51 Clear 26 1017 65 10000 2.1 360 22:18 16.10.2019
52 Clear 26 1017 65 10000 3.1 10 21:55 16.10.2019
53 Clear 26 1017 65 10000 3.1 10 21:54 16.10.2019
54 Clear 26 1017 65 10000 3.1 10 21:54 16.10.2019
55 Clear 26 1017 65 10000 3.1 10 21:54 16.10.2019
56 Clear 26 1017 65 10000 3.1 10 21:36 16.10.2019
57 Clear 26 1017 65 10000 3.1 10 21:18 16.10.2019
58 Clear 29 1015 45 10000 4.1 350 20:55 16.10.2019
59 Clear 29 1015 45 10000 4.1 350 20:37 16.10.2019
60 Clear 29 1015 45 10000 4.1 350 20:19 16.10.2019
61 Clear 22 1015 52 0 5.186 23 19:40 16.10.2019
62 Clear 22 1015 52 0 5.186 23 19:40 16.10.2019
63 Clear 29 1015 45 10000 4.1 350 19:21 16.10.2019
64 Clear 29 1015 45 10000 4.1 350 19:21 16.10.2019
65 Clear 29 1015 45 10000 4.1 350 18:58 16.10.2019
66 Clear 29 1015 45 10000 4.1 350 18:38 16.10.2019
67 Clear 29 1015 45 10000 4.1 350 18:18 16.10.2019
68 Clear 29 1015 45 10000 4.1 350 18:18 16.10.2019
69 Clear 29 1015 45 10000 4.1 350 18:18 16.10.2019
70 Clear 31 1014 38 10000 4.6 340 17:56 16.10.2019
71 Clear 31 1014 38 10000 4.6 340 17:37 16.10.2019
72 Clear 31 1014 38 10000 4.6 340 17:37 16.10.2019
73 Clear 31 1014 38 10000 4.6 340 17:19 16.10.2019
74 Clear 31 1014 40 10000 5.1 340 16:56 16.10.2019
75 Clear 31 1014 38 10000 3.6 340 16:38 16.10.2019
76 Clear 32 1014 38 10000 3.6 340 16:19 16.10.2019
77 Clear 32 1014 40 10000 4.1 310 15:41 16.10.2019
78 Clouds 32 1014 40 10000 4.1 310 15:19 16.10.2019
79 Clouds 31 1014 43 6000 4.6 310 14:59 16.10.2019
80 Clouds 31 1014 43 6000 4.6 310 14:40 16.10.2019
81 Clouds 31 1014 43 6000 4.6 310 14:21 16.10.2019
82 Clouds 31 1014 45 6000 4.1 320 13:58 16.10.2019
83 Clouds 31 1014 45 6000 4.1 320 13:40 16.10.2019
84 Clouds 31 1014 45 6000 4.1 320 13:22 16.10.2019
85 Clouds 29 1015 54 6000 3.1 360 12:44 16.10.2019
86 Clouds 29 1015 54 6000 3.1 360 12:20 16.10.2019
87 Clouds 28 1016 61 6000 2.1 350 11:58 16.10.2019
88 Clouds 28 1016 61 6000 2.1 350 11:40 16.10.2019
89 Clouds 28 1016 61 6000 2.1 350 11:18 16.10.2019
90 Clouds 27 1016 65 6000 2.1 330 10:37 16.10.2019
91 Clouds 27 1016 65 6000 2.1 330 10:19 16.10.2019
92 Clouds 26 1016 74 6000 3.1 10 09:41 16.10.2019
93 Clouds 26 1016 74 6000 2.1 360 09:22 16.10.2019
94 Mist 25 1016 78 3000 2.6 360 08:58 16.10.2019
95 Mist 25 1016 78 3000 2.6 360 08:40 16.10.2019
96 Mist 24 1016 83 3000 2.6 350 08:21 16.10.2019
97 Mist 24 1016 83 3000 2.1 360 07:45 16.10.2019
98 -273 0 0 0 0 0 07:24 16.10.2019
99 Mist 24 1015 83 3000 2.1 360 06:56 16.10.2019
100 Mist 24 1015 83 3000 2.1 360 06:56 16.10.2019
101 Mist 24 1015 83 3000 1.5 10 06:35 16.10.2019
102 Mist 23 1015 88 3000 2.1 340 05:39 16.10.2019
103 Clear 24 1015 88 6000 2.6 310 02:57 16.10.2019
104 Clear 24 1015 88 6000 2.6 310 02:37 16.10.2019
105 Clear 24 1015 83 6000 2.6 340 01:18 16.10.2019
106 Clear 25 1015 78 6000 1.5 340 00:46 16.10.2019
107 Clear 25 1015 78 6000 1.5 360 00:25 16.10.2019
108 Clear 25 1015 78 6000 3.6 330 23:39 15.10.2019
109 Clear 25 1015 78 6000 3.6 330 23:21 15.10.2019
110 Clear 25 1015 78 10000 3.1 330 22:56 15.10.2019
111 Clear 25 1015 78 10000 3.1 330 22:38 15.10.2019
112 Clear 26 1015 74 10000 2.6 360 22:19 15.10.2019
113 Clear 26 1015 74 10000 4.1 340 21:56 15.10.2019
114 Clear 26 1015 74 10000 4.1 340 21:38 15.10.2019
115 Clear 26 1015 74 10000 4.1 340 21:19 15.10.2019
116 Clear 27 1015 65 10000 5.1 330 20:57 15.10.2019
117 Clear 27 1015 65 10000 5.1 330 20:57 15.10.2019
118 Clear 27 1015 65 10000 5.1 330 20:39 15.10.2019
119 Clear 28 1015 61 10000 5.1 330 20:20 15.10.2019
120 Clear 28 1015 61 10000 5.1 330 20:20 15.10.2019
121 Clear 28 1014 61 10000 4.6 320 19:57 15.10.2019
122 Clear 28 1014 61 10000 4.6 320 19:39 15.10.2019
123 Clear 29 1014 58 10000 4.6 320 19:19 15.10.2019
124 Clear 30 1013 55 10000 3.6 310 18:47 15.10.2019
125 Clear 30 1013 55 10000 3.6 310 18:28 15.10.2019
126 Clear 30 1013 55 10000 3.6 300 17:59 15.10.2019
127 Clear 30 1013 55 10000 3.6 300 17:40 15.10.2019
128 Clear 30 1013 55 10000 3.6 300 17:40 15.10.2019
129 Clear 31 1012 52 10000 3.6 300 17:20 15.10.2019
130 Clear 31 1012 52 10000 3.6 300 16:56 15.10.2019
131 Clear 31 1012 52 10000 3.6 300 16:37 15.10.2019
132 Clear 31 1012 52 10000 4.1 310 16:19 15.10.2019
133 Clear 31 1012 48 10000 3.6 290 15:42 15.10.2019
134 Clear 31 1012 52 10000 5.1 320 15:21 15.10.2019
135 Clear 31 1012 49 10000 4.6 310 14:58 15.10.2019
136 Clear 31 1013 55 10000 3.1 320 14:38 15.10.2019
137 Clear 31 1013 55 10000 3.1 320 14:20 15.10.2019
138 Clear 31 1013 52 10000 2.6 300 13:56 15.10.2019
139 Clear 31 1013 52 10000 2.6 300 13:37 15.10.2019
140 Clear 31 1014 55 10000 3.1 300 13:19 15.10.2019
141 Clear 31 1014 52 10000 2.6 260 12:43 15.10.2019
142 Clear 31 1015 55 10000 2.1 280 12:21 15.10.2019
143 Clear 30 1015 55 10000 1 330 11:57 15.10.2019
144 Clear 30 1015 55 10000 1 330 11:38 15.10.2019
145 Clear 28 1015 65 10000 2.1 330 11:19 15.10.2019
146 Clear 27 1015 69 10000 1.5 320 10:45 15.10.2019
147 Clear 27 1015 69 10000 2.1 310 10:22 15.10.2019
148 Clear 27 1015 69 10000 1.5 280 09:58 15.10.2019
149 Clear 27 1015 69 10000 1.5 280 09:38 15.10.2019
150 Clear 25 1015 83 6000 1.5 300 09:20 15.10.2019
151 Clear 25 1015 83 6000 1.5 310 08:56 15.10.2019
152 Clear 25 1015 88 6000 2.6 320 08:36 15.10.2019
153 Clear 24 1015 88 6000 2.6 320 08:18 15.10.2019
154 Clear 24 1014 88 6000 2.6 310 07:41 15.10.2019
155 Clear 24 1014 88 6000 1.5 330 07:21 15.10.2019
156 Clear 24 1014 83 10000 1.5 290 06:47 15.10.2019
157 Clear 24 1014 83 10000 1.5 290 06:29 15.10.2019
158 Clear 24 1014 83 10000 2.1 300 05:48 15.10.2019
159 Clouds 24 1014 83 10000 2.6 290 05:29 15.10.2019
160 Clouds 24 1014 83 6000 1.5 360 04:39 15.10.2019
161 Clouds 24 1014 88 6000 2.6 320 03:57 15.10.2019
162 Clouds 25 1014 83 6000 3.1 300 03:27 15.10.2019
163 Clouds 25 1014 78 6000 2.1 290 01:51 15.10.2019
164 Clouds 25 1014 78 6000 1.5 20 01:23 15.10.2019
165 Clouds 25 1015 78 6000 1.5 20 00:52 15.10.2019
166 Clouds 25 1015 78 6000 2.1 20 00:23 15.10.2019
167 Clouds 25 1015 73 6000 2.1 30 23:46 14.10.2019
168 Clouds 26 1015 69 6000 2.6 30 23:21 14.10.2019
169 Clouds 26 1015 65 6000 2.6 10 22:59 14.10.2019
170 Clouds 26 1015 65 6000 2.6 10 22:39 14.10.2019
171 Clouds 27 1015 61 6000 1.5 10 22:19 14.10.2019
172 Clouds 27 1015 61 6000 1.5 10 22:19 14.10.2019
173 Clouds 27 1015 61 6000 1.5 10 22:19 14.10.2019
174 Clouds 27 1015 61 6000 2.1 360 21:56 14.10.2019
175 Clouds 27 1015 61 6000 2.1 360 21:38 14.10.2019
176 Clouds 28 1015 54 6000 3.1 350 21:20 14.10.2019
177 Clouds 28 1015 54 6000 3.6 350 20:55 14.10.2019
178 Clouds 29 1015 54 6000 3.6 350 20:37 14.10.2019
179 Clouds 29 1014 51 6000 4.1 340 20:18 14.10.2019
180 Clear 29 1014 51 6000 4.1 350 19:43 14.10.2019
181 -273 0 0 0 0 0 19:24 14.10.2019
182 Clear 30 1014 45 6000 3.1 340 19:24 14.10.2019
183 Clouds 31 1013 40 6000 3.1 340 18:59 14.10.2019
184 Clouds 31 1013 40 6000 3.1 340 18:39 14.10.2019
185 Clear 32 1013 35 10000 2.6 350 18:20 14.10.2019
186 Clear 32 1013 35 10000 2.6 350 18:20 14.10.2019
187 Clear 32 1013 35 10000 2.6 350 18:20 14.10.2019
188 Clear 32 1013 33 10000 3.1 350 17:58 14.10.2019
189 -273 0 0 0 0 0 17:40 14.10.2019
190 Clouds 33 1013 33 10000 3.6 340 17:21 14.10.2019
191 Clouds 33 1013 33 10000 3.6 340 17:21 14.10.2019
192 Clouds 33 1013 33 10000 3.1 340 16:44 14.10.2019
193 Clouds 33 1013 33 10000 3.1 340 16:22 14.10.2019
194 Clouds 33 1013 33 10000 3.1 340 15:57 14.10.2019
195 Clouds 33 1013 36 10000 4.1 340 15:38 14.10.2019
196 Clouds 33 1013 36 10000 4.1 340 15:20 14.10.2019
197 Clouds 32 1014 35 10000 3.1 330 14:43 14.10.2019
198 Clouds 32 1014 35 10000 3.1 330 14:24 14.10.2019
199 Clouds 32 1013 38 10000 2.6 350 13:56 14.10.2019
200 Clouds 32 1014 38 10000 4.6 10 13:37 14.10.2019
201 Clouds 32 1014 38 10000 4.6 10 13:18 14.10.2019
202 Clear 30 1015 48 6000 2.1 330 12:40 14.10.2019
203 Clear 30 1015 48 6000 2.1 330 12:19 14.10.2019
204 Clear 28 1016 58 6000 2.6 20 11:46 14.10.2019
205 Clear 28 1016 58 6000 2.6 20 11:27 14.10.2019
206 Haze 28 1016 61 4000 1.5 40 10:58 14.10.2019
207 Haze 27 1016 65 4000 1.5 40 10:39 14.10.2019
208 Haze 27 1016 65 4000 1.5 40 10:20 14.10.2019
209 Haze 27 1016 65 4000 3.1 350 09:56 14.10.2019
210 Haze 27 1016 65 4000 3.1 350 09:55 14.10.2019
211 Haze 26 1016 69 4000 3.1 30 09:36 14.10.2019
212 Mist 25 1016 83 2000 2.6 350 09:18 14.10.2019
213 Mist 25 1016 88 2000 2.6 10 08:44 14.10.2019
214 Mist 24 1016 88 2000 2.6 10 08:22 14.10.2019
215 Mist 24 1015 88 2000 2.6 10 07:42 14.10.2019
216 Mist 24 1015 88 2000 2.6 10 07:19 14.10.2019
217 Mist 24 1015 88 2000 2.6 10 06:53 14.10.2019
218 Mist 23 1015 94 2000 2.1 360 06:26 14.10.2019
219 Mist 24 1015 88 2000 1.5 360 05:49 14.10.2019
220 Mist 24 1015 83 2000 2.6 350 04:48 14.10.2019
221 Mist 24 1015 88 2000 2.1 340 03:28 14.10.2019
222 Mist 24 1015 83 2000 2.1 350 02:49 14.10.2019
223 Clear 24 1016 88 6000 2.1 10 01:24 14.10.2019
224 Clear 25 1016 83 10000 2.1 10 00:59 14.10.2019
225 Clear 25 1016 78 10000 1.5 50 00:21 14.10.2019
226 Clear 25 1016 78 10000 1.5 50 00:21 14.10.2019
227 Clear 25 1016 78 10000 3.6 20 23:45 13.10.2019
228 Clear 25 1016 78 10000 3.6 20 23:21 13.10.2019
229 Clear 25 1016 74 10000 3.6 10 22:59 13.10.2019
230 Clear 26 1016 69 10000 4.6 10 22:41 13.10.2019
231 Clear 26 1016 69 10000 4.6 10 22:21 13.10.2019
232 Clear 27 1016 57 10000 5.1 20 21:58 13.10.2019
233 Clear 28 1016 48 10000 3.1 30 21:38 13.10.2019
234 Clear 28 1016 48 10000 3.1 30 21:19 13.10.2019
235 Clear 28 1016 45 10000 4.1 20 20:58 13.10.2019
236 Clear 28 1016 45 10000 4.1 20 20:58 13.10.2019
237 Clear 28 1016 42 10000 4.1 30 20:39 13.10.2019
238 Clear 29 1016 42 10000 4.1 30 20:39 13.10.2019
239 Clear 29 1016 42 10000 4.1 30 20:21 13.10.2019
240 Clear 29 1015 42 10000 4.1 30 19:59 13.10.2019
241 Clear 30 1015 40 10000 4.6 20 19:39 13.10.2019
242 Clear 30 1015 40 10000 4.6 20 19:39 13.10.2019
243 Clear 30 1015 40 10000 4.6 20 19:21 13.10.2019
244 Clear 30 1015 42 10000 5.1 10 18:58 13.10.2019
245 Clear 31 1014 40 10000 5.1 10 18:37 13.10.2019
246 Clear 31 1014 38 10000 5.1 360 18:19 13.10.2019
247 Clear 31 1014 38 10000 5.1 360 18:19 13.10.2019
248 Clear 32 1014 38 10000 5.1 360 17:58 13.10.2019
249 Clear 32 1014 38 10000 5.1 360 17:39 13.10.2019
250 Clear 32 1014 38 10000 5.1 360 17:21 13.10.2019
251 Clouds 33 1014 33 10000 5.1 10 16:43 13.10.2019
252 Clouds 33 1014 33 10000 5.1 10 16:19 13.10.2019
253 Clouds 33 1013 38 10000 6.2 350 15:57 13.10.2019
254 Clouds 33 1013 38 10000 6.2 350 15:57 13.10.2019
255 Clouds 33 1013 38 10000 6.2 350 15:57 13.10.2019
256 Clouds 33 1013 38 10000 6.2 350 15:38 13.10.2019
257 Clouds 33 1013 38 10000 6.2 350 15:19 13.10.2019
258 Clouds 33 1014 43 10000 5.1 350 14:57 13.10.2019
259 Clouds 33 1014 43 10000 5.1 350 14:38 13.10.2019
260 Clouds 32 1014 43 6000 4.6 20 14:19 13.10.2019
261 Clouds 32 1014 43 6000 4.6 20 13:42 13.10.2019
262 Clouds 32 1014 43 6000 4.6 20 13:23 13.10.2019
263 Clouds 30 1015 51 6000 4.6 10 12:59 13.10.2019
264 Clouds 30 1015 51 6000 4.6 10 12:39 13.10.2019
265 Clouds 30 1015 51 6000 4.6 10 12:21 13.10.2019
266 Clouds 30 1015 62 6000 4.1 360 11:59 13.10.2019
267 Clouds 28 1015 65 6000 4.1 350 11:39 13.10.2019
268 Clouds 28 1015 65 6000 4.1 350 11:21 13.10.2019
269 Clouds 28 1015 65 6000 4.1 350 10:59 13.10.2019
270 Clouds 28 1016 65 6000 3.6 350 10:40 13.10.2019
271 Clouds 28 1016 65 6000 3.6 350 10:22 13.10.2019
272 Mist 26 1016 74 4000 3.6 20 09:39 13.10.2019
273 Mist 26 1016 74 4000 3.6 20 09:21 13.10.2019
274 Mist 26 1016 74 4000 4.6 40 08:55 13.10.2019
275 Mist 25 1015 78 4000 4.6 30 08:27 13.10.2019
276 Mist 24 1015 88 2000 3.6 40 07:56 13.10.2019
277 Mist 23 1015 94 2000 3.1 30 07:38 13.10.2019
278 Mist 23 1015 94 2000 3.1 30 06:54 13.10.2019
279 Mist 24 1015 88 2000 3.6 40 06:26 13.10.2019
280 Mist 24 1015 88 2000 3.6 30 05:29 13.10.2019
281 Mist 24 1014 88 3000 2.6 40 04:38 13.10.2019
282 Mist 24 1014 88 4000 2.6 20 03:37 13.10.2019
283 Clear 24 1015 88 6000 3.1 40 02:32 13.10.2019
284 Clear 24 1015 88 10000 2.6 40 01:47 13.10.2019
285 Clear 25 1015 83 10000 2.1 60 01:21 13.10.2019
286 Clear 25 1015 83 10000 2.1 60 01:21 13.10.2019
287 Clear 25 1015 78 10000 2.1 30 00:43 13.10.2019
288 Clear 25 1015 78 10000 2.1 30 00:20 13.10.2019
289 Clear 25 1015 78 10000 3.6 40 23:54 12.10.2019
290 Clear 25 1015 78 10000 3.6 40 23:54 12.10.2019
291 Clear 25 1015 78 10000 3.6 40 23:36 12.10.2019
292 Clear 25 1015 78 10000 3.6 40 23:36 12.10.2019
293 Clear 25 1015 78 10000 3.6 40 23:18 12.10.2019
294 Clear 26 1015 74 10000 4.6 40 22:54 12.10.2019
295 Clear 26 1015 74 10000 4.6 50 22:36 12.10.2019
296 Clear 26 1015 74 10000 4.6 50 22:18 12.10.2019
297 Clear 27 1015 65 10000 4.1 40 21:41 12.10.2019
298 Clear 27 1015 65 10000 4.1 40 21:23 12.10.2019
299 Clear 28 1015 61 10000 5.1 40 20:56 12.10.2019
300 Clear 28 1015 61 10000 5.1 40 20:38 12.10.2019
301 Clear 28 1015 61 10000 5.1 40 20:38 12.10.2019
302 Clear 28 1015 61 10000 5.1 40 20:20 12.10.2019
303 Clear 31 1014 40 10000 4.6 20 19:37 12.10.2019
304 Clear 32 1014 40 10000 4.6 20 19:19 12.10.2019
305 Clear 32 1014 35 10000 5.1 20 18:46 12.10.2019
306 Clear 32 1014 35 10000 5.1 20 18:27 12.10.2019
307 Clear 32 1014 35 10000 5.1 20 17:58 12.10.2019
308 Clear 33 1014 31 10000 6.2 20 17:40 12.10.2019
309 Clear 33 1013 31 10000 6.7 10 17:18 12.10.2019
310 Clear 33 1014 33 10000 5.1 20 16:41 12.10.2019
311 Clear 33 1014 33 10000 5.1 20 16:41 12.10.2019
312 Clear 33 1014 33 10000 5.1 20 16:21 12.10.2019
313 Clear 33 1013 33 10000 5.7 20 15:59 12.10.2019
314 Clear 33 1014 33 10000 5.7 10 15:39 12.10.2019
315 Clear 33 1014 33 10000 5.7 10 15:21 12.10.2019
316 Clear 33 1014 33 10000 5.7 10 15:21 12.10.2019
317 Clear 33 1014 36 10000 5.1 20 14:41 12.10.2019
318 Clear 33 1014 36 10000 5.1 20 14:21 12.10.2019
319 Clear 33 1014 36 10000 5.1 20 14:21 12.10.2019
320 Clear 33 1014 31 10000 5.1 10 13:53 12.10.2019
321 Clear 33 1014 31 10000 5.1 10 13:53 12.10.2019
322 Clear 33 1014 33 10000 5.1 360 13:33 12.10.2019
323 Clear 32 1014 35 10000 4.6 360 12:59 12.10.2019
324 Clear 32 1014 35 10000 4.6 360 12:59 12.10.2019
325 Clear 31 1015 38 10000 4.6 20 12:38 12.10.2019
326 Clear 31 1015 38 10000 4.6 20 12:20 12.10.2019
327 Clear 30 1015 42 10000 3.6 30 11:56 12.10.2019
328 Clear 30 1015 42 10000 3.6 30 11:38 12.10.2019
329 Clear 30 1015 42 10000 3.6 30 11:38 12.10.2019
330 Clear 30 1016 45 6000 4.1 40 11:18 12.10.2019
331 Clear 28 1016 54 6000 3.6 60 10:41 12.10.2019
332 Clear 28 1016 54 6000 3.6 60 10:23 12.10.2019
333 Clear 27 1016 65 6000 3.6 70 09:57 12.10.2019
334 Clear 27 1016 65 6000 3.6 70 09:57 12.10.2019
335 Clear 25 1016 73 6000 4.6 70 09:39 12.10.2019
336 Clear 25 1016 73 6000 4.6 70 09:20 12.10.2019
337 -273 0 0 0 0 0 08:56 12.10.2019
338 Clear 24 1015 83 6000 4.1 70 08:55 12.10.2019
339 Mist 23 1015 88 4000 4.1 70 08:36 12.10.2019
340 Mist 23 1015 88 4000 4.1 70 08:18 12.10.2019
341 Mist 22 1015 88 4000 2.6 60 07:33 12.10.2019
342 Mist 22 1015 88 4000 2.6 60 06:50 12.10.2019
343 Mist 22 1015 88 4000 2.1 70 05:46 12.10.2019
344 Clouds 22 1015 88 6000 2.1 70 04:52 12.10.2019
345 Clouds 23 1015 83 6000 2.6 50 03:58 12.10.2019
346 Clouds 23 1015 83 10000 3.1 30 02:57 12.10.2019
347 Clouds 24 1015 78 10000 3.6 20 01:36 12.10.2019
348 Clouds 24 1015 78 10000 3.6 20 01:36 12.10.2019
349 Clouds 24 1015 78 10000 5.7 30 00:59 12.10.2019
350 Clouds 24 1015 78 10000 5.7 30 00:39 12.10.2019
351 Clouds 24 1015 78 10000 4.6 30 23:57 11.10.2019
352 Clouds 24 1016 78 10000 5.1 40 23:39 11.10.2019
353 Clouds 24 1016 78 10000 5.1 40 23:20 11.10.2019
354 Clouds 24 1016 78 10000 5.1 40 23:20 11.10.2019
355 Clear 24 1016 78 10000 5.1 30 22:40 11.10.2019
356 Clear 24 1016 78 10000 5.1 30 22:21 11.10.2019
357 Clear 25 1015 73 10000 5.1 30 21:56 11.10.2019
358 Clear 25 1015 73 10000 6.2 40 21:38 11.10.2019
359 Clear 25 1015 73 10000 6.2 40 21:20 11.10.2019
360 Clear 26 1015 65 10000 6.7 40 20:44 11.10.2019
361 Clear 26 1015 65 10000 6.7 40 20:26 11.10.2019
362 Clear 27 1015 57 10000 6.2 40 19:57 11.10.2019
363 Clear 28 1014 51 10000 6.2 30 19:38 11.10.2019
364 Clear 28 1014 45 10000 6.7 30 19:18 11.10.2019
365 Clear 29 1014 45 10000 6.7 30 18:58 11.10.2019
366 Clear 29 1014 45 10000 6.7 30 18:58 11.10.2019
367 Clear 31 1013 38 10000 5.7 10 18:38 11.10.2019
368 Clear 31 1013 38 10000 5.7 10 18:19 11.10.2019
369 Clear 31 1013 38 10000 5.7 10 17:58 11.10.2019
370 Clear 31 1013 38 0 5.36 10 17:37 11.10.2019
371 Clouds 32 1013 35 10000 5.1 20 17:19 11.10.2019
372 Clouds 32 1013 35 10000 5.1 20 16:56 11.10.2019
373 Clouds 32 1013 35 10000 5.1 20 16:37 11.10.2019
374 Clouds 32 1013 33 10000 5.7 360 16:18 11.10.2019
375 Clouds 32 1013 35 10000 5.1 20 16:18 11.10.2019
376 Clouds 32 1013 33 10000 5.7 360 15:41 11.10.2019
377 Clouds 32 1013 33 10000 5.7 360 15:20 11.10.2019
378 Clouds 32 1014 33 10000 4.1 350 14:58 11.10.2019
379 Clouds 32 1014 33 10000 4.1 350 14:37 11.10.2019
380 Clouds 32 1014 33 10000 4.1 350 14:19 11.10.2019
381 Clouds 32 1014 35 10000 4.1 20 13:43 11.10.2019
382 Clouds 32 1014 35 10000 4.1 20 13:24 11.10.2019
383 Clouds 30 1015 42 10000 2.6 40 12:56 11.10.2019
384 Clouds 30 1015 42 10000 2.6 40 12:38 11.10.2019
385 Clouds 30 1015 42 10000 2.6 40 12:20 11.10.2019
386 Clouds 30 1015 42 10000 2.6 40 11:55 11.10.2019
387 Clouds 30 1015 42 10000 2.6 40 11:55 11.10.2019
388 Clouds 30 1015 42 10000 2.6 40 11:55 11.10.2019
389 Clouds 29 1015 45 10000 3.6 20 11:36 11.10.2019
390 Clouds 29 1015 45 10000 3.6 20 11:18 11.10.2019
391 Clouds 28 1016 54 10000 3.6 30 10:41 11.10.2019
392 Clouds 28 1016 54 10000 3.6 30 10:23 11.10.2019
393 Clouds 27 1016 57 10000 3.6 40 09:59 11.10.2019
394 Clouds 26 1016 65 10000 5.1 50 09:40 11.10.2019
395 Clouds 25 1016 69 10000 4.6 40 09:20 11.10.2019
396 Clouds 25 1016 69 10000 4.6 40 08:56 11.10.2019
397 Clouds 25 1016 78 10000 3.6 50 08:37 11.10.2019
398 Clouds 24 1016 78 10000 3.6 50 08:19 11.10.2019
399 Clouds 21 1015 88 6000 3.1 60 07:45 11.10.2019
400 Clouds 21 1015 88 6000 3.1 60 07:27 11.10.2019
401 Clouds 21 1015 88 6000 2.1 50 06:49 11.10.2019
402 Clouds 21 1015 88 6000 2.6 80 06:24 11.10.2019
403 Clouds 21 1015 83 6000 2.1 40 05:41 11.10.2019
404 Clouds 22 1015 83 6000 2.1 40 05:23 11.10.2019
405 Clouds 22 1015 83 6000 1.5 70 04:38 11.10.2019
406 Clear 22 1016 78 10000 3.6 360 02:47 11.10.2019
407 Clear 24 1016 73 10000 4.1 20 00:52 11.10.2019
408 Clear 24 1016 73 10000 5.1 40 00:30 11.10.2019
409 Clear 24 1016 73 10000 4.1 30 23:50 10.10.2019
410 Clear 24 1016 73 10000 6.2 40 23:24 10.10.2019
411 Clear 24 1016 73 10000 5.1 30 22:59 10.10.2019
412 Clear 25 1016 69 10000 5.7 20 22:40 10.10.2019
413 Clear 25 1016 69 10000 5.7 20 22:21 10.10.2019
414 Clear 25 1016 69 10000 5.7 20 22:21 10.10.2019
415 Clear 25 1016 65 10000 5.1 20 21:59 10.10.2019
416 Clear 25 1016 69 10000 5.1 20 21:40 10.10.2019
417 Clear 25 1016 69 10000 5.1 20 21:22 10.10.2019
418 Clear 25 1016 65 10000 5.7 20 20:57 10.10.2019
419 Clear 25 1016 61 10000 5.7 20 20:39 10.10.2019
420 Clear 26 1016 61 10000 6.2 30 20:19 10.10.2019
421 Clear 26 1016 61 10000 5.7 20 20:19 10.10.2019
422 Clear 26 1016 61 10000 6.2 30 19:55 10.10.2019
423 Clear 27 1016 54 10000 5.1 360 19:37 10.10.2019
424 Clear 27 1016 54 10000 5.1 360 19:19 10.10.2019
425 Clear 27 1015 48 10000 5.7 20 18:42 10.10.2019
426 Clear 28 1015 48 10000 5.7 20 18:20 10.10.2019
427 Clear 29 1014 45 10000 6.7 30 17:57 10.10.2019
428 Clear 29 1014 42 10000 5.7 30 17:37 10.10.2019
429 Clear 30 1014 42 10000 5.7 30 17:18 10.10.2019
430 Clear 30 1014 42 10000 5.7 30 17:18 10.10.2019
431 Clear 30 1014 40 10000 6.2 30 16:55 10.10.2019
432 Clear 30 1014 40 10000 6.7 20 16:37 10.10.2019
433 Clear 30 1014 40 10000 6.7 20 16:18 10.10.2019
434 Clear 31 1014 40 10000 6.2 40 15:39 10.10.2019
435 Clear 31 1014 40 10000 6.2 40 15:21 10.10.2019
436 Clear 31 1014 35 10000 5.7 30 14:56 10.10.2019
437 Clear 31 1014 33 10000 5.1 10 14:37 10.10.2019
438 Clear 32 1014 33 10000 5.1 10 14:19 10.10.2019
439 Clear 31 1014 38 10000 5.1 30 13:55 10.10.2019
440 Clear 31 1015 38 10000 5.7 20 13:37 10.10.2019
441 Clear 31 1015 38 10000 5.7 20 13:18 10.10.2019
442 Clear 31 1015 43 10000 5.7 30 12:42 10.10.2019
443 Clear 31 1015 43 10000 5.7 30 12:20 10.10.2019
444 Clear 29 1016 48 10000 6.2 40 11:58 10.10.2019
445 Clear 29 1016 48 10000 6.2 40 11:39 10.10.2019
446 Clear 29 1016 48 10000 6.2 40 11:19 10.10.2019
447 Clear 28 1017 54 10000 6.2 30 10:46 10.10.2019
448 Clear 28 1017 54 10000 6.2 30 10:27 10.10.2019
449 Clear 26 1017 65 10000 5.1 60 09:59 10.10.2019
450 Clear 26 1017 65 10000 5.1 60 09:41 10.10.2019
451 Clear 26 1017 65 10000 5.1 60 09:23 10.10.2019
452 Clear 24 1017 73 10000 3.6 50 08:59 10.10.2019
453 Clear 24 1017 73 10000 3.6 50 08:39 10.10.2019
454 Clear 24 1017 73 10000 3.6 50 08:19 10.10.2019
455 Clouds 23 1016 78 10000 4.6 40 07:47 10.10.2019
456 Clouds 23 1016 78 10000 4.6 40 07:25 10.10.2019
457 Clouds 22 1016 83 10000 3.1 40 06:55 10.10.2019
458 Clouds 22 1016 83 10000 3.1 40 06:36 10.10.2019
459 Clouds 22 1016 83 10000 2.6 60 05:39 10.10.2019
460 Clouds 22 1016 83 10000 2.6 60 05:18 10.10.2019
461 Clear 23 1016 78 10000 2.6 50 04:34 10.10.2019
462 Clear 23 1016 78 10000 2.6 50 02:29 10.10.2019
463 Clear 24 1017 73 10000 3.6 50 01:37 10.10.2019
464 Clear 24 1017 73 10000 3.6 50 01:37 10.10.2019
465 Clear 24 1017 73 10000 3.6 50 01:18 10.10.2019
466 Clear 24 1017 73 10000 4.1 40 00:33 10.10.2019
467 Clear 24 1018 69 10000 4.6 30 23:42 09.10.2019
468 Clear 25 1018 69 10000 4.6 30 23:24 09.10.2019
469 Clear 25 1018 69 10000 4.6 30 23:24 09.10.2019
470 Clear 25 1018 69 10000 4.6 40 22:59 09.10.2019
471 Clear 25 1018 69 10000 5.7 30 22:41 09.10.2019
472 Clear 25 1018 69 10000 5.7 30 22:22 09.10.2019
473 Clear 25 1018 69 10000 5.1 30 21:57 09.10.2019
474 Clear 25 1018 69 10000 5.1 30 21:38 09.10.2019
475 Clear 25 1018 69 10000 5.1 30 21:19 09.10.2019
476 Clear 26 1018 61 10000 5.1 40 20:55 09.10.2019
477 Clear 26 1018 61 10000 5.1 40 20:37 09.10.2019
478 Clear 26 1018 61 10000 6.2 40 20:18 09.10.2019
479 Clear 26 1018 61 10000 5.1 40 20:18 09.10.2019
480 Clear 26 1017 54 10000 6.7 40 19:44 09.10.2019
481 Clear 27 1017 54 10000 6.7 40 19:23 09.10.2019
482 Clear 28 1017 51 10000 6.7 20 18:56 09.10.2019
483 Clear 30 1016 45 10000 6.2 20 18:37 09.10.2019
484 Clear 30 1016 38 10000 4.6 30 18:18 09.10.2019
485 Clear 31 1016 38 10000 4.6 30 17:54 09.10.2019
486 Clear 31 1016 35 10000 5.1 360 17:36 09.10.2019
487 Clear 31 1016 31 10000 5.1 10 17:18 09.10.2019
488 Clear 32 1016 33 10000 5.1 10 16:40 09.10.2019
489 Clear 32 1016 33 10000 5.1 10 16:21 09.10.2019
490 Clear 32 1016 33 10000 5.1 10 16:21 09.10.2019
491 Clear 33 1016 29 10000 6.7 350 15:57 09.10.2019
492 Clear 33 1016 29 10000 6.7 350 15:57 09.10.2019
493 Clear 33 1016 29 10000 4.6 10 15:39 09.10.2019
494 Clear 33 1016 29 10000 4.6 10 15:19 09.10.2019
495 Clear 33 1016 29 10000 4.6 10 14:56 09.10.2019
496 Clear 33 1016 29 10000 5.1 20 14:37 09.10.2019
497 Clear 33 1016 29 10000 5.1 20 14:18 09.10.2019
498 Clear 33 1016 33 10000 6.19 7.803 13:39 09.10.2019
499 Clear 33 1016 33 10000 6.19 7.803 13:39 09.10.2019
500 Clear 33 1016 33 10000 6.04 11.146 13:20 09.10.2019
501 Clear 31 1017 38 10000 4.6 40 12:57 09.10.2019
502 Clear 31 1017 38 10000 4.6 40 12:38 09.10.2019
503 Clear 31 1017 38 10000 4.6 40 12:20 09.10.2019
504 Clear 31 1017 40 10000 4.1 50 11:55 09.10.2019
505 Clear 31 1017 40 10000 4.1 50 11:55 09.10.2019
506 Clear 30 1017 42 10000 5.1 40 11:36 09.10.2019
507 Clear 30 1017 42 10000 5.1 40 11:18 09.10.2019
508 Clear 28 1018 54 10000 5.1 60 10:43 09.10.2019
509 Clear 28 1018 54 10000 5.1 60 10:21 09.10.2019
510 Clear 28 1018 54 10000 5.7 50 09:57 09.10.2019
511 Clear 27 1018 57 10000 6.7 50 09:38 09.10.2019
512 Clear 26 1018 61 10000 6.2 60 09:18 09.10.2019
513 Clear 24 1018 73 10000 6.2 70 08:40 09.10.2019
514 Clear 24 1018 73 10000 6.2 70 08:21 09.10.2019
515 Clear 24 1018 73 10000 4.6 70 07:54 09.10.2019
516 Clear 23 1017 78 10000 4.6 70 07:36 09.10.2019
517 Clear 23 1017 78 10000 4.6 70 07:18 09.10.2019
518 Clear 23 1017 83 10000 4.1 60 06:47 09.10.2019
519 Clear 23 1016 78 10000 3.6 70 05:55 09.10.2019
520 Clear 23 1016 78 10000 3.6 70 05:19 09.10.2019
521 Clear 24 1016 73 10000 3.1 70 03:54 09.10.2019
522 Clear 24 1016 73 10000 4.1 60 02:45 09.10.2019
523 Clear 24 1016 69 10000 4.6 70 01:42 09.10.2019
524 Clear 25 1016 69 10000 4.6 70 01:19 09.10.2019
525 Clear 25 1017 69 10000 5.1 70 00:56 09.10.2019
526 Clear 25 1017 69 10000 5.1 70 00:38 09.10.2019
527 Clear 25 1017 69 10000 5.1 70 00:38 09.10.2019
528 Clear 25 1017 69 10000 5.1 70 00:19 09.10.2019
529 Clear 26 1017 65 10000 5.7 40 23:39 08.10.2019
530 Clear 26 1017 65 10000 5.7 40 23:18 08.10.2019
531 Clear 26 1017 65 10000 5.7 40 22:56 08.10.2019
532 Clear 26 1017 65 10000 5.7 40 22:38 08.10.2019
533 Clear 26 1017 61 10000 5.7 40 22:19 08.10.2019
534 Clear 27 1017 61 10000 5.7 40 21:57 08.10.2019
535 Clear 27 1017 61 10000 5.7 40 21:38 08.10.2019
536 Clear 27 1017 61 10000 5.7 40 21:18 08.10.2019
537 Clear 28 1016 54 10000 5.7 40 20:56 08.10.2019
538 Clear 28 1016 54 10000 5.7 40 20:37 08.10.2019
539 Clear 28 1016 54 10000 5.7 40 20:37 08.10.2019
540 Clear 28 1016 54 10000 5.7 40 20:19 08.10.2019
541 Clear 32 1014 29 10000 4.6 350 19:56 08.10.2019
542 Clear 32 1014 29 10000 4.6 350 19:37 08.10.2019
543 Clear 32 1014 29 10000 4.6 350 19:18 08.10.2019
544 Clouds 24 1015 59 0 7.18 34.805 18:46 08.10.2019
545 Clear 32 1014 29 10000 4.6 350 18:25 08.10.2019
546 Clear 32 1014 29 10000 4.6 350 17:58 08.10.2019
547 Clear 32 1014 29 10000 4.6 350 17:39 08.10.2019
548 Clear 32 1014 29 10000 4.6 350 17:20 08.10.2019
549 Clear 33 1013 29 10000 4.1 330 16:56 08.10.2019
550 Clear 33 1013 29 10000 4.1 330 16:56 08.10.2019
551 Clear 33 1013 29 10000 4.1 330 16:37 08.10.2019
552 Clear 33 1013 29 10000 2.1 350 16:19 08.10.2019
553 Clear 33 1013 29 10000 2.1 350 15:40 08.10.2019
554 Clear 33 1013 29 10000 2.1 350 15:21 08.10.2019
555 Clear 33 1013 29 10000 3.1 310 14:57 08.10.2019
556 Clear 33 1013 29 10000 3.1 310 14:38 08.10.2019
557 Clear 33 1013 29 10000 3.1 310 14:20 08.10.2019
558 Clear 33 1013 26 10000 3.6 10 13:55 08.10.2019
559 Clear 33 1013 26 10000 3.6 10 13:37 08.10.2019
560 Clear 33 1013 26 10000 3.6 10 13:18 08.10.2019
561 Clear 33 1013 27 10000 1.5 340 12:42 08.10.2019
562 Clear 33 1013 27 10000 1.5 340 12:21 08.10.2019
563 Clear 32 1014 29 10000 1.5 340 11:59 08.10.2019
564 Clear 32 1014 27 10000 2.6 10 11:40 08.10.2019
565 Clear 32 1014 27 10000 2.6 10 11:21 08.10.2019
566 Clear 31 1014 29 10000 1.5 30 10:55 08.10.2019
567 Clear 30 1014 30 10000 2.6 30 10:36 08.10.2019
568 Clear 30 1014 30 10000 2.6 60 10:18 08.10.2019
569 Clear 30 1014 37 10000 2.1 50 09:41 08.10.2019
570 Clear 29 1014 37 10000 2.1 50 09:41 08.10.2019
571 Clear 29 1014 37 10000 2.1 50 09:23 08.10.2019
572 Clear 27 1014 51 10000 2.1 60 08:57 08.10.2019
573 Clear 26 1014 57 10000 2.1 60 08:39 08.10.2019
574 Clear 25 1014 57 10000 2.1 60 08:21 08.10.2019
575 Clear 24 1013 60 10000 1.5 60 07:41 08.10.2019
576 Clear 24 1013 60 10000 1.5 60 07:20 08.10.2019
577 Clear 24 1013 60 10000 1.5 60 07:20 08.10.2019
578 Clouds 24 1013 60 10000 1.5 50 06:47 08.10.2019
579 Clouds 23 1013 69 10000 1.5 60 06:26 08.10.2019
580 Clear 23 1012 73 10000 2.1 60 05:45 08.10.2019
581 Clear 23 1012 73 10000 2.1 60 05:24 08.10.2019
582 Clouds 24 1012 73 6000 2.1 80 03:32 08.10.2019
583 Clouds 24 1012 73 6000 4.1 80 02:48 08.10.2019
584 Clouds 24 1012 73 6000 4.6 90 02:29 08.10.2019
585 Clouds 24 1012 73 6000 4.6 80 01:43 08.10.2019
586 Clouds 24 1012 73 6000 4.6 80 01:25 08.10.2019
587 Clouds 25 1013 69 6000 3.1 80 00:45 08.10.2019
588 Clouds 25 1013 69 6000 3.1 80 00:20 08.10.2019
589 Clouds 25 1013 65 6000 4.1 70 23:39 07.10.2019
590 Clouds 25 1013 65 6000 4.1 70 23:19 07.10.2019
591 Clouds 26 1013 61 6000 4.1 60 22:56 07.10.2019
592 Clouds 26 1013 61 6000 4.6 60 22:37 07.10.2019
593 Haze 26 1013 57 4000 4.1 60 22:19 07.10.2019
594 Haze 26 1013 57 4000 4.1 60 21:55 07.10.2019
595 Haze 28 1013 42 4000 1.5 10 21:37 07.10.2019
596 Clear 28 1012 42 6000 1 10 21:18 07.10.2019
597 Clouds 28 1012 42 6000 1 10 20:57 07.10.2019
598 Clouds 28 1012 39 6000 1.5 350 20:38 07.10.2019
599 Clouds 28 1012 39 6000 1.5 350 20:19 07.10.2019
600 Clouds 29 1012 39 6000 2.1 340 19:56 07.10.2019
601 Clouds 29 1012 37 6000 2.1 330 19:38 07.10.2019
602 Clouds 29 1012 37 6000 2.1 330 19:38 07.10.2019
603 Clouds 29 1012 37 6000 2.1 330 19:18 07.10.2019
604 Clear 29 1012 35 10000 2.6 310 18:55 07.10.2019
605 Clear 29 1011 37 10000 2.1 310 18:37 07.10.2019
606 Clear 29 1011 35 10000 3.1 300 18:18 07.10.2019
607 Clear 30 1011 33 10000 2.6 290 17:41 07.10.2019
608 Clear 30 1011 33 10000 2.6 290 17:19 07.10.2019
609 Clear 30 1011 35 10000 2.6 270 16:55 07.10.2019
610 Clear 30 1011 33 10000 2.1 270 16:37 07.10.2019
611 Clear 30 1011 33 10000 2.1 270 16:19 07.10.2019
612 Clear 31 1011 33 10000 3.6 320 15:42 07.10.2019
613 Clear 31 1011 33 10000 3.6 320 15:24 07.10.2019
614 Clouds 30 1011 35 10000 2.6 340 14:42 07.10.2019
615 Clouds 30 1011 35 10000 2.6 340 14:23 07.10.2019
616 Clouds 30 1011 33 10000 1.5 300 13:59 07.10.2019
617 Clouds 30 1011 35 10000 3.1 320 13:40 07.10.2019
618 Clouds 30 1011 35 10000 3.1 320 13:18 07.10.2019
619 Clouds 30 1012 35 10000 2.1 240 12:55 07.10.2019
620 Clouds 30 1012 35 10000 2.1 240 12:55 07.10.2019
621 Clouds 30 1012 35 10000 2.6 240 12:36 07.10.2019
622 Clouds 30 1012 35 10000 2.1 250 12:18 07.10.2019
623 Clouds 30 1012 35 10000 2.1 250 11:56 07.10.2019
624 Clouds 28 1012 42 10000 2.1 250 11:36 07.10.2019
625 Clouds 28 1013 48 10000 0.5 0 11:18 07.10.2019
626 Clouds 27 1013 54 10000 0.5 0 10:40 07.10.2019
627 Clear 26 1013 57 10000 1.5 320 10:20 07.10.2019
628 Clear 25 1013 65 10000 1 30 09:42 07.10.2019
629 Clear 25 1013 65 10000 1 30 09:23 07.10.2019
630 Clear 25 1013 65 10000 2.1 10 08:56 07.10.2019
631 Clear 24 1012 69 10000 2.1 30 08:37 07.10.2019
632 Clear 24 1012 69 10000 2.6 30 08:18 07.10.2019
633 Clear 23 1012 73 10000 1.5 80 07:41 07.10.2019
634 Clear 23 1012 73 10000 1.5 80 07:21 07.10.2019
635 Clear 23 1012 73 10000 1.5 80 07:21 07.10.2019
636 Clear 22 1012 73 10000 1.5 90 06:48 07.10.2019
637 Clear 22 1012 73 10000 1.5 80 06:27 07.10.2019
638 Clear 23 1012 73 10000 1.5 70 05:47 07.10.2019
639 Clear 23 1012 73 10000 1.5 70 05:21 07.10.2019
640 Clear 23 1012 73 10000 1.5 80 04:24 07.10.2019
641 Clear 23 1012 73 10000 1 70 03:44 07.10.2019
642 Clear 23 1012 73 10000 1 70 03:44 07.10.2019
643 Clear 23 1012 73 10000 1 70 03:44 07.10.2019
644 Clear 23 1012 73 10000 1 70 03:20 07.10.2019
645 Clear 23 1012 73 10000 1 70 03:20 07.10.2019
646 Clear 24 1012 69 10000 2.1 50 02:21 07.10.2019
647 Clear 24 1012 69 10000 2.1 50 02:21 07.10.2019
648 Clear 24 1012 69 10000 3.1 50 01:50 07.10.2019
649 Clear 24 1012 69 10000 3.1 50 01:21 07.10.2019
650 Clear 25 1013 65 10000 3.1 60 00:39 07.10.2019
651 Clear 25 1013 65 10000 3.1 60 00:20 07.10.2019
652 Clear 25 1013 65 10000 4.1 360 23:42 06.10.2019
653 Clear 25 1013 65 10000 4.1 360 23:42 06.10.2019
654 Clear 25 1013 65 10000 4.1 360 23:21 06.10.2019
655 Clear 25 1013 65 10000 4.1 10 22:59 06.10.2019
656 Clear 25 1013 65 10000 3.6 360 22:41 06.10.2019
657 Clear 25 1013 65 10000 3.6 360 22:22 06.10.2019
658 Clear 26 1013 61 10000 3.6 360 21:58 06.10.2019
659 Clear 26 1013 61 10000 4.1 350 21:38 06.10.2019
660 Clear 26 1013 61 10000 4.1 350 21:38 06.10.2019
661 Clear 26 1013 57 10000 5.1 360 21:19 06.10.2019
662 Clear 26 1013 57 10000 5.1 360 20:58 06.10.2019
663 Clear 26 1013 54 10000 5.1 10 20:40 06.10.2019
664 Clear 27 1013 54 10000 5.1 10 20:20 06.10.2019
665 Clear 27 1013 54 10000 5.1 10 20:20 06.10.2019
666 Clear 28 1012 51 10000 5.1 10 19:57 06.10.2019
667 Clear 29 1012 48 10000 5.1 360 19:37 06.10.2019
668 Clear 29 1012 48 10000 5.1 360 19:19 06.10.2019
669 Clear 29 1011 48 10000 4.6 350 18:57 06.10.2019
670 Clear 30 1011 45 10000 5.1 360 18:38 06.10.2019
671 Clear 30 1011 45 10000 5.1 360 18:19 06.10.2019
672 Clear 31 1011 43 10000 5.1 350 17:57 06.10.2019
673 Clear 31 1011 45 10000 3.6 340 17:38 06.10.2019
674 Clear 31 1011 43 10000 3.1 350 17:19 06.10.2019
675 Clear 32 1011 43 10000 3.1 350 16:42 06.10.2019
676 Clear 32 1011 43 10000 3.1 350 16:23 06.10.2019
677 Clear 32 1011 43 10000 3.6 340 15:56 06.10.2019
678 Clear 32 1011 43 10000 3.6 340 15:38 06.10.2019
679 Clear 32 1011 43 10000 3.6 340 15:18 06.10.2019
680 Clear 32 1012 40 10000 3.1 360 14:42 06.10.2019
681 -273 0 0 0 0 0 14:24 06.10.2019
682 Clear 32 1012 40 10000 3.6 20 13:58 06.10.2019
683 Clear 31 1012 43 10000 3.6 340 13:39 06.10.2019
684 Clear 31 1012 45 10000 3.6 10 13:20 06.10.2019
685 Clear 31 1012 45 10000 3.6 10 12:57 06.10.2019
686 Clear 31 1012 45 10000 3.6 10 12:57 06.10.2019
687 Clear 31 1012 45 10000 3.6 10 12:57 06.10.2019
688 Clear 31 1013 43 10000 4.1 10 12:38 06.10.2019
689 Clear 31 1013 43 10000 4.1 10 12:20 06.10.2019
690 Clear 30 1014 45 10000 2.6 10 11:56 06.10.2019
691 Clear 30 1014 45 10000 2.6 10 11:37 06.10.2019
692 Clear 29 1013 51 10000 2.6 30 11:18 06.10.2019
693 Clear 28 1013 51 10000 2.6 30 10:43 06.10.2019
694 Clear 28 1013 51 10000 2.6 30 10:25 06.10.2019
695 Clear 26 1013 61 10000 2.6 20 09:58 06.10.2019
696 Clear 26 1013 61 10000 2.6 20 09:39 06.10.2019
697 Clear 26 1013 61 10000 2.6 20 09:18 06.10.2019
698 Clear 24 1013 73 10000 1.5 40 08:43 06.10.2019
699 Clear 24 1013 73 10000 1.5 40 08:20 06.10.2019
700 Clear 22 1013 83 10000 2.1 100 07:44 06.10.2019
701 Clear 22 1012 83 10000 2.1 20 07:19 06.10.2019
702 Clear 22 1012 83 10000 2.1 20 06:20 06.10.2019
703 Clear 23 1012 78 10000 2.1 10 05:34 06.10.2019
704 Clear 24 1012 73 10000 1.5 360 03:42 06.10.2019
705 Clear 24 1012 73 10000 2.1 40 02:42 06.10.2019
706 Clear 24 1012 73 10000 2.1 40 02:21 06.10.2019
707 Clear 24 1012 69 10000 1.5 80 01:44 06.10.2019
708 Clear 24 1012 69 10000 1.5 80 01:26 06.10.2019
709 Clear 24 1012 69 10000 2.1 80 00:52 06.10.2019
710 Clear 25 1012 65 10000 2.6 80 00:26 06.10.2019
711 Clear 26 1013 61 10000 3.1 70 23:45 05.10.2019
712 Clear 26 1013 61 10000 3.1 70 23:22 05.10.2019
713 Clear 26 1013 61 10000 3.1 70 22:58 05.10.2019
714 Clear 26 1013 57 10000 4.1 60 22:40 05.10.2019
715 Clear 26 1013 57 10000 4.1 60 22:20 05.10.2019
716 Clear 26 1013 57 10000 4.1 60 22:20 05.10.2019
717 Clear 26 1013 61 10000 4.1 60 21:57 05.10.2019
718 Clear 27 1013 54 10000 5.1 40 21:38 05.10.2019
719 Clear 27 1013 54 10000 5.1 40 21:18 05.10.2019
720 Clear 28 1013 51 6000 4.6 10 20:56 05.10.2019
721 Clear 28 1013 42 6000 4.6 20 20:37 05.10.2019
722 Clear 28 1013 42 6000 4.6 20 20:37 05.10.2019
723 Clear 29 1012 37 6000 4.6 10 20:18 05.10.2019
724 Clear 31 1011 35 6000 3.6 360 19:38 05.10.2019
725 Clear 31 1011 35 6000 3.6 360 19:19 05.10.2019
726 Clear 32 1011 31 10000 4.6 10 18:56 05.10.2019
727 Clear 32 1011 31 10000 4.6 20 18:38 05.10.2019
728 Clear 32 1010 27 10000 4.6 360 18:20 05.10.2019
729 Clear 33 1010 27 10000 4.6 360 17:46 05.10.2019
730 Clear 33 1010 26 10000 4.6 350 17:27 05.10.2019
731 Clear 34 1010 23 10000 5.1 340 16:59 05.10.2019
732 Clear 34 1010 21 10000 4.6 360 16:41 05.10.2019
733 Clear 34 1010 21 10000 4.6 360 16:21 05.10.2019
734 Clear 35 1010 21 10000 4.1 10 15:57 05.10.2019
735 Clear 35 1010 19 10000 4.6 360 15:39 05.10.2019
736 Clear 35 1010 19 10000 4.6 360 15:21 05.10.2019
737 Clear 34 1010 17 10000 1.5 360 14:56 05.10.2019
738 Clear 34 1010 17 10000 1.5 360 14:56 05.10.2019
739 Clear 34 1010 17 10000 1.5 360 14:38 05.10.2019
740 Clear 34 1010 17 10000 1.5 360 14:19 05.10.2019
741 Clear 34 1010 17 10000 4.1 360 13:41 05.10.2019
742 Clear 34 1010 17 10000 4.1 360 13:21 05.10.2019
743 Clear 33 1011 19 10000 3.1 20 12:46 05.10.2019
744 Clear 33 1011 19 10000 3.1 20 12:46 05.10.2019
745 Clear 33 1011 19 10000 3.1 20 12:21 05.10.2019
746 Clear 32 1011 22 10000 2.6 60 11:58 05.10.2019
747 Clear 31 1012 27 10000 2.6 60 11:37 05.10.2019
748 Clear 30 1012 27 10000 3.6 40 11:18 05.10.2019
749 Clear 30 1012 27 10000 3.6 40 10:44 05.10.2019
750 Clear 30 1012 27 10000 3.6 40 10:25 05.10.2019
751 Clear 29 1012 32 10000 3.6 60 09:58 05.10.2019
752 Clear 28 1012 37 10000 3.6 60 09:39 05.10.2019
753 Clear 28 1012 37 10000 3.6 60 09:20 05.10.2019
754 Clear 28 1012 37 10000 3.6 60 09:20 05.10.2019
755 Clear 26 1012 44 10000 2.1 50 08:40 05.10.2019
756 Clear 26 1012 44 10000 2.1 50 08:19 05.10.2019
757 Clear 25 1012 53 10000 2.1 40 07:57 05.10.2019
758 Clear 25 1012 53 10000 2.1 40 07:34 05.10.2019
759 Clear 23 1011 56 10000 2.1 20 06:58 05.10.2019
760 Clear 23 1011 53 10000 1.5 60 06:27 05.10.2019
761 Clear 23 1011 56 10000 2.1 40 05:51 05.10.2019
762 Clear 23 1011 69 10000 2.1 50 03:57 05.10.2019
763 Clear 24 1012 64 10000 2.6 60 03:28 05.10.2019
764 Clear 25 1012 61 10000 1.5 70 01:41 05.10.2019
765 Clear 25 1012 61 10000 1.5 70 01:20 05.10.2019
766 Clear 26 1012 57 10000 2.6 70 00:43 05.10.2019
767 Clear 26 1012 57 10000 2.6 70 00:23 05.10.2019
768 Clear 26 1013 57 10000 3.6 60 23:44 04.10.2019
769 Clear 26 1013 57 10000 3.6 60 23:26 04.10.2019
770 Clear 27 1013 51 10000 3.6 60 22:59 04.10.2019
771 Clear 27 1013 51 10000 4.1 60 22:39 04.10.2019
772 Clear 27 1013 51 10000 4.1 60 22:20 04.10.2019
773 Clear 27 1013 51 10000 3.6 60 21:57 04.10.2019
774 Clear 28 1013 42 10000 6.2 60 21:38 04.10.2019
775 Clear 28 1013 42 10000 6.2 60 21:19 04.10.2019
776 Clear 29 1013 42 10000 5.1 50 20:55 04.10.2019
777 Clear 29 1013 42 10000 5.1 50 20:36 04.10.2019
778 Clear 29 1012 37 10000 6.7 40 20:18 04.10.2019
779 Clear 30 1012 37 10000 6.7 40 19:45 04.10.2019
780 Clear 30 1012 37 10000 6.7 40 19:27 04.10.2019
781 Clear 31 1012 33 10000 7.2 30 18:58 04.10.2019
782 Clear 32 1011 27 10000 5.1 10 18:38 04.10.2019
783 Clear 33 1011 21 10000 4.6 20 18:19 04.10.2019
784 Clear 34 1011 21 10000 4.6 20 17:54 04.10.2019
785 Clear 34 1011 21 10000 4.6 20 17:36 04.10.2019
786 Clear 34 1011 20 10000 3.6 50 17:18 04.10.2019
787 Clear 34 1011 20 10000 3.6 50 16:41 04.10.2019
788 Clear 34 1011 20 10000 3.6 50 16:19 04.10.2019
789 Clear 35 1011 19 10000 4.6 30 15:59 04.10.2019
790 Clear 35 1011 19 10000 4.6 30 15:40 04.10.2019
791 Clear 35 1011 19 10000 4.6 30 15:21 04.10.2019
792 Clear 35 1012 19 10000 4.1 10 14:59 04.10.2019
793 Clear 35 1012 19 10000 4.1 10 14:41 04.10.2019
794 Clear 35 1012 19 10000 4.1 10 14:22 04.10.2019
795 Clear 35 1012 17 10000 2.6 70 13:54 04.10.2019
796 Clear 35 1012 17 10000 2.6 70 13:36 04.10.2019
797 Clear 35 1012 17 10000 2.6 70 13:18 04.10.2019
798 Clear 34 1013 18 10000 2.1 350 12:42 04.10.2019
799 Clear 34 1013 18 10000 2.1 350 12:24 04.10.2019
800 Clear 34 1014 21 10000 3.1 40 11:43 04.10.2019
801 Clear 34 1014 21 10000 3.1 40 11:43 04.10.2019
802 Clear 34 1014 21 10000 3.1 40 11:43 04.10.2019
803 Clear 34 1014 21 10000 3.1 40 11:43 04.10.2019
804 Clear 34 1014 21 10000 3.1 40 11:22 04.10.2019
805 Clear 33 1014 24 10000 4.1 70 10:57 04.10.2019
806 Clear 33 1014 24 10000 4.1 70 10:38 04.10.2019
807 Clear 33 1014 24 10000 4.1 70 10:19 04.10.2019
808 Clear 32 1014 25 10000 5.7 90 09:43 04.10.2019
809 Clear 32 1014 25 10000 5.7 90 09:25 04.10.2019
810 Clear 29 1014 34 10000 2.1 40 08:46 04.10.2019
811 Clear 28 1014 34 10000 2.1 40 08:27 04.10.2019
812 Clear 28 1014 34 10000 2.6 50 07:56 04.10.2019
813 Clear 26 1014 39 10000 2.1 10 07:37 04.10.2019
814 Clear 25 1014 41 10000 2.1 120 07:18 04.10.2019
815 Clear 25 1013 47 10000 2.1 80 06:40 04.10.2019
816 Clear 24 1013 47 10000 2.1 80 06:21 04.10.2019
817 Clear 24 1013 47 10000 1.5 60 05:22 04.10.2019
818 Clear 24 1013 47 10000 1 60 04:53 04.10.2019
819 Clear 25 1013 53 10000 2.1 50 03:32 04.10.2019
820 Clear 25 1013 50 10000 2.1 360 02:45 04.10.2019
821 Clear 27 1013 44 10000 2.6 20 01:54 04.10.2019
822 Clear 27 1013 44 10000 2.6 20 01:27 04.10.2019
823 Clear 27 1013 51 10000 3.1 70 00:44 04.10.2019
824 Clear 27 1014 48 10000 3.1 70 23:41 03.10.2019
825 Clear 28 1014 48 10000 3.1 70 23:22 03.10.2019
826 Clear 28 1014 48 10000 3.1 70 23:22 03.10.2019
827 Clear 28 1014 45 10000 3.1 70 22:58 03.10.2019
828 Clear 28 1014 48 10000 4.1 70 22:40 03.10.2019
829 Clear 28 1014 48 10000 4.1 70 22:21 03.10.2019
830 Clear 28 1014 48 10000 5.1 80 21:59 03.10.2019
831 Clear 29 1014 48 10000 5.7 70 21:40 03.10.2019
832 Clear 29 1014 48 10000 5.7 70 21:21 03.10.2019
833 Clear 29 1014 51 10000 5.7 60 20:58 03.10.2019
834 Clear 29 1013 48 10000 6.2 60 20:40 03.10.2019
835 Clear 30 1013 48 10000 6.2 60 20:22 03.10.2019
836 Clear 31 1013 38 6000 5.7 50 19:59 03.10.2019
837 Clear 32 1013 31 6000 4.1 40 19:40 03.10.2019
838 Clear 32 1013 31 6000 4.1 40 19:20 03.10.2019
839 Clear 32 1013 29 6000 4.1 30 18:57 03.10.2019
840 Clear 32 1013 29 6000 4.1 30 18:57 03.10.2019
841 Clear 33 1012 27 6000 3.6 10 18:38 03.10.2019
842 Clear 33 1012 27 6000 3.6 10 18:38 03.10.2019
843 Clear 33 1012 27 6000 3.6 10 18:19 03.10.2019
844 Clear 33 1012 24 10000 3.1 340 17:43 03.10.2019
845 Clear 34 1012 24 10000 3.1 340 17:23 03.10.2019
846 Clear 33 1014 27 0 1.79 50 16:59 03.10.2019
847 Clear 33 1014 27 0 1.79 50 16:40 03.10.2019
848 Clear 33 1014 27 0 1.79 50 16:22 03.10.2019
849 Clear 33 1014 27 0 1.79 50 15:55 03.10.2019
850 Clear 33 1011 18 0 1.5 30.786 15:37 03.10.2019
851 Clear 33 1014 27 0 1.79 50 15:18 03.10.2019
852 Clear 33 1014 27 0 1.79 50 14:39 03.10.2019
853 Clear 33 1014 27 0 1.79 50 14:20 03.10.2019
854 Clear 33 1014 27 0 1.79 50 13:56 03.10.2019
855 Clear 33 1014 27 0 1.79 50 13:38 03.10.2019
856 Clear 33 1014 27 0 1.79 50 13:19 03.10.2019
857 Clear 33 1014 27 0 1.79 50 12:54 03.10.2019
858 Clear 33 1014 27 10000 2.1 50 12:36 03.10.2019
859 Clear 33 1014 27 10000 2.1 50 12:18 03.10.2019
860 Clear 32 1014 27 0 1.79 40 11:40 03.10.2019
861 Clear 32 1014 27 10000 2.1 40 11:22 03.10.2019
862 Clear 32 1014 27 10000 2.1 40 10:58 03.10.2019
863 Clear 32 1013 26 0 2.14 96.943 10:39 03.10.2019
864 Clear 32 1013 26 0 2.14 96.943 10:39 03.10.2019
865 Clear 32 1013 26 0 2.14 96.943 10:18 03.10.2019
866 Clear 32 1013 26 0 2.14 96.943 10:18 03.10.2019
867 Clear 32 1013 26 0 2.14 96.943 09:56 03.10.2019
868 Clear 32 1013 26 0 2.14 96.943 09:38 03.10.2019
869 Clear 27 1014 47 6000 1.97 51.826 09:19 03.10.2019
870 Clear 24 1014 60 0 2.06 51.658 08:43 03.10.2019
871 Clear 24 1014 60 6000 2.06 51.658 08:25 03.10.2019
872 Clear 24 1014 60 6000 2.06 51.658 07:55 03.10.2019
873 Clear 24 1013 69 0 2.06 51.658 07:37 03.10.2019
874 Clear 24 1013 69 0 2.06 51.658 07:19 03.10.2019
875 Clear 24 1013 69 10000 2.06 51.658 06:27 03.10.2019
876 Clear 24 1013 69 10000 2.22 18.777 05:50 03.10.2019
877 Clear 24 1013 69 10000 2.22 18.777 05:31 03.10.2019
878 Clear 24 1012 69 10000 2.22 18.777 04:47 03.10.2019
879 Clear 24 1012 69 10000 2.22 18.777 04:18 03.10.2019
880 Clear 25 1013 65 10000 2.63 52.982 03:19 03.10.2019
881 Clear 25 1013 65 10000 2.63 52.982 03:19 03.10.2019
882 Clear 25 1013 61 10000 1.5 40 02:27 03.10.2019
883 Clear 25 1013 65 10000 3.1 70 01:41 03.10.2019
884 Clear 25 1013 65 10000 3.1 80 00:53 03.10.2019
885 Clear 26 1014 61 10000 3.6 90 00:32 03.10.2019
886 Clear 26 1014 61 10000 3.6 80 23:58 02.10.2019
887 Clear 26 1014 61 10000 3.1 60 23:38 02.10.2019
888 Clear 26 1014 61 10000 3.1 60 23:19 02.10.2019
889 Clear 27 1014 51 10000 4.1 50 22:43 02.10.2019
890 Clear 27 1014 51 10000 4.1 50 22:21 02.10.2019
891 Clear 28 1014 45 10000 3.6 50 21:56 02.10.2019
892 Clear 28 1014 45 10000 2.6 60 21:38 02.10.2019
893 Clear 28 1014 39 10000 2.1 50 21:19 02.10.2019
894 Clear 28 1014 39 10000 2.1 50 21:19 02.10.2019
895 Clear 29 1014 39 10000 2.1 50 20:55 02.10.2019
896 Clear 29 1014 39 10000 2.6 360 20:37 02.10.2019
897 Clear 30 1014 40 10000 2.1 360 20:19 02.10.2019
898 Clear 30 1013 37 10000 2.1 350 19:45 02.10.2019
899 Clear 30 1013 37 10000 2.1 350 19:45 02.10.2019
900 Clear 30 1013 37 10000 2.1 350 19:23 02.10.2019
901 Clear 30 1013 37 10000 3.1 330 18:59 02.10.2019
902 Clear 31 1013 35 10000 2.6 340 18:40 02.10.2019
903 Clear 31 1013 35 10000 2.6 340 18:21 02.10.2019
904 Clear 31 1012 35 10000 2.6 360 17:58 02.10.2019
905 Clear 31 1012 35 10000 2.6 360 17:40 02.10.2019
906 Clear 31 1012 35 10000 2.6 360 17:21 02.10.2019
907 Clear 32 1012 33 10000 3.6 300 16:57 02.10.2019
908 Clear 32 1012 33 10000 3.6 300 16:38 02.10.2019
909 Clear 32 1012 33 10000 3.6 300 16:20 02.10.2019
910 Clear 32 1012 33 6000 3.6 320 15:55 02.10.2019
911 Clear 32 1012 33 6000 3.6 320 15:37 02.10.2019
912 Clear 32 1012 33 6000 3.6 320 15:18 02.10.2019
913 Clear 32 1013 33 6000 2.6 280 14:43 02.10.2019
914 Clear 32 1013 33 6000 2.6 280 14:23 02.10.2019
915 Clear 32 1013 31 6000 3.1 280 13:57 02.10.2019
916 Clear 32 1013 31 6000 3.1 280 13:39 02.10.2019
917 Clear 32 1013 31 6000 3.1 280 13:20 02.10.2019
918 Clear 30 1013 42 6000 1 100 12:40 02.10.2019
919 Clear 30 1013 42 6000 1 100 12:22 02.10.2019
920 Clear 30 1013 40 10000 1.61 325.787 11:59 02.10.2019
921 Clear 30 1013 42 10000 1 210 11:41 02.10.2019
922 Clear 29 1013 42 10000 1 210 11:20 02.10.2019
923 Clouds 26 1014 61 10000 1.5 40 10:38 02.10.2019
924 Clouds 26 1014 61 10000 1.5 40 10:19 02.10.2019
925 Clouds 26 1014 61 10000 1.5 40 09:41 02.10.2019
926 Clouds 25 1014 65 10000 2.1 80 09:20 02.10.2019
927 Clear 25 1014 69 6000 1.5 80 08:56 02.10.2019
928 Clear 25 1013 73 6000 2.03 356.246 08:38 02.10.2019
929 Clear 24 1013 73 6000 2.03 356.246 08:20 02.10.2019
930 Clear 23 1013 78 6000 1 80 07:43 02.10.2019
931 -273 0 0 0 0 0 07:24 02.10.2019
932 Clear 22 1012 78 6000 1 110 06:58 02.10.2019
933 Clear 22 1012 78 6000 1.5 90 06:27 02.10.2019
934 Clear 22 1012 78 6000 1.8 339.205 05:50 02.10.2019
935 Clear 22 1012 78 6000 1.8 339.205 05:21 02.10.2019
936 Clear 23 1012 78 10000 1.8 339.205 03:53 02.10.2019
937 Clear 23 1012 78 10000 1.8 339.205 03:31 02.10.2019
938 Clear 24 1012 73 10000 1.5 20 02:38 02.10.2019
939 Clear 24 1012 73 10000 1.5 20 02:20 02.10.2019
940 Clear 24 1012 73 10000 2.1 70 00:53 02.10.2019
941 Clear 24 1013 73 10000 2.1 70 00:30 02.10.2019
942 Clear 24 1013 73 10000 3.1 60 23:57 01.10.2019
943 Clear 25 1013 69 10000 3.1 60 23:39 01.10.2019
944 Clear 25 1013 69 10000 3.1 60 23:21 01.10.2019
945 Clear 25 1013 69 10000 4.1 20 22:58 01.10.2019
946 Clear 25 1013 69 10000 4.1 20 22:38 01.10.2019
947 Clear 25 1013 69 10000 4.1 20 22:18 01.10.2019
948 Clear 26 1012 65 6000 4.1 350 21:43 01.10.2019
949 Clear 27 1012 54 6000 4.1 350 21:23 01.10.2019
950 Clear 27 1012 54 6000 4.1 350 21:23 01.10.2019
951 Clear 28 1011 45 10000 2.1 340 20:59 01.10.2019
952 Clear 28 1011 45 10000 2.1 340 20:59 01.10.2019
953 Clear 28 1011 45 10000 2.1 340 20:39 01.10.2019
954 Clear 28 1011 45 10000 2.1 340 20:20 01.10.2019
955 Clear 28 1011 48 10000 2.1 340 19:58 01.10.2019
956 Clear 29 1011 45 10000 3.1 290 19:40 01.10.2019
957 Clear 29 1011 45 10000 3.1 290 19:21 01.10.2019
958 Clear 29 1010 42 10000 3.1 290 18:56 01.10.2019
959 Clear 29 1010 42 10000 3.1 290 18:38 01.10.2019
960 Clear 29 1010 42 10000 3.1 290 18:19 01.10.2019
961 Clear 29 1010 45 10000 3.1 330 17:43 01.10.2019
962 Clear 30 1010 40 10000 3.1 330 17:22 01.10.2019
963 Clear 30 1010 40 10000 3.1 310 16:59 01.10.2019
964 Clear 30 1010 40 10000 3.1 310 16:41 01.10.2019
965 Clear 30 1010 37 10000 2.1 320 16:22 01.10.2019
966 Clear 31 1010 38 10000 2.6 320 15:49 01.10.2019
967 Clear 30 1010 37 10000 2.6 310 15:25 01.10.2019
968 Clear 30 1010 40 10000 2.6 340 14:58 01.10.2019
969 Clear 31 1010 38 10000 1.5 340 14:40 01.10.2019
970 Clear 31 1010 38 10000 1.5 340 14:20 01.10.2019
971 Clouds 30 1011 37 10000 2.6 330 13:56 01.10.2019
972 Clouds 29 1011 45 10000 2.6 340 13:37 01.10.2019
973 Clouds 29 1011 45 10000 2.6 340 13:37 01.10.2019
974 Clouds 29 1011 45 10000 2.6 340 13:18 01.10.2019
975 Clouds 29 1011 45 10000 2.1 10 12:55 01.10.2019
976 Clouds 29 1012 45 10000 2.6 360 12:37 01.10.2019
977 Clouds 29 1012 45 10000 2.6 360 12:18 01.10.2019
978 Clouds 28 1012 48 10000 1.5 20 11:55 01.10.2019
979 Clouds 27 1012 51 10000 2.6 20 11:36 01.10.2019
980 Clouds 27 1012 51 10000 2.6 20 11:18 01.10.2019
981 Clouds 27 1012 54 10000 3.1 360 10:45 01.10.2019
982 Clouds 26 1012 57 10000 2.6 360 10:27 01.10.2019
983 Clouds 25 1012 61 10000 4.1 360 09:45 01.10.2019
984 Clouds 25 1012 61 10000 4.1 360 09:26 01.10.2019
985 Clouds 24 1012 64 10000 4.6 360 08:44 01.10.2019
986 Clouds 23 1012 73 10000 3.1 10 08:25 01.10.2019
987 Clouds 23 1012 73 6000 2.6 10 07:53 01.10.2019
988 Mist 23 1012 73 4000 2.1 20 07:26 01.10.2019
989 Mist 22 1012 78 3000 0.5 360 06:51 01.10.2019
990 Mist 22 1012 78 2000 1.5 30 06:25 01.10.2019
991 Haze 22 1012 78 4000 1.5 40 05:59 01.10.2019
992 Haze 22 1012 78 4000 1.5 20 05:40 01.10.2019
993 Haze 22 1012 78 4000 2.1 360 04:42 01.10.2019
994 Haze 23 1011 78 4000 3.1 350 03:37 01.10.2019
995 Clear 23 1012 73 6000 2.1 350 02:20 01.10.2019
996 Clear 23 1012 73 6000 2.1 350 01:56 01.10.2019
997 Clear 23 1012 73 6000 2.1 350 01:56 01.10.2019
998 Clear 24 1012 69 10000 2.6 360 00:46 01.10.2019
999 Clear 24 1012 69 10000 2.6 10 00:25 01.10.2019
1000 Clear 24 1012 69 10000 2.6 360 23:42 30.09.2019
1001 Clear 25 1012 65 10000 3.6 360 23:23 30.09.2019
1002 Clear 25 1012 65 10000 3.6 10 22:58 30.09.2019
1003 Clear 25 1012 65 10000 3.6 10 22:40 30.09.2019
1004 Clear 25 1012 65 10000 4.1 360 22:21 30.09.2019
1005 Clear 25 1012 65 10000 5.1 10 21:55 30.09.2019
1006 Clear 26 1012 61 10000 5.1 360 21:37 30.09.2019
1007 Clear 26 1012 61 10000 5.1 360 21:19 30.09.2019
1008 Clear 26 1012 65 10000 4.6 10 20:55 30.09.2019
1009 Clear 26 1012 57 10000 5.1 360 20:37 30.09.2019
1010 Clear 26 1012 57 10000 5.1 360 20:37 30.09.2019
1011 Clear 27 1012 57 10000 5.1 360 20:19 30.09.2019
1012 Clear 27 1012 57 10000 5.1 360 20:19 30.09.2019
1013 Clear 27 1011 57 10000 6.2 360 19:55 30.09.2019
1014 -273 0 0 0 0 0 19:55 30.09.2019
1015 Clear 28 1011 51 10000 5.1 360 19:37 30.09.2019
1016 Clear 28 1011 51 10000 5.1 360 19:18 30.09.2019
1017 Clear 28 1011 51 10000 5.1 360 19:18 30.09.2019
1018 Clear 29 1011 48 10000 4.6 360 18:41 30.09.2019
1019 Clear 29 1010 48 10000 4.6 350 18:22 30.09.2019
1020 Clear 30 1010 42 10000 5.1 360 17:59 30.09.2019
1021 Clear 30 1010 42 10000 5.1 360 17:39 30.09.2019
1022 Clear 30 1010 42 10000 5.1 360 17:39 30.09.2019
1023 Clear 30 1010 42 10000 5.1 360 17:21 30.09.2019
1024 Clouds 31 1010 40 10000 4.6 340 16:56 30.09.2019
1025 Clouds 31 1010 40 10000 2.6 350 16:37 30.09.2019
1026 Clouds 31 1010 40 10000 2.6 350 16:18 30.09.2019
1027 Clouds 31 1010 43 10000 4.1 340 15:55 30.09.2019
1028 Clouds 31 1011 40 10000 5.1 350 15:37 30.09.2019
1029 Clouds 31 1011 40 10000 5.1 350 15:18 30.09.2019
1030 Clouds 31 1011 40 10000 5.1 350 14:57 30.09.2019
1031 Clouds 31 1011 40 10000 3.6 340 14:37 30.09.2019
1032 Clouds 31 1011 40 10000 3.6 340 14:18 30.09.2019
1033 Clouds 30 1012 45 10000 4.1 30 13:44 30.09.2019
1034 Clouds 30 1012 45 10000 4.1 30 13:23 30.09.2019
1035 Clouds 29 1012 48 10000 4.6 20 12:59 30.09.2019
1036 Clouds 29 1012 48 10000 4.6 20 12:40 30.09.2019
1037 Clouds 29 1012 48 10000 4.6 20 12:21 30.09.2019
1038 Clouds 28 1013 51 10000 3.6 360 11:44 30.09.2019
1039 Clouds 28 1013 51 10000 3.6 360 11:23 30.09.2019
1040 Clouds 27 1013 54 6000 3.6 310 10:59 30.09.2019
1041 Clouds 27 1013 54 6000 3.6 310 10:40 30.09.2019
1042 Clouds 26 1013 61 6000 4.6 350 10:19 30.09.2019
1043 Clouds 26 1013 61 6000 4.6 350 10:19 30.09.2019
1044 Clouds 26 1013 57 6000 4.6 30 09:58 30.09.2019
1045 Clear 25 1013 65 6000 5.7 30 09:39 30.09.2019
1046 Clear 25 1013 65 6000 5.7 30 09:20 30.09.2019
1047 Haze 25 1013 65 4000 3.6 340 08:46 30.09.2019
1048 Haze 24 1013 69 4000 2.6 20 08:28 30.09.2019
1049 Haze 24 1013 69 4000 2.6 20 07:45 30.09.2019
1050 Haze 24 1013 69 4000 2.6 20 07:45 30.09.2019
1051 Haze 23 1013 73 4000 2.6 20 07:27 30.09.2019
1052 Haze 23 1013 73 4000 2.6 20 07:27 30.09.2019
1053 Haze 23 1013 73 4000 1 10 06:56 30.09.2019
1054 Haze 23 1013 73 4000 1 10 06:33 30.09.2019
1055 Haze 23 1012 73 4000 2.1 360 05:48 30.09.2019
1056 Clear 23 1012 73 6000 2.1 350 04:32 30.09.2019
1057 Clear 23 1012 73 6000 2.1 350 02:48 30.09.2019
1058 Clear 24 1013 69 10000 2.6 350 01:38 30.09.2019
1059 Clear 24 1013 64 10000 2.6 360 00:43 30.09.2019
1060 Clear 24 1013 64 10000 2.6 360 00:22 30.09.2019
1061 Clear 24 1013 64 10000 3.1 10 23:55 29.09.2019
1062 Clear 24 1013 64 10000 3.1 10 23:36 29.09.2019
1063 Clear 24 1013 64 10000 3.1 10 23:18 29.09.2019
1064 Clear 25 1013 61 10000 3.1 360 22:42 29.09.2019
1065 Clear 25 1013 61 10000 3.1 360 22:23 29.09.2019
1066 Clear 25 1014 57 10000 3.6 360 21:58 29.09.2019
1067 Clear 25 1014 57 10000 3.1 350 21:38 29.09.2019
1068 Clear 25 1014 57 10000 3.1 350 21:19 29.09.2019
1069 Clear 26 1014 54 10000 4.1 350 20:45 29.09.2019
1070 Clear 27 1013 44 10000 4.6 340 20:20 29.09.2019
1071 Clear 27 1013 42 10000 5.1 340 19:59 29.09.2019
1072 Clear 28 1013 39 10000 4.6 340 19:39 29.09.2019
1073 Clear 28 1013 39 10000 4.6 340 19:19 29.09.2019
1074 Clear 28 1013 39 10000 4.6 350 18:57 29.09.2019
1075 Clear 29 1012 35 10000 7.2 340 18:38 29.09.2019
1076 Clear 29 1012 35 10000 7.2 340 18:20 29.09.2019
1077 Clear 31 1012 33 10000 7.2 340 17:59 29.09.2019
1078 Clear 31 1012 33 10000 7.2 340 17:41 29.09.2019
1079 Clear 31 1012 33 10000 6.7 340 17:20 29.09.2019
1080 Clear 31 1012 33 10000 6.7 340 16:59 29.09.2019
1081 Clear 31 1012 33 10000 6.7 340 16:59 29.09.2019
1082 Clear 31 1012 33 10000 6.7 340 16:59 29.09.2019
1083 Clear 31 1012 33 10000 6.7 340 16:41 29.09.2019
1084 Clear 32 1012 35 10000 6.2 330 16:20 29.09.2019
1085 Clear 32 1012 35 10000 6.2 330 16:20 29.09.2019
1086 Clear 32 1012 35 10000 6.2 340 15:58 29.09.2019
1087 Clear 32 1012 38 10000 6.2 340 15:37 29.09.2019
1088 Clear 32 1012 38 10000 6.2 340 15:18 29.09.2019
1089 Clear 32 1012 38 10000 5.1 350 14:57 29.09.2019
1090 Clear 31 1012 38 10000 6.2 360 14:37 29.09.2019
1091 Clear 31 1012 38 10000 6.2 360 14:18 29.09.2019
1092 Clear 32 1012 38 10000 6.2 350 13:55 29.09.2019
1093 Clear 31 1012 40 10000 6.2 350 13:36 29.09.2019
1094 Clear 31 1012 40 10000 6.2 350 13:18 29.09.2019
1095 Clear 31 1013 40 10000 4.6 350 12:55 29.09.2019
1096 Clear 31 1013 40 10000 4.6 350 12:55 29.09.2019
1097 Clouds 30 1013 45 6000 4.6 340 12:37 29.09.2019
1098 Clouds 30 1013 45 6000 4.6 340 12:19 29.09.2019
1099 Clouds 29 1013 51 6000 4.6 10 11:41 29.09.2019
1100 Clouds 28 1014 54 6000 3.6 10 11:20 29.09.2019
1101 Clouds 26 1014 50 6000 4.6 350 10:58 29.09.2019
1102 Clouds 25 1014 50 6000 4.1 10 10:39 29.09.2019
1103 -273 0 0 0 0 0 10:20 29.09.2019
1104 Clouds 23 1014 56 6000 4.1 360 09:57 29.09.2019
1105 Clouds 20 1014 60 6000 3.1 360 09:39 29.09.2019
1106 Clouds 20 1014 60 6000 3.1 360 09:19 29.09.2019
1107 Haze 20 1014 60 3000 3.1 360 08:43 29.09.2019
1108 Haze 20 1014 60 3000 3.1 10 08:22 29.09.2019
1109 Clouds 21 1014 60 6000 2.6 360 07:44 29.09.2019
1110 Clouds 21 1014 60 6000 3.1 10 07:26 29.09.2019
1111 Clouds 21 1013 60 10000 2.1 360 06:50 29.09.2019
1112 Clouds 21 1013 60 10000 3.1 40 05:59 29.09.2019
1113 Clouds 21 1013 60 10000 4.1 30 04:46 29.09.2019
1114 Clouds 20 1013 60 10000 4.1 30 04:24 29.09.2019
1115 Clouds 21 1013 60 10000 3.6 10 02:59 29.09.2019
1116 Clouds 21 1013 60 10000 4.1 360 02:19 29.09.2019
1117 Clouds 24 1013 78 10000 4.1 360 01:45 29.09.2019
1118 Clouds 24 1013 78 10000 3.6 30 01:19 29.09.2019
1119 Clouds 24 1014 78 10000 4.1 30 00:40 29.09.2019
1120 Clouds 24 1014 78 10000 4.1 30 00:19 29.09.2019
1121 Clear 25 1014 69 10000 5.1 20 23:38 28.09.2019
1122 Clear 25 1014 69 10000 5.1 20 23:19 28.09.2019
1123 Clear 20 1014 84 0 4.02 1.611 22:41 28.09.2019
1124 Clear 26 1014 65 10000 6.2 20 22:23 28.09.2019
1125 Clear 26 1014 65 10000 6.2 20 22:23 28.09.2019
1126 Clear 26 1014 65 10000 6.2 20 21:58 28.09.2019
1127 Clear 26 1014 65 10000 6.2 20 21:40 28.09.2019
1128 Clear 26 1014 65 10000 6.2 20 21:40 28.09.2019
1129 Clear 27 1014 61 10000 7.7 20 21:21 28.09.2019
1130 Clear 27 1014 61 0 7.6 20 20:58 28.09.2019
1131 Clear 29 1013 51 0 4.92 350 20:40 28.09.2019
1132 Clear 29 1013 51 10000 5.1 350 20:20 28.09.2019
1133 Clear 29 1013 51 10000 5.1 350 19:57 28.09.2019
1134 Clear 24 1014 61 0 6.97 3.9 19:39 28.09.2019
1135 Clear 30 1012 48 10000 5.1 350 19:21 28.09.2019
1136 Clear 30 1012 48 10000 5.1 350 18:57 28.09.2019
1137 Clear 30 1012 48 10000 5.1 350 18:39 28.09.2019
1138 Clear 31 1012 45 10000 5.1 350 18:20 28.09.2019
1139 Clear 31 1012 45 10000 5.1 350 17:56 28.09.2019
1140 Clear 31 1012 45 10000 4.1 360 17:38 28.09.2019
1141 Clear 31 1012 45 10000 4.1 360 17:20 28.09.2019
1142 Clear 32 1012 40 10000 5.1 10 16:44 28.09.2019
1143 Clear 32 1012 40 10000 4.1 20 16:25 28.09.2019
1144 Clear 32 1012 40 10000 4.6 10 15:42 28.09.2019
1145 Clear 32 1012 38 10000 4.1 20 15:23 28.09.2019
1146 Clear 32 1012 40 10000 5.1 360 14:58 28.09.2019
1147 Clear 32 1012 40 10000 5.1 360 14:40 28.09.2019
1148 Clouds 32 1012 40 10000 4.6 360 14:21 28.09.2019
1149 Clouds 31 1013 43 10000 4.1 360 13:58 28.09.2019
1150 Clouds 31 1013 43 10000 4.1 360 13:40 28.09.2019
1151 Clouds 31 1013 43 10000 4.1 360 13:20 28.09.2019
1152 Clouds 30 1013 45 10000 4.6 10 12:46 28.09.2019
1153 Clouds 30 1014 45 10000 4.1 10 12:20 28.09.2019
1154 Clouds 30 1014 51 10000 3.1 10 11:59 28.09.2019
1155 Clouds 29 1014 51 10000 3.1 10 11:40 28.09.2019
1156 Clouds 29 1014 54 10000 4.1 10 11:19 28.09.2019
1157 Clouds 28 1014 58 6000 3.6 360 10:44 28.09.2019
1158 Clouds 27 1015 65 6000 4.1 360 10:21 28.09.2019
1159 Clouds 26 1015 69 6000 3.6 20 09:58 28.09.2019
1160 Clouds 26 1015 69 6000 3.6 20 09:40 28.09.2019
1161 Clouds 26 1015 69 6000 3.6 20 09:40 28.09.2019
1162 Clouds 26 1015 74 6000 3.1 10 09:18 28.09.2019
1163 Mist 26 1015 74 4000 3.1 360 08:47 28.09.2019
1164 Mist 25 1015 78 4000 3.6 360 08:29 28.09.2019
1165 Mist 24 1014 83 4000 3.6 360 07:47 28.09.2019
1166 Mist 24 1014 78 4000 2.6 10 07:24 28.09.2019
1167 Mist 24 1014 83 4000 3.1 360 06:59 28.09.2019
1168 Mist 24 1014 83 4000 3.1 360 06:33 28.09.2019
1169 Mist 24 1014 83 4000 3.1 360 06:33 28.09.2019
1170 Clouds 24 1014 83 6000 3.1 360 05:59 28.09.2019
1171 Clouds 24 1014 83 6000 2.6 350 05:24 28.09.2019
1172 Clouds 24 1014 83 10000 3.1 360 04:44 28.09.2019
1173 Clouds 24 1014 83 0 3.58 360 04:26 28.09.2019
1174 Clouds 25 1014 78 10000 2.6 360 03:33 28.09.2019
1175 Clouds 25 1014 78 10000 2.6 360 02:57 28.09.2019
1176 Clouds 25 1014 78 10000 3.6 10 02:37 28.09.2019
1177 Clouds 25 1014 78 10000 3.6 10 02:18 28.09.2019
1178 Clear 25 1014 78 10000 3.1 360 01:41 28.09.2019
1179 Clear 25 1014 78 10000 3.1 360 01:19 28.09.2019
1180 Clear 25 1014 78 10000 3.6 10 00:44 28.09.2019
1181 Clear 25 1014 78 10000 4.6 360 00:26 28.09.2019
1182 Clear 25 1014 69 10000 3.6 10 23:39 27.09.2019
1183 Clear 25 1014 69 10000 3.6 10 23:39 27.09.2019
1184 Clear 26 1014 69 10000 3.6 10 23:21 27.09.2019
1185 Clear 26 1014 74 10000 5.1 40 22:49 27.09.2019
1186 Clear 26 1014 69 10000 5.7 30 22:21 27.09.2019
1187 Clear 26 1014 69 10000 5.7 30 21:59 27.09.2019
1188 Clear 26 1014 69 10000 5.7 30 21:59 27.09.2019
1189 Clear 27 1014 65 10000 5.1 40 21:40 27.09.2019
1190 Clear 27 1014 65 10000 5.1 40 21:21 27.09.2019
1191 Clear 27 1014 65 10000 5.1 40 20:59 27.09.2019
1192 Clear 27 1014 65 10000 5.1 40 20:59 27.09.2019
1193 Clear 27 1014 65 10000 5.1 40 20:40 27.09.2019
1194 Clear 28 1013 65 10000 5.7 10 20:20 27.09.2019
1195 Clear 29 1013 58 10000 6.7 10 19:58 27.09.2019
1196 Clear 30 1012 55 10000 5.7 360 19:39 27.09.2019
1197 Clear 30 1012 55 10000 5.7 360 19:20 27.09.2019
1198 Clouds 31 1012 45 6000 4.6 360 18:43 27.09.2019
1199 Clouds 31 1012 45 6000 4.6 340 18:25 27.09.2019
1200 Clouds 32 1011 43 6000 4.6 350 17:57 27.09.2019
1201 Clouds 32 1011 43 6000 4.6 350 17:39 27.09.2019
1202 Clouds 32 1011 43 6000 4.6 350 17:20 27.09.2019
1203 Clouds 32 1011 43 6000 3.6 340 16:58 27.09.2019
1204 Clouds 32 1011 43 6000 3.6 340 16:40 27.09.2019
1205 Clouds 32 1011 43 6000 3.6 340 16:19 27.09.2019
1206 Clouds 32 1011 43 6000 3.6 340 16:19 27.09.2019
1207 Clouds 33 1011 41 6000 3.6 320 15:55 27.09.2019
1208 Clouds 33 1011 41 6000 3.6 320 15:36 27.09.2019
1209 Clouds 33 1011 41 6000 3.6 320 15:36 27.09.2019
1210 Clouds 33 1011 41 6000 3.6 320 15:18 27.09.2019
1211 Clouds 33 1011 41 6000 2.1 30 14:42 27.09.2019
1212 Clouds 33 1011 41 6000 2.1 30 14:23 27.09.2019
1213 Clouds 32 1012 46 6000 3.1 330 13:59 27.09.2019
1214 Clouds 32 1012 46 6000 3.1 330 13:41 27.09.2019
1215 Clouds 32 1012 46 6000 3.1 330 13:21 27.09.2019
1216 Clouds 31 1013 52 6000 2.6 10 12:57 27.09.2019
1217 Clouds 31 1013 52 6000 2.6 10 12:38 27.09.2019
1218 Clouds 31 1013 52 6000 2.6 10 12:19 27.09.2019
1219 Clouds 29 1013 58 6000 2.1 30 11:39 27.09.2019
1220 Clouds 29 1013 58 6000 2.1 30 11:20 27.09.2019
1221 Clouds 29 1013 58 6000 3.1 30 10:57 27.09.2019
1222 Clouds 28 1013 65 6000 2.6 20 10:38 27.09.2019
1223 Clouds 28 1013 65 6000 2.6 20 10:38 27.09.2019
1224 Clouds 28 1013 65 6000 2.6 20 10:20 27.09.2019
1225 Clouds 27 1014 69 6000 3.1 20 09:42 27.09.2019
1226 Clouds 27 1014 69 6000 3.1 20 09:21 27.09.2019
1227 Clouds 26 1014 74 6000 3.1 10 08:57 27.09.2019
1228 Clouds 25 1014 78 6000 2.6 10 08:38 27.09.2019
1229 Clouds 25 1014 78 6000 2.6 10 08:38 27.09.2019
1230 Clouds 25 1014 78 6000 2.6 10 08:19 27.09.2019
1231 Mist 25 1013 78 4000 3.1 360 07:45 27.09.2019
1232 Mist 24 1013 83 4000 2.6 360 07:22 27.09.2019
1233 Mist 24 1013 83 4000 2.6 360 06:43 27.09.2019
1234 Clouds 24 1013 83 6000 2.6 360 06:23 27.09.2019
1235 Clouds 24 1013 83 6000 2.6 360 05:50 27.09.2019
1236 Clouds 24 1013 83 6000 3.1 360 05:31 27.09.2019
1237 Clear 25 1012 78 10000 2.1 10 03:55 27.09.2019
1238 Clear 25 1012 78 10000 2.6 40 02:42 27.09.2019
1239 Clear 25 1012 73 10000 3.1 40 01:44 27.09.2019
1240 Clear 26 1012 69 10000 3.1 50 00:59 27.09.2019
1241 Clear 26 1013 74 10000 3.6 40 00:22 27.09.2019
1242 Clear 26 1013 69 10000 4.6 30 23:56 26.09.2019
1243 Clear 26 1013 74 10000 3.6 40 23:38 26.09.2019
1244 Clear 26 1013 74 10000 3.6 40 23:18 26.09.2019
1245 Clear 26 1013 74 10000 3.6 40 23:18 26.09.2019
1246 Clear 26 1013 74 10000 4.6 50 22:56 26.09.2019
1247 Clear 27 1013 65 10000 4.1 40 22:38 26.09.2019
1248 Clear 27 1013 65 10000 4.1 40 22:18 26.09.2019
1249 Clear 27 1013 65 10000 5.1 40 21:55 26.09.2019
1250 Clear 28 1013 61 10000 5.1 30 21:36 26.09.2019
1251 Clear 28 1013 61 10000 5.1 30 21:18 26.09.2019
1252 Clear 28 1013 61 10000 5.7 30 20:57 26.09.2019
1253 Clear 29 1012 58 10000 6.2 10 20:39 26.09.2019
1254 Clear 29 1012 58 10000 6.2 10 20:20 26.09.2019
1255 Clear 30 1012 55 10000 7.7 10 19:40 26.09.2019
1256 Clear 30 1012 55 10000 7.7 10 19:19 26.09.2019
1257 Clear 32 1011 38 10000 4.6 360 18:59 26.09.2019
1258 Clear 32 1011 38 10000 4.6 360 18:59 26.09.2019
1259 Clear 32 1011 38 10000 4.6 360 18:59 26.09.2019
1260 Clear 33 1011 36 10000 5.1 350 18:40 26.09.2019
1261 Clear 33 1011 36 10000 5.1 350 18:22 26.09.2019
1262 Clear 33 1011 36 10000 5.1 340 17:57 26.09.2019
1263 Clear 35 1011 30 10000 3.6 320 17:37 26.09.2019
1264 Clear 35 1011 30 10000 3.6 320 17:18 26.09.2019
1265 Clear 35 1011 30 10000 2.6 330 16:40 26.09.2019
1266 Clear 35 1011 28 10000 4.1 300 16:21 26.09.2019
1267 Clear 35 1011 28 10000 3.1 330 16:00 26.09.2019
1268 Clear 35 1011 30 10000 3.1 320 15:39 26.09.2019
1269 Clear 35 1011 30 10000 3.1 320 15:20 26.09.2019
1270 Clear 36 1011 25 10000 3.1 320 14:57 26.09.2019
1271 Clear 36 1011 25 10000 3.1 320 14:38 26.09.2019
1272 Clear 35 1011 26 10000 1 310 14:20 26.09.2019
1273 -273 0 0 0 0 0 13:55 26.09.2019
1274 Clear 34 1012 28 10000 3.69 307.634 13:36 26.09.2019
1275 Clear 34 1012 28 10000 3.69 307.634 13:18 26.09.2019
1276 Clear 35 1012 28 6000 2.1 10 12:41 26.09.2019
1277 Clear 33 1013 31 6000 2.6 30 12:21 26.09.2019
1278 Clear 33 1013 33 6000 1.5 50 11:55 26.09.2019
1279 Clear 33 1013 33 6000 1.5 50 11:55 26.09.2019
1280 Clear 33 1013 33 6000 1.5 50 11:36 26.09.2019
1281 Clear 33 1013 33 6000 1.5 50 11:18 26.09.2019
1282 Clear 31 1014 35 6000 2.1 340 10:42 26.09.2019
1283 Clear 31 1014 35 6000 2.1 340 10:23 26.09.2019
1284 Haze 30 1014 37 3000 2.32 9.182 09:57 26.09.2019
1285 Haze 30 1014 37 3000 2.32 9.182 09:39 26.09.2019
1286 Haze 30 1014 37 3000 2.32 9.182 09:39 26.09.2019
1287 Haze 30 1014 37 3000 3.02 0.285 09:18 26.09.2019
1288 Haze 30 1014 35 3000 2.85 356.721 08:47 26.09.2019
1289 Clear 28 1013 39 6000 2.85 356.721 08:29 26.09.2019
1290 Clear 25 1013 47 10000 2.85 356.721 07:45 26.09.2019
1291 Clear 25 1013 47 10000 2.85 356.721 07:22 26.09.2019
1292 Clear 25 1012 44 10000 2.85 356.721 06:52 26.09.2019
1293 Clear 25 1012 44 10000 2.85 356.721 06:28 26.09.2019
1294 Clear 25 1012 41 10000 4.1 90 05:52 26.09.2019
1295 Clear 25 1012 41 10000 4.1 90 05:26 26.09.2019
1296 Clear 26 1012 41 10000 1.54 348.829 03:33 26.09.2019
1297 Clear 26 1012 41 10000 3.6 100 02:19 26.09.2019
1298 Clear 26 1012 47 10000 4.6 90 01:40 26.09.2019
1299 Clear 26 1012 50 10000 4.1 90 01:22 26.09.2019
1300 Clear 26 1012 54 10000 5.1 100 00:45 26.09.2019
1301 Clear 26 1013 57 10000 4.1 90 00:25 26.09.2019
1302 Clear 27 1013 51 10000 4.1 80 23:43 25.09.2019
1303 Clear 27 1013 47 10000 3.1 70 23:19 25.09.2019
1304 Clear 27 1013 51 10000 3.6 70 22:54 25.09.2019
1305 -273 0 0 0 0 0 22:54 25.09.2019
1306 Clear 28 1014 45 10000 4.1 50 22:36 25.09.2019
1307 Clear 28 1014 45 10000 4.1 50 22:18 25.09.2019
1308 Clear 29 1013 42 10000 1 70 21:55 25.09.2019
1309 Clear 30 1013 40 10000 1 50 21:36 25.09.2019
1310 Clear 30 1013 40 10000 1 50 21:18 25.09.2019
1311 Clear 30 1013 40 10000 2.1 40 20:55 25.09.2019
1312 Clear 30 1013 40 10000 2.6 30 20:37 25.09.2019
1313 Clear 30 1013 40 10000 2.6 30 20:18 25.09.2019
1314 Clear 30 1012 40 10000 3.1 30 19:39 25.09.2019
1315 Clear 31 1012 35 10000 2.6 20 19:20 25.09.2019
1316 Clear 31 1012 35 10000 3.1 20 18:56 25.09.2019
1317 Clear 31 1011 33 10000 3.1 360 18:37 25.09.2019
1318 Clear 31 1011 33 10000 3.1 360 18:18 25.09.2019
1319 Clear 32 1011 27 10000 3.6 350 17:40 25.09.2019
1320 Clear 32 1011 27 10000 3.6 350 17:21 25.09.2019
1321 Clear 33 1011 26 6000 3.6 340 16:57 25.09.2019
1322 Clear 33 1011 26 6000 3.6 340 16:38 25.09.2019
1323 Clear 33 1011 26 6000 3.6 340 16:19 25.09.2019
1324 Clear 33 1011 24 6000 4.1 340 15:55 25.09.2019
1325 Clear 33 1011 24 6000 4.1 340 15:55 25.09.2019
1326 Clear 33 1011 24 6000 4.1 340 15:37 25.09.2019
1327 Clear 33 1011 24 6000 4.1 340 15:18 25.09.2019
1328 Clear 33 1011 26 6000 2.1 360 14:42 25.09.2019
1329 Clear 33 1011 26 6000 2.1 360 14:22 25.09.2019
1330 Clear 32 1012 25 10000 3.1 330 13:58 25.09.2019
1331 Clear 30 1013 35 10000 2.6 360 13:39 25.09.2019
1332 Clear 30 1013 35 10000 2.6 360 13:20 25.09.2019
1333 Clear 30 1013 35 10000 2.6 360 12:54 25.09.2019
1334 Clear 30 1013 35 10000 2.6 360 12:36 25.09.2019
1335 Clear 30 1013 35 10000 2.6 360 12:18 25.09.2019
1336 Clear 28 1013 45 10000 2.1 60 11:40 25.09.2019
1337 Clear 28 1013 45 10000 2.1 60 11:20 25.09.2019
1338 Clear 26 1013 50 10000 2.6 50 10:47 25.09.2019
1339 Clear 26 1013 50 10000 2.6 50 10:27 25.09.2019
1340 Clear 26 1014 57 10000 2.6 50 09:59 25.09.2019
1341 Clear 26 1014 57 10000 2.6 50 09:59 25.09.2019
1342 Clear 26 1014 57 10000 2.6 50 09:41 25.09.2019
1343 Clear 24 1014 64 10000 2.6 80 09:23 25.09.2019
1344 Clear 24 1014 64 10000 2.6 50 08:57 25.09.2019
1345 Clear 23 1013 73 10000 3.1 60 08:39 25.09.2019
1346 Clear 23 1013 73 10000 3.1 60 08:19 25.09.2019
1347 Clouds 23 1013 73 10000 3.6 80 07:40 25.09.2019
1348 Clouds 22 1013 78 10000 1.5 80 07:22 25.09.2019
1349 Clouds 21 1013 83 10000 2.1 90 06:55 25.09.2019
1350 Clouds 21 1013 83 10000 1.5 60 06:33 25.09.2019
1351 Clouds 21 1013 83 10000 1.5 60 05:43 25.09.2019
1352 Clouds 22 1012 78 10000 1.5 40 04:58 25.09.2019
1353 Clear 22 1013 78 10000 3.1 360 02:50 25.09.2019
1354 Clear 23 1013 73 10000 2.6 30 01:29 25.09.2019
1355 Clear 23 1013 73 10000 3.1 40 00:38 25.09.2019
1356 Clear 23 1013 73 10000 3.1 40 00:20 25.09.2019
1357 Clear 24 1013 69 10000 3.6 40 23:42 24.09.2019
1358 Clear 24 1013 69 10000 3.6 40 23:22 24.09.2019
1359 Clear 24 1014 69 10000 4.6 40 22:57 24.09.2019
1360 Clear 25 1014 61 10000 4.6 40 22:38 24.09.2019
1361 Clear 25 1014 61 10000 4.6 40 22:18 24.09.2019
1362 Clear 25 1014 61 10000 4.6 40 22:18 24.09.2019
1363 Clear 25 1014 61 10000 6.2 30 21:55 24.09.2019
1364 Clear 26 1014 61 10000 6.2 360 21:37 24.09.2019
1365 Clear 26 1014 61 10000 6.2 360 21:18 24.09.2019
1366 Clear 26 1014 61 10000 6.2 360 20:56 24.09.2019
1367 Clear 26 1014 61 10000 6.2 360 20:56 24.09.2019
1368 Clear 26 1013 57 10000 6.2 360 20:37 24.09.2019
1369 Clear 27 1013 57 10000 6.2 360 20:19 24.09.2019
1370 Clear 28 1013 54 10000 3.6 360 19:42 24.09.2019
1371 Clear 29 1012 42 10000 3.6 360 19:20 24.09.2019
1372 Clear 29 1012 42 10000 3.6 360 19:20 24.09.2019
1373 Clear 29 1012 42 10000 5.1 20 18:57 24.09.2019
1374 Clear 30 1012 40 10000 5.1 20 18:39 24.09.2019
1375 Clear 30 1012 40 10000 5.1 20 18:20 24.09.2019
1376 Clear 30 1012 40 10000 5.1 20 17:57 24.09.2019
1377 Clear 31 1012 35 10000 4.6 350 17:38 24.09.2019
1378 Clear 31 1012 35 10000 4.6 350 17:19 24.09.2019
1379 Clear 31 1012 38 10000 5.1 10 16:42 24.09.2019
1380 Clear 31 1012 38 10000 5.1 10 16:21 24.09.2019
1381 Clear 31 1012 38 10000 5.1 20 15:59 24.09.2019
1382 Clear 31 1012 38 10000 5.1 20 15:41 24.09.2019
1383 Clear 32 1012 33 10000 5.1 10 15:22 24.09.2019
1384 Clear 31 1012 38 10000 4.6 360 14:40 24.09.2019
1385 Clear 31 1012 38 10000 4.6 360 14:19 24.09.2019
1386 Clear 31 1013 40 10000 4.1 360 13:45 24.09.2019
1387 Clear 31 1013 40 10000 4.6 20 13:24 24.09.2019
1388 Clouds 30 1013 42 10000 4.6 10 12:59 24.09.2019
1389 Clouds 30 1014 45 10000 5.7 360 12:39 24.09.2019
1390 Clouds 30 1014 45 10000 5.7 360 12:18 24.09.2019
1391 Clouds 29 1014 48 10000 4.6 20 11:43 24.09.2019
1392 Clouds 29 1014 48 10000 4.6 20 11:43 24.09.2019
1393 Clouds 29 1014 48 10000 5.1 20 11:22 24.09.2019
1394 Clouds 28 1015 51 10000 4.1 20 10:57 24.09.2019
1395 Clouds 28 1015 51 10000 4.1 20 10:57 24.09.2019
1396 Clouds 27 1015 57 10000 4.6 40 10:37 24.09.2019
1397 Clouds 27 1015 57 10000 4.6 40 10:19 24.09.2019
1398 Clouds 27 1015 61 10000 5.1 360 09:46 24.09.2019
1399 Clear 26 1015 65 10000 5.1 10 09:27 24.09.2019
1400 Clouds 25 1015 69 10000 5.1 10 08:57 24.09.2019
1401 Clouds 25 1015 69 10000 5.1 10 08:57 24.09.2019
1402 Clouds 25 1015 69 10000 5.1 10 08:38 24.09.2019
1403 Clouds 24 1015 73 10000 4.1 20 08:20 24.09.2019
1404 Clouds 24 1015 73 6000 4.1 20 07:55 24.09.2019
1405 Clouds 23 1015 78 6000 3.6 20 07:36 24.09.2019
1406 Clouds 23 1015 78 6000 3.6 20 07:36 24.09.2019
1407 Clouds 23 1015 78 6000 3.6 20 07:18 24.09.2019
1408 Clouds 22 1014 83 6000 3.1 10 06:37 24.09.2019
1409 Clouds 22 1014 83 6000 4.1 10 05:52 24.09.2019
1410 Clouds 22 1014 88 6000 3.6 20 05:20 24.09.2019
1411 Clouds 23 1014 83 6000 3.1 10 03:45 24.09.2019
1412 Clouds 23 1014 83 6000 3.6 10 03:20 24.09.2019
1413 Clouds 23 1014 78 6000 3.1 350 02:43 24.09.2019
1414 Clear 24 1014 73 10000 4.1 360 01:40 24.09.2019
1415 Clear 24 1014 78 10000 3.6 360 00:40 24.09.2019
1416 Clear 25 1015 73 10000 3.6 20 00:21 24.09.2019
1417 Clear 25 1015 69 10000 4.1 30 23:41 23.09.2019
1418 Clear 25 1015 69 10000 4.1 30 23:22 23.09.2019
1419 Clear 26 1015 65 10000 5.1 40 22:40 23.09.2019
1420 Clear 26 1015 65 10000 5.1 40 22:21 23.09.2019
1421 Clear 26 1015 65 10000 6.2 30 21:59 23.09.2019
1422 Clear 26 1015 65 10000 6.7 40 21:41 23.09.2019
1423 Clear 26 1015 65 10000 6.7 40 21:20 23.09.2019
1424 Clear 26 1015 65 10000 6.7 40 21:20 23.09.2019
1425 Clear 27 1015 61 10000 5.7 30 20:58 23.09.2019
1426 Clear 27 1015 61 10000 6.2 40 20:39 23.09.2019
1427 Clear 27 1015 61 10000 6.2 40 20:18 23.09.2019
1428 Clear 27 1015 61 10000 6.2 40 20:18 23.09.2019
1429 Clouds 28 1014 58 10000 6.7 30 19:40 23.09.2019
1430 Clouds 29 1014 54 10000 6.7 20 19:22 23.09.2019
1431 Clouds 29 1014 54 10000 6.7 20 19:22 23.09.2019
1432 Clouds 29 1013 51 10000 6.7 30 18:59 23.09.2019
1433 Clouds 30 1013 48 10000 6.2 20 18:40 23.09.2019
1434 Clouds 30 1013 48 10000 6.2 20 18:18 23.09.2019
1435 Clouds 31 1013 43 10000 6.2 10 17:56 23.09.2019
1436 Clouds 31 1013 40 10000 5.1 20 17:38 23.09.2019
1437 Clouds 31 1013 40 10000 5.1 20 17:19 23.09.2019
1438 Clouds 32 1013 38 10000 4.6 10 16:54 23.09.2019
1439 Clouds 32 1013 38 10000 6.2 10 16:36 23.09.2019
1440 Clouds 32 1013 38 10000 6.2 10 16:18 23.09.2019
1441 Clouds 32 1013 38 10000 6.2 10 16:18 23.09.2019
1442 Clouds 32 1013 38 10000 6.2 10 15:55 23.09.2019
1443 Clouds 32 1013 36 10000 7.2 360 15:37 23.09.2019
1444 Clouds 33 1013 36 10000 7.2 360 15:18 23.09.2019
1445 Clouds 32 1013 38 10000 5.7 10 14:40 23.09.2019
1446 Clouds 32 1013 38 10000 6.7 360 14:20 23.09.2019
1447 Clouds 32 1013 38 10000 5.7 10 13:58 23.09.2019
1448 Clouds 32 1013 38 10000 6.2 10 13:38 23.09.2019
1449 Clouds 32 1013 38 10000 6.2 10 13:18 23.09.2019
1450 Clouds 31 1014 43 10000 2.6 10 12:43 23.09.2019
1451 Clouds 31 1014 43 10000 2.6 10 12:23 23.09.2019
1452 Clouds 30 1014 48 6000 4.6 10 11:58 23.09.2019
1453 Clouds 30 1015 54 6000 4.1 10 11:40 23.09.2019
1454 Clouds 29 1015 54 6000 4.1 10 11:21 23.09.2019
1455 Clouds 30 1015 55 6000 4.1 30 10:49 23.09.2019
1456 Clouds 28 1015 61 6000 4.6 30 10:22 23.09.2019
1457 Clouds 26 1015 69 6000 4.1 360 09:58 23.09.2019
1458 Mist 26 1015 69 3000 3.1 10 09:37 23.09.2019
1459 Mist 26 1015 69 3000 3.1 10 09:19 23.09.2019
1460 Mist 25 1015 73 3000 4.1 10 08:45 23.09.2019
1461 Mist 24 1015 78 2000 2.6 360 08:26 23.09.2019
1462 Mist 24 1015 78 2000 2.6 360 07:56 23.09.2019
1463 Mist 23 1015 83 2000 2.6 10 07:28 23.09.2019
1464 Mist 23 1015 83 2000 3.6 20 06:31 23.09.2019
1465 Mist 23 1015 83 2000 3.1 10 05:48 23.09.2019
1466 Mist 23 1014 83 2000 2.6 20 05:21 23.09.2019
1467 Mist 23 1014 83 2000 3.1 360 04:54 23.09.2019
1468 Clear 23 1014 73 10000 3.1 350 02:37 23.09.2019
1469 Clear 24 1014 78 10000 3.1 350 00:46 23.09.2019
1470 Clear 24 1014 73 10000 3.6 340 00:22 23.09.2019
1471 Clear 24 1014 73 10000 3.1 350 23:51 22.09.2019
1472 Clear 24 1015 69 10000 4.1 350 23:32 22.09.2019
1473 Clear 25 1015 69 10000 3.1 340 22:58 22.09.2019
1474 Clear 25 1015 69 10000 3.1 340 22:40 22.09.2019
1475 Clear 25 1015 73 10000 4.6 360 22:21 22.09.2019
1476 Clear 25 1015 69 10000 4.1 10 21:43 22.09.2019
1477 Clear 26 1014 65 10000 4.6 360 21:22 22.09.2019
1478 Clear 26 1014 65 10000 4.6 360 21:22 22.09.2019
1479 Clear 26 1014 65 10000 6.2 360 20:58 22.09.2019
1480 Clear 26 1014 65 10000 6.2 360 20:40 22.09.2019
1481 Clear 27 1014 57 10000 5.7 360 20:22 22.09.2019
1482 Clear 28 1013 51 10000 6.2 360 19:42 22.09.2019
1483 Clear 28 1013 51 10000 6.2 360 19:23 22.09.2019
1484 Clouds 28 1013 45 10000 4.6 340 18:59 22.09.2019
1485 Clouds 29 1012 45 10000 4.6 350 18:40 22.09.2019
1486 Clouds 29 1012 45 10000 4.6 350 18:20 22.09.2019
1487 Clouds 31 1012 40 10000 6.2 340 17:58 22.09.2019
1488 Clouds 31 1012 40 10000 6.2 340 17:40 22.09.2019
1489 Clouds 31 1012 40 10000 6.2 340 17:19 22.09.2019
1490 Clouds 31 1012 40 10000 6.2 350 16:45 22.09.2019
1491 Clouds 31 1012 40 10000 6.2 350 16:26 22.09.2019
1492 Clouds 31 1012 40 10000 3.6 320 15:57 22.09.2019
1493 Clouds 31 1012 40 10000 3.6 320 15:38 22.09.2019
1494 Clouds 31 1012 40 10000 3.6 320 15:19 22.09.2019
1495 Clouds 31 1012 40 10000 4.6 10 14:43 22.09.2019
1496 Clouds 31 1012 40 10000 4.6 10 14:25 22.09.2019
1497 Clouds 31 1013 43 10000 3.6 330 13:58 22.09.2019
1498 Clouds 31 1013 43 10000 3.6 330 13:40 22.09.2019
1499 Clouds 31 1013 43 10000 3.6 330 13:40 22.09.2019
1500 Clouds 31 1013 43 10000 3.6 330 13:21 22.09.2019
1501 Clouds 30 1013 45 10000 3.6 340 12:44 22.09.2019
1502 Clouds 30 1013 45 10000 3.6 340 12:24 22.09.2019
1503 Clouds 30 1014 51 10000 4.6 340 11:59 22.09.2019
1504 Clouds 29 1014 51 10000 4.6 340 11:40 22.09.2019
1505 Clouds 29 1014 51 10000 4.6 340 11:22 22.09.2019
1506 Clouds 27 1014 61 10000 2.6 350 10:45 22.09.2019
1507 Clouds 27 1014 61 6000 2.6 350 10:20 22.09.2019
1508 Clouds 26 1015 69 6000 3.1 350 09:59 22.09.2019
1509 Mist 26 1015 69 4000 3.1 350 09:40 22.09.2019
1510 Mist 26 1015 69 4000 3.1 350 09:20 22.09.2019
1511 Mist 24 1015 78 4000 2.6 340 08:45 22.09.2019
1512 Mist 24 1014 78 4000 2.6 340 08:25 22.09.2019
1513 Mist 24 1014 78 4000 2.1 310 07:56 22.09.2019
1514 Clouds 24 1014 78 6000 2.1 310 07:38 22.09.2019
1515 Clouds 24 1014 78 6000 2.1 310 07:19 22.09.2019
1516 Clouds 23 1014 83 6000 3.1 350 06:55 22.09.2019
1517 Clouds 24 1014 78 10000 2.6 360 05:36 22.09.2019
1518 Clouds 24 1013 78 10000 3.6 360 03:49 22.09.2019
1519 Clouds 24 1013 78 10000 3.6 350 02:38 22.09.2019
1520 Clouds 24 1013 78 10000 3.6 350 02:20 22.09.2019
1521 Clouds 25 1013 73 0 3.6 360 01:23 22.09.2019
1522 Clear 25 1014 73 10000 3.1 350 00:37 22.09.2019
1523 Clear 25 1014 73 10000 3.1 350 00:18 22.09.2019
1524 Clear 25 1014 73 10000 3.1 350 00:18 22.09.2019
1525 Clear 25 1014 73 10000 3.6 350 23:41 21.09.2019
1526 Clear 25 1014 73 10000 3.6 350 23:22 21.09.2019
1527 Clear 25 1014 73 10000 4.1 350 22:39 21.09.2019
1528 Clear 25 1014 73 10000 4.6 360 22:21 21.09.2019
1529 Clear 26 1014 69 10000 4.6 360 21:55 21.09.2019
1530 Clear 26 1014 65 10000 5.1 360 21:37 21.09.2019
1531 Clear 26 1014 65 10000 5.1 360 21:18 21.09.2019
1532 Clear 27 1014 61 10000 5.1 360 20:40 21.09.2019
1533 Clear 27 1014 61 10000 5.1 350 20:40 21.09.2019
1534 Clear 27 1014 61 10000 5.1 360 20:22 21.09.2019
1535 Clear 27 1014 61 10000 5.1 360 20:22 21.09.2019
1536 -273 0 0 0 0 0 19:54 21.09.2019
1537 Clear 29 1013 48 10000 6.2 360 19:36 21.09.2019
1538 Clear 29 1013 48 10000 6.2 360 19:18 21.09.2019
1539 Clear 30 1012 40 10000 6.2 360 18:38 21.09.2019
1540 Clear 30 1012 40 10000 6.2 360 18:20 21.09.2019
1541 Clear 32 1012 38 10000 6.7 350 17:42 21.09.2019
1542 Clear 32 1012 38 10000 6.7 350 17:42 21.09.2019
1543 Clear 32 1012 38 10000 6.7 350 17:23 21.09.2019
1544 Clear 32 1011 35 10000 6.7 360 16:56 21.09.2019
1545 Clear 33 1011 36 10000 5.7 10 16:36 21.09.2019
1546 Clear 33 1011 36 10000 5.7 10 16:18 21.09.2019
1547 Clear 33 1011 36 10000 6.7 360 15:42 21.09.2019
1548 Clear 32 1011 40 10000 5.7 350 15:20 21.09.2019
1549 Clear 32 1012 40 10000 5.7 360 14:47 21.09.2019
1550 Clear 32 1012 40 10000 6.2 360 14:28 21.09.2019
1551 Clear 32 1012 40 10000 6.2 360 14:28 21.09.2019
1552 Clear 32 1012 40 10000 6.2 360 13:45 21.09.2019
1553 Clear 31 1012 40 10000 5.7 20 13:25 21.09.2019
1554 Clear 31 1012 40 10000 5.7 20 13:25 21.09.2019
1555 Clouds 31 1013 43 6000 6.2 10 12:59 21.09.2019
1556 Clouds 30 1013 45 6000 5.1 360 12:41 21.09.2019
1557 Clouds 30 1013 45 6000 5.1 360 12:20 21.09.2019
1558 Clouds 30 1013 45 6000 5.1 10 11:58 21.09.2019
1559 Clouds 30 1013 48 6000 5.1 30 11:39 21.09.2019
1560 Clouds 29 1013 48 6000 5.1 30 11:19 21.09.2019
1561 Clouds 27 1014 57 6000 4.6 20 10:40 21.09.2019
1562 Clouds 27 1014 57 6000 4.6 20 10:21 21.09.2019
1563 Haze 27 1014 57 4000 4.1 10 09:57 21.09.2019
1564 Haze 26 1014 61 4000 4.1 10 09:38 21.09.2019
1565 Haze 26 1014 61 4000 4.1 10 09:19 21.09.2019
1566 Haze 25 1014 65 4000 3.6 10 08:50 21.09.2019
1567 -273 0 0 0 0 0 08:25 21.09.2019
1568 Haze 24 1014 69 4000 2.6 10 07:40 21.09.2019
1569 Haze 24 1014 69 4000 2.6 10 07:21 21.09.2019
1570 Haze 23 1013 73 4000 2.1 20 06:47 21.09.2019
1571 Haze 23 1013 73 4000 3.1 10 06:26 21.09.2019
1572 Haze 23 1013 73 4000 3.1 10 04:49 21.09.2019
1573 Haze 23 1013 73 4000 3.1 10 04:31 21.09.2019
1574 Haze 24 1013 69 4000 2.6 10 02:27 21.09.2019
1575 Clear 24 1013 69 6000 3.1 360 01:52 21.09.2019
1576 Clear 24 1014 69 6000 3.1 360 01:33 21.09.2019
1577 Clear 24 1014 69 10000 3.6 10 00:38 21.09.2019
1578 Clear 24 1014 69 10000 3.6 10 00:18 21.09.2019
1579 Clear 24 1014 69 10000 3.6 10 00:18 21.09.2019
1580 Clear 25 1014 65 10000 4.1 10 23:41 20.09.2019
1581 Clear 25 1014 65 10000 4.1 20 23:21 20.09.2019
1582 Clear 25 1014 65 10000 5.1 20 22:41 20.09.2019
1583 Clear 25 1014 65 10000 5.1 10 22:22 20.09.2019
1584 Clear 26 1014 61 10000 4.6 360 21:56 20.09.2019
1585 Clear 26 1014 57 10000 5.7 360 21:37 20.09.2019
1586 Clear 26 1014 54 10000 6.2 360 21:18 20.09.2019
1587 Clear 27 1014 54 10000 6.2 360 20:54 20.09.2019
1588 Clear 27 1014 54 10000 6.2 360 20:36 20.09.2019
1589 Clear 27 1014 54 10000 6.2 360 20:18 20.09.2019
1590 Clear 28 1013 51 10000 6.2 350 19:42 20.09.2019
1591 Clear 29 1013 48 10000 5.7 360 19:21 20.09.2019
1592 Clear 29 1013 48 10000 7.2 340 18:57 20.09.2019
1593 Clear 30 1013 48 10000 5.1 340 18:37 20.09.2019
1594 Clear 30 1013 48 10000 5.1 340 18:18 20.09.2019
1595 Clear 31 1012 43 10000 5.1 10 17:44 20.09.2019
1596 Clear 31 1012 43 10000 5.1 10 17:25 20.09.2019
1597 Clear 31 1012 38 10000 5.1 360 16:43 20.09.2019
1598 Clear 31 1012 38 10000 5.1 360 16:21 20.09.2019
1599 Clear 31 1012 40 6000 5.7 340 15:58 20.09.2019
1600 Clear 31 1012 40 6000 5.7 340 15:58 20.09.2019
1601 Clear 31 1012 40 6000 5.7 340 15:40 20.09.2019
1602 Clear 31 1012 40 6000 5.7 340 15:22 20.09.2019
1603 Clear 32 1012 40 6000 3.6 350 14:43 20.09.2019
1604 Clear 32 1012 40 6000 3.6 350 14:19 20.09.2019
1605 Clouds 32 1012 40 6000 4.6 340 13:55 20.09.2019
1606 Clouds 32 1012 40 6000 4.6 340 13:36 20.09.2019
1607 Clouds 30 1013 48 6000 5.1 340 13:18 20.09.2019
1608 Clouds 30 1013 48 6000 5.1 340 12:37 20.09.2019
1609 Clouds 30 1013 48 6000 5.1 340 12:19 20.09.2019
1610 Clouds 29 1013 54 6000 3.6 10 11:50 20.09.2019
1611 Clouds 29 1013 54 6000 3.6 10 11:22 20.09.2019
1612 Clouds 29 1013 54 6000 4.6 10 10:58 20.09.2019
1613 Clouds 28 1014 58 6000 4.6 10 10:39 20.09.2019
1614 Clouds 28 1014 58 6000 4.6 10 10:19 20.09.2019
1615 Clouds 26 1014 65 6000 4.6 10 09:38 20.09.2019
1616 Clouds 26 1014 65 6000 4.6 10 09:18 20.09.2019
1617 Clouds 26 1014 65 6000 4.6 350 08:46 20.09.2019
1618 Clouds 25 1014 69 6000 4.6 350 08:26 20.09.2019
1619 Mist 25 1014 69 4000 4.1 360 07:49 20.09.2019
1620 Mist 24 1014 78 4000 4.1 360 07:29 20.09.2019
1621 Mist 24 1014 78 4000 4.6 10 06:48 20.09.2019
1622 Mist 24 1013 78 4000 4.6 360 06:30 20.09.2019
1623 Clouds 24 1013 78 4000 4.6 360 05:58 20.09.2019
1624 Clouds 24 1013 78 4000 4.6 360 05:58 20.09.2019
1625 Clouds 24 1013 78 4000 3.1 10 04:28 20.09.2019
1626 Clear 24 1013 83 6000 4.6 360 03:26 20.09.2019
1627 Clear 24 1013 83 10000 3.6 10 01:45 20.09.2019
1628 Clear 25 1013 78 10000 3.6 10 01:27 20.09.2019
1629 Clear 25 1014 78 10000 3.6 360 00:32 20.09.2019
1630 Clear 25 1014 78 10000 4.6 360 23:46 19.09.2019
1631 Clear 26 1014 74 10000 4.6 20 23:27 19.09.2019
1632 Clear 26 1014 74 10000 4.1 20 22:58 19.09.2019
1633 Clear 26 1014 69 10000 4.1 10 22:39 19.09.2019
1634 Clear 26 1014 69 10000 4.1 10 22:21 19.09.2019
1635 Clear 27 1014 65 10000 5.1 30 21:57 19.09.2019
1636 Clear 27 1014 65 10000 5.1 30 21:38 19.09.2019
1637 Clear 27 1014 65 10000 5.1 30 21:19 19.09.2019
1638 Clear 28 1014 61 10000 4.6 30 20:43 19.09.2019
1639 Clear 28 1014 61 10000 5.7 20 20:23 19.09.2019
1640 Clear 28 1013 61 10000 6.2 10 19:58 19.09.2019
1641 Clear 29 1013 58 10000 6.2 10 19:39 19.09.2019
1642 Clear 29 1013 58 10000 6.2 10 19:21 19.09.2019
1643 Clear 29 1013 58 10000 6.7 360 18:58 19.09.2019
1644 Clear 30 1012 55 10000 6.7 360 18:40 19.09.2019
1645 Clear 30 1012 55 10000 6.7 360 18:21 19.09.2019
1646 Clear 31 1012 46 10000 5.7 10 17:42 19.09.2019
1647 Clear 32 1012 46 10000 5.7 10 17:23 19.09.2019
1648 Clouds 32 1012 43 10000 5.1 360 16:59 19.09.2019
1649 Clouds 32 1012 43 10000 5.1 10 16:40 19.09.2019
1650 Clouds 32 1012 43 10000 5.1 10 16:19 19.09.2019
1651 Clouds 33 1012 41 10000 5.7 360 15:40 19.09.2019
1652 Clouds 33 1012 41 10000 5.7 10 15:40 19.09.2019
1653 Clouds 33 1012 41 10000 5.7 360 15:21 19.09.2019
1654 Clouds 33 1012 41 10000 4.6 10 14:57 19.09.2019
1655 Clouds 32 1012 43 10000 6.2 20 14:38 19.09.2019
1656 Clouds 32 1012 43 10000 6.2 20 14:18 19.09.2019
1657 Clouds 32 1013 46 10000 5.1 20 13:40 19.09.2019
1658 Clouds 32 1013 46 10000 5.1 20 13:21 19.09.2019
1659 Clouds 31 1013 48 10000 5.7 20 12:58 19.09.2019
1660 Clouds 31 1013 48 10000 5.7 360 12:36 19.09.2019
1661 Clouds 31 1013 48 10000 5.7 360 12:36 19.09.2019
1662 Clouds 31 1013 48 10000 5.7 360 12:18 19.09.2019
1663 Clouds 31 1013 48 10000 5.7 360 12:18 19.09.2019
1664 Clouds 29 1014 58 10000 4.6 10 11:41 19.09.2019
1665 Clouds 29 1014 58 10000 4.6 10 11:21 19.09.2019
1666 Clouds 29 1014 58 6000 5.1 30 10:58 19.09.2019
1667 Clouds 29 1014 58 6000 5.1 30 10:38 19.09.2019
1668 Clouds 29 1014 58 6000 5.1 30 10:20 19.09.2019
1669 Clouds 27 1014 65 6000 5.1 20 09:55 19.09.2019
1670 Clouds 27 1014 65 6000 5.1 20 09:55 19.09.2019
1671 Clouds 27 1014 65 6000 5.1 20 09:55 19.09.2019
1672 -273 0 0 0 0 0 09:55 19.09.2019
1673 Clouds 27 1014 65 6000 5.1 20 09:36 19.09.2019
1674 Clouds 27 1014 65 6000 5.1 20 09:36 19.09.2019
1675 Clouds 27 1014 65 6000 5.1 20 09:18 19.09.2019
1676 Clouds 25 1014 78 6000 4.6 10 08:41 19.09.2019
1677 Clouds 25 1014 78 6000 4.6 10 08:22 19.09.2019
1678 Clouds 24 1014 83 6000 3.6 20 07:43 19.09.2019
1679 Clouds 24 1014 83 6000 3.6 20 07:43 19.09.2019
1680 Clouds 24 1014 83 6000 3.6 20 07:22 19.09.2019
1681 Clouds 24 1014 83 6000 3.6 10 06:49 19.09.2019
1682 Clouds 24 1014 83 6000 3.6 10 06:29 19.09.2019
1683 Clouds 24 1014 83 6000 3.6 360 05:53 19.09.2019
1684 Clouds 24 1014 83 6000 3.6 360 05:33 19.09.2019
1685 Clear 24 1013 83 6000 3.6 360 03:54 19.09.2019
1686 Clear 24 1013 83 6000 3.6 360 03:18 19.09.2019
1687 Clear 25 1014 73 10000 3.1 360 01:34 19.09.2019
1688 Clear 25 1014 78 10000 3.1 360 00:53 19.09.2019
1689 Clear 25 1014 73 10000 3.6 30 00:26 19.09.2019
1690 Clear 25 1014 73 10000 3.6 40 23:44 18.09.2019
1691 Clear 26 1015 69 10000 4.6 30 23:23 18.09.2019
1692 Clear 26 1015 69 10000 5.1 30 22:57 18.09.2019
1693 Clear 26 1015 69 10000 4.6 40 22:37 18.09.2019
1694 Clear 26 1015 69 10000 4.6 40 22:19 18.09.2019
1695 Clear 26 1015 65 10000 5.1 40 21:57 18.09.2019
1696 Clear 27 1015 61 10000 5.1 40 21:38 18.09.2019
1697 Clear 27 1015 61 10000 5.1 40 21:18 18.09.2019
1698 Clear 27 1014 57 10000 5.1 30 20:56 18.09.2019
1699 Clear 27 1014 54 10000 5.1 30 20:38 18.09.2019
1700 Clear 28 1014 54 10000 5.1 30 20:20 18.09.2019
1701 Clear 28 1014 58 10000 7.2 360 19:56 18.09.2019
1702 Clear 29 1013 54 10000 6.7 10 19:37 18.09.2019
1703 Clear 29 1013 54 10000 6.7 10 19:18 18.09.2019
1704 Clear 30 1013 48 10000 6.7 10 18:54 18.09.2019
1705 Clear 32 1013 35 10000 6.2 10 18:36 18.09.2019
1706 Clear 32 1013 35 10000 6.2 10 18:18 18.09.2019
1707 Clear 32 1013 35 10000 6.2 10 17:54 18.09.2019
1708 Clear 32 1012 33 10000 4.6 30 17:36 18.09.2019
1709 Clear 33 1012 33 10000 4.6 30 17:18 18.09.2019
1710 Clear 33 1012 33 10000 4.6 30 16:42 18.09.2019
1711 Clear 33 1012 31 10000 5.7 10 16:22 18.09.2019
1712 Clear 33 1012 31 10000 5.1 20 15:57 18.09.2019
1713 Clear 33 1012 31 10000 5.1 10 15:39 18.09.2019
1714 Clear 33 1012 31 10000 5.1 10 15:20 18.09.2019
1715 Clear 33 1012 31 10000 5.1 360 14:58 18.09.2019
1716 Clear 33 1012 31 10000 5.1 360 14:40 18.09.2019
1717 Clear 32 1013 33 10000 5.7 360 14:21 18.09.2019
1718 Clear 32 1013 33 10000 3.6 40 13:58 18.09.2019
1719 Clear 32 1013 33 10000 5.1 350 13:38 18.09.2019
1720 Clear 32 1013 33 10000 5.1 350 13:18 18.09.2019
1721 Clear 31 1013 35 10000 5.7 40 12:44 18.09.2019
1722 Clear 31 1013 35 10000 5.1 360 12:26 18.09.2019
1723 Clear 30 1014 37 10000 4.6 10 11:40 18.09.2019
1724 Clear 30 1014 37 10000 4.6 10 11:20 18.09.2019
1725 Clear 30 1014 40 10000 4.1 20 10:58 18.09.2019
1726 Clear 28 1014 48 10000 3.6 20 10:39 18.09.2019
1727 Clear 28 1014 48 10000 3.6 20 10:20 18.09.2019
1728 Clear 28 1014 48 10000 3.6 20 10:20 18.09.2019
1729 Clear 28 1015 54 10000 3.1 30 09:57 18.09.2019
1730 Clear 27 1015 57 10000 5.1 40 09:37 18.09.2019
1731 Clear 27 1015 57 10000 5.1 40 09:37 18.09.2019
1732 Clear 27 1015 57 10000 5.1 40 09:19 18.09.2019
1733 Clear 26 1015 61 6000 4.6 30 08:41 18.09.2019
1734 Clear 25 1015 69 6000 4.1 30 08:23 18.09.2019
1735 Clear 24 1015 73 6000 3.1 40 07:45 18.09.2019
1736 Clear 23 1014 78 6000 2.6 50 07:26 18.09.2019
1737 Clear 23 1014 78 6000 4.69 11.542 06:55 18.09.2019
1738 Clear 23 1014 78 6000 1.5 20 06:31 18.09.2019
1739 Clear 23 1014 83 6000 1 70 05:40 18.09.2019
1740 Clear 23 1014 83 6000 2.1 360 04:42 18.09.2019
1741 Clear 24 1014 78 6000 2.1 20 02:41 18.09.2019
1742 Clear 24 1014 78 10000 2.6 10 01:54 18.09.2019
1743 Clear 24 1014 78 10000 2.6 360 01:18 18.09.2019
1744 Clear 25 1014 73 10000 3.1 10 00:42 18.09.2019
1745 Clear 25 1014 73 10000 3.6 360 00:19 18.09.2019
1746 Clear 25 1014 69 10000 3.6 10 23:42 17.09.2019
1747 Clear 26 1014 69 10000 3.6 10 23:22 17.09.2019
1748 Clear 26 1015 69 10000 6.7 20 22:42 17.09.2019
1749 Clear 26 1015 69 10000 6.7 20 22:24 17.09.2019
1750 Clear 26 1014 69 10000 6.7 20 21:55 17.09.2019
1751 Clear 27 1014 61 10000 6.7 20 21:37 17.09.2019
1752 Clear 27 1014 61 10000 6.7 20 21:18 17.09.2019
1753 Clear 29 1014 51 10000 8.2 20 20:57 17.09.2019
1754 Clear 29 1014 51 10000 8.2 20 20:39 17.09.2019
1755 Clear 29 1014 51 10000 8.2 20 20:21 17.09.2019
1756 Clear 29 1013 48 10000 5.7 10 19:58 17.09.2019
1757 Clear 30 1013 42 10000 5.7 10 19:39 17.09.2019
1758 Clear 30 1013 42 10000 5.7 10 19:19 17.09.2019
1759 Clear 31 1012 38 10000 5.7 10 18:56 17.09.2019
1760 Clear 31 1012 38 10000 5.7 10 18:38 17.09.2019
1761 Clear 31 1012 38 10000 5.7 10 18:20 17.09.2019
1762 Clear 31 1012 35 10000 6.2 20 17:45 17.09.2019
1763 Clear 32 1012 35 10000 6.2 20 17:20 17.09.2019
1764 Clouds 33 1012 33 10000 5.7 20 16:57 17.09.2019
1765 Clouds 33 1012 36 10000 6.2 10 16:39 17.09.2019
1766 Clouds 33 1012 36 10000 6.2 10 16:21 17.09.2019
1767 Clouds 33 1012 36 10000 6.2 10 16:21 17.09.2019
1768 Clouds 33 1012 36 10000 6.2 10 16:21 17.09.2019
1769 Clouds 33 1012 38 10000 5.7 350 15:40 17.09.2019
1770 Clouds 33 1012 38 10000 5.7 350 15:20 17.09.2019
1771 Clouds 33 1012 36 10000 5.1 10 14:57 17.09.2019
1772 Clouds 33 1013 38 10000 4.6 20 14:38 17.09.2019
1773 Clouds 33 1013 38 10000 4.6 20 14:19 17.09.2019
1774 Clouds 33 1013 38 10000 5.7 10 13:57 17.09.2019
1775 Clouds 33 1013 36 10000 4.6 10 13:38 17.09.2019
1776 Clouds 33 1013 36 10000 4.6 10 13:20 17.09.2019
1777 Clouds 32 1014 43 10000 4.1 10 12:42 17.09.2019
1778 Clouds 32 1014 43 10000 4.1 10 12:19 17.09.2019
1779 Clouds 31 1014 45 10000 4.6 10 11:46 17.09.2019
1780 Clouds 30 1014 48 10000 3.6 10 11:27 17.09.2019
1781 Clouds 30 1015 55 10000 3.6 360 10:59 17.09.2019
1782 Clouds 29 1015 61 10000 3.6 20 10:41 17.09.2019
1783 Clouds 28 1015 61 10000 3.6 20 10:21 17.09.2019
1784 Clouds 27 1015 65 6000 3.1 30 09:56 17.09.2019
1785 Mist 27 1015 65 4000 3.1 30 09:37 17.09.2019
1786 Mist 27 1015 65 4000 3.1 30 09:19 17.09.2019
1787 Mist 26 1015 74 4000 3.1 360 08:43 17.09.2019
1788 Mist 26 1015 78 4000 2.1 360 08:25 17.09.2019
1789 Mist 26 1015 78 4000 2.1 360 08:25 17.09.2019
1790 Mist 25 1015 78 4000 3.1 10 07:46 17.09.2019
1791 Mist 25 1014 78 4000 2.1 360 07:28 17.09.2019
1792 Mist 25 1014 78 4000 2.1 360 06:57 17.09.2019
1793 Mist 25 1014 83 4000 3.1 360 06:36 17.09.2019
1794 Mist 24 1014 83 4000 3.1 360 05:56 17.09.2019
1795 Mist 24 1013 83 4000 2.1 10 05:33 17.09.2019
1796 Clear 24 1013 83 6000 2.6 10 04:19 17.09.2019
1797 Clear 25 1013 78 6000 2.6 10 02:40 17.09.2019
1798 Clear 25 1013 78 10000 3.1 360 01:52 17.09.2019
1799 Clear 26 1013 74 10000 3.6 350 00:58 17.09.2019
1800 Clear 26 1013 74 10000 3.6 350 00:58 17.09.2019
1801 Clear 26 1014 74 10000 3.1 360 23:57 16.09.2019
1802 Clear 26 1014 65 10000 3.6 360 23:36 16.09.2019
1803 Clear 27 1014 65 10000 3.6 360 23:18 16.09.2019
1804 Clear 27 1014 65 10000 3.6 360 22:42 16.09.2019
1805 Clear 27 1014 65 10000 3.6 360 22:42 16.09.2019
1806 Clear 28 1014 61 10000 4.1 10 22:24 16.09.2019
1807 Clear 28 1014 61 10000 5.7 360 21:59 16.09.2019
1808 Clear 28 1014 61 10000 5.7 360 21:59 16.09.2019
1809 Clear 28 1013 61 10000 6.2 360 21:38 16.09.2019
1810 Clear 28 1013 61 10000 6.2 360 21:20 16.09.2019
1811 Clear 30 1013 51 10000 5.1 30 20:58 16.09.2019
1812 Clear 31 1013 40 10000 3.1 20 20:39 16.09.2019
1813 Clear 31 1013 40 10000 3.1 20 20:19 16.09.2019
1814 Clear 31 1012 38 10000 3.6 10 19:55 16.09.2019
1815 Clear 31 1012 38 10000 3.6 10 19:37 16.09.2019
1816 Clear 31 1012 38 10000 3.6 10 19:18 16.09.2019
1817 Clear 31 1012 35 10000 3.6 10 18:43 16.09.2019
1818 Clouds 33 1011 31 10000 3.6 10 18:25 16.09.2019
1819 Clouds 33 1011 31 10000 3.6 10 17:54 16.09.2019
1820 Clouds 33 1011 31 10000 3.6 10 17:36 16.09.2019
1821 Clouds 33 1011 31 10000 3.6 10 17:18 16.09.2019
1822 Clouds 33 1011 33 10000 4.1 320 16:42 16.09.2019
1823 Clouds 33 1011 33 10000 4.1 320 16:21 16.09.2019
1824 Clouds 32 1011 33 10000 4.1 360 15:57 16.09.2019
1825 Clouds 32 1011 33 10000 4.1 360 15:38 16.09.2019
1826 Clouds 32 1011 33 10000 4.1 360 15:38 16.09.2019
1827 Clouds 32 1011 33 10000 4.1 360 15:20 16.09.2019
1828 Clouds 32 1012 38 10000 1.5 30 14:57 16.09.2019
1829 Clouds 32 1012 38 10000 1.5 30 14:39 16.09.2019
1830 Clouds 32 1012 38 10000 1.5 30 14:20 16.09.2019
1831 Clouds 32 1012 35 10000 2.6 350 13:41 16.09.2019
1832 Clouds 32 1012 35 10000 2.6 350 13:22 16.09.2019
1833 Clouds 32 1012 35 10000 2.6 350 13:22 16.09.2019
1834 Clouds 30 1013 45 10000 2.6 350 12:57 16.09.2019
1835 Clouds 30 1013 45 10000 2.6 350 12:38 16.09.2019
1836 Clouds 30 1013 45 10000 2.6 350 12:18 16.09.2019
1837 Clouds 30 1013 48 10000 1.5 300 11:44 16.09.2019
1838 Clouds 29 1013 51 10000 2.6 330 11:22 16.09.2019
1839 Clouds 29 1013 54 10000 2.1 310 10:56 16.09.2019
1840 Clouds 28 1013 58 10000 2.1 310 10:37 16.09.2019
1841 Clouds 28 1013 58 10000 2.1 310 10:18 16.09.2019
1842 Clouds 26 1013 69 10000 1.5 360 09:41 16.09.2019
1843 Clouds 26 1013 69 10000 1.5 360 09:21 16.09.2019
1844 Clouds 26 1013 69 6000 2.1 350 08:55 16.09.2019
1845 Clouds 25 1013 78 6000 1.5 330 08:35 16.09.2019
1846 Clouds 25 1013 78 6000 2.1 10 07:59 16.09.2019
1847 Clouds 25 1013 78 6000 2.1 330 07:41 16.09.2019
1848 Clouds 25 1013 78 6000 2.1 330 07:21 16.09.2019
1849 Clouds 24 1012 83 6000 2.6 310 06:55 16.09.2019
1850 Clouds 24 1012 83 6000 2.6 310 06:36 16.09.2019
1851 Clouds 24 1012 83 6000 2.6 310 06:18 16.09.2019
1852 Clear 24 1012 83 10000 2.1 320 05:41 16.09.2019
1853 Clear 24 1012 83 10000 2.1 320 05:21 16.09.2019
1854 Clear 25 1012 78 10000 2.6 290 03:37 16.09.2019
1855 Clear 26 1012 69 10000 2.6 360 01:20 16.09.2019
1856 Clear 26 1012 69 10000 2.6 350 00:38 16.09.2019
1857 Clear 26 1012 69 10000 2.6 350 00:20 16.09.2019
1858 Clear 26 1012 61 10000 2.6 330 23:39 15.09.2019
1859 Clear 27 1012 61 10000 2.6 330 23:20 15.09.2019
1860 Clear 27 1012 57 10000 3.6 360 22:40 15.09.2019
1861 Clear 27 1012 57 10000 3.6 360 22:21 15.09.2019
1862 Clear 27 1012 57 10000 3.6 360 22:21 15.09.2019
1863 Clear 28 1012 54 10000 3.1 360 21:58 15.09.2019
1864 Clear 28 1012 54 10000 2.6 350 21:39 15.09.2019
1865 Clear 28 1012 54 10000 2.6 350 21:21 15.09.2019
1866 Clear 28 1012 54 10000 3.6 350 20:57 15.09.2019
1867 Clear 28 1012 48 10000 3.6 360 20:38 15.09.2019
1868 Clear 29 1012 48 10000 3.6 360 20:20 15.09.2019
1869 Clouds 29 1012 48 10000 4.1 360 19:42 15.09.2019
1870 Clouds 30 1011 45 10000 4.1 360 19:22 15.09.2019
1871 Clouds 30 1011 45 10000 3.6 340 18:42 15.09.2019
1872 Clouds 31 1011 43 10000 5.1 340 18:24 15.09.2019
1873 Clouds 31 1010 40 10000 4.1 360 17:56 15.09.2019
1874 Clouds 31 1010 40 10000 4.1 360 17:56 15.09.2019
1875 Clouds 31 1010 40 10000 4.6 350 17:37 15.09.2019
1876 Clouds 31 1010 40 10000 4.6 350 17:19 15.09.2019
1877 Clouds 32 1010 38 10000 5.1 310 16:43 15.09.2019
1878 Clouds 32 1010 38 10000 5.1 330 16:25 15.09.2019
1879 Clouds 32 1010 35 10000 4.1 320 15:58 15.09.2019
1880 Clouds 31 1010 40 10000 4.1 330 15:40 15.09.2019
1881 Clouds 31 1010 40 10000 4.1 330 15:20 15.09.2019
1882 Clouds 31 1010 40 10000 5.1 310 14:58 15.09.2019
1883 Clouds 32 1010 38 10000 4.6 280 14:39 15.09.2019
1884 Clouds 32 1010 38 10000 4.6 280 14:20 15.09.2019
1885 Clouds 31 1010 43 10000 3.6 310 13:46 15.09.2019
1886 Clouds 31 1010 43 10000 3.6 310 13:46 15.09.2019
1887 Clouds 32 1011 38 10000 4.6 300 13:24 15.09.2019
1888 Clouds 31 1011 40 10000 4.6 330 12:56 15.09.2019
1889 Clouds 31 1011 43 10000 3.6 300 12:38 15.09.2019
1890 Clouds 31 1011 43 10000 3.6 300 12:18 15.09.2019
1891 Clouds 31 1011 43 10000 3.1 270 11:42 15.09.2019
1892 Clouds 29 1012 51 10000 3.6 290 11:22 15.09.2019
1893 Clouds 29 1012 54 10000 3.1 260 10:56 15.09.2019
1894 Clouds 28 1012 58 10000 3.6 260 10:38 15.09.2019
1895 Clouds 28 1012 58 10000 3.6 260 10:20 15.09.2019
1896 Clouds 28 1012 58 10000 3.6 260 09:40 15.09.2019
1897 Clouds 27 1012 65 10000 4.1 280 09:20 15.09.2019
1898 Clouds 28 1012 61 10000 3.6 250 08:48 15.09.2019
1899 Clouds 26 1011 65 10000 3.1 260 08:29 15.09.2019
1900 Clear 27 1011 65 6000 2.6 250 07:51 15.09.2019
1901 Clear 26 1011 69 6000 3.1 250 07:33 15.09.2019
1902 Clouds 25 1010 69 6000 2.6 290 06:43 15.09.2019
1903 Clouds 25 1010 69 10000 3.6 300 04:38 15.09.2019
1904 Clouds 26 1009 65 10000 1.5 360 02:55 15.09.2019
1905 Clear 26 1010 65 10000 2.1 20 01:58 15.09.2019
1906 Clear 26 1010 65 10000 2.1 10 01:35 15.09.2019
1907 Clear 26 1010 65 10000 1.5 40 00:56 15.09.2019
1908 Clear 27 1010 61 10000 2.1 30 00:36 15.09.2019
1909 Clear 27 1010 61 10000 2.1 30 00:18 15.09.2019
1910 Clear 27 1010 61 10000 2.1 40 23:54 14.09.2019
1911 Clear 27 1010 61 10000 2.1 40 23:54 14.09.2019
1912 Clear 27 1010 61 10000 2.6 50 23:36 14.09.2019
1913 Clear 27 1010 61 10000 2.6 50 23:18 14.09.2019
1914 Clear 27 1011 57 10000 3.1 360 22:55 14.09.2019
1915 Clear 28 1011 54 10000 3.6 360 22:36 14.09.2019
1916 Clear 28 1011 54 10000 3.6 360 22:18 14.09.2019
1917 Clear 28 1010 54 10000 3.6 20 21:40 14.09.2019
1918 Clear 28 1010 54 10000 3.6 20 21:20 14.09.2019
1919 Clouds 28 1010 54 10000 3.6 360 20:56 14.09.2019
1920 Clouds 29 1010 54 10000 4.1 360 20:38 14.09.2019
1921 Clouds 29 1010 54 10000 4.1 360 20:19 14.09.2019
1922 Clouds 29 1010 54 10000 4.1 360 19:45 14.09.2019
1923 Clouds 29 1009 54 10000 4.6 350 19:21 14.09.2019
1924 Clouds 30 1009 45 10000 4.6 330 18:57 14.09.2019
1925 Clouds 31 1008 35 10000 2.6 320 18:37 14.09.2019
1926 Clouds 31 1008 35 10000 2.6 320 18:19 14.09.2019
1927 Clouds 31 1008 33 10000 1 290 17:44 14.09.2019
1928 Clouds 32 1008 33 10000 1.5 300 17:23 14.09.2019
1929 Clouds 32 1008 33 10000 2.6 320 16:50 14.09.2019
1930 Clouds 33 1008 31 10000 2.1 270 16:29 14.09.2019
1931 Clouds 32 1008 29 10000 3.1 300 15:59 14.09.2019
1932 Clouds 32 1008 29 10000 3.1 300 15:40 14.09.2019
1933 Clouds 31 1008 35 10000 4.1 310 15:22 14.09.2019
1934 Clouds 32 1009 35 10000 4.1 280 14:45 14.09.2019
1935 Clouds 32 1009 35 10000 4.1 280 14:19 14.09.2019
1936 Clouds 31 1009 38 10000 3.1 240 13:56 14.09.2019
1937 Clouds 31 1009 38 10000 4.1 250 13:37 14.09.2019
1938 Clouds 31 1009 38 10000 4.1 250 13:19 14.09.2019
1939 Clouds 31 1010 40 10000 3.1 270 12:43 14.09.2019
1940 Clouds 31 1010 40 10000 3.1 270 12:20 14.09.2019
1941 Clouds 29 1010 54 10000 4.1 280 11:41 14.09.2019
1942 Clouds 28 1010 54 10000 4.1 280 11:20 14.09.2019
1943 Clouds 28 1010 54 10000 4.1 280 10:40 14.09.2019
1944 Clouds 29 1010 51 10000 2.1 230 10:21 14.09.2019
1945 Clouds 27 1011 54 10000 3.1 320 09:58 14.09.2019
1946 Clouds 27 1011 57 10000 2.1 280 09:39 14.09.2019
1947 Clouds 27 1011 57 10000 2.1 280 09:20 14.09.2019
1948 Clouds 27 1010 57 10000 2.1 280 08:48 14.09.2019
1949 Clear 26 1010 65 10000 1 328.104 08:26 14.09.2019
1950 Clear 26 1010 65 10000 1 328.104 07:49 14.09.2019
1951 Clear 25 1010 69 10000 1 328.104 07:29 14.09.2019
1952 Clear 24 1010 73 10000 0.5 90 06:53 14.09.2019
1953 Clear 24 1010 73 10000 1 328.104 06:31 14.09.2019
1954 Clear 24 1010 78 10000 2.1 350 05:27 14.09.2019
1955 Clear 24 1010 73 10000 2.1 330 03:53 14.09.2019
1956 Clear 24 1010 73 10000 3.1 340 02:55 14.09.2019
1957 Clear 25 1010 73 10000 2.6 330 02:23 14.09.2019
1958 Clear 25 1010 73 10000 3.1 320 01:42 14.09.2019
1959 Clear 25 1010 73 10000 3.1 320 01:18 14.09.2019
1960 Clear 25 1011 73 10000 3.6 350 00:40 14.09.2019
1961 Clear 25 1011 73 10000 3.6 350 00:21 14.09.2019
1962 Clear 25 1011 69 10000 3.1 310 23:54 13.09.2019
1963 Clear 25 1011 65 10000 4.1 330 23:36 13.09.2019
1964 Clear 26 1011 65 10000 4.1 330 23:18 13.09.2019
1965 Clear 26 1011 65 10000 3.6 310 22:39 13.09.2019
1966 Clear 26 1011 65 10000 3.6 310 22:21 13.09.2019
1967 Clear 27 1011 57 10000 4.1 310 21:58 13.09.2019
1968 Clear 27 1012 57 10000 5.1 310 21:38 13.09.2019
1969 Clear 27 1012 57 10000 5.1 310 21:19 13.09.2019
1970 Clouds 27 1011 57 10000 4.1 340 20:57 13.09.2019
1971 Clouds 28 1011 51 10000 4.1 310 20:37 13.09.2019
1972 Clouds 28 1011 51 10000 4.1 310 20:18 13.09.2019
1973 Clouds 28 1011 54 10000 4.6 330 19:44 13.09.2019
1974 Clouds 29 1010 51 10000 5.7 330 19:22 13.09.2019
1975 Clouds 29 1010 51 10000 5.7 330 18:59 13.09.2019
1976 Clouds 29 1010 45 10000 5.7 320 18:38 13.09.2019
1977 Clouds 29 1010 45 10000 5.7 320 18:38 13.09.2019
1978 Clouds 30 1010 45 10000 5.7 320 18:19 13.09.2019
1979 Clouds 31 1009 45 10000 5.1 320 17:44 13.09.2019
1980 Clouds 31 1009 45 10000 5.1 320 17:21 13.09.2019
1981 Clouds 32 1009 43 10000 4.1 310 16:59 13.09.2019
1982 Clouds 32 1009 43 10000 4.1 310 16:40 13.09.2019
1983 Clouds 32 1009 43 10000 4.1 310 16:19 13.09.2019
1984 Clouds 32 1009 43 10000 4.1 320 15:42 13.09.2019
1985 Clouds 32 1009 43 10000 4.1 320 15:23 13.09.2019
1986 Clouds 32 1010 43 6000 4.1 340 14:56 13.09.2019
1987 Clouds 32 1010 43 6000 4.1 340 14:37 13.09.2019
1988 Clouds 32 1010 43 6000 4.1 340 14:18 13.09.2019
1989 Clouds 31 1011 48 6000 3.6 330 13:41 13.09.2019
1990 Clouds 31 1011 48 6000 3.6 330 13:22 13.09.2019
1991 Clouds 30 1011 51 6000 3.6 330 12:45 13.09.2019
1992 Clear 30 1011 51 10000 3.6 320 12:25 13.09.2019
1993 Clouds 29 1012 54 6000 4.1 310 11:57 13.09.2019
1994 Clouds 29 1012 54 6000 4.1 310 11:20 13.09.2019
1995 Clouds 29 1012 54 6000 3.6 20 10:59 13.09.2019
1996 Clouds 28 1012 58 6000 2.6 340 10:37 13.09.2019
1997 Clouds 28 1012 58 6000 2.6 340 10:18 13.09.2019
1998 Clouds 27 1013 65 6000 2.6 340 09:43 13.09.2019
1999 Clouds 27 1013 65 6000 2.1 360 09:21 13.09.2019
2000 Mist 26 1012 74 4000 2.6 20 08:57 13.09.2019
2001 Mist 26 1012 74 4000 2.6 340 08:39 13.09.2019
2002 Mist 26 1012 74 4000 2.6 340 08:39 13.09.2019
2003 Mist 26 1012 74 4000 2.6 340 08:20 13.09.2019
2004 Mist 25 1012 78 3000 2.1 10 07:41 13.09.2019
2005 Mist 25 1012 78 3000 2.1 10 07:22 13.09.2019
2006 Mist 24 1012 83 3000 1.5 350 06:38 13.09.2019
2007 Mist 24 1012 83 4000 2.1 20 05:39 13.09.2019
2008 Clouds 25 1012 78 6000 2.6 360 04:34 13.09.2019
2009 Clear 25 1012 78 6000 3.1 10 03:33 13.09.2019
2010 Clear 25 1013 78 6000 3.1 350 02:20 13.09.2019
2011 Clear 25 1013 78 6000 2.6 10 01:38 13.09.2019
2012 Clear 25 1013 78 6000 2.6 10 01:18 13.09.2019
2013 Clear 25 1014 78 6000 3.1 360 00:36 13.09.2019
2014 Clear 25 1014 73 10000 3.1 10 23:54 12.09.2019
2015 Clear 26 1014 69 10000 3.6 360 23:30 12.09.2019
2016 Clear 26 1014 69 10000 3.6 360 22:59 12.09.2019
2017 Clear 26 1014 69 10000 3.6 360 22:40 12.09.2019
2018 Clear 26 1015 69 10000 3.6 360 22:22 12.09.2019
2019 Clear 26 1015 69 10000 3.6 360 21:56 12.09.2019
2020 Clear 26 1015 69 10000 3.6 360 21:56 12.09.2019
2021 Clear 27 1015 65 10000 5.1 350 21:37 12.09.2019
2022 Clear 27 1015 65 10000 5.1 350 21:19 12.09.2019
2023 Clear 27 1015 65 10000 5.7 350 20:54 12.09.2019
2024 Clear 27 1014 61 10000 6.2 360 20:36 12.09.2019
2025 Clear 28 1014 61 10000 6.2 360 20:18 12.09.2019
2026 Clear 28 1014 61 10000 5.7 360 19:41 12.09.2019
2027 Clear 29 1014 54 10000 5.7 350 19:20 12.09.2019
2028 Clear 30 1013 48 10000 6.2 350 18:57 12.09.2019
2029 Clear 31 1013 45 10000 6.2 350 18:36 12.09.2019
2030 Clear 31 1013 45 10000 6.2 350 18:18 12.09.2019
2031 Clear 32 1013 43 10000 7.2 360 17:41 12.09.2019
2032 Clear 33 1012 38 10000 6.2 350 17:21 12.09.2019
2033 Clouds 33 1012 38 10000 6.2 10 16:58 12.09.2019
2034 Clouds 33 1012 41 10000 5.7 360 16:40 12.09.2019
2035 Clouds 33 1012 41 10000 5.7 360 16:19 12.09.2019
2036 Clouds 33 1013 41 10000 5.7 360 15:41 12.09.2019
2037 Clouds 33 1013 41 10000 5.7 360 15:23 12.09.2019
2038 Clouds 33 1013 41 10000 5.7 360 15:23 12.09.2019
2039 Clouds 33 1013 38 10000 4.6 10 14:47 12.09.2019
2040 Clouds 33 1013 38 10000 4.6 360 14:23 12.09.2019
2041 Clouds 33 1013 38 10000 4.1 350 13:59 12.09.2019
2042 Clouds 32 1014 38 10000 4.6 350 13:38 12.09.2019
2043 Clouds 32 1014 38 10000 4.6 350 13:20 12.09.2019
2044 Clouds 32 1014 40 10000 4.1 350 12:47 12.09.2019
2045 Clouds 32 1014 43 10000 3.6 360 12:19 12.09.2019
2046 Clouds 30 1015 51 10000 3.1 10 11:57 12.09.2019
2047 Clouds 30 1015 51 10000 3.1 10 11:39 12.09.2019
2048 Clouds 30 1015 51 10000 3.1 10 11:21 12.09.2019
2049 Clouds 29 1015 54 10000 3.6 20 10:48 12.09.2019
2050 Clouds 28 1015 58 10000 3.6 20 10:26 12.09.2019
2051 Clouds 27 1015 61 6000 3.6 10 09:56 12.09.2019
2052 Clouds 27 1015 61 6000 3.6 10 09:38 12.09.2019
2053 Clouds 27 1015 61 6000 3.6 10 09:18 12.09.2019
2054 Clouds 27 1015 61 6000 3.6 10 09:18 12.09.2019
2055 Haze 26 1015 65 4000 3.1 10 08:43 12.09.2019
2056 Haze 26 1015 65 4000 3.1 10 08:23 12.09.2019
2057 Haze 25 1015 73 4000 2.6 10 07:47 12.09.2019
2058 Haze 25 1015 73 4000 2.6 10 07:21 12.09.2019
2059 Haze 24 1015 78 4000 2.6 10 06:52 12.09.2019
2060 Haze 24 1014 78 4000 2.6 10 06:32 12.09.2019
2061 Haze 24 1014 78 4000 2.6 10 06:32 12.09.2019
2062 Haze 24 1014 73 4000 2.6 10 05:54 12.09.2019
2063 Clouds 24 1014 73 6000 2.6 10 05:36 12.09.2019
2064 Clear 24 1014 78 10000 2.6 10 04:45 12.09.2019
2065 Clear 25 1014 73 10000 3.6 30 03:23 12.09.2019
2066 Clear 25 1015 73 10000 3.6 20 01:43 12.09.2019
2067 Clear 25 1015 73 10000 3.6 20 01:23 12.09.2019
2068 Clear 25 1015 73 10000 3.6 20 00:47 12.09.2019
2069 Clear 26 1015 69 10000 3.6 20 00:28 12.09.2019
2070 Clear 26 1015 69 10000 3.6 20 23:43 11.09.2019
2071 Clear 26 1015 69 10000 3.6 20 23:25 11.09.2019
2072 Clear 26 1015 65 10000 5.1 10 22:58 11.09.2019
2073 Clear 26 1015 65 10000 5.1 10 22:38 11.09.2019
2074 Clear 26 1015 65 10000 5.1 10 22:19 11.09.2019
2075 Clear 27 1015 61 10000 6.7 10 21:57 11.09.2019
2076 Clear 27 1015 61 10000 6.7 10 21:39 11.09.2019
2077 Clear 27 1015 61 10000 6.7 10 21:20 11.09.2019
2078 Clear 28 1015 54 10000 6.7 10 20:55 11.09.2019
2079 Clear 28 1015 54 10000 6.7 10 20:37 11.09.2019
2080 Clear 28 1015 54 10000 6.7 10 20:18 11.09.2019
2081 Clear 29 1014 51 10000 6.2 360 19:55 11.09.2019
2082 Clear 30 1014 45 10000 6.2 360 19:37 11.09.2019
2083 Clear 30 1014 45 10000 6.2 360 19:37 11.09.2019
2084 Clear 30 1014 45 10000 6.2 360 19:18 11.09.2019
2085 Clear 31 1013 43 10000 4.6 20 18:42 11.09.2019
2086 Clear 31 1013 43 10000 4.6 20 18:23 11.09.2019
2087 Clear 31 1013 43 10000 4.6 20 18:23 11.09.2019
2088 Clear 31 1013 43 10000 6.2 360 17:58 11.09.2019
2089 Clear 32 1012 38 10000 4.6 330 17:40 11.09.2019
2090 Clear 32 1012 38 10000 4.6 330 17:21 11.09.2019
2091 Clear 32 1012 38 10000 4.6 330 16:56 11.09.2019
2092 Clear 32 1012 40 10000 4.6 340 16:36 11.09.2019
2093 Clear 32 1012 40 10000 4.6 340 16:18 11.09.2019
2094 Clear 32 1012 38 10000 2.6 330 15:46 11.09.2019
2095 Clear 32 1013 40 10000 4.1 30 15:23 11.09.2019
2096 Clear 32 1013 40 10000 2.1 310 14:58 11.09.2019
2097 Clear 32 1013 40 10000 5.1 340 14:38 11.09.2019
2098 Clear 32 1013 40 10000 5.1 340 14:20 11.09.2019
2099 Clear 32 1013 43 10000 4.6 340 13:57 11.09.2019
2100 Clouds 30 1019 42 10000 4.6 360 13:36 11.09.2019
2101 Clouds 30 1019 42 10000 4.6 360 13:18 11.09.2019
2102 Clouds 30 1019 42 10000 4.6 360 12:42 11.09.2019
2103 Clouds 30 1014 48 10000 3.6 350 12:21 11.09.2019
2104 Clouds 30 1014 48 10000 3.6 350 11:56 11.09.2019
2105 Clear 30 1014 48 0 3.58 350 11:37 11.09.2019
2106 Clouds 28 1014 58 10000 3.6 360 11:18 11.09.2019
2107 Clouds 28 1014 58 10000 3.6 360 11:18 11.09.2019
2108 Clouds 28 1014 58 10000 3.6 360 10:41 11.09.2019
2109 Clouds 28 1014 58 10000 3.6 360 10:22 11.09.2019
2110 Clouds 27 1014 61 6000 3.6 350 09:57 11.09.2019
2111 Clouds 27 1014 61 6000 3.6 350 09:37 11.09.2019
2112 Clouds 27 1014 61 6000 3.6 350 09:18 11.09.2019
2113 Clouds 27 1014 61 6000 3.6 350 09:18 11.09.2019
2114 Clouds 25 1014 73 6000 2.6 10 08:40 11.09.2019
2115 Clouds 25 1014 73 6000 2.6 10 08:40 11.09.2019
2116 Haze 25 1013 73 4000 2.6 10 08:21 11.09.2019
2117 Haze 25 1013 73 4000 2.6 10 07:49 11.09.2019
2118 Haze 24 1013 78 4000 2.1 20 07:24 11.09.2019
2119 Clouds 24 1013 78 6000 2.1 360 06:59 11.09.2019
2120 Clouds 24 1013 78 6000 2.1 10 06:36 11.09.2019
2121 Clouds 24 1013 78 6000 2.6 360 05:53 11.09.2019
2122 Clouds 24 1012 78 6000 2.1 20 05:33 11.09.2019
2123 Clouds 24 1012 78 6000 2.1 20 04:52 11.09.2019
2124 Clear 24 1012 78 6000 2.1 20 03:58 11.09.2019
2125 Clear 24 1012 78 6000 1.5 0 03:25 11.09.2019
2126 Clear 25 1012 73 6000 1.5 10 02:28 11.09.2019
2127 Clear 25 1012 73 6000 3.1 350 01:31 11.09.2019
2128 Clear 25 1012 73 10000 3.1 360 00:37 11.09.2019
2129 Clear 25 1012 73 10000 3.1 360 00:18 11.09.2019
2130 Clear 25 1012 73 10000 3.6 340 23:40 10.09.2019
2131 Clear 26 1012 65 10000 3.6 350 23:21 10.09.2019
2132 Clear 26 1012 65 10000 4.1 350 22:55 10.09.2019
2133 Clear 26 1012 65 10000 4.1 20 22:37 10.09.2019
2134 Clear 26 1012 65 10000 4.1 20 22:18 10.09.2019
2135 Clear 26 1012 65 10000 4.1 20 22:18 10.09.2019
2136 Clear 27 1012 61 10000 3.6 10 21:54 10.09.2019
2137 Clear 27 1012 57 10000 4.1 360 21:36 10.09.2019
2138 Clear 27 1012 57 10000 4.1 360 21:18 10.09.2019
2139 Clear 27 1012 57 10000 4.1 360 21:18 10.09.2019
2140 Clear 28 1012 54 10000 5.1 360 20:54 10.09.2019
2141 Clear 28 1011 54 10000 5.7 10 20:36 10.09.2019
2142 Clear 29 1011 54 10000 5.7 10 20:18 10.09.2019
2143 Clear 29 1011 54 10000 6.2 10 19:55 10.09.2019
2144 -273 0 0 0 0 0 19:55 10.09.2019
2145 Clear 30 1010 48 10000 4.6 360 19:36 10.09.2019
2146 Clear 30 1010 48 10000 4.6 360 19:18 10.09.2019
2147 Clear 30 1010 48 10000 4.6 360 19:18 10.09.2019
2148 Clear 31 1010 43 10000 4.6 360 18:42 10.09.2019
2149 Clear 31 1010 43 10000 4.6 360 18:22 10.09.2019
2150 Clear 31 1009 43 10000 4.6 360 17:57 10.09.2019
2151 Clear 32 1009 40 10000 4.6 360 17:39 10.09.2019
2152 Clear 32 1009 40 10000 4.6 360 17:19 10.09.2019
2153 Clear 32 1009 40 10000 5.1 360 16:57 10.09.2019
2154 Clear 33 1009 38 10000 4.1 350 16:37 10.09.2019
2155 Clear 33 1009 38 10000 4.1 350 16:19 10.09.2019
2156 Clear 33 1009 38 10000 4.1 350 16:19 10.09.2019
2157 Clear 33 1009 36 10000 4.1 360 15:43 10.09.2019
2158 Clear 33 1009 38 10000 4.1 350 15:23 10.09.2019
2159 Clear 33 1009 38 10000 4.6 330 14:57 10.09.2019
2160 Clouds 33 1009 38 10000 3.6 310 14:39 10.09.2019
2161 Clouds 33 1009 38 10000 3.6 310 14:20 10.09.2019
2162 Clouds 32 1010 40 10000 3.6 330 13:47 10.09.2019
2163 Clouds 32 1010 40 10000 3.1 340 13:23 10.09.2019
2164 Clouds 31 1010 45 10000 3.6 330 12:53 10.09.2019
2165 Clouds 31 1010 45 10000 3.6 330 12:53 10.09.2019
2166 Clouds 31 1011 43 10000 3.1 320 12:28 10.09.2019
2167 Clouds 30 1011 48 10000 2.6 360 11:59 10.09.2019
2168 Clouds 30 1011 48 10000 2.6 340 11:40 10.09.2019
2169 Clouds 30 1011 48 10000 2.6 340 11:22 10.09.2019
2170 Clouds 29 1011 51 10000 3.6 340 10:54 10.09.2019
2171 Clouds 28 1011 54 10000 4.1 320 10:36 10.09.2019
2172 Clouds 28 1011 54 10000 4.1 320 10:18 10.09.2019
2173 Clouds 27 1012 61 10000 4.1 330 09:43 10.09.2019
2174 Clouds 27 1012 61 10000 4.1 330 09:20 10.09.2019
2175 Clouds 27 1012 61 10000 4.1 330 09:20 10.09.2019
2176 Clouds 26 1011 69 10000 2.6 340 08:48 10.09.2019
2177 Clouds 26 1011 69 10000 3.1 340 08:29 10.09.2019
2178 Clouds 26 1011 69 10000 3.1 340 08:29 10.09.2019
2179 Clouds 25 1011 73 10000 3.1 340 07:59 10.09.2019
2180 Clouds 25 1011 73 10000 2.6 350 07:41 10.09.2019
2181 Clouds 25 1011 73 10000 2.6 350 07:41 10.09.2019
2182 Clouds 25 1011 73 10000 2.6 350 07:23 10.09.2019
2183 Clouds 24 1011 78 10000 2.6 310 06:40 10.09.2019
2184 Clouds 24 1011 78 10000 2.6 310 06:20 10.09.2019
2185 Clear 25 1010 73 10000 3.1 310 04:24 10.09.2019
2186 Clear 26 1010 69 10000 2.6 320 02:40 10.09.2019
2187 Clear 26 1010 69 10000 2.6 320 02:21 10.09.2019
2188 Clouds 26 1010 69 10000 2.1 330 01:50 10.09.2019
2189 Clouds 26 1010 69 10000 2.1 330 01:50 10.09.2019
2190 Clouds 26 1011 69 10000 3.1 340 01:23 10.09.2019
2191 Clear 26 1011 69 10000 2.6 340 00:36 10.09.2019
2192 Clear 26 1011 69 10000 3.1 340 00:00 10.09.2019
2193 Clear 26 1011 69 10000 3.6 360 23:40 09.09.2019
2194 Clear 26 1011 69 10000 3.6 360 23:18 09.09.2019
2195 Clear 26 1011 69 10000 3.6 360 22:55 09.09.2019
2196 Clear 26 1011 69 10000 3.6 360 22:55 09.09.2019
2197 Clear 26 1011 69 10000 3.6 360 22:55 09.09.2019
2198 Clear 26 1011 69 10000 4.6 350 22:36 09.09.2019
2199 Clear 26 1011 69 10000 4.6 350 22:36 09.09.2019
2200 Clear 26 1011 69 10000 4.6 350 22:18 09.09.2019
2201 Clear 27 1011 65 10000 4.1 350 21:55 09.09.2019
2202 Clear 27 1011 65 10000 5.1 360 21:37 09.09.2019
2203 Clear 27 1011 65 10000 5.1 360 21:18 09.09.2019
2204 Clear 27 1011 65 10000 5.1 350 20:55 09.09.2019
2205 Clear 28 1011 58 10000 5.7 350 20:36 09.09.2019
2206 Clear 28 1011 58 10000 5.7 350 20:18 09.09.2019
2207 Clear 29 1010 54 10000 5.1 350 19:55 09.09.2019
2208 Clear 30 1010 51 10000 5.7 350 19:37 09.09.2019
2209 Clear 30 1010 51 10000 5.7 360 19:18 09.09.2019
2210 Clear 30 1010 51 10000 5.7 360 18:54 09.09.2019
2211 Clear 31 1009 45 10000 4.6 350 18:36 09.09.2019
2212 Clear 31 1009 45 10000 4.6 350 18:18 09.09.2019
2213 Clear 32 1009 43 10000 5.1 350 17:55 09.09.2019
2214 Clear 32 1009 43 10000 5.1 350 17:37 09.09.2019
2215 Clear 32 1009 43 10000 5.1 350 17:19 09.09.2019
2216 Clear 33 1009 38 10000 5.1 340 16:40 09.09.2019
2217 Clear 33 1009 38 10000 5.1 340 16:21 09.09.2019
2218 Clear 33 1009 36 10000 4.1 330 15:56 09.09.2019
2219 Clear 33 1009 36 10000 4.1 330 15:38 09.09.2019
2220 Clear 33 1009 36 10000 4.1 330 15:20 09.09.2019
2221 Clear 33 1009 38 10000 4.6 340 14:57 09.09.2019
2222 Clear 33 1009 38 10000 4.6 340 14:39 09.09.2019
2223 Clear 33 1009 38 10000 4.6 340 14:20 09.09.2019
2224 Clouds 32 1010 40 10000 4.1 320 13:45 09.09.2019
2225 Clouds 32 1010 40 10000 4.1 320 13:22 09.09.2019
2226 Clouds 32 1010 40 10000 4.1 320 13:22 09.09.2019
2227 Clouds 31 1010 45 10000 3.6 320 12:59 09.09.2019
2228 Clouds 31 1010 45 10000 3.6 320 12:59 09.09.2019
2229 Clouds 31 1010 45 10000 3.6 320 12:41 09.09.2019
2230 Clouds 31 1010 45 10000 3.6 320 12:21 09.09.2019
2231 Clouds 30 1010 48 10000 3.1 340 11:57 09.09.2019
2232 Clouds 30 1011 51 10000 3.6 320 11:39 09.09.2019
2233 Clouds 29 1011 51 10000 3.6 320 11:18 09.09.2019
2234 Clouds 28 1011 54 10000 4.1 320 10:42 09.09.2019
2235 Clouds 28 1011 54 10000 4.1 320 10:23 09.09.2019
2236 Clouds 27 1012 61 10000 3.1 330 09:58 09.09.2019
2237 Clouds 26 1012 65 10000 3.6 310 09:39 09.09.2019
2238 Clouds 26 1012 65 10000 3.6 310 09:21 09.09.2019
2239 Clouds 26 1011 65 10000 3.1 320 08:39 09.09.2019
2240 Clouds 26 1011 65 10000 3.1 320 08:21 09.09.2019
2241 Clear 26 1011 65 10000 2.6 340 07:58 09.09.2019
2242 Clear 25 1011 69 10000 1.5 350 07:39 09.09.2019
2243 Clear 25 1011 69 10000 1.5 350 07:20 09.09.2019
2244 Clear 25 1011 69 10000 2.1 350 06:46 09.09.2019
2245 Clear 25 1011 69 10000 2.6 350 05:37 09.09.2019
2246 Clear 25 1011 69 10000 3.6 340 02:59 09.09.2019
2247 Clear 25 1012 69 10000 2.6 350 02:41 09.09.2019
2248 Clear 26 1012 65 10000 3.1 350 01:20 09.09.2019
2249 Clear 26 1012 65 10000 2.6 340 00:23 09.09.2019
2250 Clear 26 1012 65 10000 4.1 350 23:47 08.09.2019
2251 Clear 26 1012 65 10000 4.1 350 23:29 08.09.2019
2252 Clear 26 1012 65 10000 4.1 350 22:59 08.09.2019
2253 Clear 26 1012 65 10000 4.6 350 22:39 08.09.2019
2254 Clear 26 1012 65 10000 4.6 350 22:21 08.09.2019
2255 Clear 26 1012 65 10000 4.6 350 21:57 08.09.2019
2256 Clear 27 1012 61 10000 5.1 350 21:39 08.09.2019
2257 Clear 27 1012 61 10000 5.1 350 21:21 08.09.2019
2258 Clear 28 1012 58 10000 5.1 360 20:41 08.09.2019
2259 Clear 29 1012 58 10000 5.1 360 20:22 08.09.2019
2260 Clear 29 1011 54 10000 5.1 360 19:59 08.09.2019
2261 Clear 30 1011 48 10000 5.7 350 19:39 08.09.2019
2262 Clear 30 1011 48 10000 5.7 350 19:21 08.09.2019
2263 Clear 30 1011 48 10000 5.7 350 19:21 08.09.2019
2264 Clouds 31 1011 48 10000 5.1 360 18:58 08.09.2019
2265 Clouds 31 1010 45 10000 4.6 360 18:39 08.09.2019
2266 Clouds 31 1010 45 10000 4.6 360 18:19 08.09.2019
2267 Clouds 32 1010 43 10000 5.1 360 17:58 08.09.2019
2268 Clouds 32 1010 43 10000 5.1 360 17:58 08.09.2019
2269 Clouds 32 1010 40 10000 5.1 360 17:37 08.09.2019
2270 Clouds 32 1010 40 10000 5.1 360 17:18 08.09.2019
2271 Clouds 33 1010 38 10000 5.1 360 16:55 08.09.2019
2272 Clouds 33 1010 38 10000 4.6 350 16:37 08.09.2019
2273 Clouds 33 1010 38 10000 4.6 350 16:18 08.09.2019
2274 Clouds 33 1010 38 10000 4.6 340 15:42 08.09.2019
2275 Clouds 33 1010 38 10000 4.6 340 15:22 08.09.2019
2276 Clouds 33 1010 38 10000 5.1 350 14:59 08.09.2019
2277 Clouds 33 1010 41 10000 3.6 330 14:39 08.09.2019
2278 Clouds 33 1010 41 10000 3.6 330 14:21 08.09.2019
2279 Clouds 33 1010 43 10000 4.1 320 13:57 08.09.2019
2280 Clouds 32 1011 46 10000 4.1 310 13:39 08.09.2019
2281 Clouds 32 1011 46 10000 4.1 310 13:21 08.09.2019
2282 Clouds 32 1011 46 10000 3.6 320 12:55 08.09.2019
2283 Clouds 32 1011 46 10000 3.6 320 12:37 08.09.2019
2284 Clouds 32 1011 46 10000 3.6 320 12:18 08.09.2019
2285 Clouds 31 1011 48 10000 2.6 340 11:54 08.09.2019
2286 Clouds 30 1012 51 10000 2.6 340 11:36 08.09.2019
2287 Clouds 30 1012 51 10000 2.6 340 11:18 08.09.2019
2288 Clouds 30 1013 58 10000 3.6 340 10:41 08.09.2019
2289 Clouds 29 1013 58 10000 3.6 340 10:22 08.09.2019
2290 Clouds 28 1013 65 6000 3.1 300 09:55 08.09.2019
2291 Clouds 28 1013 65 6000 3.1 350 09:37 08.09.2019
2292 Clouds 28 1013 65 6000 3.1 350 09:19 08.09.2019
2293 Clouds 26 1012 74 6000 2.6 340 08:39 08.09.2019
2294 Clouds 26 1012 74 6000 2.6 340 08:19 08.09.2019
2295 Haze 26 1012 74 4000 2.6 320 07:43 08.09.2019
2296 Haze 26 1012 74 4000 2.6 320 07:21 08.09.2019
2297 Haze 25 1012 78 4000 3.5 341.223 06:57 08.09.2019
2298 Haze 25 1012 78 4000 3.5 341.223 06:38 08.09.2019
2299 Clouds 25 1012 78 6000 2.1 360 05:40 08.09.2019
2300 Clouds 25 1012 78 6000 2.1 360 05:21 08.09.2019
2301 Clouds 26 1011 74 6000 2.1 360 03:23 08.09.2019
2302 Clouds 26 1011 74 6000 2.1 360 02:48 08.09.2019
2303 Clear 26 1012 74 6000 2.6 360 01:54 08.09.2019
2304 Clear 26 1012 74 6000 3.1 350 01:29 08.09.2019
2305 Clear 26 1012 69 6000 2.1 350 00:49 08.09.2019
2306 Clear 26 1012 69 10000 3.1 340 00:30 08.09.2019
2307 Clear 27 1012 65 10000 2.1 10 23:58 07.09.2019
2308 Clear 27 1012 65 10000 3.6 20 23:37 07.09.2019
2309 Clear 27 1012 65 10000 3.6 20 23:19 07.09.2019
2310 Clear 27 1013 65 10000 4.1 10 22:44 07.09.2019
2311 Clear 27 1013 65 10000 4.1 10 22:25 07.09.2019
2312 Clear 27 1013 65 10000 4.1 360 21:57 07.09.2019
2313 Clear 28 1013 58 10000 5.7 10 21:39 07.09.2019
2314 Clear 28 1013 58 10000 5.7 10 21:21 07.09.2019
2315 Clear 28 1012 54 10000 5.7 10 20:40 07.09.2019
2316 Clear 29 1012 54 10000 5.7 10 20:22 07.09.2019
2317 Clouds 30 1012 48 10000 6.2 10 19:57 07.09.2019
2318 Clouds 31 1011 48 10000 5.7 10 19:38 07.09.2019
2319 Clouds 31 1011 48 10000 5.1 360 19:20 07.09.2019
2320 Clouds 31 1011 48 10000 5.1 360 18:59 07.09.2019
2321 Clouds 31 1011 43 10000 4.1 360 18:40 07.09.2019
2322 Clouds 32 1011 43 10000 4.1 360 18:20 07.09.2019
2323 Clouds 32 1011 40 10000 4.6 360 17:59 07.09.2019
2324 Clouds 32 1011 40 10000 4.6 360 17:59 07.09.2019
2325 Clouds 33 1011 38 10000 5.1 350 17:39 07.09.2019
2326 Clouds 33 1011 38 10000 5.1 350 17:39 07.09.2019
2327 Clouds 33 1011 38 10000 5.1 350 17:18 07.09.2019
2328 Clouds 33 1010 38 10000 5.1 350 16:58 07.09.2019
2329 Clouds 33 1010 38 10000 5.1 350 16:58 07.09.2019
2330 Clouds 33 1010 38 10000 4.6 320 16:40 07.09.2019
2331 Clouds 33 1010 38 10000 4.6 320 16:19 07.09.2019
2332 Clouds 33 1010 41 10000 3.6 330 15:46 07.09.2019
2333 Clouds 33 1010 41 10000 3.6 330 15:26 07.09.2019
2334 Clouds 34 1010 36 10000 4.6 310 14:57 07.09.2019
2335 Clouds 34 1011 36 10000 4.6 280 14:37 07.09.2019
2336 Clouds 34 1011 36 10000 4.6 280 14:19 07.09.2019
2337 Clear 33 1011 43 10000 3.6 330 13:57 07.09.2019
2338 Clear 33 1011 43 10000 3.6 330 13:39 07.09.2019
2339 Clear 33 1011 43 10000 3.6 330 13:20 07.09.2019
2340 Clear 32 1012 40 10000 3.6 320 12:44 07.09.2019
2341 Clear 32 1012 40 10000 3.6 320 12:25 07.09.2019
2342 Clear 31 1012 48 10000 3.6 300 11:55 07.09.2019
2343 Clear 31 1012 48 10000 3.6 300 11:36 07.09.2019
2344 Clear 31 1012 48 10000 3.6 300 11:18 07.09.2019
2345 Clear 30 1012 48 10000 2.6 360 10:38 07.09.2019
2346 Clear 30 1012 48 10000 2.6 360 10:20 07.09.2019
2347 Clear 29 1012 58 10000 2.1 360 09:43 07.09.2019
2348 Clear 29 1012 58 10000 2.1 360 09:25 07.09.2019
2349 Clear 28 1012 65 10000 2.1 10 08:59 07.09.2019
2350 Clear 27 1012 69 10000 2.1 10 08:40 07.09.2019
2351 Clear 27 1012 69 10000 2.1 10 08:22 07.09.2019
2352 Clear 26 1012 74 10000 1.5 10 07:45 07.09.2019
2353 Clear 26 1012 74 10000 1.5 10 07:25 07.09.2019
2354 Clear 25 1012 78 10000 1.5 90 06:47 07.09.2019
2355 Clear 25 1012 78 10000 1.5 90 06:19 07.09.2019
2356 Clear 26 1011 78 10000 2.1 10 04:48 07.09.2019
2357 Clear 26 1011 78 10000 2.1 10 04:20 07.09.2019
2358 Clear 26 1011 74 10000 2.6 10 02:45 07.09.2019
2359 Clear 26 1012 74 10000 4.1 10 01:46 07.09.2019
2360 Clear 26 1012 74 10000 4.1 10 01:18 07.09.2019
2361 Clear 27 1012 69 10000 5.1 10 00:39 07.09.2019
2362 Clear 27 1012 69 10000 5.1 10 00:19 07.09.2019
2363 Clear 27 1012 65 10000 5.1 30 23:40 06.09.2019
2364 Clear 28 1012 65 10000 5.1 30 23:21 06.09.2019
2365 Clear 28 1012 65 10000 5.1 30 23:21 06.09.2019
2366 Clear 28 1012 65 10000 5.1 40 22:57 06.09.2019
2367 Clear 28 1012 61 10000 5.7 30 22:38 06.09.2019
2368 Clear 28 1012 61 10000 5.7 30 22:19 06.09.2019
2369 Clear 28 1012 65 10000 5.7 50 21:57 06.09.2019
2370 Clear 29 1012 66 10000 6.2 40 21:39 06.09.2019
2371 Clear 29 1012 66 10000 6.2 40 21:20 06.09.2019
2372 Clear 29 1012 70 10000 6.7 20 20:57 06.09.2019
2373 Clear 29 1012 66 10000 6.7 20 20:38 06.09.2019
2374 Clear 30 1012 66 10000 6.7 20 20:19 06.09.2019
2375 Clear 32 1010 59 10000 8.2 20 19:55 06.09.2019
2376 Clear 32 1010 59 10000 8.2 20 19:37 06.09.2019
2377 Clear 32 1010 59 10000 8.2 20 19:18 06.09.2019
2378 Clouds 33 1010 38 10000 6.2 10 18:41 06.09.2019
2379 Clouds 34 1010 38 10000 6.2 10 18:23 06.09.2019
2380 Clouds 34 1010 38 10000 5.7 10 17:58 06.09.2019
2381 Clouds 34 1009 36 10000 5.7 10 17:37 06.09.2019
2382 Clouds 35 1009 36 10000 5.7 10 17:19 06.09.2019
2383 Clouds 36 1009 30 10000 4.6 350 16:39 06.09.2019
2384 Clouds 36 1009 30 10000 4.6 350 16:19 06.09.2019
2385 Clouds 36 1009 30 10000 3.6 320 15:42 06.09.2019
2386 Clouds 36 1009 30 10000 3.6 320 15:42 06.09.2019
2387 Clouds 36 1009 30 10000 3.6 320 15:23 06.09.2019
2388 Clouds 37 1010 30 6000 4.6 320 14:55 06.09.2019
2389 -273 0 0 0 0 0 14:55 06.09.2019
2390 Clouds 37 1010 30 6000 4.6 320 14:37 06.09.2019
2391 Clouds 37 1010 30 6000 4.6 320 14:37 06.09.2019
2392 Clouds 37 1010 30 6000 4.6 320 14:18 06.09.2019
2393 Clear 36 1010 28 6000 3.6 10 13:41 06.09.2019
2394 Clear 36 1010 28 6000 3.6 10 13:41 06.09.2019
2395 Clear 36 1010 28 6000 3.6 10 13:20 06.09.2019
2396 Clear 35 1011 28 6000 2.6 10 12:38 06.09.2019
2397 Clear 35 1011 28 6000 2.6 10 12:20 06.09.2019
2398 Clear 34 1011 34 6000 2.1 350 11:54 06.09.2019
2399 Clear 34 1011 34 6000 2.1 350 11:36 06.09.2019
2400 Clear 34 1011 34 6000 2.1 350 11:18 06.09.2019
2401 Clear 33 1011 41 6000 1.5 310 10:40 06.09.2019
2402 Clear 33 1011 41 6000 1.5 310 10:22 06.09.2019
2403 Clear 32 1011 46 6000 2.1 320 09:58 06.09.2019
2404 Clear 31 1011 52 6000 2.1 320 09:36 06.09.2019
2405 Clear 31 1011 52 6000 2.1 320 09:18 06.09.2019
2406 Clear 30 1011 55 6000 2.1 300 08:44 06.09.2019
2407 Clear 30 1011 55 6000 2.1 300 08:26 06.09.2019
2408 Clear 28 1010 61 6000 2.68 358.072 07:49 06.09.2019
2409 Clear 28 1010 61 6000 2.68 358.072 07:28 06.09.2019
2410 Clear 27 1010 65 6000 2.68 358.072 06:58 06.09.2019
2411 Clear 27 1010 65 6000 2.68 358.072 06:28 06.09.2019
2412 Clear 27 1009 65 10000 2.19 6.161 05:43 06.09.2019
2413 Clear 27 1009 65 10000 2.19 6.161 04:54 06.09.2019
2414 Clear 27 1009 65 10000 2.19 6.161 04:19 06.09.2019
2415 Clear 27 1009 65 10000 2.6 70 02:27 06.09.2019
2416 Clear 28 1009 69 10000 4.6 70 00:51 06.09.2019
2417 Clear 28 1009 69 10000 5.7 60 23:58 05.09.2019
2418 Clear 28 1010 69 10000 4.6 60 23:40 05.09.2019
2419 Clear 28 1010 69 10000 4.6 60 23:21 05.09.2019
2420 Clear 29 1010 66 10000 5.1 60 22:45 05.09.2019
2421 Clear 29 1010 66 10000 4.6 60 22:25 05.09.2019
2422 Clear 29 1010 66 10000 5.7 50 21:57 05.09.2019
2423 Clear 30 1010 55 10000 5.7 50 21:38 05.09.2019
2424 Clear 30 1010 55 10000 5.7 50 21:20 05.09.2019
2425 Clear 31 1010 45 10000 4.1 50 20:58 05.09.2019
2426 Clear 32 1010 40 10000 4.1 20 20:38 05.09.2019
2427 Clear 32 1010 40 10000 4.1 20 20:20 05.09.2019
2428 Clear 32 1009 43 10000 4.1 10 19:57 05.09.2019
2429 Clear 32 1009 43 10000 4.6 20 19:38 05.09.2019
2430 Clear 32 1009 43 10000 4.6 20 19:19 05.09.2019
2431 Clear 33 1008 41 10000 4.6 10 18:41 05.09.2019
2432 Clear 33 1008 41 10000 4.6 10 18:23 05.09.2019
2433 Clear 33 1008 36 10000 5.1 340 17:59 05.09.2019
2434 Clear 35 1008 32 10000 5.1 310 17:39 05.09.2019
2435 Clear 35 1008 32 10000 5.1 310 17:39 05.09.2019
2436 Clear 35 1008 32 10000 5.1 310 17:20 05.09.2019
2437 Clear 35 1008 32 10000 4.6 320 16:57 05.09.2019
2438 Clear 35 1008 34 10000 3.6 340 16:39 05.09.2019
2439 Clear 35 1008 34 10000 3.6 340 16:18 05.09.2019
2440 Clear 35 1008 32 10000 4.6 290 15:40 05.09.2019
2441 Clear 35 1008 32 10000 4.6 290 15:40 05.09.2019
2442 Clear 35 1008 32 10000 4.6 290 15:19 05.09.2019
2443 Clear 35 1008 32 10000 4.6 290 15:19 05.09.2019
2444 Clear 35 1008 34 10000 2.6 320 14:57 05.09.2019
2445 Clear 35 1008 34 10000 2.6 320 14:57 05.09.2019
2446 Clear 35 1009 32 10000 3.6 350 14:38 05.09.2019
2447 Clear 35 1009 32 10000 3.6 350 14:18 05.09.2019
2448 Clear 34 1009 34 10000 3.6 340 13:43 05.09.2019
2449 Clear 34 1009 34 10000 3.6 340 13:20 05.09.2019
2450 Clear 33 1009 31 10000 2.6 280 12:45 05.09.2019
2451 Clear 33 1009 31 10000 2.6 280 12:26 05.09.2019
2452 Clear 33 1009 31 10000 2.6 280 12:26 05.09.2019
2453 Clear 32 1009 33 10000 2.72 327.621 11:58 05.09.2019
2454 Clear 32 1009 33 10000 2.72 327.621 11:39 05.09.2019
2455 Clear 32 1009 33 10000 2.72 327.621 11:18 05.09.2019
2456 Clear 32 1009 40 10000 2.72 327.621 10:42 05.09.2019
2457 Clear 32 1009 40 10000 2.72 327.621 10:22 05.09.2019
2458 Clear 32 1009 40 10000 2.72 327.621 10:22 05.09.2019
2459 Clear 30 1010 42 10000 2.72 327.621 09:58 05.09.2019
2460 Clear 29 1010 42 10000 2.72 327.621 09:58 05.09.2019
2461 Clear 29 1010 42 10000 2.83 335.538 09:39 05.09.2019
2462 Clear 29 1010 42 10000 0.97 4.616 09:18 05.09.2019
2463 Clear 27 1009 65 10000 2.6 90 08:46 05.09.2019
2464 Clear 27 1009 65 10000 2.6 90 08:26 05.09.2019
2465 Clear 25 1009 73 10000 1 90 07:46 05.09.2019
2466 Clear 25 1009 73 10000 1 90 07:28 05.09.2019
2467 Clear 25 1009 73 10000 1.5 90 06:58 05.09.2019
2468 Clear 25 1009 73 10000 1.5 90 06:31 05.09.2019
2469 Clear 25 1008 73 10000 3.1 90 05:51 05.09.2019
2470 Clear 25 1008 73 10000 3.1 90 05:32 05.09.2019
2471 Clear 25 1009 73 6000 2.1 80 04:55 05.09.2019
2472 Clear 25 1009 73 6000 2.1 80 04:29 05.09.2019
2473 Clear 26 1009 69 6000 1.5 0 03:40 05.09.2019
2474 Clear 26 1008 69 6000 1.5 20 02:53 05.09.2019
2475 Clear 26 1009 69 10000 2.1 360 02:27 05.09.2019
2476 Clear 27 1009 65 10000 2.1 360 01:37 05.09.2019
2477 Clear 27 1009 65 10000 2.6 360 00:48 05.09.2019
2478 Clear 27 1010 65 10000 2.6 360 00:22 05.09.2019
2479 Clear 27 1010 65 10000 3.1 360 23:56 04.09.2019
2480 Clear 27 1010 58 10000 3.1 360 23:37 04.09.2019
2481 Clear 28 1010 58 10000 3.1 360 23:18 04.09.2019
2482 Clear 28 1010 58 10000 3.1 360 22:46 04.09.2019
2483 Clear 28 1010 58 10000 3.1 360 22:19 04.09.2019
2484 Clear 29 1010 48 10000 3.6 360 21:41 04.09.2019
2485 Clear 29 1010 48 10000 3.6 360 21:20 04.09.2019
2486 Clear 29 1010 48 10000 3.6 360 20:58 04.09.2019
2487 Clear 30 1009 42 10000 3.6 350 20:40 04.09.2019
2488 Clear 30 1009 42 10000 3.6 350 20:20 04.09.2019
2489 Clouds 30 1009 42 10000 4.6 350 19:58 04.09.2019
2490 Clouds 31 1009 43 10000 5.1 350 19:39 04.09.2019
2491 Clouds 31 1009 43 10000 5.1 350 19:20 04.09.2019
2492 Clouds 32 1008 40 10000 4.1 320 18:41 04.09.2019
2493 Clouds 32 1008 40 10000 4.1 320 18:23 04.09.2019
2494 Clouds 32 1008 40 10000 4.1 320 18:23 04.09.2019
2495 Clouds 32 1008 40 10000 5.1 300 17:56 04.09.2019
2496 Clouds 32 1008 40 10000 5.1 300 17:56 04.09.2019
2497 Clouds 33 1007 36 10000 4.6 310 17:38 04.09.2019
2498 Clouds 33 1007 36 10000 4.6 310 17:20 04.09.2019
2499 Clouds 34 1007 34 10000 4.6 300 16:48 04.09.2019
2500 Clouds 34 1007 32 10000 4.6 330 16:28 04.09.2019
2501 Clouds 34 1007 32 10000 5.1 300 15:59 04.09.2019
2502 Clouds 34 1007 32 10000 5.1 300 15:39 04.09.2019
2503 Clouds 34 1007 32 10000 5.1 300 15:21 04.09.2019
2504 Clouds 33 1007 33 10000 3.6 320 14:58 04.09.2019
2505 Clouds 33 1008 34 10000 2.6 330 14:38 04.09.2019
2506 Clouds 34 1008 34 10000 2.6 330 14:20 04.09.2019
2507 Clouds 33 1008 36 10000 4.1 330 13:57 04.09.2019
2508 Clouds 33 1008 38 10000 3.1 330 13:38 04.09.2019
2509 Clouds 33 1008 38 10000 3.1 330 13:19 04.09.2019
2510 Clouds 32 1009 38 10000 3.1 310 12:43 04.09.2019
2511 Clouds 32 1009 38 10000 3.1 310 12:24 04.09.2019
2512 Clouds 30 1009 42 10000 3.6 330 11:56 04.09.2019
2513 Clear 30 1009 42 0 3.58 330 11:37 04.09.2019
2514 Clouds 29 1010 54 6000 2.6 360 11:19 04.09.2019
2515 Clouds 29 1010 54 6000 2.6 360 10:45 04.09.2019
2516 Clouds 29 1010 54 6000 2.6 360 10:26 04.09.2019
2517 Clouds 27 1010 65 6000 2.6 350 09:58 04.09.2019
2518 Clouds 27 1010 65 6000 2.6 350 09:40 04.09.2019
2519 Clouds 27 1010 65 6000 2.6 350 09:19 04.09.2019
2520 Clouds 26 1010 69 6000 2.6 340 08:42 04.09.2019
2521 Clouds 26 1010 69 6000 2.6 340 08:24 04.09.2019
2522 Clear 26 1009 69 6000 2.6 330 07:58 04.09.2019
2523 Clear 26 1009 69 6000 2.6 330 07:35 04.09.2019
2524 Clear 25 1009 73 6000 2.6 330 06:53 04.09.2019
2525 Clear 25 1009 73 6000 2.6 330 06:32 04.09.2019
2526 Clear 25 1009 73 6000 2.1 350 04:54 04.09.2019
2527 Clear 25 1009 73 6000 2.1 350 04:22 04.09.2019
2528 Clear 25 1009 69 6000 2.6 350 02:36 04.09.2019
2529 Clear 26 1010 65 6000 2.6 350 00:58 04.09.2019
2530 Clear 26 1010 65 6000 3.1 340 00:39 04.09.2019
2531 Clear 26 1010 61 10000 4.1 10 00:18 04.09.2019
2532 Clear 27 1011 61 10000 4.1 10 23:48 03.09.2019
2533 Clear 27 1011 61 10000 4.1 10 23:26 03.09.2019
2534 Clear 27 1011 61 10000 4.1 10 22:41 03.09.2019
2535 Clear 27 1011 61 10000 4.1 10 22:23 03.09.2019
2536 Clear 28 1011 58 10000 5.1 360 21:57 03.09.2019
2537 Clear 28 1011 58 10000 5.1 360 21:57 03.09.2019
2538 Clear 28 1011 58 10000 5.1 360 21:38 03.09.2019
2539 Clear 28 1011 58 10000 5.1 360 21:20 03.09.2019
2540 Clear 30 1010 51 10000 5.1 360 20:56 03.09.2019
2541 Clear 30 1010 51 10000 5.1 360 20:37 03.09.2019
2542 Clear 30 1010 51 10000 5.1 360 20:19 03.09.2019
2543 Clear 30 1009 48 10000 4.6 360 19:43 03.09.2019
2544 Clear 30 1009 45 10000 4.6 360 19:20 03.09.2019
2545 Clear 31 1009 45 10000 4.6 360 18:59 03.09.2019
2546 Clear 31 1009 45 10000 4.6 360 18:59 03.09.2019
2547 Clear 31 1009 45 10000 4.6 360 18:40 03.09.2019
2548 Clear 31 1009 45 10000 4.6 360 18:20 03.09.2019
2549 Clear 32 1009 40 10000 4.6 360 17:56 03.09.2019
2550 Clear 32 1009 40 10000 4.6 360 17:38 03.09.2019
2551 Clear 32 1009 40 10000 4.6 360 17:18 03.09.2019
2552 Clouds 32 1009 43 10000 4.1 360 16:43 03.09.2019
2553 Clouds 32 1009 43 10000 4.1 360 16:22 03.09.2019
2554 Clouds 32 1009 43 10000 4.1 360 16:22 03.09.2019
2555 Clouds 32 1009 40 10000 4.1 360 15:56 03.09.2019
2556 Clouds 32 1009 40 10000 4.1 360 15:37 03.09.2019
2557 Clouds 32 1009 40 10000 4.1 360 15:19 03.09.2019
2558 Clouds 32 1009 40 10000 4.1 360 15:19 03.09.2019
2559 Clouds 32 1010 38 10000 4.1 360 14:56 03.09.2019
2560 Clouds 32 1010 38 10000 4.1 360 14:37 03.09.2019
2561 Clouds 32 1010 38 10000 4.1 360 14:18 03.09.2019
2562 Clouds 32 1010 38 10000 3.6 320 13:55 03.09.2019
2563 Clouds 32 1010 38 10000 3.6 320 13:55 03.09.2019
2564 Clouds 32 1010 38 10000 3.6 320 13:37 03.09.2019
2565 Clouds 32 1010 38 10000 3.6 320 13:18 03.09.2019
2566 Clouds 31 1010 43 10000 2.6 350 12:46 03.09.2019
2567 Clouds 31 1010 43 10000 2.6 350 12:28 03.09.2019
2568 Clouds 30 1011 45 10000 3.1 10 11:43 03.09.2019
2569 Clouds 29 1011 45 10000 3.1 10 11:25 03.09.2019
2570 Clouds 29 1011 45 10000 3.6 350 10:58 03.09.2019
2571 Clouds 28 1011 51 10000 3.1 40 10:40 03.09.2019
2572 Clouds 28 1011 51 10000 3.1 40 10:21 03.09.2019
2573 Clouds 28 1012 54 10000 2.6 40 09:50 03.09.2019
2574 Clouds 28 1012 54 10000 2.6 40 09:50 03.09.2019
2575 Clouds 27 1012 57 10000 2.6 50 09:32 03.09.2019
2576 Clouds 27 1011 61 10000 2.6 30 08:57 03.09.2019
2577 Clouds 26 1011 65 10000 3.1 30 08:38 03.09.2019
2578 Clouds 26 1011 65 10000 3.1 30 08:38 03.09.2019
2579 Clouds 26 1011 65 10000 3.1 30 08:19 03.09.2019
2580 Clouds 25 1011 73 10000 3.1 40 07:43 03.09.2019
2581 Clouds 25 1011 73 10000 3.1 40 07:24 03.09.2019
2582 Clouds 25 1011 73 10000 2.6 30 06:50 03.09.2019
2583 Clouds 25 1011 73 10000 2.6 30 06:32 03.09.2019
2584 Clear 25 1010 69 10000 2.6 30 03:44 03.09.2019
2585 Clear 26 1010 65 10000 3.1 30 02:48 03.09.2019
2586 Clear 26 1010 65 10000 3.1 40 02:29 03.09.2019
2587 Clear 26 1010 65 10000 2.6 50 01:58 03.09.2019
2588 Clear 26 1011 65 10000 3.1 50 01:40 03.09.2019
2589 Clear 26 1011 65 10000 3.1 50 01:21 03.09.2019
2590 Clear 26 1011 65 10000 2.6 60 00:28 03.09.2019
2591 Clear 26 1011 65 10000 3.1 60 23:56 02.09.2019
2592 Clear 26 1011 65 10000 3.6 60 23:36 02.09.2019
2593 Clear 26 1011 65 10000 3.6 60 23:36 02.09.2019
2594 Clear 26 1011 65 10000 3.6 60 23:18 02.09.2019
2595 Clear 26 1011 65 10000 3.6 60 23:18 02.09.2019
2596 Clear 26 1011 65 10000 3.6 60 23:18 02.09.2019
2597 Clear 27 1011 61 10000 3.6 60 22:54 02.09.2019
2598 Clear 27 1011 61 10000 3.6 60 22:54 02.09.2019
2599 Clear 27 1011 61 10000 3.6 20 22:36 02.09.2019
2600 Clear 27 1011 61 10000 3.6 20 22:18 02.09.2019
2601 Clear 27 1011 61 10000 4.6 10 21:54 02.09.2019
2602 Clear 28 1011 58 10000 5.1 20 21:36 02.09.2019
2603 Clear 28 1011 58 10000 5.1 20 21:18 02.09.2019
2604 Clear 28 1010 58 10000 5.7 10 20:41 02.09.2019
2605 Clear 29 1010 58 10000 5.7 10 20:21 02.09.2019
2606 Clear 29 1010 58 10000 7.2 360 19:57 02.09.2019
2607 Clear 32 1009 43 10000 5.1 360 19:39 02.09.2019
2608 Clear 32 1009 43 10000 5.1 360 19:39 02.09.2019
2609 Clear 32 1009 43 10000 5.1 360 19:21 02.09.2019
2610 Clear 32 1009 43 10000 4.1 340 18:41 02.09.2019
2611 Clear 32 1009 43 10000 4.1 340 18:23 02.09.2019
2612 Clear 33 1009 43 10000 4.1 330 17:59 02.09.2019
2613 Clear 33 1009 38 10000 3.1 320 17:40 02.09.2019
2614 Clear 34 1009 38 10000 3.1 320 17:21 02.09.2019
2615 Clear 33 1009 41 10000 3.6 350 16:59 02.09.2019
2616 Clear 34 1009 36 10000 3.6 320 16:38 02.09.2019
2617 Clear 34 1009 36 10000 3.6 320 16:20 02.09.2019
2618 Clear 34 1009 38 10000 3.6 340 15:45 02.09.2019
2619 Clear 34 1009 34 10000 2.6 360 15:26 02.09.2019
2620 Clear 34 1009 36 10000 2.6 300 14:57 02.09.2019
2621 Clear 34 1009 34 10000 3.6 310 14:39 02.09.2019
2622 Clear 34 1009 34 10000 3.6 310 14:21 02.09.2019
2623 Clear 34 1009 34 10000 3.1 340 13:56 02.09.2019
2624 Clear 34 1009 32 10000 2.1 310 13:36 02.09.2019
2625 Clear 34 1009 32 10000 2.1 310 13:18 02.09.2019
2626 Clear 33 1010 33 10000 4.1 10 12:43 02.09.2019
2627 Clear 33 1010 33 10000 4.1 10 12:24 02.09.2019
2628 Clear 32 1010 38 10000 3.1 20 11:58 02.09.2019
2629 Clear 32 1010 38 10000 3.1 350 11:38 02.09.2019
2630 Clear 32 1010 38 10000 3.1 350 11:20 02.09.2019
2631 Clouds 31 1010 43 10000 3.1 350 10:56 02.09.2019
2632 Clouds 30 1011 45 10000 3.1 10 10:37 02.09.2019
2633 Clouds 30 1011 45 10000 3.1 10 10:19 02.09.2019
2634 Clouds 29 1011 58 10000 2.6 60 09:45 02.09.2019
2635 Clouds 28 1011 61 10000 3.6 40 09:22 02.09.2019
2636 Clouds 27 1011 69 10000 3.6 30 08:45 02.09.2019
2637 Clouds 26 1010 78 10000 3.1 50 08:45 02.09.2019
2638 Clouds 26 1010 78 10000 3.1 50 08:23 02.09.2019
2639 Clear 26 1010 78 10000 3.1 60 07:58 02.09.2019
2640 Clear 25 1010 83 10000 3.1 60 07:40 02.09.2019
2641 Clear 25 1010 83 10000 3.1 60 07:21 02.09.2019
2642 Clear 25 1010 83 6000 2.1 50 06:44 02.09.2019
2643 Clear 25 1010 83 6000 2.1 50 06:22 02.09.2019
2644 Clear 25 1010 78 6000 2.1 50 05:44 02.09.2019
2645 Clear 25 1010 78 6000 2.1 50 05:18 02.09.2019
2646 Clear 25 1010 78 10000 3.1 360 02:46 02.09.2019
2647 Clear 26 1010 74 10000 3.1 10 01:45 02.09.2019
2648 Clear 26 1010 74 10000 4.6 30 00:47 02.09.2019
2649 Clear 26 1010 74 10000 4.6 30 00:28 02.09.2019
2650 Clear 27 1010 65 10000 5.1 360 23:43 01.09.2019
2651 Clear 27 1010 65 10000 5.1 360 23:22 01.09.2019
2652 Clear 27 1010 65 10000 5.1 10 22:58 01.09.2019
2653 Clear 28 1010 61 10000 5.1 10 22:39 01.09.2019
2654 Clear 28 1010 61 10000 5.1 10 22:19 01.09.2019
2655 Clear 28 1010 61 10000 4.1 10 21:57 01.09.2019
2656 Clear 28 1009 61 10000 6.7 360 21:37 01.09.2019
2657 Clear 28 1009 61 10000 6.7 360 21:19 01.09.2019
2658 Clear 29 1009 58 10000 5.7 360 20:56 01.09.2019
2659 Clear 29 1008 55 10000 5.1 360 20:36 01.09.2019
2660 Clear 30 1008 55 10000 5.1 360 20:18 01.09.2019
2661 Clear 32 1007 46 10000 6.2 10 19:56 01.09.2019
2662 Clear 32 1007 46 10000 6.2 10 19:37 01.09.2019
2663 Clear 32 1007 38 10000 5.1 350 19:18 01.09.2019
2664 Clear 34 1007 34 10000 5.7 360 18:41 01.09.2019
2665 Clear 34 1007 34 10000 5.7 360 18:23 01.09.2019
2666 Clear 34 1006 32 10000 4.1 20 17:55 01.09.2019
2667 Clear 34 1006 32 10000 4.1 20 17:37 01.09.2019
2668 Clear 34 1006 32 10000 4.1 20 17:18 01.09.2019
2669 Clear 34 1006 32 10000 5.1 330 16:39 01.09.2019
2670 Clear 34 1006 32 10000 5.1 330 16:18 01.09.2019
2671 Clear 34 1006 34 10000 3.6 20 15:47 01.09.2019
2672 Clear 34 1006 34 10000 3.6 20 15:29 01.09.2019
2673 Clear 34 1007 36 10000 3.6 20 14:56 01.09.2019
2674 Clear 34 1007 36 10000 3.6 20 14:37 01.09.2019
2675 Clear 34 1007 36 10000 3.6 20 14:19 01.09.2019
2676 Clear 34 1007 36 10000 3.6 10 13:42 01.09.2019
2677 Clear 34 1007 36 10000 3.6 10 13:24 01.09.2019
2678 Clouds 33 1008 41 10000 3.6 360 12:59 01.09.2019
2679 Clouds 33 1008 41 10000 3.6 360 12:40 01.09.2019
2680 Clouds 33 1008 41 10000 3.6 360 12:40 01.09.2019
2681 Clouds 33 1008 41 10000 3.6 360 12:21 01.09.2019
2682 Clouds 32 1008 52 6000 3.6 30 11:40 01.09.2019
2683 Clouds 32 1008 52 6000 3.6 30 11:20 01.09.2019
2684 Clouds 31 1008 52 6000 3.1 350 10:58 01.09.2019
2685 Clouds 30 1008 58 6000 3.1 360 10:39 01.09.2019
2686 Clouds 30 1008 58 6000 3.1 360 10:20 01.09.2019
2687 Clouds 28 1008 69 6000 3.6 350 09:42 01.09.2019
2688 Clouds 28 1008 69 6000 3.6 350 09:24 01.09.2019
2689 Mist 27 1008 78 3000 2.6 360 08:44 01.09.2019
2690 Mist 27 1008 78 3000 2.6 360 08:23 01.09.2019
2691 Mist 26 1008 83 3000 2.6 20 07:49 01.09.2019
2692 Mist 26 1008 78 3000 2.6 360 07:31 01.09.2019
2693 Mist 25 1008 83 3000 1.5 70 06:42 01.09.2019
2694 Mist 25 1008 83 3000 1.5 70 06:23 01.09.2019
2695 Mist 25 1008 83 3000 2.6 10 05:39 01.09.2019
2696 Mist 26 1008 78 3000 2.6 360 04:29 01.09.2019
2697 Clear 26 1008 78 6000 2.6 360 03:41 01.09.2019
2698 Clear 26 1008 78 6000 2.6 10 02:57 01.09.2019
2699 Clear 26 1008 78 6000 2.6 10 02:26 01.09.2019
2700 Clear 26 1008 78 10000 3.6 360 01:50 01.09.2019
2701 Clear 26 1008 78 10000 3.6 360 01:50 01.09.2019
2702 Clear 27 1008 69 10000 3.1 360 01:22 01.09.2019
2703 Clear 27 1008 69 10000 3.6 10 00:45 01.09.2019
2704 Clear 27 1009 69 10000 4.1 10 00:22 01.09.2019
2705 Clear 27 1009 69 10000 4.1 10 23:49 31.08.2019
2706 Clear 28 1009 65 10000 5.1 360 23:22 31.08.2019
2707 Clear 28 1009 65 10000 5.1 360 22:58 31.08.2019
2708 Clear 28 1009 69 10000 5.1 360 22:40 31.08.2019
2709 Clear 28 1009 69 10000 5.1 360 22:22 31.08.2019
2710 Clear 28 1009 69 10000 6.2 360 21:55 31.08.2019
2711 Clear 29 1008 66 10000 5.7 30 21:37 31.08.2019
2712 Clear 29 1008 66 10000 5.7 30 21:19 31.08.2019
2713 Clear 30 1008 55 10000 6.7 350 20:47 31.08.2019
2714 Clear 32 1007 38 10000 3.1 10 20:28 31.08.2019
2715 Clear 32 1007 35 10000 3.1 10 19:56 31.08.2019
2716 Clear 33 1007 33 10000 4.6 10 19:37 31.08.2019
2717 Clear 33 1007 33 10000 4.6 10 19:19 31.08.2019
2718 Clear 33 1007 36 10000 4.6 340 18:40 31.08.2019
2719 Clear 33 1007 36 10000 4.6 340 18:20 31.08.2019
2720 Clear 34 1006 34 10000 4.6 340 17:56 31.08.2019
2721 Clear 34 1006 32 10000 3.6 340 17:37 31.08.2019
2722 Clear 34 1006 32 10000 3.6 340 17:18 31.08.2019
2723 Clear 35 1006 28 10000 3.6 350 16:57 31.08.2019
2724 Clear 35 1006 30 10000 2.6 350 16:39 31.08.2019
2725 Clear 35 1006 30 10000 2.6 350 16:20 31.08.2019
2726 Clear 35 1006 30 10000 3.1 340 15:55 31.08.2019
2727 Clear 34 1007 32 10000 3.1 350 15:36 31.08.2019
2728 Clear 34 1007 32 10000 3.1 350 15:18 31.08.2019
2729 Clear 35 1007 32 10000 1.5 300 14:41 31.08.2019
2730 Clear 35 1007 32 10000 1.5 300 14:41 31.08.2019
2731 Clear 35 1007 32 10000 1.5 300 14:22 31.08.2019
2732 Clear 35 1008 32 10000 3.1 280 13:41 31.08.2019
2733 Clear 34 1008 32 10000 3.1 280 13:23 31.08.2019
2734 Clear 34 1008 32 10000 1.5 340 12:59 31.08.2019
2735 Clear 33 1008 36 10000 3.6 320 12:39 31.08.2019
2736 Clear 33 1008 36 10000 3.6 320 12:20 31.08.2019
2737 Clear 32 1009 38 10000 3.1 360 11:55 31.08.2019
2738 Clear 31 1009 43 10000 2.6 340 11:36 31.08.2019
2739 Clear 31 1009 43 10000 2.6 340 11:18 31.08.2019
2740 Clear 30 1009 58 6000 1.5 320 10:41 31.08.2019
2741 Clear 29 1009 58 6000 1.5 320 10:19 31.08.2019
2742 Clear 29 1009 58 6000 1.5 320 10:19 31.08.2019
2743 Clear 29 1010 54 6000 1 350 09:57 31.08.2019
2744 Clear 28 1010 61 6000 1 360 09:38 31.08.2019
2745 Clear 28 1010 61 6000 1 360 09:19 31.08.2019
2746 Clear 26 1010 74 6000 1 350 08:43 31.08.2019
2747 Clear 26 1010 74 6000 1 350 08:23 31.08.2019
2748 Mist 25 1009 83 4000 1.5 350 07:41 31.08.2019
2749 Mist 25 1009 83 4000 1.5 350 07:22 31.08.2019
2750 Mist 25 1009 83 4000 2.1 360 06:44 31.08.2019
2751 Mist 25 1009 83 4000 2.1 360 06:20 31.08.2019
2752 Clear 25 1009 83 6000 2.1 360 05:34 31.08.2019
2753 Clear 25 1009 83 6000 1.5 20 04:36 31.08.2019
2754 Clear 25 1009 83 6000 2.1 10 03:45 31.08.2019
2755 Clear 26 1009 78 6000 2.1 10 02:49 31.08.2019
2756 Clear 26 1010 78 6000 2.6 360 01:56 31.08.2019
2757 Clear 26 1010 78 6000 3.1 360 01:35 31.08.2019
2758 Clear 26 1010 78 6000 3.1 360 01:35 31.08.2019
2759 Clear 26 1010 78 10000 3.1 360 00:52 31.08.2019
2760 Clear 26 1010 78 10000 3.1 360 00:52 31.08.2019
2761 Clear 26 1010 78 10000 3.1 360 00:52 31.08.2019
2762 Clear 27 1010 74 10000 3.1 360 00:31 31.08.2019
2763 Clear 27 1011 69 10000 3.1 20 23:59 30.08.2019
2764 Clear 27 1011 69 10000 3.1 20 23:40 30.08.2019
2765 Clear 27 1011 65 10000 4.6 360 23:18 30.08.2019
2766 Clear 28 1011 61 10000 4.6 10 22:43 30.08.2019
2767 Clear 28 1011 61 10000 4.6 10 22:25 30.08.2019
2768 Clear 29 1011 58 10000 5.1 10 21:59 30.08.2019
2769 Clear 29 1011 54 10000 5.7 10 21:38 30.08.2019
2770 Clear 29 1011 54 10000 5.7 10 21:20 30.08.2019
2771 Clear 30 1011 48 10000 5.7 10 20:59 30.08.2019
2772 Clear 30 1010 45 10000 5.7 10 20:41 30.08.2019
2773 Clear 31 1010 45 10000 5.7 10 20:21 30.08.2019
2774 Clear 31 1010 45 10000 6.7 10 19:59 30.08.2019
2775 Clear 32 1010 46 10000 6.7 10 19:40 30.08.2019
2776 Clear 32 1010 46 10000 6.7 10 19:40 30.08.2019
2777 Clear 32 1010 46 10000 6.7 10 19:21 30.08.2019
2778 Clouds 32 1009 49 10000 6.7 20 18:55 30.08.2019
2779 Clouds 32 1009 46 10000 5.7 360 18:37 30.08.2019
2780 Clouds 33 1009 46 10000 5.7 360 18:18 30.08.2019
2781 Clouds 35 1009 32 10000 4.6 360 17:55 30.08.2019
2782 Clouds 35 1009 32 10000 4.6 360 17:37 30.08.2019
2783 Clouds 35 1009 32 10000 4.6 360 17:18 30.08.2019
2784 Clouds 36 1009 26 10000 4.1 360 16:43 30.08.2019
2785 Clouds 36 1009 26 10000 4.1 360 16:24 30.08.2019
2786 Clouds 36 1009 23 10000 4.1 350 15:45 30.08.2019
2787 Clouds 36 1009 23 10000 4.1 350 15:25 30.08.2019
2788 Clouds 36 1009 22 6000 3.6 350 14:59 30.08.2019
2789 Clouds 36 1009 22 6000 3.6 350 14:41 30.08.2019
2790 Clouds 36 1009 22 6000 3.6 350 14:23 30.08.2019
2791 Clouds 35 1010 32 6000 3.1 330 13:44 30.08.2019
2792 Clouds 35 1010 32 6000 3.1 330 13:23 30.08.2019
2793 Clouds 33 1011 41 6000 2.6 350 12:58 30.08.2019
2794 Clouds 33 1011 41 6000 2.6 350 12:40 30.08.2019
2795 Clouds 33 1011 41 6000 2.6 350 12:22 30.08.2019
2796 Clouds 32 1011 46 6000 2.6 300 11:43 30.08.2019
2797 Clouds 32 1011 46 6000 2.6 300 11:24 30.08.2019
2798 Clouds 29 1012 62 6000 1 340 10:43 30.08.2019
2799 Clouds 29 1012 62 6000 1 340 10:25 30.08.2019
2800 Clouds 29 1012 62 6000 1.5 310 09:59 30.08.2019
2801 Clouds 28 1012 65 6000 3.1 330 09:40 30.08.2019
2802 Clouds 28 1012 65 6000 3.1 330 09:19 30.08.2019
2803 Clouds 27 1012 69 6000 2.6 340 08:57 30.08.2019
2804 Clouds 27 1012 69 6000 2.6 340 08:57 30.08.2019
2805 Clouds 27 1011 74 6000 3.1 30 08:38 30.08.2019
2806 Clouds 27 1011 74 6000 3.1 30 08:20 30.08.2019
2807 Mist 26 1011 78 4000 2.6 10 07:42 30.08.2019
2808 Mist 26 1011 78 4000 2.6 10 07:23 30.08.2019
2809 Mist 25 1011 83 4000 2.1 360 06:47 30.08.2019
2810 Mist 25 1011 83 4000 2.1 360 06:29 30.08.2019
2811 Clouds 25 1011 83 6000 2.6 360 05:54 30.08.2019
2812 Clouds 25 1011 83 6000 2.6 360 05:54 30.08.2019
2813 Clear 26 1010 83 10000 3.1 360 04:20 30.08.2019
2814 Clear 26 1010 83 10000 3.1 360 03:46 30.08.2019
2815 Clear 26 1010 83 10000 3.1 360 03:27 30.08.2019
2816 Clear 26 1010 83 10000 2.6 10 02:32 30.08.2019
2817 Clear 27 1011 78 10000 3.1 10 01:38 30.08.2019
2818 Clear 27 1011 78 10000 3.1 350 00:45 30.08.2019
2819 Clear 27 1011 78 10000 3.6 360 00:18 30.08.2019
2820 Clear 27 1012 78 10000 3.6 10 23:41 29.08.2019
2821 Clear 27 1012 78 10000 3.6 10 23:21 29.08.2019
2822 Clear 28 1012 69 10000 3.6 20 22:44 29.08.2019
2823 Clear 28 1012 69 10000 3.6 20 22:26 29.08.2019
2824 Clear 29 1012 66 10000 4.1 360 21:58 29.08.2019
2825 Clear 29 1012 66 10000 4.1 10 21:39 29.08.2019
2826 Clear 29 1012 66 10000 4.1 10 21:21 29.08.2019
2827 -273 0 0 0 0 0 20:56 29.08.2019
2828 Clear 31 1011 55 10000 5.1 360 20:37 29.08.2019
2829 Clear 31 1011 55 10000 5.1 360 20:37 29.08.2019
2830 Clear 31 1011 52 10000 5.7 360 20:18 29.08.2019
2831 Clear 32 1010 46 10000 5.1 360 19:46 29.08.2019
2832 Clear 32 1010 46 10000 5.1 360 19:25 29.08.2019
2833 Clear 33 1010 43 10000 5.7 360 18:54 29.08.2019
2834 Clear 35 1010 43 10000 5.7 350 18:36 29.08.2019
2835 Clear 34 1010 43 10000 5.7 350 18:18 29.08.2019
2836 Clear 34 1010 43 10000 5.7 350 17:54 29.08.2019
2837 Clear 35 1009 41 10000 5.1 340 17:36 29.08.2019
2838 Clouds 35 1009 41 10000 5.1 350 17:18 29.08.2019
2839 Clouds 36 1009 34 10000 5.1 320 16:41 29.08.2019
2840 Clouds 36 1009 34 10000 5.7 320 16:22 29.08.2019
2841 Clouds 36 1009 34 10000 5.7 350 15:41 29.08.2019
2842 Clouds 36 1009 34 10000 5.7 350 15:21 29.08.2019
2843 Clouds 36 1009 34 10000 4.6 310 14:58 29.08.2019
2844 Clouds 36 1010 34 10000 4.1 320 14:39 29.08.2019
2845 Clouds 36 1010 34 10000 4.1 320 14:20 29.08.2019
2846 Clouds 35 1010 39 10000 4.6 340 13:56 29.08.2019
2847 Clouds 35 1010 39 10000 4.1 310 13:37 29.08.2019
2848 Clouds 35 1010 39 10000 4.1 310 13:18 29.08.2019
2849 Clouds 34 1010 44 10000 3.6 300 12:56 29.08.2019
2850 Clouds 34 1011 41 10000 4.1 330 12:37 29.08.2019
2851 Clouds 34 1011 41 10000 4.1 330 12:19 29.08.2019
2852 Clouds 31 1011 55 10000 2.6 350 11:42 29.08.2019
2853 Clouds 31 1011 55 10000 2.6 350 11:21 29.08.2019
2854 Clouds 31 1011 55 10000 2.6 350 10:57 29.08.2019
2855 Clouds 31 1011 55 10000 2.6 350 10:38 29.08.2019
2856 Clouds 31 1011 55 10000 2.6 350 10:38 29.08.2019
2857 Clouds 31 1011 55 10000 2.6 350 10:19 29.08.2019
2858 Clouds 29 1011 66 10000 2.1 330 09:41 29.08.2019
2859 Clouds 29 1011 66 10000 2.1 330 09:19 29.08.2019
2860 Clouds 28 1012 69 10000 2.6 360 08:45 29.08.2019
2861 Clouds 28 1012 69 10000 2.6 360 08:25 29.08.2019
2862 Clouds 27 1011 74 10000 2.6 340 07:58 29.08.2019
2863 Clouds 27 1011 74 10000 2.6 340 07:37 29.08.2019
2864 Clouds 27 1011 74 10000 2.6 340 07:18 29.08.2019
2865 Clouds 26 1011 78 10000 2.6 360 06:40 29.08.2019
2866 Clouds 26 1011 78 10000 3.1 20 05:52 29.08.2019
2867 Clouds 26 1011 78 10000 3.1 20 05:31 29.08.2019
2868 Clear 27 1011 74 6000 3.1 360 04:48 29.08.2019
2869 Clear 27 1011 74 6000 3.1 360 04:28 29.08.2019
2870 Clear 27 1011 78 6000 3.1 360 02:18 29.08.2019
2871 Clear 27 1011 78 6000 3.1 350 01:40 29.08.2019
2872 Clear 27 1011 78 6000 3.1 360 00:48 29.08.2019
2873 Clear 27 1011 78 6000 3.1 350 00:24 29.08.2019
2874 Clear 28 1011 74 10000 2.6 350 23:59 28.08.2019
2875 Clear 28 1012 74 10000 3.6 360 23:39 28.08.2019
2876 Clear 28 1012 74 10000 3.6 360 23:39 28.08.2019
2877 Clear 28 1012 74 10000 3.6 360 23:21 28.08.2019
2878 Clear 28 1012 74 10000 4.1 360 22:56 28.08.2019
2879 Clear 29 1012 70 10000 4.1 360 22:38 28.08.2019
2880 Clear 29 1012 70 10000 4.1 360 22:18 28.08.2019
2881 Clear 29 1012 70 10000 4.1 360 22:18 28.08.2019
2882 Clear 30 1012 70 10000 5.1 360 21:46 28.08.2019
2883 Clear 30 1012 70 10000 5.1 360 21:26 28.08.2019
2884 Clear 31 1011 66 10000 6.2 360 20:59 28.08.2019
2885 Clear 31 1011 62 10000 3.6 350 20:40 28.08.2019
2886 Clear 31 1011 62 10000 3.6 350 20:22 28.08.2019
2887 Clear 33 1010 38 10000 3.6 10 19:44 28.08.2019
2888 Clear 33 1010 38 10000 3.6 10 19:22 28.08.2019
2889 Clear 33 1010 38 10000 3.6 10 18:59 28.08.2019
2890 Clear 33 1009 34 10000 4.1 340 18:40 28.08.2019
2891 Clear 34 1009 34 10000 4.1 340 18:21 28.08.2019
2892 Clear 35 1009 34 10000 4.1 340 17:39 28.08.2019
2893 Clear 35 1009 34 10000 4.1 340 17:20 28.08.2019
2894 Clear 35 1009 26 10000 5.1 350 16:56 28.08.2019
2895 Clear 35 1009 26 10000 5.1 350 16:38 28.08.2019
2896 Clear 35 1009 26 10000 5.1 350 16:38 28.08.2019
2897 Clear 35 1009 26 10000 5.1 350 16:18 28.08.2019
2898 Clear 35 1009 26 10000 5.1 340 15:38 28.08.2019
2899 Clear 35 1009 26 10000 5.1 340 15:20 28.08.2019
2900 Clear 35 1009 26 10000 4.1 340 14:58 28.08.2019
2901 Clear 35 1009 26 10000 4.1 340 14:40 28.08.2019
2902 Clear 35 1009 26 10000 4.1 340 14:21 28.08.2019
2903 Clear 35 1009 26 10000 4.1 340 14:21 28.08.2019
2904 Clear 35 1010 23 10000 3.1 10 13:59 28.08.2019
2905 Clear 35 1010 23 10000 3.1 10 13:39 28.08.2019
2906 Clear 35 1010 23 10000 3.1 10 13:20 28.08.2019
2907 Clear 32 1010 38 10000 2.1 340 12:43 28.08.2019
2908 Clear 32 1010 38 10000 2.1 340 12:25 28.08.2019
2909 Clouds 31 1011 48 6000 2.1 340 11:59 28.08.2019
2910 Clouds 31 1011 48 6000 2.1 340 11:40 28.08.2019
2911 Clouds 31 1011 48 6000 2.1 340 11:21 28.08.2019
2912 Clouds 30 1011 55 6000 3.1 340 10:56 28.08.2019
2913 Clouds 30 1011 55 6000 3.1 340 10:37 28.08.2019
2914 Clouds 30 1011 55 6000 3.1 340 10:19 28.08.2019
2915 Haze 30 1012 62 3000 2.1 330 09:42 28.08.2019
2916 Haze 29 1012 62 3000 2.1 330 09:21 28.08.2019
2917 Mist 28 1011 69 3000 2.6 360 08:57 28.08.2019
2918 Mist 28 1011 69 3000 2.6 360 08:38 28.08.2019
2919 Mist 28 1011 69 3000 2.6 360 08:19 28.08.2019
2920 Mist 27 1011 78 3000 3.6 350 07:38 28.08.2019
2921 Mist 27 1011 78 3000 3.6 350 07:20 28.08.2019
2922 Mist 26 1011 83 2000 3.1 350 06:49 28.08.2019
2923 Mist 26 1010 83 4000 2.6 360 05:59 28.08.2019
2924 Mist 26 1010 83 4000 2.6 360 05:59 28.08.2019
2925 Mist 27 1010 83 2000 2.6 10 04:49 28.08.2019
2926 Clouds 28 1011 78 6000 2.6 10 01:58 28.08.2019
2927 Clouds 27 1011 78 6000 2.6 10 01:30 28.08.2019
2928 Clouds 28 1011 74 6000 3.6 10 00:52 28.08.2019
2929 Clouds 28 1011 74 6000 4.6 340 00:33 28.08.2019
2930 Clouds 28 1011 78 6000 4.1 350 23:56 27.08.2019
2931 Clouds 29 1011 74 6000 2.6 350 23:38 27.08.2019
2932 Clouds 29 1011 74 6000 2.6 350 23:19 27.08.2019
2933 Clear 30 1011 70 10000 3.1 10 22:41 27.08.2019
2934 Clear 30 1011 70 10000 3.1 10 22:23 27.08.2019
2935 Clear 30 1011 62 10000 4.1 340 21:57 27.08.2019
2936 Clear 31 1011 58 10000 4.1 340 21:38 27.08.2019
2937 Clear 31 1011 58 10000 4.1 340 21:19 27.08.2019
2938 Clear 31 1011 55 10000 4.1 340 20:58 27.08.2019
2939 Clear 31 1010 46 10000 3.1 340 20:39 27.08.2019
2940 Clear 32 1010 46 10000 3.1 340 20:19 27.08.2019
2941 Clear 33 1010 43 10000 3.1 350 19:44 27.08.2019
2942 Clear 33 1010 43 10000 3.1 350 19:26 27.08.2019
2943 Clouds 33 1010 43 10000 4.1 350 18:57 27.08.2019
2944 Clouds 33 1010 43 10000 3.6 350 18:39 27.08.2019
2945 Clouds 33 1010 43 10000 3.6 350 18:18 27.08.2019
2946 Clouds 34 1010 41 10000 3.6 350 17:55 27.08.2019
2947 Clouds 34 1009 38 10000 3.6 350 17:37 27.08.2019
2948 Clouds 34 1009 38 10000 3.6 350 17:18 27.08.2019
2949 Clouds 35 1009 36 10000 4.1 310 16:42 27.08.2019
2950 Clouds 35 1009 36 10000 4.1 310 16:23 27.08.2019
2951 Clouds 35 1009 34 10000 3.6 310 15:55 27.08.2019
2952 Clouds 35 1010 34 10000 3.1 340 15:37 27.08.2019
2953 Clouds 35 1010 34 10000 3.1 340 15:19 27.08.2019
2954 Clear 34 1010 39 10000 3.6 360 14:42 27.08.2019
2955 Clear 35 1010 39 10000 3.6 360 14:23 27.08.2019
2956 Clear 34 1010 44 10000 3.1 330 13:43 27.08.2019
2957 Clear 34 1010 44 10000 3.1 330 13:25 27.08.2019
2958 Clear 34 1011 46 10000 2.6 10 12:59 27.08.2019
2959 Clear 33 1011 49 10000 2.6 310 12:39 27.08.2019
2960 Clear 33 1011 49 10000 2.6 310 12:20 27.08.2019
2961 Clear 31 1012 52 10000 2.6 350 11:47 27.08.2019
2962 Clear 31 1012 52 10000 2.6 350 11:27 27.08.2019
2963 Clear 31 1012 52 10000 3.1 320 10:56 27.08.2019
2964 Clear 31 1012 52 10000 1.5 320 10:38 27.08.2019
2965 Clear 31 1012 52 10000 1.5 320 10:18 27.08.2019
2966 Clear 29 1012 66 10000 1.5 350 09:41 27.08.2019
2967 -273 0 0 0 0 0 09:21 27.08.2019
2968 Clear 28 1012 69 10000 1.5 10 08:59 27.08.2019
2969 Clear 28 1012 69 10000 1.5 10 08:59 27.08.2019
2970 Clear 28 1011 74 10000 2.1 360 08:40 27.08.2019
2971 Clear 28 1011 74 10000 2.1 360 08:22 27.08.2019
2972 Clear 27 1011 78 6000 2.6 350 07:41 27.08.2019
2973 Clear 27 1011 78 6000 2.6 350 07:20 27.08.2019
2974 Clear 26 1011 83 6000 3.1 10 06:54 27.08.2019
2975 Clear 26 1011 83 6000 2.6 10 06:28 27.08.2019
2976 Clear 26 1010 83 8000 2.6 40 05:47 27.08.2019
2977 Clear 26 1010 83 8000 2.6 40 05:20 27.08.2019
2978 Clear 27 1010 78 10000 3.6 40 03:40 27.08.2019
2979 Clear 27 1010 78 10000 3.1 50 02:26 27.08.2019
2980 Clear 28 1011 69 10000 3.1 50 01:44 27.08.2019
2981 Clear 28 1011 69 10000 3.1 50 01:23 27.08.2019
2982 Clear 28 1011 65 10000 4.1 40 00:45 27.08.2019
2983 Clear 28 1011 65 10000 4.1 40 00:24 27.08.2019
2984 Clear 29 1011 70 10000 3.6 30 23:40 26.08.2019
2985 Clear 29 1011 70 10000 3.6 30 23:21 26.08.2019
2986 Clear 29 1011 70 10000 4.1 20 22:54 26.08.2019
2987 Clear 29 1011 70 10000 4.1 20 22:36 26.08.2019
2988 Clear 29 1011 70 10000 4.1 20 22:18 26.08.2019
2989 Clear 29 1011 70 10000 4.1 20 22:18 26.08.2019
2990 Clear 31 1011 62 10000 4.6 40 21:38 26.08.2019
2991 Clear 31 1011 55 10000 4.1 10 21:20 26.08.2019
2992 Clear 32 1011 55 10000 4.1 10 20:57 26.08.2019
2993 Clear 32 1011 49 10000 4.1 20 20:38 26.08.2019
2994 Clear 32 1010 46 10000 4.1 20 20:19 26.08.2019
2995 Clear 32 1010 46 10000 5.1 20 19:44 26.08.2019
2996 Clear 32 1009 43 10000 4.6 360 19:20 26.08.2019
2997 Clear 33 1009 43 10000 4.6 360 18:59 26.08.2019
2998 Clear 33 1009 43 10000 4.6 360 18:38 26.08.2019
2999 Clouds 33 1009 36 10000 4.6 340 18:20 26.08.2019
3000 Clouds 34 1009 36 10000 4.6 340 17:56 26.08.2019
3001 Clouds 34 1009 36 10000 4.6 340 17:37 26.08.2019
3002 Clouds 34 1009 34 10000 4.6 350 17:18 26.08.2019
3003 Clouds 35 1009 34 10000 4.6 350 16:55 26.08.2019
3004 Clouds 35 1009 34 10000 4.6 350 16:37 26.08.2019
3005 Clouds 35 1009 28 10000 3.6 330 16:18 26.08.2019
3006 Clouds 36 1009 30 10000 5.1 330 15:41 26.08.2019
3007 Clouds 35 1009 32 10000 4.6 340 15:21 26.08.2019
3008 Clouds 35 1010 25 10000 4.1 330 14:46 26.08.2019
3009 Clouds 35 1010 32 10000 3.6 340 14:23 26.08.2019
3010 Clouds 35 1010 32 10000 3.6 340 13:59 26.08.2019
3011 Clouds 35 1010 32 10000 3.6 340 13:38 26.08.2019
3012 Clouds 34 1011 34 10000 3.6 320 13:19 26.08.2019
3013 Clouds 34 1011 34 10000 3.6 320 12:43 26.08.2019
3014 Clouds 34 1011 34 10000 3.6 320 12:43 26.08.2019
3015 Clouds 33 1011 46 10000 2.1 20 12:24 26.08.2019
3016 Clouds 33 1011 46 10000 2.1 20 11:56 26.08.2019
3017 Clouds 33 1011 46 10000 2.1 20 11:36 26.08.2019
3018 Clouds 33 1011 43 6000 3.1 330 11:18 26.08.2019
3019 Clouds 31 1011 55 6000 1 340 10:42 26.08.2019
3020 Clouds 31 1011 58 6000 1 30 10:21 26.08.2019
3021 Clouds 31 1011 58 6000 1 30 09:57 26.08.2019
3022 Clouds 30 1012 66 6000 1.5 350 09:38 26.08.2019
3023 Clouds 29 1011 78 6000 1 10 09:19 26.08.2019
3024 Clouds 28 1011 78 6000 1 10 08:42 26.08.2019
3025 Mist 28 1011 78 4000 2.1 360 08:23 26.08.2019
3026 Mist 28 1011 78 4000 2.1 360 07:59 26.08.2019
3027 Mist 28 1011 78 4000 2.1 40 07:40 26.08.2019
3028 Mist 27 1011 83 4000 1.5 30 07:21 26.08.2019
3029 Mist 27 1010 83 4000 2.1 40 06:42 26.08.2019
3030 Clear 27 1010 83 6000 2.1 50 06:22 26.08.2019
3031 Clear 27 1010 83 6000 2.1 50 05:49 26.08.2019
3032 Clouds 27 1010 83 6000 2.6 10 04:28 26.08.2019
3033 Clouds 28 1009 78 6000 2.6 360 02:55 26.08.2019
3034 Clouds 28 1010 78 10000 3.1 60 01:35 26.08.2019
3035 Clouds 28 1010 83 10000 3.1 40 00:53 26.08.2019
3036 Clouds 29 1010 79 10000 3.6 50 00:29 26.08.2019
3037 Clear 29 1010 74 10000 3.6 40 23:59 25.08.2019
3038 Clear 29 1011 79 10000 4.1 50 23:40 25.08.2019
3039 Clear 29 1011 74 10000 3.6 60 23:18 25.08.2019
3040 Clear 29 1011 74 10000 3.6 60 23:18 25.08.2019
3041 Clear 29 1011 74 10000 3.6 60 22:56 25.08.2019
3042 Clear 30 1011 70 10000 4.1 20 22:38 25.08.2019
3043 Clear 30 1011 70 10000 5.1 360 22:19 25.08.2019
3044 Clear 30 1011 70 10000 5.1 360 21:56 25.08.2019
3045 Clear 31 1011 58 10000 5.1 360 21:37 25.08.2019
3046 Clear 31 1010 49 10000 3.6 360 21:18 25.08.2019
3047 Clear 32 1010 49 10000 3.6 360 20:40 25.08.2019
3048 Clear 32 1010 49 10000 4.1 350 20:20 25.08.2019
3049 Clear 32 1010 49 10000 4.1 350 19:56 25.08.2019
3050 Clear 33 1009 46 10000 4.1 340 19:38 25.08.2019
3051 Clear 33 1009 36 10000 4.6 350 19:18 25.08.2019
3052 Clear 34 1009 36 10000 4.6 350 18:57 25.08.2019
3053 Clear 34 1009 36 10000 4.6 350 18:39 25.08.2019
3054 Clear 34 1009 30 10000 3.1 340 18:19 25.08.2019
3055 Clear 35 1009 32 10000 3.6 320 17:42 25.08.2019
3056 Clear 36 1009 32 10000 3.6 320 17:24 25.08.2019
3057 Clear 35 1009 28 10000 3.1 350 16:45 25.08.2019
3058 Clear 36 1009 28 10000 3.1 350 16:25 25.08.2019
3059 Clear 36 1009 32 10000 3.6 280 15:59 25.08.2019
3060 Haze 36 1009 28 4000 2.6 310 15:41 25.08.2019
3061 Haze 36 1009 30 4000 4.1 320 15:23 25.08.2019
3062 Haze 36 1009 28 4000 3.6 320 14:42 25.08.2019
3063 Haze 36 1009 28 4000 3.6 320 14:24 25.08.2019
3064 Haze 35 1010 30 4000 3.6 280 13:56 25.08.2019
3065 Haze 35 1010 34 4000 2.6 290 13:37 25.08.2019
3066 Haze 35 1010 34 4000 3.1 280 13:18 25.08.2019
3067 Haze 35 1010 38 4000 2.1 270 12:41 25.08.2019
3068 Haze 34 1010 38 4000 2.1 270 12:23 25.08.2019
3069 Haze 33 1011 41 4000 1.5 330 11:58 25.08.2019
3070 Haze 33 1011 43 4000 2.1 290 11:38 25.08.2019
3071 Haze 32 1011 46 4000 2.1 320 11:20 25.08.2019
3072 Haze 32 1011 46 4000 2.1 320 10:56 25.08.2019
3073 Haze 31 1011 55 4000 2.1 320 10:37 25.08.2019
3074 Haze 30 1011 58 4000 1.5 20 10:19 25.08.2019
3075 Clear 29 1011 66 4000 1.5 350 09:43 25.08.2019
3076 Clear 29 1011 66 4000 1.5 350 09:24 25.08.2019
3077 Mist 28 1011 74 4000 2.1 350 08:47 25.08.2019
3078 Mist 28 1011 74 4000 2.1 350 08:29 25.08.2019
3079 Mist 27 1011 78 4000 2.6 360 07:54 25.08.2019
3080 Mist 27 1011 78 4000 2.6 360 07:32 25.08.2019
3081 Mist 27 1011 78 4000 2.6 360 07:32 25.08.2019
3082 Clear 26 1010 83 6000 2.12 343.583 06:39 25.08.2019
3083 Clear 26 1010 83 10000 2.19 335.695 05:27 25.08.2019
3084 Clear 27 1010 78 10000 2.6 60 03:48 25.08.2019
3085 Clear 27 1010 78 10000 3.1 50 02:44 25.08.2019
3086 Clear 28 1010 74 10000 2.6 60 02:20 25.08.2019
3087 Clear 28 1010 78 10000 3.1 80 00:58 25.08.2019
3088 Clear 28 1010 78 10000 2.1 50 00:24 25.08.2019
3089 Clear 28 1011 78 10000 3.6 10 23:59 24.08.2019
3090 Clear 28 1011 74 10000 3.6 10 23:40 24.08.2019
3091 Clear 29 1011 74 10000 3.1 10 23:22 24.08.2019
3092 Clear 29 1011 74 10000 3.1 10 22:54 24.08.2019
3093 Clear 29 1011 74 10000 3.1 10 22:54 24.08.2019
3094 Clear 29 1011 74 10000 3.1 10 22:36 24.08.2019
3095 Clear 30 1011 70 10000 3.1 10 22:18 24.08.2019
3096 Clear 30 1011 70 10000 3.1 10 21:42 24.08.2019
3097 Clear 31 1011 62 10000 3.1 10 21:24 24.08.2019
3098 Clear 31 1011 62 10000 3.1 10 20:59 24.08.2019
3099 Clear 32 1010 36 10000 3.1 10 20:41 24.08.2019
3100 Clear 33 1010 36 10000 3.1 10 20:20 24.08.2019
3101 Clear 33 1010 36 10000 3.1 10 19:59 24.08.2019
3102 Clear 33 1010 41 10000 4.1 350 19:40 24.08.2019
3103 Clear 33 1010 41 10000 4.1 350 19:22 24.08.2019
3104 Clear 34 1009 36 10000 4.1 350 18:56 24.08.2019
3105 Clear 34 1009 36 10000 4.1 350 18:36 24.08.2019
3106 Clear 34 1009 34 10000 4.1 340 18:18 24.08.2019
3107 Clear 35 1009 32 10000 3.6 330 17:42 24.08.2019
3108 Clear 36 1009 25 10000 3.6 340 17:23 24.08.2019
3109 Clear 36 1009 25 10000 3.6 340 16:42 24.08.2019
3110 Clear 36 1009 30 10000 3.6 320 16:19 24.08.2019
3111 Clear 36 1009 30 10000 3.6 320 15:55 24.08.2019
3112 Clear 35 1009 32 10000 2.1 350 15:37 24.08.2019
3113 Clear 35 1009 30 10000 2.6 310 15:19 24.08.2019
3114 Clear 35 1009 30 10000 2.6 310 14:42 24.08.2019
3115 Clear 35 1009 30 10000 3.1 350 14:20 24.08.2019
3116 Clear 35 1009 30 10000 3.1 350 13:55 24.08.2019
3117 Clear 35 1010 30 10000 2.6 360 13:37 24.08.2019
3118 Clear 34 1010 28 10000 3.6 20 13:18 24.08.2019
3119 Clear 34 1010 26 10000 3.6 340 12:42 24.08.2019
3120 Clear 33 1010 41 10000 3.1 350 12:24 24.08.2019
3121 Clear 33 1010 41 10000 3.1 350 11:57 24.08.2019
3122 Clear 33 1010 41 10000 3.1 350 11:38 24.08.2019
3123 Clear 32 1010 46 10000 2.1 20 11:18 24.08.2019
3124 Mist 30 1011 58 4000 2.1 360 10:43 24.08.2019
3125 Mist 30 1011 58 4000 2.1 360 10:43 24.08.2019
3126 Mist 30 1011 58 4000 2.1 360 10:22 24.08.2019
3127 Mist 28 1011 69 4000 1.5 360 09:44 24.08.2019
3128 Mist 27 1011 78 4000 2.1 340 09:20 24.08.2019
3129 Mist 27 1011 78 4000 2.1 340 08:56 24.08.2019
3130 Mist 26 1011 83 4000 1 330 08:37 24.08.2019
3131 Mist 26 1010 78 4000 1.5 10 08:18 24.08.2019
3132 Clear 26 1010 78 6000 1.5 10 07:44 24.08.2019
3133 Clear 26 1010 78 6000 1.5 10 07:24 24.08.2019
3134 Clear 25 1010 83 6000 1.5 20 06:24 24.08.2019
3135 Clear 25 1009 83 6000 1.5 70 05:40 24.08.2019
3136 Clear 25 1009 83 6000 2.1 30 04:36 24.08.2019
3137 Clear 26 1009 78 6000 2.1 50 03:36 24.08.2019
3138 Clear 26 1009 74 6000 3.6 80 02:25 24.08.2019
3139 Clear 26 1009 74 10000 2.6 80 01:31 24.08.2019
3140 Clear 27 1009 65 10000 2.1 10 00:52 24.08.2019
3141 Clear 27 1009 65 10000 2.1 10 00:25 24.08.2019
3142 Clear 27 1009 65 10000 4.1 10 23:58 23.08.2019
3143 Clear 27 1010 61 10000 4.6 360 23:37 23.08.2019
3144 Clear 28 1010 61 10000 4.1 360 23:18 23.08.2019
3145 Clear 29 1010 58 10000 4.1 10 22:42 23.08.2019
3146 Clear 30 1010 48 10000 4.1 20 22:23 23.08.2019
3147 Clear 30 1010 42 10000 3.6 10 21:40 23.08.2019
3148 Clear 30 1010 42 10000 3.6 10 21:21 23.08.2019
3149 Clear 31 1009 40 10000 3.6 10 20:57 23.08.2019
3150 Clear 31 1009 40 10000 4.1 10 20:38 23.08.2019
3151 Clear 31 1009 38 10000 3.6 10 20:19 23.08.2019
3152 Clear 32 1009 35 10000 4.6 360 19:44 23.08.2019
3153 Clear 32 1008 38 10000 4.6 360 19:18 23.08.2019
3154 Clear 32 1008 38 10000 4.6 360 19:18 23.08.2019
3155 Clear 33 1008 38 10000 4.6 360 18:48 23.08.2019
3156 Clear 33 1008 38 10000 4.6 360 18:30 23.08.2019
3157 Clear 33 1008 43 10000 5.1 30 17:56 23.08.2019
3158 Clear 33 1008 43 10000 5.1 30 17:38 23.08.2019
3159 Clear 33 1008 36 10000 5.1 30 17:20 23.08.2019
3160 Clear 34 1008 36 10000 5.1 30 16:47 23.08.2019
3161 Clear 34 1008 36 10000 5.1 30 16:29 23.08.2019
3162 Clear 34 1008 36 10000 5.1 360 15:57 23.08.2019
3163 Clouds 34 1008 36 6000 4.1 350 15:37 23.08.2019
3164 Clouds 34 1008 34 6000 4.6 10 15:19 23.08.2019
3165 Clouds 34 1008 34 6000 4.6 10 14:42 23.08.2019
3166 Clouds 34 1009 32 6000 4.6 360 14:21 23.08.2019
3167 Clouds 34 1009 32 6000 4.6 360 13:58 23.08.2019
3168 Clouds 34 1009 32 6000 4.6 360 13:40 23.08.2019
3169 Clouds 32 1009 35 6000 4.1 10 13:22 23.08.2019
3170 Clouds 32 1009 35 6000 4.1 10 12:58 23.08.2019
3171 Clouds 32 1009 35 6000 4.1 10 12:40 23.08.2019
3172 Clouds 31 1010 40 6000 3.1 360 12:21 23.08.2019
3173 Clouds 31 1010 40 6000 3.1 360 11:56 23.08.2019
3174 Clouds 31 1010 40 6000 3.1 360 11:38 23.08.2019
3175 Clouds 31 1010 40 6000 3.6 10 11:18 23.08.2019
3176 Clouds 30 1010 48 6000 4.1 360 10:44 23.08.2019
3177 Clouds 30 1010 54 6000 3.6 10 10:23 23.08.2019
3178 Clouds 29 1010 54 6000 3.6 10 09:58 23.08.2019
3179 Clouds 28 1010 65 6000 3.6 10 09:39 23.08.2019
3180 Clouds 27 1010 69 6000 3.6 10 09:20 23.08.2019
3181 Clouds 26 1010 74 6000 3.6 10 08:44 23.08.2019
3182 Mist 25 1010 78 4000 2.6 340 08:20 23.08.2019
3183 Mist 25 1010 78 4000 2.6 340 07:43 23.08.2019
3184 Mist 25 1010 78 4000 2.6 340 07:24 23.08.2019
3185 Mist 25 1010 78 4000 2.6 340 07:24 23.08.2019
3186 Mist 25 1010 83 4000 2.6 350 06:59 23.08.2019
3187 Mist 24 1010 83 4000 2.6 350 06:40 23.08.2019
3188 Clear 24 1009 83 6000 2.1 360 06:21 23.08.2019
3189 Clear 24 1009 83 6000 2.1 360 05:43 23.08.2019
3190 Clear 24 1009 83 6000 2.1 360 05:22 23.08.2019
3191 Clear 25 1010 78 6000 2.6 20 03:23 23.08.2019
3192 Clear 25 1010 78 10000 3.6 10 02:24 23.08.2019
3193 Clear 25 1010 73 10000 4.1 10 01:52 23.08.2019
3194 Clear 26 1010 69 10000 4.1 350 00:46 23.08.2019
3195 Clear 26 1011 69 10000 4.1 360 00:22 23.08.2019
3196 Clear 26 1011 61 10000 4.1 10 23:50 22.08.2019
3197 Clear 27 1011 61 10000 4.1 10 23:32 22.08.2019
3198 Clear 27 1011 61 10000 4.6 10 22:59 22.08.2019
3199 Clear 27 1011 61 10000 5.1 10 22:41 22.08.2019
3200 Clear 28 1011 54 10000 5.1 10 22:22 22.08.2019
3201 Clear 28 1011 54 10000 5.1 10 21:57 22.08.2019
3202 Clear 29 1010 48 10000 4.1 10 21:39 22.08.2019
3203 Clear 29 1010 48 10000 5.1 30 21:20 22.08.2019
3204 Clear 29 1010 48 10000 5.1 30 20:57 22.08.2019
3205 Clear 29 1010 48 10000 5.7 20 20:39 22.08.2019
3206 Clear 30 1010 48 10000 5.7 20 20:19 22.08.2019
3207 Clear 30 1010 48 10000 5.7 20 19:56 22.08.2019
3208 Clear 30 1010 48 10000 5.7 20 19:55 22.08.2019
3209 Clear 31 1010 45 10000 6.2 10 19:37 22.08.2019
3210 Clear 31 1009 45 10000 5.7 20 19:19 22.08.2019
3211 Clear 31 1009 43 10000 5.7 360 18:56 22.08.2019
3212 Clear 32 1009 43 10000 5.7 360 18:37 22.08.2019
3213 Clear 32 1009 40 10000 6.2 10 18:18 22.08.2019
3214 Clear 32 1009 36 10000 5.7 350 17:42 22.08.2019
3215 Clear 32 1009 36 10000 5.7 350 17:42 22.08.2019
3216 Clear 33 1009 36 10000 6.2 360 17:21 22.08.2019
3217 Clear 33 1009 36 10000 6.2 360 17:21 22.08.2019
3218 Clear 33 1009 38 10000 5.7 20 16:58 22.08.2019
3219 Clear 34 1009 38 10000 5.7 20 16:39 22.08.2019
3220 Clear 34 1009 38 10000 5.1 360 16:21 22.08.2019
3221 Clear 34 1009 38 10000 5.1 360 15:58 22.08.2019
3222 Clear 34 1009 38 10000 5.1 10 15:38 22.08.2019
3223 Clear 34 1009 38 10000 5.1 10 15:38 22.08.2019
3224 Clear 34 1009 38 10000 5.7 350 15:19 22.08.2019
3225 Clear 34 1009 38 10000 5.7 350 15:19 22.08.2019
3226 Clear 33 1009 41 10000 5.7 360 14:41 22.08.2019
3227 Clear 33 1009 41 10000 5.7 350 14:22 22.08.2019
3228 Clear 33 1009 41 10000 5.7 350 13:59 22.08.2019
3229 Clear 33 1010 41 10000 5.7 360 13:41 22.08.2019
3230 Clear 33 1010 41 10000 5.7 360 13:41 22.08.2019
3231 Clear 33 1010 41 10000 5.7 360 13:22 22.08.2019
3232 Clear 33 1010 38 10000 5.7 350 12:58 22.08.2019
3233 Clear 32 1010 40 10000 4.6 10 12:39 22.08.2019
3234 Clear 31 1011 45 10000 4.6 360 12:20 22.08.2019
3235 Clear 31 1011 45 10000 4.6 360 11:42 22.08.2019
3236 Clear 31 1011 45 10000 4.6 360 11:22 22.08.2019
3237 Clear 31 1011 45 10000 4.6 360 10:59 22.08.2019
3238 Clear 31 1011 45 10000 4.6 360 10:59 22.08.2019
3239 Clear 31 1011 45 10000 4.6 10 10:41 22.08.2019
3240 Clear 31 1011 45 10000 4.6 10 10:22 22.08.2019
3241 Clear 30 1011 48 10000 4.6 20 09:59 22.08.2019
3242 Clear 30 1011 48 10000 4.6 20 09:39 22.08.2019
3243 Clear 30 1011 48 10000 4.6 20 09:21 22.08.2019
3244 Clear 29 1011 48 10000 4.6 20 08:57 22.08.2019
3245 Clear 28 1011 61 10000 3.6 30 08:38 22.08.2019
3246 Clear 28 1011 61 10000 3.6 30 08:20 22.08.2019
3247 Clear 26 1011 69 10000 2.6 40 07:41 22.08.2019
3248 Clear 25 1011 73 10000 2.1 50 07:20 22.08.2019
3249 Clear 25 1011 73 10000 2.1 50 06:55 22.08.2019
3250 Clear 25 1011 73 10000 2.1 50 06:24 22.08.2019
3251 Clear 25 1011 73 10000 2.1 50 05:59 22.08.2019
3252 Clear 25 1011 73 10000 2.6 50 04:39 22.08.2019
3253 Clear 26 1011 69 10000 3.1 60 02:52 22.08.2019
3254 Clear 26 1011 69 10000 3.1 40 02:34 22.08.2019
3255 Clear 27 1011 65 10000 3.6 40 01:25 22.08.2019
3256 Clear 27 1011 61 10000 3.6 50 00:45 22.08.2019
3257 Clear 27 1011 61 10000 3.6 50 00:27 22.08.2019
3258 Clear 27 1011 61 10000 3.6 50 23:55 21.08.2019
3259 Clear 28 1012 58 10000 5.1 40 23:37 21.08.2019
3260 Clear 28 1012 58 10000 5.1 50 23:18 21.08.2019
3261 Clear 28 1012 58 10000 5.1 50 22:55 21.08.2019
3262 Clear 28 1012 58 10000 5.7 40 22:36 21.08.2019
3263 Clear 28 1012 58 10000 5.7 40 22:18 21.08.2019
3264 Clear 29 1012 54 10000 6.2 40 21:55 21.08.2019
3265 Clear 29 1012 54 10000 6.2 40 21:55 21.08.2019
3266 Clear 29 1012 54 10000 6.2 40 21:36 21.08.2019
3267 Clear 29 1012 51 10000 6.7 50 21:18 21.08.2019
3268 Clear 30 1011 42 10000 6.2 50 20:42 21.08.2019
3269 Clear 30 1011 42 10000 6.2 50 20:42 21.08.2019
3270 Clear 30 1011 42 10000 6.2 50 20:23 21.08.2019
3271 Clear 32 1011 40 10000 4.6 360 19:56 21.08.2019
3272 Clear 32 1011 40 10000 4.6 360 19:38 21.08.2019
3273 Clear 32 1011 40 10000 4.6 360 19:19 21.08.2019
3274 Clear 32 1010 36 10000 5.7 350 18:43 21.08.2019
3275 Clear 33 1010 30 10000 6.2 330 18:23 21.08.2019
3276 Clear 34 1010 30 10000 6.2 330 17:57 21.08.2019
3277 Clear 34 1010 30 10000 6.2 330 17:38 21.08.2019
3278 Clear 34 1010 32 10000 6.2 330 17:20 21.08.2019
3279 Clear 34 1010 32 10000 6.2 330 16:44 21.08.2019
3280 Clear 35 1010 26 10000 4.6 310 16:24 21.08.2019
3281 Clear 35 1010 26 10000 4.6 310 15:59 21.08.2019
3282 Clear 35 1010 26 10000 4.6 310 15:41 21.08.2019
3283 Clear 35 1010 26 10000 4.6 310 15:41 21.08.2019
3284 Clear 35 1010 26 10000 4.6 310 15:22 21.08.2019
3285 Clear 35 1011 26 10000 3.1 50 14:58 21.08.2019
3286 Clear 35 1011 26 10000 3.1 50 14:39 21.08.2019
3287 Clear 35 1011 24 10000 2.6 350 14:20 21.08.2019
3288 Clear 35 1011 24 10000 2.6 350 13:56 21.08.2019
3289 Clear 35 1011 24 10000 2.6 350 13:38 21.08.2019
3290 Clear 35 1012 30 10000 2.6 40 13:19 21.08.2019
3291 Clear 34 1012 30 10000 2.6 40 12:43 21.08.2019
3292 Clear 34 1012 30 10000 2.6 40 12:25 21.08.2019
3293 Clear 33 1012 30 10000 2.6 40 11:59 21.08.2019
3294 Clouds 32 1012 33 10000 2.1 70 11:41 21.08.2019
3295 Clouds 31 1013 51 10000 3.1 80 11:22 21.08.2019
3296 Clouds 30 1013 51 10000 3.1 80 10:57 21.08.2019
3297 Clouds 30 1013 51 10000 3.1 80 10:38 21.08.2019
3298 Clouds 30 1013 62 6000 2.1 70 10:19 21.08.2019
3299 Clouds 29 1013 62 6000 2.1 70 09:57 21.08.2019
3300 Clouds 28 1013 65 6000 2.6 60 09:37 21.08.2019
3301 Clouds 28 1013 65 6000 2.6 60 09:37 21.08.2019
3302 Clouds 28 1013 69 6000 3.1 60 09:18 21.08.2019
3303 Clouds 28 1013 69 6000 3.1 60 08:44 21.08.2019
3304 Clouds 28 1013 69 6000 3.1 60 08:44 21.08.2019
3305 Clouds 27 1013 74 6000 3.1 70 08:24 21.08.2019
3306 Clouds 26 1013 83 6000 2.1 50 07:43 21.08.2019
3307 Clouds 26 1013 83 6000 2.1 50 07:24 21.08.2019
3308 Mist 25 1013 88 3000 1.5 90 06:50 21.08.2019
3309 Mist 25 1013 88 3000 1.5 90 06:28 21.08.2019
3310 Mist 25 1012 88 4000 1.5 70 05:47 21.08.2019
3311 Mist 25 1012 88 4000 1.5 70 05:25 21.08.2019
3312 Clear 26 1012 83 6000 3.1 360 03:56 21.08.2019
3313 Clear 26 1013 83 10000 3.1 350 01:52 21.08.2019
3314 Clear 27 1013 74 10000 3.1 360 01:23 21.08.2019
3315 Clear 27 1013 74 10000 4.6 40 00:38 21.08.2019
3316 Clear 27 1013 69 10000 4.6 40 00:18 21.08.2019
3317 Clear 28 1013 69 10000 4.6 40 23:43 20.08.2019
3318 Clear 28 1013 69 10000 5.1 10 23:19 20.08.2019
3319 Clear 28 1013 69 10000 5.1 10 22:58 20.08.2019
3320 Clear 28 1013 66 10000 5.1 10 22:39 20.08.2019
3321 Clear 29 1013 66 10000 5.1 10 22:21 20.08.2019
3322 Clear 29 1013 66 10000 5.1 10 21:57 20.08.2019
3323 Clear 29 1013 66 10000 5.1 10 21:57 20.08.2019
3324 Clear 29 1013 66 10000 5.1 10 21:38 20.08.2019
3325 Clear 30 1012 52 10000 5.1 10 21:19 20.08.2019
3326 Clear 31 1012 52 10000 5.1 10 20:56 20.08.2019
3327 Clear 31 1012 52 10000 5.1 10 20:56 20.08.2019
3328 Clear 31 1012 52 10000 5.1 10 20:36 20.08.2019
3329 Clear 31 1012 43 10000 4.1 20 20:18 20.08.2019
3330 Clear 32 1012 40 10000 4.1 20 19:39 20.08.2019
3331 Clear 32 1012 40 10000 3.6 350 19:20 20.08.2019
3332 Clear 32 1012 40 10000 3.6 350 18:56 20.08.2019
3333 Clear 32 1012 40 10000 3.6 350 18:38 20.08.2019
3334 Clear 33 1011 36 10000 4.1 360 18:19 20.08.2019
3335 Clear 33 1011 36 10000 4.1 360 17:55 20.08.2019
3336 Clear 33 1011 34 10000 4.1 340 17:37 20.08.2019
3337 Clear 34 1011 34 10000 4.1 340 17:18 20.08.2019
3338 Clouds 33 1011 33 10000 3.6 350 16:42 20.08.2019
3339 Clouds 33 1011 33 10000 3.6 350 16:23 20.08.2019
3340 Clouds 33 1011 32 10000 3.6 340 15:42 20.08.2019
3341 Clouds 34 1011 32 10000 3.6 340 15:19 20.08.2019
3342 Clouds 34 1011 28 10000 3.6 360 14:57 20.08.2019
3343 Clouds 34 1011 32 10000 3.1 20 14:39 20.08.2019
3344 Clouds 34 1011 32 10000 3.1 20 14:20 20.08.2019
3345 Clouds 33 1011 36 10000 3.6 340 13:56 20.08.2019
3346 Clouds 33 1012 43 10000 3.1 330 13:37 20.08.2019
3347 Clouds 33 1012 43 10000 3.1 330 13:19 20.08.2019
3348 Clouds 32 1012 40 10000 1.5 350 12:50 20.08.2019
3349 Clouds 32 1012 43 10000 1.5 270 12:25 20.08.2019
3350 Clouds 32 1012 43 10000 1.5 270 12:25 20.08.2019
3351 Clouds 32 1012 46 10000 2.6 300 11:58 20.08.2019
3352 Clouds 31 1012 51 10000 1.5 310 11:38 20.08.2019
3353 Clear 30 1012 51 10000 3.1 310 11:18 20.08.2019
3354 Clear 30 1012 51 10000 3.1 310 10:56 20.08.2019
3355 Clear 29 1012 54 10000 2.6 320 10:38 20.08.2019
3356 Clear 29 1012 54 10000 2.6 320 10:19 20.08.2019
3357 Clouds 27 1012 69 10000 2.69 339.651 09:43 20.08.2019
3358 Clouds 26 1012 69 10000 1.74 330.814 09:24 20.08.2019
3359 Clear 26 1012 74 10000 1.5 60 08:43 20.08.2019
3360 Clear 26 1012 74 10000 1.5 60 08:43 20.08.2019
3361 Clear 26 1012 74 10000 1.5 60 08:25 20.08.2019
3362 Clear 26 1012 74 10000 1.5 60 08:25 20.08.2019
3363 Clear 26 1012 74 10000 1.5 60 07:59 20.08.2019
3364 Clear 26 1012 74 10000 1.5 60 07:59 20.08.2019
3365 Clear 26 1012 74 10000 1 20 07:41 20.08.2019
3366 Clear 26 1012 74 10000 1 20 07:22 20.08.2019
3367 Clear 25 1012 78 10000 1.5 30 06:59 20.08.2019
3368 Clear 25 1012 78 10000 1.5 360 06:25 20.08.2019
3369 Clear 25 1011 78 10000 2.1 350 05:49 20.08.2019
3370 Clear 25 1011 73 10000 1.5 340 05:18 20.08.2019
3371 Clear 26 1011 69 6000 2.1 360 03:52 20.08.2019
3372 Clear 26 1011 69 6000 1.5 30 02:42 20.08.2019
3373 Clear 26 1011 69 6000 1.5 10 01:39 20.08.2019
3374 Clear 26 1011 69 6000 2.1 350 00:57 20.08.2019
3375 Clear 27 1011 65 6000 3.1 340 00:39 20.08.2019
3376 Clear 27 1011 65 6000 3.1 340 00:19 20.08.2019
3377 Clear 27 1012 61 6000 3.6 10 23:40 19.08.2019
3378 Clear 27 1012 61 6000 3.6 10 23:18 19.08.2019
3379 Clear 27 1011 61 10000 3.6 360 22:54 19.08.2019
3380 Clear 28 1011 58 10000 3.6 340 22:36 19.08.2019
3381 Clear 28 1011 58 10000 3.6 340 22:18 19.08.2019
3382 Clear 28 1011 54 10000 3.1 350 21:55 19.08.2019
3383 Clear 29 1011 51 10000 3.1 340 21:36 19.08.2019
3384 Clear 29 1011 51 10000 3.1 340 21:18 19.08.2019
3385 Clear 30 1011 48 10000 4.6 330 20:39 19.08.2019
3386 Clear 30 1011 48 10000 4.6 330 20:20 19.08.2019
3387 Clear 30 1010 48 10000 5.7 330 19:58 19.08.2019
3388 Clear 30 1010 48 10000 5.7 330 19:39 19.08.2019
3389 Clouds 30 1010 43 10000 5.1 310 19:19 19.08.2019
3390 Clouds 31 1010 40 10000 5.7 310 18:47 19.08.2019
3391 Clouds 32 1010 40 10000 5.7 310 18:29 19.08.2019
3392 Clouds 33 1010 33 10000 5.1 310 17:59 19.08.2019
3393 Clouds 33 1009 31 10000 5.1 290 17:41 19.08.2019
3394 Clouds 33 1009 31 10000 5.1 290 17:22 19.08.2019
3395 Clouds 33 1009 33 10000 4.6 320 16:58 19.08.2019
3396 Clouds 33 1009 33 10000 5.7 310 16:38 19.08.2019
3397 Clouds 33 1009 32 10000 5.7 300 16:20 19.08.2019
3398 Clouds 34 1009 32 10000 5.7 300 15:56 19.08.2019
3399 Clouds 34 1009 30 10000 4.1 280 15:37 19.08.2019
3400 Clouds 33 1009 31 10000 3.6 310 15:18 19.08.2019
3401 Clouds 33 1010 33 10000 3.6 300 14:43 19.08.2019
3402 Clouds 32 1010 35 10000 4.6 300 14:23 19.08.2019
3403 Clouds 32 1010 35 10000 4.6 300 13:58 19.08.2019
3404 Clouds 32 1010 35 10000 5.1 290 13:38 19.08.2019
3405 Clouds 32 1010 33 10000 6.7 290 13:19 19.08.2019
3406 Clouds 32 1010 33 10000 6.7 290 12:57 19.08.2019
3407 Clouds 31 1010 40 10000 5.7 290 12:39 19.08.2019
3408 Clouds 31 1010 40 10000 4.1 290 12:19 19.08.2019
3409 Clouds 30 1010 42 10000 4.1 290 11:39 19.08.2019
3410 Clouds 30 1010 48 10000 3.6 280 11:21 19.08.2019
3411 Clouds 29 1010 48 10000 3.6 280 10:58 19.08.2019
3412 Clouds 29 1010 48 10000 3.6 310 10:37 19.08.2019
3413 Clear 28 1010 51 10000 4.1 300 10:18 19.08.2019
3414 Clear 28 1010 54 10000 3.6 340 09:45 19.08.2019
3415 Clear 28 1010 54 10000 3.6 340 09:24 19.08.2019
3416 Clear 28 1010 54 10000 3.6 340 09:24 19.08.2019
3417 Clear 27 1010 54 10000 3.6 300 08:59 19.08.2019
3418 Clear 27 1010 57 10000 2.6 270 08:41 19.08.2019
3419 Clear 27 1010 57 10000 2.6 270 08:41 19.08.2019
3420 Clear 26 1010 65 10000 3.1 300 08:20 19.08.2019
3421 Clear 26 1010 65 10000 3.1 300 07:49 19.08.2019
3422 Clear 26 1010 65 10000 3.1 300 07:31 19.08.2019
3423 Clear 25 1010 69 10000 2.1 310 06:52 19.08.2019
3424 Clear 25 1010 69 10000 2.1 310 06:33 19.08.2019
3425 Clear 25 1010 69 10000 3.1 290 05:21 19.08.2019
3426 Clear 25 1009 69 10000 3.6 310 04:27 19.08.2019
3427 Clear 25 1009 73 10000 2.1 290 03:24 19.08.2019
3428 Clear 25 1009 73 10000 3.6 300 02:29 19.08.2019
3429 Clear 26 1009 69 10000 3.1 320 01:35 19.08.2019
3430 Clear 26 1010 69 10000 4.1 320 00:44 19.08.2019
3431 Clear 26 1010 69 10000 4.1 320 00:23 19.08.2019
3432 Clear 26 1010 69 10000 3.6 320 23:43 18.08.2019
3433 Clear 26 1010 69 10000 4.1 320 23:22 18.08.2019
3434 Clear 26 1010 69 10000 4.1 320 22:57 18.08.2019
3435 Clear 27 1010 65 10000 4.6 330 22:38 18.08.2019
3436 Clear 27 1010 61 10000 4.1 320 22:20 18.08.2019
3437 Clear 27 1010 61 10000 4.1 320 21:56 18.08.2019
3438 Clear 28 1010 58 10000 5.1 330 21:37 18.08.2019
3439 Clear 29 1010 54 10000 5.1 320 21:19 18.08.2019
3440 Clear 30 1009 48 10000 4.1 320 20:44 18.08.2019
3441 Clear 30 1009 48 10000 4.1 320 20:26 18.08.2019
3442 Clear 30 1009 48 10000 4.1 320 20:26 18.08.2019
3443 Clear 30 1009 45 10000 5.1 330 19:56 18.08.2019
3444 Clouds 31 1008 43 10000 5.7 310 19:38 18.08.2019
3445 Clouds 31 1008 40 10000 5.1 330 19:19 18.08.2019
3446 Clouds 31 1008 40 10000 5.1 330 18:54 18.08.2019
3447 Clouds 32 1008 43 10000 6.2 330 18:36 18.08.2019
3448 Clouds 35 1008 36 10000 5.1 320 18:18 18.08.2019
3449 Clouds 35 1008 36 10000 5.1 320 17:43 18.08.2019
3450 Clouds 35 1008 30 10000 5.1 320 17:19 18.08.2019
3451 Clouds 35 1008 30 10000 5.1 320 17:19 18.08.2019
3452 Clouds 35 1008 30 10000 5.1 320 16:59 18.08.2019
3453 Clouds 35 1008 30 10000 5.1 320 16:40 18.08.2019
3454 Clouds 35 1008 32 10000 4.1 310 16:20 18.08.2019
3455 Clouds 35 1008 32 10000 4.1 310 15:58 18.08.2019
3456 Clouds 35 1008 32 10000 4.1 310 15:39 18.08.2019
3457 Clouds 35 1008 36 10000 3.1 330 15:20 18.08.2019
3458 Clouds 35 1008 36 10000 3.1 330 15:20 18.08.2019
3459 Clouds 34 1008 36 10000 3.1 330 14:56 18.08.2019
3460 Clouds 34 1008 36 10000 3.1 330 14:37 18.08.2019
3461 Clouds 34 1008 38 10000 3.1 310 14:19 18.08.2019
3462 Clouds 34 1008 38 10000 3.1 310 13:44 18.08.2019
3463 Clouds 34 1008 38 10000 3.1 310 13:24 18.08.2019
3464 Clouds 33 1009 41 10000 3.6 290 13:00 18.08.2019
3465 Clouds 33 1009 41 10000 3.6 290 12:40 18.08.2019
3466 Clouds 32 1009 46 10000 3.6 280 12:22 18.08.2019
3467 Clouds 32 1009 46 10000 3.6 280 11:54 18.08.2019
3468 Clouds 32 1009 46 10000 3.6 280 11:36 18.08.2019
3469 Clouds 31 1009 55 10000 2.1 290 11:18 18.08.2019
3470 Clouds 31 1009 55 10000 2.1 290 10:41 18.08.2019
3471 Clouds 29 1009 62 10000 3.6 290 10:19 18.08.2019
3472 Clouds 29 1009 62 10000 3.6 290 09:50 18.08.2019
3473 Clouds 28 1009 69 10000 3.1 310 09:22 18.08.2019
3474 Clouds 28 1009 69 10000 3.1 310 08:54 18.08.2019
3475 Clouds 28 1009 69 10000 3.1 310 08:36 18.08.2019
3476 Clouds 28 1009 69 10000 3.1 310 08:18 18.08.2019
3477 Clouds 27 1009 74 10000 2.6 310 07:44 18.08.2019
3478 Clouds 26 1009 78 10000 2.6 310 07:25 18.08.2019
3479 Clouds 26 1009 78 10000 3.1 300 05:48 18.08.2019
3480 Clouds 26 1009 78 10000 2.1 290 04:53 18.08.2019
3481 Clouds 26 1009 78 10000 2.6 320 03:41 18.08.2019
3482 Clear 26 1009 78 10000 2.6 310 02:46 18.08.2019
3483 Clear 26 1009 78 10000 2.6 310 02:23 18.08.2019
3484 Clear 27 1009 74 10000 3.6 310 01:44 18.08.2019
3485 Clear 27 1009 69 10000 2.6 340 01:19 18.08.2019
3486 Clear 27 1009 69 10000 2.6 340 00:38 18.08.2019
3487 Clear 27 1009 69 10000 2.6 350 00:19 18.08.2019
3488 Clear 27 1009 69 10000 2.6 350 23:57 17.08.2019
3489 Clear 28 1009 65 10000 3.6 350 23:37 17.08.2019
3490 Clear 28 1009 65 10000 5.1 360 23:18 17.08.2019
3491 Clear 28 1009 65 10000 5.1 360 22:56 17.08.2019
3492 Clear 28 1009 65 10000 5.1 360 22:37 17.08.2019
3493 Clear 29 1009 66 10000 5.1 350 22:18 17.08.2019
3494 Clear 29 1009 66 10000 5.1 350 21:41 17.08.2019
3495 Clear 29 1009 66 10000 5.1 350 21:23 17.08.2019
3496 Clear 31 1009 62 10000 5.1 340 20:41 17.08.2019
3497 Clear 33 1009 62 10000 5.1 340 20:21 17.08.2019
3498 Clear 33 1009 62 10000 5.1 340 19:59 17.08.2019
3499 Clouds 33 1008 49 10000 5.1 320 19:41 17.08.2019
3500 Clouds 34 1008 38 10000 4.6 320 19:22 17.08.2019
3501 Clouds 34 1008 36 10000 4.1 330 18:54 17.08.2019
3502 Clouds 34 1008 36 10000 4.1 330 18:36 17.08.2019
3503 Clouds 36 1008 32 10000 5.1 330 18:18 17.08.2019
3504 Clouds 36 1008 32 10000 5.1 330 18:18 17.08.2019
3505 Clouds 36 1008 28 10000 6.2 320 17:42 17.08.2019
3506 Clouds 36 1008 28 10000 5.7 320 17:21 17.08.2019
3507 Clear 36 1008 29 10000 5.7 330 16:56 17.08.2019
3508 Clear 37 1008 29 10000 5.7 330 16:37 17.08.2019
3509 Clear 37 1008 29 10000 6.2 350 16:18 17.08.2019
3510 Clear 37 1008 29 10000 5.1 320 15:42 17.08.2019
3511 Clear 37 1008 29 10000 5.1 320 15:42 17.08.2019
3512 Clear 36 1008 30 10000 4.1 340 15:22 17.08.2019
3513 Clear 36 1008 30 10000 4.1 340 14:58 17.08.2019
3514 Clear 35 1009 36 10000 3.1 340 14:39 17.08.2019
3515 Clear 35 1009 34 10000 3.6 340 14:21 17.08.2019
3516 Clear 36 1009 34 10000 3.6 340 14:21 17.08.2019
3517 Clear 35 1009 36 10000 2.1 330 13:44 17.08.2019
3518 Clear 34 1010 36 10000 3.1 310 13:19 17.08.2019
3519 Clear 33 1010 41 10000 2.6 350 12:44 17.08.2019
3520 Clear 32 1011 49 10000 1.5 10 12:20 17.08.2019
3521 Clear 32 1011 49 10000 1.5 10 11:58 17.08.2019
3522 Clear 32 1011 49 10000 1.5 10 11:38 17.08.2019
3523 Clear 31 1011 48 10000 2.6 320 11:20 17.08.2019
3524 Clear 30 1011 55 10000 2.6 320 10:42 17.08.2019
3525 Clear 30 1011 58 10000 1.5 360 10:21 17.08.2019
3526 Clear 30 1011 58 10000 1.5 360 09:59 17.08.2019
3527 Clear 29 1011 62 10000 1.5 360 09:40 17.08.2019
3528 Clear 29 1011 62 10000 1.5 360 09:21 17.08.2019
3529 Clear 27 1011 74 10000 1.5 360 08:51 17.08.2019
3530 Clear 27 1011 74 10000 2.1 10 08:22 17.08.2019
3531 Clear 27 1011 74 10000 2.1 10 07:44 17.08.2019
3532 Clear 26 1010 78 10000 2.1 10 07:20 17.08.2019
3533 Clear 26 1010 78 10000 2.1 10 06:34 17.08.2019
3534 Clear 26 1010 78 10000 3.1 20 04:48 17.08.2019
3535 Clear 26 1010 83 10000 3.1 360 04:23 17.08.2019
3536 Clear 27 1010 78 10000 2.6 40 02:45 17.08.2019
3537 Clear 27 1010 78 10000 3.1 40 01:40 17.08.2019
3538 Clear 27 1010 78 10000 3.1 40 01:20 17.08.2019
3539 Clear 28 1010 74 10000 3.6 60 00:47 17.08.2019
3540 Clear 28 1010 74 10000 3.6 60 00:25 17.08.2019
3541 Clear 28 1010 74 10000 4.6 40 23:47 16.08.2019
3542 Clear 28 1010 74 10000 4.6 40 23:25 16.08.2019
3543 Clear 29 1010 66 10000 4.6 40 22:44 16.08.2019
3544 Clear 30 1010 62 10000 4.1 50 22:20 16.08.2019
3545 Clear 30 1010 62 10000 4.1 50 22:20 16.08.2019
3546 Clear 30 1010 62 10000 4.1 50 21:59 16.08.2019
3547 Clear 31 1010 58 10000 5.1 10 21:39 16.08.2019
3548 Clear 31 1010 62 10000 5.1 10 21:19 16.08.2019
3549 Clear 31 1009 62 10000 5.7 20 20:43 16.08.2019
3550 Clear 31 1009 62 10000 6.2 10 20:22 16.08.2019
3551 Clear 31 1009 62 10000 6.2 10 19:59 16.08.2019
3552 Clear 33 1008 59 10000 6.2 360 19:39 16.08.2019
3553 Clear 33 1008 49 6000 5.1 10 19:20 16.08.2019
3554 Clear 33 1008 46 6000 5.1 360 18:42 16.08.2019
3555 Clear 33 1008 46 6000 5.1 360 18:42 16.08.2019
3556 Clear 33 1008 46 6000 5.1 360 18:42 16.08.2019
3557 Clear 34 1008 46 6000 5.1 360 18:23 16.08.2019
3558 Clear 35 1008 44 6000 4.6 340 17:48 16.08.2019
3559 Clear 35 1008 44 6000 4.6 340 17:30 16.08.2019
3560 Clouds 36 1008 41 6000 5.1 330 16:59 16.08.2019
3561 Clouds 36 1008 41 6000 5.1 330 16:41 16.08.2019
3562 Clouds 36 1008 39 6000 4.6 340 16:21 16.08.2019
3563 Clouds 36 1008 39 6000 4.6 340 15:56 16.08.2019
3564 Clouds 36 1008 39 6000 4.6 340 15:38 16.08.2019
3565 Clouds 37 1008 39 6000 4.6 320 15:20 16.08.2019
3566 Clouds 37 1008 39 6000 4.6 320 14:57 16.08.2019
3567 Clouds 37 1008 39 6000 4.6 320 14:38 16.08.2019
3568 Clouds 36 1008 37 6000 3.6 20 14:18 16.08.2019
3569 Clouds 36 1008 37 6000 3.6 20 13:41 16.08.2019
3570 Clear 35 1009 44 6000 2.6 20 13:22 16.08.2019
3571 Clear 35 1009 44 6000 2.6 20 12:55 16.08.2019
3572 Clear 35 1009 44 6000 2.6 20 12:37 16.08.2019
3573 Clear 35 1009 44 6000 2.6 20 12:18 16.08.2019
3574 Clear 33 1009 52 6000 3.1 10 11:41 16.08.2019
3575 Clear 33 1010 52 6000 1.5 340 11:23 16.08.2019
3576 Clear 33 1010 52 6000 1.5 340 10:43 16.08.2019
3577 Clear 33 1010 52 6000 1.5 340 10:22 16.08.2019
3578 Clear 32 1010 59 6000 1.5 340 09:55 16.08.2019
3579 Haze 31 1010 62 4000 2.6 320 09:37 16.08.2019
3580 Haze 30 1010 70 4000 1 320 09:18 16.08.2019
3581 Mist 29 1010 74 4000 3.1 30 08:40 16.08.2019
3582 Mist 28 1010 78 3000 1.5 30 08:20 16.08.2019
3583 Mist 28 1010 78 3000 1.5 30 07:52 16.08.2019
3584 Mist 28 1010 78 3000 1.5 30 07:30 16.08.2019
3585 Mist 27 1009 83 3000 2.6 10 06:56 16.08.2019
3586 Mist 27 1009 88 3000 2.1 10 06:19 16.08.2019
3587 Mist 27 1009 83 4000 2.6 20 05:36 16.08.2019
3588 Clear 27 1008 74 6000 3.1 360 03:22 16.08.2019
3589 Clear 28 1008 74 6000 3.1 360 02:28 16.08.2019
3590 Clear 28 1008 74 10000 4.1 320 01:29 16.08.2019
3591 Clear 29 1008 66 10000 3.1 20 00:57 16.08.2019
3592 Clear 29 1008 66 10000 3.1 20 00:39 16.08.2019
3593 Clear 29 1008 58 10000 3.6 350 00:20 16.08.2019
3594 Clear 30 1008 58 10000 3.6 350 23:42 15.08.2019
3595 Clear 31 1008 52 10000 4.1 350 23:21 15.08.2019
3596 Clear 31 1008 52 10000 4.1 350 22:57 15.08.2019
3597 Clear 32 1008 49 10000 3.1 340 22:39 15.08.2019
3598 Clear 32 1008 49 10000 3.6 350 22:20 15.08.2019
3599 Clear 33 1007 49 10000 4.6 350 21:40 15.08.2019
3600 Clear 34 1007 34 10000 5.7 360 21:20 15.08.2019
3601 Clear 35 1007 34 10000 5.7 360 20:59 15.08.2019
3602 Clear 35 1007 34 10000 5.7 360 20:41 15.08.2019
3603 Clear 35 1007 34 10000 5.7 360 20:21 15.08.2019
3604 Clear 36 1006 30 10000 4.6 350 19:57 15.08.2019
3605 Clear 40 1005 11 10000 4.6 180 19:38 15.08.2019
3606 Clear 40 1005 11 10000 4.6 180 19:19 15.08.2019
3607 Clear 41 1005 11 10000 4.1 200 18:46 15.08.2019
3608 Clear 41 1005 11 10000 5.1 190 18:22 15.08.2019
3609 Clear 41 1005 11 10000 5.1 190 17:57 15.08.2019
3610 Clear 42 1005 9 10000 5.1 210 17:37 15.08.2019
3611 Clear 42 1005 9 10000 5.1 190 17:19 15.08.2019
3612 Clear 42 1005 9 10000 5.1 210 16:48 15.08.2019
3613 Clear 42 1005 9 10000 5.1 210 16:27 15.08.2019
3614 Clear 42 1005 9 10000 5.1 210 16:27 15.08.2019
3615 Clear 42 1006 10 10000 7.2 230 15:59 15.08.2019
3616 Clear 42 1006 11 10000 6.7 210 15:38 15.08.2019
3617 Clear 42 1006 10 10000 5.7 220 15:19 15.08.2019
3618 Clear 42 1007 11 10000 5.1 210 14:43 15.08.2019
3619 Clear 42 1007 11 10000 5.1 210 14:23 15.08.2019
3620 Clear 41 1007 12 10000 4.6 190 13:58 15.08.2019
3621 Clear 41 1007 12 10000 3.1 220 13:40 15.08.2019
3622 Clear 41 1008 12 10000 4.6 210 13:21 15.08.2019
3623 Clear 41 1008 12 10000 4.6 210 12:57 15.08.2019
3624 Clear 41 1008 12 10000 4.6 220 12:39 15.08.2019
3625 Clear 40 1008 13 10000 4.6 190 12:19 15.08.2019
3626 Clear 39 1008 13 10000 4.6 190 11:57 15.08.2019
3627 Clear 38 1008 15 10000 2.6 240 11:37 15.08.2019
3628 Clear 38 1008 15 10000 2.6 240 11:37 15.08.2019
3629 Clear 38 1009 18 10000 1.5 0 11:18 15.08.2019
3630 Clear 38 1009 18 10000 1.5 0 10:57 15.08.2019
3631 Clear 37 1009 20 10000 2.6 240 10:36 15.08.2019
3632 Clear 36 1009 23 10000 2.6 300 10:18 15.08.2019
3633 Clear 36 1009 19 10000 4.1 260 09:42 15.08.2019
3634 Clear 36 1008 20 10000 2.1 270 09:22 15.08.2019
3635 Clear 34 1008 23 10000 2.1 230 08:39 15.08.2019
3636 Clear 33 1008 33 10000 1.65 238.164 08:21 15.08.2019
3637 Clear 32 1008 35 10000 2.1 280 07:56 15.08.2019
3638 Clear 32 1008 35 10000 2.1 280 07:37 15.08.2019
3639 Clear 32 1008 22 10000 2.1 180 07:18 15.08.2019
3640 Clear 32 1007 24 10000 1 280 06:43 15.08.2019
3641 Clear 30 1007 27 10000 1 110 06:22 15.08.2019
3642 Clear 29 1007 37 10000 1.5 30 05:29 15.08.2019
3643 Clear 29 1007 37 10000 1.5 30 04:56 15.08.2019
3644 Clear 30 1007 33 10000 0.35 280.467 03:51 15.08.2019
3645 Clear 31 1007 31 10000 2.1 10 02:53 15.08.2019
3646 -273 0 0 0 0 0 02:25 15.08.2019
3647 Clear 31 1007 33 10000 4.1 100 01:39 15.08.2019
3648 Clear 31 1007 38 10000 5.7 100 00:55 15.08.2019
3649 Clear 31 1007 40 10000 4.6 100 00:36 15.08.2019
3650 Clear 31 1008 40 10000 5.1 90 00:18 15.08.2019
3651 Clear 31 1008 40 10000 5.1 90 23:55 14.08.2019
3652 Clear 31 1008 43 10000 4.6 100 23:36 14.08.2019
3653 Clear 31 1008 43 10000 4.6 100 23:18 14.08.2019
3654 Clear 32 1008 43 10000 4.1 70 22:41 14.08.2019
3655 Clear 32 1008 43 10000 4.1 70 22:22 14.08.2019
3656 Clear 32 1008 43 10000 4.1 70 21:57 14.08.2019
3657 Clear 32 1008 40 10000 4.1 60 21:39 14.08.2019
3658 Clear 33 1008 36 10000 4.6 60 21:20 14.08.2019
3659 Clear 33 1008 36 10000 4.6 60 20:56 14.08.2019
3660 Clear 33 1008 36 10000 4.6 60 20:37 14.08.2019
3661 Clear 33 1008 36 10000 5.1 50 20:18 14.08.2019
3662 Clear 34 1008 36 10000 5.1 50 19:40 14.08.2019
3663 Clear 35 1007 26 10000 4.6 20 19:22 14.08.2019
3664 Clear 35 1007 26 10000 4.6 20 18:59 14.08.2019
3665 Clear 36 1007 25 10000 4.1 360 18:39 14.08.2019
3666 Clear 37 1007 20 10000 5.1 10 18:21 14.08.2019
3667 Clear 37 1007 20 10000 5.1 10 17:59 14.08.2019
3668 Clear 37 1007 20 10000 5.7 10 17:39 14.08.2019
3669 Clear 38 1007 16 10000 4.1 330 17:21 14.08.2019
3670 Clear 38 1007 16 10000 4.1 330 16:56 14.08.2019
3671 Clear 38 1007 16 10000 4.1 330 16:38 14.08.2019
3672 Clear 38 1008 16 10000 4.1 330 16:19 14.08.2019
3673 Clear 38 1008 16 10000 4.1 330 16:19 14.08.2019
3674 Clear 38 1008 16 10000 4.1 330 15:43 14.08.2019
3675 Clear 38 1008 16 10000 4.6 280 15:18 14.08.2019
3676 Clear 38 1008 16 10000 4.6 280 14:55 14.08.2019
3677 Clear 38 1008 16 10000 4.6 280 14:55 14.08.2019
3678 Clear 38 1008 16 10000 3.1 270 14:36 14.08.2019
3679 Clear 38 1008 16 10000 3.1 270 14:36 14.08.2019
3680 Clear 38 1008 15 10000 3.6 280 14:18 14.08.2019
3681 Clear 38 1008 14 10000 3.6 290 13:43 14.08.2019
3682 Clear 38 1008 14 10000 3.6 290 13:24 14.08.2019
3683 Clear 37 1008 22 10000 3.1 290 12:57 14.08.2019
3684 Clear 37 1008 22 10000 3.1 290 12:39 14.08.2019
3685 Clear 37 1008 22 10000 3.1 290 12:39 14.08.2019
3686 Clear 35 1008 28 10000 2.6 300 12:21 14.08.2019
3687 Clear 35 1008 28 10000 2.6 300 11:56 14.08.2019
3688 Clear 35 1008 28 10000 2.6 300 11:38 14.08.2019
3689 Clear 35 1008 28 10000 2.6 300 11:38 14.08.2019
3690 Clear 35 1008 28 10000 2.6 300 11:38 14.08.2019
3691 Clear 35 1008 28 10000 2.6 300 11:38 14.08.2019
3692 Clear 34 1008 30 10000 2.1 300 11:20 14.08.2019
3693 Clear 34 1008 30 10000 2.1 300 10:45 14.08.2019
3694 Clear 34 1008 30 10000 2.1 300 10:24 14.08.2019
3695 Clear 33 1008 33 10000 1.5 340 09:57 14.08.2019
3696 Clear 32 1008 38 10000 1.5 330 09:38 14.08.2019
3697 Clouds 32 1008 40 10000 1 300 09:19 14.08.2019
3698 Clouds 30 1008 51 10000 1.05 357.217 08:40 14.08.2019
3699 Clouds 29 1008 58 10000 1.05 357.217 08:21 14.08.2019
3700 Clouds 29 1008 54 10000 1.05 357.217 07:51 14.08.2019
3701 Clouds 29 1008 54 10000 1.05 357.217 07:32 14.08.2019
3702 Clear 27 1008 61 10000 1.05 357.217 06:46 14.08.2019
3703 Clear 26 1007 69 10000 1 80 05:54 14.08.2019
3704 Clear 26 1007 69 10000 1.5 50 05:25 14.08.2019
3705 Clear 27 1007 69 10000 1.5 80 03:38 14.08.2019
3706 Clear 28 1008 65 10000 1.5 10 02:34 14.08.2019
3707 Clear 28 1008 65 10000 2.1 40 01:49 14.08.2019
3708 Clear 28 1008 65 10000 1.5 30 01:19 14.08.2019
3709 Clear 29 1008 58 10000 2.6 60 23:55 13.08.2019
3710 Clear 29 1008 58 10000 2.6 60 23:37 13.08.2019
3711 Clear 29 1008 58 10000 2.6 60 23:18 13.08.2019
3712 Clear 30 1008 55 10000 2.1 360 22:42 13.08.2019
3713 Clear 30 1008 55 10000 2.1 360 22:24 13.08.2019
3714 Clear 30 1008 55 10000 5.7 350 21:59 13.08.2019
3715 Clear 30 1008 58 10000 5.7 350 21:39 13.08.2019
3716 Clear 31 1008 55 10000 5.7 350 21:19 13.08.2019
3717 Clear 31 1008 55 10000 5.7 350 20:57 13.08.2019
3718 Clear 31 1008 55 10000 5.7 350 20:37 13.08.2019
3719 Clear 32 1007 49 10000 4.1 350 20:18 13.08.2019
3720 Clear 34 1006 28 10000 4.1 350 19:43 13.08.2019
3721 Clear 34 1006 28 10000 4.1 350 19:22 13.08.2019
3722 Clear 35 1006 20 10000 4.1 340 18:59 13.08.2019
3723 Clear 35 1006 20 10000 4.1 340 18:41 13.08.2019
3724 Clear 36 1006 19 10000 5.1 340 18:20 13.08.2019
3725 Clear 36 1006 19 10000 5.7 360 17:43 13.08.2019
3726 Clear 36 1005 19 10000 5.7 350 17:22 13.08.2019
3727 Clear 36 1005 19 10000 5.7 350 16:58 13.08.2019
3728 Clear 36 1005 19 10000 4.1 300 16:40 13.08.2019
3729 Clear 37 1005 22 10000 4.1 320 16:21 13.08.2019
3730 Clear 37 1005 22 10000 4.1 320 15:59 13.08.2019
3731 Clear 37 1005 20 10000 4.1 320 15:38 13.08.2019
3732 Clear 37 1005 20 10000 4.1 320 15:38 13.08.2019
3733 Clear 36 1005 26 10000 3.6 340 15:19 13.08.2019
3734 Clear 36 1006 16 10000 3.6 310 14:42 13.08.2019
3735 Clear 36 1006 19 10000 3.6 320 14:20 13.08.2019
3736 Clear 36 1006 19 10000 3.6 320 13:58 13.08.2019
3737 Clear 36 1006 19 10000 3.6 320 13:58 13.08.2019
3738 Clear 35 1006 34 10000 2.6 350 13:39 13.08.2019
3739 Clear 35 1007 30 10000 2.6 310 13:18 13.08.2019
3740 Clear 36 1007 30 10000 2.6 310 12:56 13.08.2019
3741 Clear 35 1007 39 10000 3.1 350 12:38 13.08.2019
3742 Clear 35 1007 36 10000 2.6 310 12:18 13.08.2019
3743 Clear 33 1007 43 10000 2.6 330 11:42 13.08.2019
3744 Clear 32 1007 46 10000 1.5 340 11:22 13.08.2019
3745 Clear 32 1007 46 10000 1.5 340 10:57 13.08.2019
3746 Clear 31 1007 48 6000 1.5 330 10:38 13.08.2019
3747 Clear 30 1007 58 6000 1.5 360 10:19 13.08.2019
3748 Clear 30 1007 55 6000 3.1 10 09:46 13.08.2019
3749 Clear 30 1007 66 6000 2.6 350 09:25 13.08.2019
3750 Clear 29 1007 66 6000 2.6 350 08:57 13.08.2019
3751 Clear 28 1007 74 6000 1.5 360 08:39 13.08.2019
3752 Clear 28 1007 74 6000 2.1 310 08:20 13.08.2019
3753 Clear 27 1007 78 6000 2.1 100 07:45 13.08.2019
3754 Clear 26 1007 83 6000 1.5 100 07:23 13.08.2019
3755 Clear 26 1007 83 6000 1.5 100 06:44 13.08.2019
3756 Clear 26 1006 83 10000 2.1 10 05:53 13.08.2019
3757 Clear 26 1006 83 10000 2.6 10 04:36 13.08.2019
3758 Clear 27 1006 78 10000 2.6 360 02:22 13.08.2019
3759 Clear 28 1006 74 10000 3.1 360 01:38 13.08.2019
3760 Clear 28 1007 74 10000 3.1 10 00:49 13.08.2019
3761 Clear 28 1007 74 10000 3.6 360 00:22 13.08.2019
3762 Clear 29 1007 66 10000 3.6 40 23:43 12.08.2019
3763 Clear 30 1007 62 10000 4.1 40 23:21 12.08.2019
3764 Clear 30 1007 62 10000 4.1 40 22:54 12.08.2019
3765 Clear 30 1006 62 10000 5.1 40 22:36 12.08.2019
3766 Clear 30 1006 58 10000 5.1 40 22:18 12.08.2019
3767 Clear 30 1006 58 10000 5.1 40 21:54 12.08.2019
3768 Clear 32 1006 43 10000 4.1 30 21:36 12.08.2019
3769 Clear 32 1006 43 10000 4.1 30 21:36 12.08.2019
3770 Clear 32 1006 43 10000 4.1 30 21:36 12.08.2019
3771 Clear 32 1006 46 10000 4.6 10 21:18 12.08.2019
3772 Clear 33 1005 41 10000 4.6 10 20:41 12.08.2019
3773 Clear 33 1005 38 10000 5.1 10 20:21 12.08.2019
3774 Clear 33 1005 38 10000 5.1 10 19:58 12.08.2019
3775 Clear 33 1005 33 10000 5.7 10 19:39 12.08.2019
3776 Clear 33 1005 36 10000 4.6 350 19:21 12.08.2019
3777 Clear 33 1005 36 10000 4.6 350 18:59 12.08.2019
3778 Clear 34 1004 32 10000 5.1 350 18:39 12.08.2019
3779 Clear 36 1004 25 10000 4.6 320 18:20 12.08.2019
3780 Clear 36 1004 25 10000 4.6 320 17:56 12.08.2019
3781 Clear 37 1004 22 10000 4.1 330 17:38 12.08.2019
3782 Clear 37 1004 20 10000 4.6 310 17:20 12.08.2019
3783 Clear 37 1004 20 10000 4.6 310 16:42 12.08.2019
3784 Clear 37 1005 19 10000 3.6 310 16:20 12.08.2019
3785 Clear 37 1005 19 10000 3.6 310 15:59 12.08.2019
3786 Clear 38 1005 19 10000 3.6 310 15:41 12.08.2019
3787 Clear 38 1005 19 10000 3.6 310 15:41 12.08.2019
3788 Clear 38 1005 17 10000 3.6 290 15:22 12.08.2019
3789 Clear 38 1005 17 10000 3.6 290 14:58 12.08.2019
3790 Clear 38 1005 17 10000 3.6 290 14:39 12.08.2019
3791 Clear 38 1005 17 10000 3.6 290 14:39 12.08.2019
3792 Clear 38 1005 17 10000 3.6 290 14:39 12.08.2019
3793 Clear 37 1006 19 10000 2.1 340 14:20 12.08.2019
3794 Clear 37 1006 19 10000 2.1 340 13:55 12.08.2019
3795 Clear 37 1006 19 10000 2.1 340 13:55 12.08.2019
3796 Clear 37 1006 19 10000 2.1 340 13:55 12.08.2019
3797 Clear 37 1006 19 10000 2.1 340 13:37 12.08.2019
3798 Clear 36 1006 20 10000 2.6 260 13:19 12.08.2019
3799 Clear 36 1006 20 10000 2.6 260 12:43 12.08.2019
3800 Clear 36 1007 18 10000 1.5 230 12:19 12.08.2019
3801 Clear 36 1007 18 10000 1.5 230 11:45 12.08.2019
3802 Clear 36 1007 18 10000 1.5 230 11:26 12.08.2019
3803 Clear 35 1007 21 10000 1 300 10:58 12.08.2019
3804 Clear 35 1007 21 10000 1 300 10:40 12.08.2019
3805 Clear 34 1007 26 10000 1 30 10:21 12.08.2019
3806 Clear 33 1007 26 10000 1 30 09:55 12.08.2019
3807 Clear 32 1007 29 10000 1 350 09:36 12.08.2019
3808 Clear 32 1007 29 10000 1 350 09:36 12.08.2019
3809 Clear 31 1007 33 10000 2.03 330.462 09:18 12.08.2019
3810 Clear 29 1007 39 10000 1.5 50 08:40 12.08.2019
3811 Clear 29 1007 39 10000 1.5 50 08:22 12.08.2019
3812 Clear 29 1007 39 10000 1.5 50 08:22 12.08.2019
3813 Clear 28 1007 51 10000 2.03 330.462 07:56 12.08.2019
3814 Clear 27 1007 54 10000 2.03 330.462 07:35 12.08.2019
3815 Clear 27 1006 54 10000 2.03 330.462 06:54 12.08.2019
3816 Clear 26 1006 57 10000 1 70 06:18 12.08.2019
3817 Clear 27 1006 57 10000 1.5 0 04:29 12.08.2019
3818 Clear 28 1007 61 10000 2.6 60 02:43 12.08.2019
3819 Clear 29 1007 58 10000 2.1 40 01:45 12.08.2019
3820 Clear 29 1007 54 10000 2.6 50 01:18 12.08.2019
3821 Clear 29 1007 54 10000 2.6 50 00:54 12.08.2019
3822 Clear 29 1007 54 10000 2.6 50 00:36 12.08.2019
3823 Clear 29 1007 54 10000 3.1 50 00:18 12.08.2019
3824 Clear 30 1007 48 10000 3.1 50 23:39 11.08.2019
3825 Clear 31 1007 45 10000 3.1 50 23:20 11.08.2019
3826 Clear 31 1007 45 10000 3.1 50 22:56 11.08.2019
3827 Clear 31 1007 45 10000 3.1 50 22:37 11.08.2019
3828 Clear 31 1007 43 10000 3.1 50 22:18 11.08.2019
3829 Clear 31 1007 43 10000 3.1 50 22:18 11.08.2019
3830 Clear 31 1007 43 10000 3.1 50 21:56 11.08.2019
3831 Clear 32 1007 38 10000 3.1 50 21:38 11.08.2019
3832 Clear 32 1007 38 10000 3.1 60 21:19 11.08.2019
3833 Clear 32 1007 38 10000 3.1 60 21:19 11.08.2019
3834 Clear 32 1006 33 10000 4.1 10 20:44 11.08.2019
3835 Clear 33 1006 33 10000 4.1 10 20:23 11.08.2019
3836 Clear 33 1006 33 10000 4.1 10 19:56 11.08.2019
3837 Clear 33 1006 31 10000 4.6 10 19:37 11.08.2019
3838 Clear 33 1006 34 10000 5.1 350 19:18 11.08.2019
3839 Clear 34 1005 28 10000 4.6 360 18:40 11.08.2019
3840 Clear 36 1005 23 10000 4.1 350 18:20 11.08.2019
3841 Clear 36 1005 22 10000 3.6 340 17:54 11.08.2019
3842 Clear 36 1005 22 10000 3.6 340 17:36 11.08.2019
3843 Clear 36 1005 22 10000 4.1 320 17:18 11.08.2019
3844 Clear 36 1005 19 10000 4.1 320 16:40 11.08.2019
3845 Clear 37 1005 19 10000 4.1 320 16:22 11.08.2019
3846 Clear 36 1005 22 10000 4.6 330 15:59 11.08.2019
3847 Clear 37 1005 19 10000 4.1 290 15:41 11.08.2019
3848 Clear 37 1005 19 10000 3.1 270 15:22 11.08.2019
3849 Clear 37 1005 19 10000 3.1 270 14:56 11.08.2019
3850 Clear 36 1006 20 10000 4.1 360 14:37 11.08.2019
3851 Clear 36 1006 19 10000 2.6 280 14:19 11.08.2019
3852 Clear 37 1006 22 10000 3.1 280 13:43 11.08.2019
3853 Clear 36 1006 22 10000 2.6 350 13:24 11.08.2019
3854 Clear 36 1007 22 10000 1.5 270 12:46 11.08.2019
3855 Clear 35 1007 24 10000 2.1 340 12:22 11.08.2019
3856 Clear 34 1007 24 10000 2.1 340 11:54 11.08.2019
3857 Clear 34 1007 24 10000 2.1 340 11:36 11.08.2019
3858 Clear 33 1008 27 10000 1.32 338.822 11:18 11.08.2019
3859 Clear 33 1008 27 10000 1.32 338.822 10:40 11.08.2019
3860 Clear 31 1008 27 10000 1.32 338.822 10:22 11.08.2019
3861 Clear 31 1008 27 10000 1.32 338.822 09:58 11.08.2019
3862 Clear 31 1008 35 10000 1.32 338.822 09:38 11.08.2019
3863 Clear 29 1007 51 10000 2.44 4.251 09:19 11.08.2019
3864 Clear 28 1007 51 10000 2.46 6.986 08:44 11.08.2019
3865 Clear 28 1007 51 10000 2.46 6.986 08:25 11.08.2019
3866 Clear 26 1007 57 10000 2.46 6.986 07:54 11.08.2019
3867 Clear 26 1007 57 10000 2.46 6.986 07:23 11.08.2019
3868 Clear 26 1007 57 10000 2.46 6.986 06:44 11.08.2019
3869 Clear 25 1006 61 10000 2.6 60 05:35 11.08.2019
3870 Clear 26 1006 57 10000 2.6 80 03:41 11.08.2019
3871 Clear 27 1006 47 10000 2.1 80 02:48 11.08.2019
3872 Clear 28 1007 48 10000 2.1 60 01:38 11.08.2019
3873 Clear 28 1007 48 10000 2.1 60 01:19 11.08.2019
3874 Clear 28 1007 48 10000 2.6 60 00:43 11.08.2019
3875 Clear 28 1007 48 10000 2.6 60 00:23 11.08.2019
3876 Clear 29 1008 42 10000 2.6 60 23:43 10.08.2019
3877 Clear 29 1008 42 10000 2.6 60 23:24 10.08.2019
3878 Clear 30 1008 42 10000 2.6 60 22:43 10.08.2019
3879 Clear 30 1008 42 10000 2.6 60 22:25 10.08.2019
3880 Clear 30 1008 45 10000 3.1 40 21:58 10.08.2019
3881 Clear 31 1008 43 10000 3.6 50 21:38 10.08.2019
3882 Clear 31 1007 45 10000 4.6 40 21:20 10.08.2019
3883 Clear 31 1007 45 10000 4.6 40 20:56 10.08.2019
3884 Clear 32 1007 38 10000 4.6 20 20:37 10.08.2019
3885 Clear 32 1007 38 10000 4.6 20 20:18 10.08.2019
3886 Clear 32 1007 35 10000 4.1 10 19:39 10.08.2019
3887 Clear 32 1007 29 10000 3.6 350 19:21 10.08.2019
3888 Clear 33 1007 29 10000 3.6 350 18:41 10.08.2019
3889 Clear 34 1006 26 10000 3.6 350 18:23 10.08.2019
3890 Clear 35 1006 24 10000 4.1 300 17:46 10.08.2019
3891 Clear 35 1006 24 10000 4.1 300 17:25 10.08.2019
3892 Clear 35 1006 18 10000 3.1 280 16:48 10.08.2019
3893 Clear 36 1006 18 10000 3.1 280 16:29 10.08.2019
3894 Clear 35 1006 21 10000 4.1 310 15:59 10.08.2019
3895 Clear 35 1006 20 10000 4.6 320 15:40 10.08.2019
3896 Clear 35 1006 23 10000 3.1 20 15:21 10.08.2019
3897 Clear 35 1007 21 10000 2.6 300 14:43 10.08.2019
3898 Clear 35 1007 19 10000 3.1 360 14:19 10.08.2019
3899 Clear 35 1007 15 10000 3.1 290 13:40 10.08.2019
3900 Clear 34 1008 20 10000 3.6 290 13:19 10.08.2019
3901 Clear 34 1008 20 10000 3.6 290 12:43 10.08.2019
3902 Clear 34 1008 20 10000 3.6 290 12:23 10.08.2019
3903 Clear 34 1008 20 10000 3.1 310 11:58 10.08.2019
3904 Clear 32 1008 27 10000 1.5 350 11:39 10.08.2019
3905 Clear 32 1008 27 10000 1.5 350 11:39 10.08.2019
3906 Clear 32 1008 27 6000 1.5 310 11:20 10.08.2019
3907 Clear 32 1008 31 6000 2.1 300 10:39 10.08.2019
3908 Clear 31 1008 33 6000 1 350 10:20 10.08.2019
3909 Clear 31 1008 33 6000 1 350 10:00 10.08.2019
3910 Clear 31 1008 33 6000 1 350 09:39 10.08.2019
3911 Clear 31 1008 33 6000 1 350 09:39 10.08.2019
3912 Clear 30 1008 51 6000 2.1 360 09:21 10.08.2019
3913 Clear 28 1008 54 6000 2.1 360 08:39 10.08.2019
3914 Clear 28 1008 54 6000 2.1 360 08:39 10.08.2019
3915 Clear 28 1008 54 10000 2.6 350 08:20 10.08.2019
3916 Clear 28 1008 54 10000 2.6 350 07:53 10.08.2019
3917 Clear 27 1008 54 10000 2.6 360 07:28 10.08.2019
3918 Clear 28 1007 45 10000 2.06 324.504 06:49 10.08.2019
3919 Clear 28 1007 45 10000 1.11 345.525 06:25 10.08.2019
3920 Clear 27 1007 47 10000 1.11 345.525 05:24 10.08.2019
3921 Clear 27 1007 44 10000 1.11 345.525 04:31 10.08.2019
3922 Clear 27 1007 54 10000 1 80 02:54 10.08.2019
3923 Clear 28 1007 54 10000 2.1 50 02:24 10.08.2019
3924 Clear 28 1008 54 10000 2.1 50 01:42 10.08.2019
3925 Clear 28 1008 54 10000 2.1 50 01:21 10.08.2019
3926 Clear 28 1008 58 10000 2.1 70 00:48 10.08.2019
3927 Clear 28 1008 58 10000 2.1 70 00:22 10.08.2019
3928 Clear 28 1008 51 10000 3.1 60 23:44 09.08.2019
3929 Clear 29 1008 51 10000 3.1 60 23:24 09.08.2019
3930 Clear 29 1009 51 10000 3.1 60 22:58 09.08.2019
3931 Clear 30 1009 45 10000 3.6 20 22:39 09.08.2019
3932 Clear 30 1009 45 10000 4.1 20 22:20 09.08.2019
3933 Clear 30 1009 45 10000 4.1 20 21:55 09.08.2019
3934 Clear 30 1009 45 10000 4.6 20 21:36 09.08.2019
3935 Clear 30 1008 48 10000 6.7 10 21:18 09.08.2019
3936 Clear 30 1008 48 10000 6.7 10 20:54 09.08.2019
3937 Clear 30 1008 48 10000 6.2 360 20:36 09.08.2019
3938 Clear 31 1008 46 10000 5.1 360 20:18 09.08.2019
3939 Clear 31 1008 46 10000 5.1 360 20:18 09.08.2019
3940 Clear 33 1007 27 10000 5.1 360 19:41 09.08.2019
3941 Clouds 33 1007 38 10000 5.1 360 19:20 09.08.2019
3942 Clouds 33 1007 34 10000 4.1 350 18:42 09.08.2019
3943 Clouds 34 1007 34 10000 3.6 360 18:22 09.08.2019
3944 Clouds 34 1007 34 10000 3.6 360 17:59 09.08.2019
3945 Clouds 35 1007 30 10000 4.6 350 17:41 09.08.2019
3946 Clouds 35 1007 30 10000 4.6 350 17:22 09.08.2019
3947 Clouds 35 1007 30 10000 4.6 340 16:42 09.08.2019
3948 Clouds 35 1007 30 10000 4.6 340 16:41 09.08.2019
3949 Clouds 35 1007 30 10000 4.6 340 16:41 09.08.2019
3950 Clouds 36 1007 26 10000 3.6 10 16:22 09.08.2019
3951 Clouds 36 1007 26 10000 3.6 10 15:57 09.08.2019
3952 Clouds 36 1007 26 10000 3.6 10 15:38 09.08.2019
3953 Clouds 35 1008 30 6000 4.1 340 15:19 09.08.2019
3954 Clouds 35 1008 30 6000 4.1 340 14:44 09.08.2019
3955 -273 0 0 0 0 0 14:23 09.08.2019
3956 Clouds 35 1008 28 6000 4.1 10 13:59 09.08.2019
3957 Clouds 35 1008 28 6000 4.1 10 13:40 09.08.2019
3958 Clouds 35 1009 32 6000 3.1 340 13:20 09.08.2019
3959 Clouds 34 1009 32 6000 3.1 340 12:46 09.08.2019
3960 Clouds 34 1009 32 6000 3.1 340 12:24 09.08.2019
3961 Clouds 32 1009 38 6000 3.1 350 11:58 09.08.2019
3962 Clouds 32 1009 38 6000 3.1 350 11:37 09.08.2019
3963 Clouds 32 1009 43 6000 1.5 310 11:18 09.08.2019
3964 Clouds 32 1009 43 6000 1.5 310 10:40 09.08.2019
3965 Clouds 30 1010 55 6000 2.6 300 10:21 09.08.2019
3966 Clouds 30 1010 62 6000 1.5 290 09:46 09.08.2019
3967 Clouds 29 1010 62 6000 1.5 290 09:20 09.08.2019
3968 Clouds 29 1010 62 6000 1.5 290 08:58 09.08.2019
3969 Clouds 28 1010 69 6000 2.1 310 08:39 09.08.2019
3970 Mist 27 1010 74 4000 2.1 350 08:19 09.08.2019
3971 Mist 27 1010 74 4000 2.1 350 07:43 09.08.2019
3972 Mist 26 1010 78 3000 1.5 310 07:23 09.08.2019
3973 Mist 26 1010 78 3000 1.5 310 06:56 09.08.2019
3974 Mist 26 1010 78 3000 1.5 310 06:56 09.08.2019
3975 Mist 26 1010 78 3000 1.5 310 06:30 09.08.2019
3976 Mist 25 1009 83 4000 1.5 20 05:57 09.08.2019
3977 Clouds 26 1009 83 6000 2.6 290 04:21 09.08.2019
3978 Clear 27 1009 78 10000 2.6 360 01:58 09.08.2019
3979 Clear 27 1009 78 10000 3.1 340 00:48 09.08.2019
3980 Clear 27 1009 78 10000 3.1 340 00:26 09.08.2019
3981 Clear 27 1009 78 10000 2.1 350 23:59 08.08.2019
3982 Clear 28 1009 78 10000 2.6 340 23:38 08.08.2019
3983 Clear 28 1009 78 10000 4.1 10 23:20 08.08.2019
3984 Clear 28 1009 78 10000 4.1 10 22:59 08.08.2019
3985 Clear 29 1009 74 10000 4.1 360 22:37 08.08.2019
3986 Clear 30 1009 66 10000 5.1 350 22:18 08.08.2019
3987 Clear 30 1009 66 10000 5.1 350 22:18 08.08.2019
3988 Clear 30 1009 66 10000 5.1 350 21:58 08.08.2019
3989 Clear 31 1009 55 10000 3.1 350 21:40 08.08.2019
3990 Clear 31 1008 52 10000 2.6 360 21:21 08.08.2019
3991 Clear 31 1008 52 10000 3.6 360 20:55 08.08.2019
3992 Clear 32 1008 52 10000 3.6 360 20:36 08.08.2019
3993 Clear 32 1008 49 10000 4.6 340 20:18 08.08.2019
3994 Clear 32 1008 49 10000 4.6 340 19:42 08.08.2019
3995 Clear 32 1008 46 10000 4.6 10 19:20 08.08.2019
3996 Clear 32 1008 43 10000 4.6 350 18:43 08.08.2019
3997 Clouds 33 1007 46 10000 5.1 10 18:23 08.08.2019
3998 Clouds 33 1007 46 10000 5.1 10 17:56 08.08.2019
3999 Clouds 33 1007 44 10000 5.1 10 17:37 08.08.2019
4000 Clouds 34 1007 41 10000 5.1 360 17:19 08.08.2019
4001 Clouds 34 1007 38 6000 5.1 360 16:43 08.08.2019
4002 Clouds 34 1007 38 6000 5.1 350 16:24 08.08.2019
4003 Clouds 34 1007 38 6000 5.1 350 15:59 08.08.2019
4004 Clouds 34 1008 41 6000 5.1 330 15:41 08.08.2019
4005 Clouds 33 1008 43 6000 4.1 340 15:23 08.08.2019
4006 Clouds 33 1008 38 6000 4.1 330 14:55 08.08.2019
4007 Clouds 34 1008 38 6000 4.1 330 14:36 08.08.2019
4008 Clouds 33 1008 43 6000 4.6 320 14:18 08.08.2019
4009 Clouds 33 1008 38 6000 4.1 320 13:39 08.08.2019
4010 Clouds 32 1009 43 6000 3.1 330 13:18 08.08.2019
4011 Clouds 31 1009 48 6000 3.1 10 12:40 08.08.2019
4012 Clouds 31 1010 52 6000 2.1 330 12:21 08.08.2019
4013 Clouds 31 1010 52 6000 2.1 330 11:58 08.08.2019
4014 Clouds 31 1010 52 6000 2.1 330 11:39 08.08.2019
4015 Clouds 31 1010 52 6000 2.1 330 11:20 08.08.2019
4016 Clouds 29 1010 54 6000 1.5 10 10:41 08.08.2019
4017 Clouds 28 1010 61 6000 1.5 360 10:21 08.08.2019
4018 Clouds 28 1010 61 6000 1.5 360 09:49 08.08.2019
4019 Clouds 28 1010 61 6000 1.5 360 09:30 08.08.2019
4020 Clouds 28 1010 61 6000 1.5 360 09:30 08.08.2019
4021 Mist 27 1010 69 4000 1.5 330 08:57 08.08.2019
4022 Mist 27 1010 69 4000 1.5 330 08:39 08.08.2019
4023 Mist 26 1010 74 3000 2.6 360 08:19 08.08.2019
4024 Mist 26 1010 74 3000 3.1 350 07:40 08.08.2019
4025 Mist 25 1009 83 3000 2.6 360 07:20 08.08.2019
4026 Mist 25 1009 83 3000 2.6 360 06:49 08.08.2019
4027 Mist 25 1009 83 3000 2.6 360 06:30 08.08.2019
4028 Mist 25 1009 83 3000 2.6 360 05:53 08.08.2019
4029 Mist 25 1009 83 2000 3.1 340 05:18 08.08.2019
4030 Clear 26 1009 78 6000 2.1 360 03:53 08.08.2019
4031 Clear 27 1009 74 10000 2.1 70 02:30 08.08.2019
4032 Clear 27 1009 74 10000 2.6 10 01:37 08.08.2019
4033 Clear 27 1009 74 10000 3.1 340 00:26 08.08.2019
4034 Clear 27 1010 69 10000 2.6 360 23:51 07.08.2019
4035 Clear 28 1010 61 10000 4.1 10 23:20 07.08.2019
4036 Clear 28 1010 61 10000 4.1 10 22:57 07.08.2019
4037 Clear 28 1010 65 10000 4.6 360 22:39 07.08.2019
4038 Clear 28 1010 65 10000 4.6 360 22:20 07.08.2019
4039 Clear 28 1010 65 10000 4.6 360 22:20 07.08.2019
4040 Clear 28 1010 65 10000 4.6 360 21:56 07.08.2019
4041 Clear 28 1009 62 10000 6.2 360 21:37 07.08.2019
4042 Clear 28 1009 62 10000 6.2 360 21:37 07.08.2019
4043 Clear 30 1009 58 10000 5.1 350 21:18 07.08.2019
4044 Clear 30 1009 58 10000 5.1 350 20:43 07.08.2019
4045 Clear 30 1009 58 10000 5.1 350 20:24 07.08.2019
4046 Clear 31 1008 45 10000 3.6 360 19:59 07.08.2019
4047 Clear 31 1008 38 10000 4.1 360 19:39 07.08.2019
4048 Clear 32 1008 38 10000 4.1 360 19:21 07.08.2019
4049 Clouds 32 1008 40 10000 4.6 350 18:44 07.08.2019
4050 Clouds 32 1008 40 10000 4.6 350 18:22 07.08.2019
4051 Clouds 32 1008 40 10000 4.6 350 17:59 07.08.2019
4052 Clouds 33 1008 36 10000 3.1 350 17:41 07.08.2019
4053 Clouds 33 1008 38 10000 3.6 330 17:22 07.08.2019
4054 Clouds 33 1008 38 10000 3.6 330 16:58 07.08.2019
4055 Clouds 33 1008 38 10000 3.6 330 16:57 07.08.2019
4056 Clouds 33 1008 38 10000 3.6 330 16:39 07.08.2019
4057 Clouds 33 1008 34 10000 3.6 290 16:21 07.08.2019
4058 Clouds 34 1008 34 10000 3.6 290 15:58 07.08.2019
4059 Clouds 33 1008 38 10000 4.1 320 15:40 07.08.2019
4060 Clouds 33 1008 38 10000 3.6 350 15:19 07.08.2019
4061 Clouds 33 1009 38 10000 3.6 290 14:49 07.08.2019
4062 Clouds 33 1009 38 10000 3.6 290 14:29 07.08.2019
4063 Clouds 33 1009 38 10000 3.1 260 13:57 07.08.2019
4064 Clouds 33 1009 38 10000 3.1 260 13:38 07.08.2019
4065 Clouds 33 1009 38 10000 3.1 260 13:18 07.08.2019
4066 Clouds 33 1009 38 10000 3.1 260 12:56 07.08.2019
4067 Clouds 32 1009 40 10000 2.1 240 12:36 07.08.2019
4068 Clouds 31 1010 48 10000 3.1 320 12:18 07.08.2019
4069 Clouds 30 1010 48 10000 3.1 320 11:43 07.08.2019
4070 Clouds 30 1010 54 10000 2.1 320 11:21 07.08.2019
4071 Clouds 29 1010 54 10000 2.1 320 10:58 07.08.2019
4072 Clouds 29 1010 54 10000 3.1 310 10:40 07.08.2019
4073 Clouds 28 1010 58 10000 2.6 330 10:19 07.08.2019
4074 Clouds 28 1010 61 10000 2.1 330 09:46 07.08.2019
4075 Clouds 28 1010 61 10000 2.1 330 09:46 07.08.2019
4076 Clouds 27 1010 65 10000 2.6 340 09:23 07.08.2019
4077 Clouds 27 1010 65 10000 2.6 340 08:59 07.08.2019
4078 Clouds 27 1010 65 10000 2.6 340 08:41 07.08.2019
4079 Clouds 26 1010 69 10000 3.1 320 08:23 07.08.2019
4080 Clouds 26 1010 69 10000 3.1 320 07:43 07.08.2019
4081 Clouds 25 1009 73 10000 3.1 310 07:21 07.08.2019
4082 Clouds 25 1009 73 10000 3.1 310 06:40 07.08.2019
4083 Clouds 25 1009 73 10000 3.1 310 06:20 07.08.2019
4084 Clear 25 1009 73 10000 3.1 310 05:40 07.08.2019
4085 Clear 25 1009 69 10000 3.1 310 03:23 07.08.2019
4086 Clear 26 1009 65 10000 3.1 300 02:51 07.08.2019
4087 Clear 26 1009 65 10000 3.1 300 02:26 07.08.2019
4088 Clear 26 1009 65 10000 2.6 300 01:48 07.08.2019
4089 Clear 26 1009 65 10000 3.6 310 00:53 07.08.2019
4090 Clear 26 1010 61 10000 3.1 300 00:23 07.08.2019
4091 Clear 27 1010 61 10000 3.1 300 23:47 06.08.2019
4092 Clear 27 1010 61 10000 3.1 300 23:23 06.08.2019
4093 Clear 27 1010 61 10000 5.7 310 22:59 06.08.2019
4094 Clear 27 1010 61 10000 5.7 310 22:40 06.08.2019
4095 Clear 27 1010 61 10000 5.7 310 22:20 06.08.2019
4096 Clear 27 1010 61 10000 5.7 310 21:56 06.08.2019
4097 Clear 27 1010 61 10000 5.7 310 21:38 06.08.2019
4098 Clear 27 1009 58 10000 5.7 310 21:18 06.08.2019
4099 Clear 28 1009 51 10000 5.7 310 20:42 06.08.2019
4100 Clear 29 1009 51 10000 5.1 320 20:23 06.08.2019
4101 Clear 29 1008 48 10000 5.7 320 19:49 06.08.2019
4102 Clear 29 1008 48 10000 5.7 320 19:29 06.08.2019
4103 Clear 31 1008 45 10000 5.7 320 18:57 06.08.2019
4104 Clear 31 1008 45 10000 5.7 320 18:38 06.08.2019
4105 Clear 31 1008 45 10000 5.7 320 18:20 06.08.2019
4106 Clear 31 1008 45 10000 5.7 320 17:56 06.08.2019
4107 Clear 33 1007 41 10000 5.1 310 17:37 06.08.2019
4108 Clear 33 1007 41 10000 5.7 310 17:19 06.08.2019
4109 Clear 33 1007 41 10000 5.7 330 16:43 06.08.2019
4110 Clear 33 1007 41 10000 5.7 330 16:25 06.08.2019
4111 Clear 33 1007 38 10000 5.1 310 16:25 06.08.2019
4112 Clear 34 1007 38 10000 5.1 310 15:58 06.08.2019
4113 Clear 34 1007 38 10000 4.6 310 15:40 06.08.2019
4114 Clear 34 1007 38 10000 4.6 310 15:21 06.08.2019
4115 Clear 34 1008 36 10000 4.1 270 14:54 06.08.2019
4116 Clear 34 1008 36 10000 4.1 270 14:36 06.08.2019
4117 Clear 34 1008 34 10000 5.1 290 14:18 06.08.2019
4118 Clear 34 1008 34 10000 5.7 310 13:45 06.08.2019
4119 Clear 34 1008 34 10000 5.7 310 13:26 06.08.2019
4120 Clear 33 1008 36 10000 4.6 290 12:59 06.08.2019
4121 Clear 33 1009 33 10000 4.1 290 12:40 06.08.2019
4122 Clear 33 1009 36 10000 4.1 320 12:21 06.08.2019
4123 Clear 32 1009 43 10000 4.1 300 11:45 06.08.2019
4124 Clear 31 1009 45 10000 4.6 270 11:20 06.08.2019
4125 Clear 31 1009 45 10000 4.6 270 10:59 06.08.2019
4126 Clear 30 1009 51 10000 3.6 290 10:39 06.08.2019
4127 Clouds 30 1009 51 10000 4.1 300 10:21 06.08.2019
4128 Clouds 30 1009 58 10000 3.6 290 09:43 06.08.2019
4129 Clouds 28 1009 61 10000 4.1 300 09:21 06.08.2019
4130 Clouds 28 1009 61 10000 3.6 290 08:51 06.08.2019
4131 Clouds 28 1009 61 10000 3.6 290 08:29 06.08.2019
4132 Clouds 27 1009 69 10000 3.6 300 07:59 06.08.2019
4133 Clouds 27 1009 65 10000 3.1 310 07:30 06.08.2019
4134 Clouds 26 1008 69 10000 2.6 290 06:45 06.08.2019
4135 Clouds 26 1008 74 6000 3.1 300 06:23 06.08.2019
4136 Clear 26 1008 74 6000 2.6 300 05:46 06.08.2019
4137 Haze 27 1008 74 4000 2.59 329.29 02:51 06.08.2019
4138 Clear 27 1008 69 6000 1.5 20 01:26 06.08.2019
4139 Clear 27 1008 69 6000 2.6 350 00:52 06.08.2019
4140 Clear 27 1008 65 6000 2.6 350 00:23 06.08.2019
4141 Clear 28 1008 69 6000 3.1 350 23:21 05.08.2019
4142 Clear 28 1008 69 6000 3.1 350 22:58 05.08.2019
4143 Clear 29 1008 66 6000 4.1 360 22:39 05.08.2019
4144 Clear 29 1008 66 10000 4.1 350 22:20 05.08.2019
4145 Clear 30 1008 58 10000 3.6 350 21:42 05.08.2019
4146 Clear 30 1008 55 10000 3.6 340 21:21 05.08.2019
4147 Clear 30 1008 55 10000 3.6 340 20:58 05.08.2019
4148 Clear 31 1007 48 10000 4.6 320 20:39 05.08.2019
4149 Clouds 31 1007 48 10000 4.6 320 20:21 05.08.2019
4150 Clouds 31 1007 48 10000 4.6 320 19:57 05.08.2019
4151 Clouds 32 1007 43 10000 4.6 330 19:38 05.08.2019
4152 Clouds 32 1006 36 10000 5.7 320 19:19 05.08.2019
4153 Clouds 33 1006 34 10000 5.1 320 18:41 05.08.2019
4154 Clouds 34 1006 36 10000 5.1 320 18:20 05.08.2019
4155 Clouds 34 1006 36 10000 5.1 320 18:20 05.08.2019
4156 Clouds 34 1006 34 10000 4.6 320 17:50 05.08.2019
4157 Clouds 34 1006 34 10000 4.6 320 17:30 05.08.2019
4158 Clear 35 1006 32 10000 3.1 340 16:59 05.08.2019
4159 Clear 35 1006 32 10000 3.1 340 16:41 05.08.2019
4160 Clear 35 1006 32 10000 3.1 340 16:23 05.08.2019
4161 Clear 36 1006 26 10000 5.1 300 15:43 05.08.2019
4162 Clear 35 1006 32 10000 4.1 300 15:20 05.08.2019
4163 Clear 35 1006 34 10000 4.1 270 14:42 05.08.2019
4164 Clear 35 1006 36 10000 4.1 310 14:22 05.08.2019
4165 Clear 35 1006 36 10000 5.7 280 13:50 05.08.2019
4166 Clear 35 1006 36 10000 5.7 280 13:50 05.08.2019
4167 Clear 34 1007 44 10000 5.1 310 13:24 05.08.2019
4168 Clear 34 1007 44 10000 5.1 310 12:59 05.08.2019
4169 Clear 34 1007 44 10000 5.1 310 12:41 05.08.2019
4170 Clear 33 1007 46 10000 4.6 300 12:18 05.08.2019
4171 Clear 32 1007 49 10000 4.1 290 11:43 05.08.2019
4172 Clear 32 1007 49 10000 4.1 290 11:25 05.08.2019
4173 Clear 31 1008 55 10000 3.1 300 10:47 05.08.2019
4174 Clear 31 1008 55 10000 3.1 300 10:28 05.08.2019
4175 Clear 30 1007 58 10000 2.6 280 09:56 05.08.2019
4176 Clear 29 1007 62 10000 2.6 300 09:37 05.08.2019
4177 Clouds 29 1008 66 6000 2.1 320 09:19 05.08.2019
4178 Clouds 28 1007 69 6000 2.1 300 08:44 05.08.2019
4179 Clouds 28 1007 69 6000 2.6 330 08:24 05.08.2019
4180 Clouds 27 1007 74 6000 2.1 310 07:47 05.08.2019
4181 Clouds 27 1007 74 6000 2.1 310 07:28 05.08.2019
4182 Clouds 27 1007 78 6000 2.6 290 06:56 05.08.2019
4183 Clouds 26 1007 83 6000 3.1 280 06:21 05.08.2019
4184 Clouds 26 1007 83 6000 3.6 300 05:31 05.08.2019
4185 Clear 26 1007 83 6000 3.1 290 04:50 05.08.2019
4186 Clear 27 1007 83 6000 3.1 320 03:50 05.08.2019
4187 Clear 27 1007 83 6000 3.6 320 02:38 05.08.2019
4188 Clear 27 1007 83 10000 4.1 300 01:55 05.08.2019
4189 Clear 28 1007 78 10000 2.6 310 01:19 05.08.2019
4190 Clear 29 1007 74 10000 2.1 330 00:39 05.08.2019
4191 Clear 29 1007 70 10000 2.6 350 00:19 05.08.2019
4192 Clear 29 1007 70 10000 2.6 350 23:43 04.08.2019
4193 Clear 29 1007 70 10000 3.6 350 23:23 04.08.2019
4194 Clear 29 1007 70 10000 3.6 350 22:57 04.08.2019
4195 Clear 30 1007 66 10000 4.6 360 22:38 04.08.2019
4196 Clear 31 1007 58 10000 4.1 350 22:19 04.08.2019
4197 Clear 32 1007 55 10000 4.1 330 21:45 04.08.2019
4198 Clear 32 1007 52 10000 3.6 330 21:24 04.08.2019
4199 Clear 33 1007 52 10000 3.6 330 20:59 04.08.2019
4200 Clear 33 1007 46 10000 2.6 330 20:41 04.08.2019
4201 Clear 34 1006 44 10000 3.1 340 20:19 04.08.2019
4202 Clear 34 1006 46 10000 4.1 320 19:49 04.08.2019
4203 Clear 34 1006 46 10000 4.1 320 19:28 04.08.2019
4204 Clear 35 1006 47 10000 5.1 320 18:58 04.08.2019
4205 Clear 35 1006 47 10000 5.1 320 18:40 04.08.2019
4206 Clear 35 1005 41 10000 4.6 310 18:20 04.08.2019
4207 Clear 36 1005 41 10000 4.6 310 17:43 04.08.2019
4208 Clear 36 1005 41 10000 4.6 310 17:24 04.08.2019
4209 Clear 37 1005 39 10000 4.6 320 16:46 04.08.2019
4210 Clear 37 1005 39 10000 4.6 320 16:27 04.08.2019
4211 Clear 37 1005 37 10000 4.6 300 15:56 04.08.2019
4212 Clear 37 1005 37 10000 4.6 300 15:37 04.08.2019
4213 Clear 37 1005 37 10000 4.6 300 15:37 04.08.2019
4214 Clear 36 1006 39 6000 9.8 320 15:18 04.08.2019
4215 Clear 36 1006 39 6000 9.8 320 14:42 04.08.2019
4216 Clear 37 1006 35 6000 3.6 300 14:21 04.08.2019
4217 Clear 37 1006 35 6000 3.6 300 13:44 04.08.2019
4218 Clear 37 1006 35 6000 3.6 300 13:24 04.08.2019
4219 Clear 35 1007 39 6000 4.1 300 12:57 04.08.2019
4220 Clear 35 1007 39 6000 4.1 300 12:39 04.08.2019
4221 Clear 34 1008 46 6000 3.6 290 12:21 04.08.2019
4222 Clear 33 1008 46 6000 3.6 290 11:46 04.08.2019
4223 Clear 32 1007 52 6000 3.1 310 11:23 04.08.2019
4224 Clear 31 1008 55 6000 3.1 300 10:48 04.08.2019
4225 Clear 31 1008 55 6000 2.6 310 10:22 04.08.2019
4226 Clear 30 1008 66 6000 2.6 310 09:47 04.08.2019
4227 Clear 30 1008 66 6000 2.6 310 09:26 04.08.2019
4228 Clear 29 1008 70 6000 3.1 300 08:59 04.08.2019
4229 Clear 29 1008 70 6000 2.6 310 08:35 04.08.2019
4230 Clear 28 1008 74 6000 2.6 280 07:55 04.08.2019
4231 Clear 28 1008 74 6000 3.1 270 07:29 04.08.2019
4232 Clear 27 1008 74 6000 3.1 260 06:42 04.08.2019
4233 Clear 27 1007 74 6000 3.1 270 06:19 04.08.2019
4234 Clear 27 1007 69 10000 2.6 300 03:37 04.08.2019
4235 Clear 28 1007 65 10000 3.6 290 01:55 04.08.2019
4236 Clear 28 1007 65 10000 3.6 290 01:32 04.08.2019
4237 Clear 28 1007 65 10000 3.1 300 00:43 04.08.2019
4238 Clear 28 1007 65 10000 4.1 310 00:24 04.08.2019
4239 Clear 28 1007 65 10000 4.1 310 23:56 03.08.2019
4240 Clear 29 1007 62 10000 4.1 310 23:37 03.08.2019
4241 Clear 29 1007 62 10000 5.1 310 23:18 03.08.2019
4242 Clear 29 1007 62 10000 5.1 310 22:40 03.08.2019
4243 Clear 30 1007 62 10000 5.1 310 22:19 03.08.2019
4244 Clear 30 1007 62 10000 5.1 310 21:39 03.08.2019
4245 Clear 30 1007 62 10000 5.1 330 21:21 03.08.2019
4246 Clear 30 1007 62 10000 5.1 330 21:21 03.08.2019
4247 Clear 30 1007 58 10000 5.1 330 20:45 03.08.2019
4248 Clear 31 1007 58 10000 5.1 330 20:24 03.08.2019
4249 Clear 32 1007 55 10000 5.1 310 19:56 03.08.2019
4250 Clear 32 1006 52 10000 5.1 310 19:38 03.08.2019
4251 Clear 33 1006 49 10000 5.1 350 19:20 03.08.2019
4252 Clear 33 1006 44 10000 5.1 350 18:45 03.08.2019
4253 Clear 34 1006 44 10000 5.1 350 18:24 03.08.2019
4254 Clear 35 1005 39 10000 5.1 310 17:43 03.08.2019
4255 Clear 36 1005 41 10000 6.2 320 17:20 03.08.2019
4256 Clear 36 1005 39 10000 4.1 310 16:39 03.08.2019
4257 Clear 36 1005 39 10000 4.1 310 16:39 03.08.2019
4258 Clear 36 1006 32 10000 5.7 310 16:21 03.08.2019
4259 Clear 37 1006 32 10000 5.7 310 15:55 03.08.2019
4260 Clear 37 1006 32 10000 6.2 310 15:37 03.08.2019
4261 Clear 36 1007 32 10000 5.1 280 15:18 03.08.2019
4262 Clear 36 1007 32 10000 5.1 280 14:36 03.08.2019
4263 Clear 36 1007 30 10000 4.6 280 14:18 03.08.2019
4264 Clear 35 1007 34 10000 4.6 310 13:43 03.08.2019
4265 Clear 35 1007 34 10000 4.6 310 13:23 03.08.2019
4266 Clear 35 1007 34 10000 3.6 270 12:56 03.08.2019
4267 Clear 35 1007 34 10000 3.6 270 12:37 03.08.2019
4268 Clear 35 1008 36 10000 4.6 320 12:19 03.08.2019
4269 Clear 34 1008 34 10000 3.6 280 11:39 03.08.2019
4270 Clear 34 1008 36 10000 2.6 300 11:20 03.08.2019
4271 Clear 32 1008 38 10000 2.1 280 10:38 03.08.2019
4272 Clear 32 1008 43 6000 1.5 300 10:20 03.08.2019
4273 Clear 31 1008 45 6000 2.1 270 09:38 03.08.2019
4274 Clear 30 1008 51 6000 1 310 09:18 03.08.2019
4275 Clear 29 1008 58 6000 1 320 08:44 03.08.2019
4276 Mist 27 1008 69 4000 2.6 290 07:40 03.08.2019
4277 Mist 27 1007 74 4000 2.6 300 06:58 03.08.2019
4278 Mist 26 1007 83 4000 1.5 340 06:20 03.08.2019
4279 Clear 28 1007 69 10000 3.1 330 03:36 03.08.2019
4280 Clear 29 1007 66 10000 2.7 337.284 02:27 03.08.2019
4281 Clear 30 1008 62 6000 1.5 60 00:59 03.08.2019
4282 Clear 30 1008 62 6000 2.58 344.488 00:32 03.08.2019
4283 Clear 30 1008 62 6000 2.58 344.488 00:32 03.08.2019
4284 Clear 31 1008 55 6000 2.1 350 23:55 02.08.2019
4285 Clear 30 1008 55 6000 2.1 350 23:37 02.08.2019
4286 Clear 31 1009 58 6000 3.6 350 23:18 02.08.2019
4287 Clear 31 1009 52 6000 3.6 350 22:40 02.08.2019
4288 Clear 31 1009 52 6000 3.6 350 22:22 02.08.2019
4289 Clear 32 1009 49 10000 3.6 10 21:57 02.08.2019
4290 Clear 32 1008 49 10000 4.1 360 21:39 02.08.2019
4291 Clear 32 1008 49 10000 3.1 340 21:21 02.08.2019
4292 Clear 32 1008 43 10000 4.1 360 20:44 02.08.2019
4293 Clear 33 1008 43 10000 4.1 360 20:26 02.08.2019
4294 Clear 33 1008 43 10000 4.6 10 19:55 02.08.2019
4295 Clear 33 1008 43 10000 4.1 360 19:33 02.08.2019
4296 Clear 34 1008 38 10000 4.6 10 18:57 02.08.2019
4297 Clear 34 1008 38 10000 3.6 360 18:38 02.08.2019
4298 Clear 35 1008 36 10000 2.6 340 18:18 02.08.2019
4299 Clear 35 1008 36 10000 2.6 340 17:41 02.08.2019
4300 Clear 35 1008 32 10000 3.6 330 17:22 02.08.2019
4301 Clear 36 1008 32 10000 3.6 330 16:40 02.08.2019
4302 Clear 36 1008 32 10000 4.6 290 16:21 02.08.2019
4303 Clear 36 1008 32 10000 4.6 290 15:57 02.08.2019
4304 Clear 36 1008 32 10000 4.6 290 15:37 02.08.2019
4305 Clouds 35 1009 32 6000 4.6 310 15:18 02.08.2019
4306 Clouds 35 1009 32 6000 4.6 310 15:18 02.08.2019
4307 Clouds 35 1009 32 6000 4.6 310 14:44 02.08.2019
4308 Clouds 35 1009 34 6000 4.6 280 14:18 02.08.2019
4309 Clouds 35 1009 34 6000 4.6 280 13:46 02.08.2019
4310 Clouds 34 1009 36 6000 3.1 310 13:23 02.08.2019
4311 Clouds 34 1009 36 6000 3.1 310 12:44 02.08.2019
4312 Clouds 34 1009 36 6000 3.1 310 12:21 02.08.2019
4313 Clouds 33 1010 38 6000 1.5 270 11:42 02.08.2019
4314 Clouds 32 1010 40 6000 1.5 310 11:24 02.08.2019
4315 Clouds 31 1010 48 6000 1 360 10:55 02.08.2019
4316 Clouds 31 1010 48 6000 1 360 10:37 02.08.2019
4317 Clouds 31 1010 52 6000 1 340 10:18 02.08.2019
4318 Clouds 30 1010 55 6000 4.19 319.166 09:44 02.08.2019
4319 Clouds 30 1010 55 6000 1.49 350.834 09:24 02.08.2019
4320 Clouds 28 1009 69 6000 0.5 200 08:44 02.08.2019
4321 Mist 27 1009 78 4000 2 4.609 08:21 02.08.2019
4322 Mist 26 1009 83 3000 1.5 20 07:48 02.08.2019
4323 Mist 26 1009 83 3000 1.5 20 07:28 02.08.2019
4324 Mist 26 1009 83 3000 1 80 06:42 02.08.2019
4325 Mist 25 1008 83 4000 1.5 20 05:50 02.08.2019
4326 Clear 26 1009 78 6000 2.1 20 03:54 02.08.2019
4327 Clear 26 1009 78 6000 2.6 350 03:24 02.08.2019
4328 Clear 27 1009 78 10000 3.1 10 01:44 02.08.2019
4329 Clear 27 1009 74 10000 3.6 350 00:35 02.08.2019
4330 Clear 28 1009 69 10000 4.1 20 23:46 01.08.2019
4331 Clear 28 1009 69 10000 4.1 20 23:27 01.08.2019
4332 Clear 28 1009 66 10000 5.7 360 22:46 01.08.2019
4333 Clear 29 1009 66 10000 5.7 360 22:26 01.08.2019
4334 Clear 30 1009 62 10000 5.7 10 22:00 01.08.2019
4335 Clear 30 1008 62 10000 5.7 360 21:41 01.08.2019
4336 Clear 31 1008 62 10000 5.7 360 21:23 01.08.2019
4337 Clear 31 1008 52 10000 4.1 10 20:47 01.08.2019
4338 Clear 32 1007 52 10000 4.1 360 20:24 01.08.2019
4339 Clear 32 1007 52 10000 4.1 360 20:00 01.08.2019
4340 Clear 32 1007 52 10000 4.1 360 20:00 01.08.2019
4341 Clear 33 1007 46 10000 4.6 360 19:38 01.08.2019
4342 Clear 33 1007 46 10000 4.1 340 19:19 01.08.2019
4343 Clear 33 1007 44 10000 3.1 320 18:43 01.08.2019
4344 Clear 34 1007 44 10000 3.1 320 18:24 01.08.2019
4345 Clear 34 1007 44 10000 2.6 330 17:51 01.08.2019
4346 Clear 34 1007 44 10000 2.6 330 17:32 01.08.2019
4347 Clear 35 1006 41 10000 3.1 350 16:45 01.08.2019
4348 Clear 35 1006 41 10000 3.1 350 16:23 01.08.2019
4349 Clear 35 1006 39 10000 3.1 310 15:59 01.08.2019
4350 Clear 35 1007 39 10000 4.1 360 15:41 01.08.2019
4351 Clear 35 1007 41 10000 4.1 350 15:19 01.08.2019
4352 Clear 35 1007 41 10000 4.1 350 15:19 01.08.2019
4353 Clear 34 1007 44 10000 3.1 360 14:42 01.08.2019
4354 Clear 34 1007 44 10000 3.1 360 14:42 01.08.2019
4355 Clear 34 1007 32 10000 3.6 350 14:19 01.08.2019
4356 Clear 34 1007 32 10000 3.6 350 13:58 01.08.2019
4357 Clear 34 1007 38 10000 3.1 340 13:39 01.08.2019
4358 Clear 33 1007 41 10000 3.1 300 13:20 01.08.2019
4359 Clear 33 1007 43 10000 3.6 320 12:45 01.08.2019
4360 Clear 33 1007 41 10000 1.5 30 12:26 01.08.2019
4361 Clear 32 1007 45 10000 1.5 30 11:43 01.08.2019
4362 Clear 31 1007 45 10000 1.5 30 11:24 01.08.2019
4363 Clouds 30 1008 55 10000 2.6 340 10:56 01.08.2019
4364 Clouds 30 1008 55 10000 2.6 340 10:56 01.08.2019
4365 Clouds 30 1008 55 10000 2.6 340 10:38 01.08.2019
4366 Clouds 30 1008 58 10000 2.6 360 10:20 01.08.2019
4367 Clouds 28 1008 65 10000 2.1 360 09:44 01.08.2019
4368 Clouds 28 1008 65 10000 2.1 360 09:23 01.08.2019
4369 Clouds 27 1008 69 10000 3.6 350 08:47 01.08.2019
4370 Clouds 27 1008 69 10000 3.6 350 08:21 01.08.2019
4371 Clouds 27 1008 69 10000 3.6 350 08:21 01.08.2019
4372 Clouds 26 1007 78 10000 3.1 360 07:51 01.08.2019
4373 Clouds 26 1007 78 10000 3.1 360 07:28 01.08.2019
4374 Clouds 26 1007 78 10000 4.1 360 06:49 01.08.2019
4375 Clouds 26 1007 78 10000 4.1 360 06:49 01.08.2019
4376 Clouds 26 1007 78 10000 4.1 360 06:49 01.08.2019
4377 Clouds 26 1007 78 10000 4.1 360 06:29 01.08.2019
4378 Clear 26 1007 78 10000 2.6 10 05:30 01.08.2019
4379 Clear 27 1006 74 10000 3.6 30 02:35 01.08.2019
4380 Clear 27 1006 78 10000 3.6 30 00:51 01.08.2019
4381 Clear 27 1006 78 10000 3.6 30 00:26 01.08.2019
4382 Clear 27 1006 78 10000 4.1 30 23:55 31.07.2019
4383 Clear 28 1007 74 10000 4.1 60 23:36 31.07.2019
4384 Clear 28 1007 74 10000 4.6 50 23:18 31.07.2019
4385 Clear 28 1007 74 10000 4.6 40 22:42 31.07.2019
4386 Clear 29 1007 70 10000 6.2 30 22:23 31.07.2019
4387 Clear 31 1006 55 10000 4.6 360 21:40 31.07.2019
4388 Clear 31 1006 52 10000 4.6 360 21:22 31.07.2019
4389 Clear 31 1006 52 10000 4.6 360 20:49 31.07.2019
4390 Clear 31 1006 52 10000 4.6 360 20:49 31.07.2019
4391 Clear 31 1006 52 10000 4.6 360 20:23 31.07.2019
4392 Clear 33 1005 46 10000 5.1 360 19:48 31.07.2019
4393 Clear 33 1005 46 10000 5.1 360 19:29 31.07.2019
4394 Clear 33 1005 43 10000 5.7 340 18:55 31.07.2019
4395 Clear 33 1004 41 10000 5.1 350 18:37 31.07.2019
4396 Clear 34 1004 39 10000 3.1 340 18:18 31.07.2019
4397 Clear 35 1004 39 10000 3.6 340 17:44 31.07.2019
4398 Clear 35 1004 39 10000 4.1 330 17:20 31.07.2019
4399 Clear 35 1004 41 10000 5.1 340 16:48 31.07.2019
4400 Clear 35 1004 41 10000 5.1 340 16:26 31.07.2019
4401 Clear 36 1004 39 10000 3.1 320 15:55 31.07.2019
4402 Clear 36 1004 39 10000 4.1 320 15:36 31.07.2019
4403 Clear 36 1004 37 10000 3.6 270 15:18 31.07.2019
4404 Clear 36 1005 37 10000 3.6 310 14:42 31.07.2019
4405 Clear 36 1005 37 10000 4.1 320 14:19 31.07.2019
4406 Clear 35 1005 41 10000 3.6 350 13:46 31.07.2019
4407 Clear 35 1005 41 10000 3.6 350 13:28 31.07.2019
4408 Clear 36 1005 39 10000 3.1 350 12:58 31.07.2019
4409 Clear 35 1006 39 10000 2.6 330 12:40 31.07.2019
4410 Clear 35 1006 34 10000 2.6 300 12:21 31.07.2019
4411 Clear 34 1006 38 10000 2.1 40 11:39 31.07.2019
4412 Clear 33 1006 43 10000 1 350 11:20 31.07.2019
4413 Clear 32 1006 49 10000 1.5 360 10:46 31.07.2019
4414 Clear 31 1006 55 10000 1.5 360 10:21 31.07.2019
4415 Clear 31 1006 55 10000 1.5 360 09:59 31.07.2019
4416 Clear 30 1006 58 10000 1.5 10 09:41 31.07.2019
4417 Clear 30 1006 58 10000 1.5 10 09:23 31.07.2019
4418 Clear 28 1007 69 6000 2.6 50 08:42 31.07.2019
4419 Mist 27 1006 78 4000 2.1 40 08:22 31.07.2019
4420 Mist 26 1006 83 4000 3.1 40 07:42 31.07.2019
4421 Mist 26 1006 83 4000 2.6 40 07:22 31.07.2019
4422 Clear 26 1005 83 6000 3.1 20 04:56 31.07.2019
4423 Clear 26 1005 83 10000 3.1 60 03:33 31.07.2019
4424 Clear 28 1006 65 10000 3.6 30 00:37 31.07.2019
4425 Clear 28 1007 70 10000 3.6 40 23:47 30.07.2019
4426 Clear 28 1007 70 10000 3.6 40 23:47 30.07.2019
4427 Clear 29 1007 70 10000 4.1 40 23:25 30.07.2019
4428 Clear 29 1007 70 10000 4.1 40 22:48 30.07.2019
4429 Clear 29 1007 70 10000 4.1 40 22:26 30.07.2019
4430 Clear 30 1007 70 10000 4.6 10 21:57 30.07.2019
4431 Clear 30 1006 70 10000 5.1 360 21:37 30.07.2019
4432 Clear 31 1006 55 10000 5.1 360 21:19 30.07.2019
4433 Clear 32 1006 41 10000 3.6 20 20:44 30.07.2019
4434 Clear 33 1005 41 10000 3.6 10 20:24 30.07.2019
4435 Clear 33 1005 41 10000 3.6 10 19:59 30.07.2019
4436 Clear 33 1005 41 10000 4.1 10 19:40 30.07.2019
4437 Clear 33 1005 38 10000 4.6 20 19:21 30.07.2019
4438 Clear 33 1005 36 10000 4.1 340 18:44 30.07.2019
4439 Clear 34 1005 36 10000 3.6 330 18:20 30.07.2019
4440 Clear 35 1005 34 10000 4.6 340 17:43 30.07.2019
4441 Clear 35 1005 30 10000 4.6 340 17:20 30.07.2019
4442 Clear 35 1005 30 10000 4.6 340 16:55 30.07.2019
4443 Clear 35 1005 25 10000 4.6 350 16:37 30.07.2019
4444 Clear 36 1005 15 10000 5.1 340 16:18 30.07.2019
4445 Clear 36 1005 17 10000 5.1 340 15:39 30.07.2019
4446 Clear 36 1005 20 10000 5.1 330 15:19 30.07.2019
4447 Clear 36 1006 15 10000 3.6 310 14:43 30.07.2019
4448 Clear 36 1006 18 10000 4.6 320 14:22 30.07.2019
4449 Clear 36 1006 18 10000 4.6 320 13:55 30.07.2019
4450 Clear 36 1006 19 10000 4.1 10 13:36 30.07.2019
4451 Clear 36 1006 19 10000 3.6 350 13:18 30.07.2019
4452 Clear 35 1006 26 10000 3.1 340 12:43 30.07.2019
4453 Clear 34 1006 26 10000 3.1 340 12:24 30.07.2019
4454 Clear 33 1007 33 10000 1.5 310 11:44 30.07.2019
4455 Clear 33 1007 36 6000 2.1 330 11:23 30.07.2019
4456 Clear 33 1007 36 6000 2.1 330 10:55 30.07.2019
4457 Clear 32 1007 43 6000 1.5 340 10:37 30.07.2019
4458 Clear 32 1007 43 6000 1.5 340 10:37 30.07.2019
4459 Clear 31 1007 51 6000 1 360 10:19 30.07.2019
4460 Clear 30 1007 51 6000 3.73 22.029 09:46 30.07.2019
4461 Clear 30 1007 51 6000 3.73 22.029 09:27 30.07.2019
4462 Clear 27 1007 69 6000 1 30 08:39 30.07.2019
4463 Clear 27 1007 69 6000 1 10 08:18 30.07.2019
4464 Clear 26 1007 74 6000 2.92 13.732 07:40 30.07.2019
4465 Clear 26 1007 74 6000 1.5 80 07:22 30.07.2019
4466 Clear 25 1007 78 6000 1.5 90 06:43 30.07.2019
4467 Clear 25 1006 78 10000 1.5 80 05:35 30.07.2019
4468 Clear 26 1007 74 10000 1 70 04:29 30.07.2019
4469 Clear 27 1007 74 10000 1.5 360 01:23 30.07.2019
4470 Clear 27 1007 74 10000 3.1 360 00:27 30.07.2019
4471 Clear 27 1007 74 10000 3.1 360 00:27 30.07.2019
4472 Clear 27 1008 69 10000 3.6 360 23:59 29.07.2019
4473 Clear 28 1008 65 10000 3.1 10 23:40 29.07.2019
4474 Clear 28 1008 65 10000 3.6 20 23:21 29.07.2019
4475 Clear 28 1008 65 10000 3.6 20 22:55 29.07.2019
4476 Clear 29 1008 66 10000 4.1 360 22:37 29.07.2019
4477 Clear 29 1008 66 10000 4.1 360 22:18 29.07.2019
4478 Clear 30 1007 62 10000 5.1 10 21:41 29.07.2019
4479 Clear 30 1007 62 10000 5.1 10 21:23 29.07.2019
4480 Clear 31 1007 62 10000 5.7 360 20:57 29.07.2019
4481 Clear 32 1007 55 10000 4.1 350 20:39 29.07.2019
4482 Clear 32 1006 49 10000 4.1 340 20:19 29.07.2019
4483 Clear 33 1006 46 10000 4.1 350 19:47 29.07.2019
4484 Clear 33 1006 46 10000 4.1 350 19:23 29.07.2019
4485 Clear 33 1006 46 10000 4.6 350 18:58 29.07.2019
4486 Clear 34 1006 38 10000 4.1 350 18:38 29.07.2019
4487 Clear 35 1005 30 10000 4.1 330 18:19 29.07.2019
4488 Clear 36 1005 30 10000 4.1 330 17:47 29.07.2019
4489 Clear 36 1005 30 10000 4.1 330 17:28 29.07.2019
4490 Clear 36 1005 30 10000 4.6 340 16:55 29.07.2019
4491 Clear 36 1005 30 10000 4.6 340 16:55 29.07.2019
4492 Clear 36 1005 30 10000 4.6 340 16:36 29.07.2019
4493 Clear 36 1005 30 10000 4.6 340 16:36 29.07.2019
4494 Clear 35 1006 30 10000 4.1 340 16:18 29.07.2019
4495 Clear 35 1006 30 10000 4.1 340 15:43 29.07.2019
4496 Clear 35 1006 30 10000 4.1 340 15:43 29.07.2019
4497 Clear 35 1006 34 10000 4.1 330 15:24 29.07.2019
4498 Clear 35 1006 34 10000 4.1 330 14:42 29.07.2019
4499 Clear 35 1006 36 10000 3.1 310 14:21 29.07.2019
4500 Clear 34 1006 36 10000 3.1 310 13:46 29.07.2019
4501 Clear 33 1007 36 10000 2.6 310 13:24 29.07.2019
4502 Clear 33 1007 36 10000 2.6 310 12:57 29.07.2019
4503 Clear 33 1007 36 10000 2.6 310 12:38 29.07.2019
4504 Clear 32 1007 40 10000 3.1 320 12:20 29.07.2019
4505 Clear 32 1007 40 10000 3.1 320 11:41 29.07.2019
4506 Clear 32 1007 43 10000 1 270 11:19 29.07.2019
4507 Clear 31 1007 48 10000 2.9 3.46 10:43 29.07.2019
4508 Clear 30 1008 45 10000 2.9 3.46 10:21 29.07.2019
4509 Clear 30 1008 45 10000 2.9 3.46 10:21 29.07.2019
4510 Clear 30 1007 51 10000 2.9 3.46 09:44 29.07.2019
4511 Clear 28 1007 54 10000 2.4 348.217 09:21 29.07.2019
4512 Clear 27 1007 65 10000 3.06 356.475 08:47 29.07.2019
4513 Clear 26 1007 65 10000 3.06 356.475 08:26 29.07.2019
4514 Clear 26 1007 69 10000 3.06 356.475 07:46 29.07.2019
4515 Clear 26 1007 69 10000 3.06 356.475 07:27 29.07.2019
4516 Clear 25 1007 73 10000 1.5 30 06:40 29.07.2019
4517 Clear 25 1006 73 10000 1.5 20 05:36 29.07.2019
4518 Clear 25 1006 73 10000 1.5 20 03:57 29.07.2019
4519 Clear 27 1006 61 10000 2.1 10 01:52 29.07.2019
4520 Clear 27 1006 61 10000 2.1 10 01:33 29.07.2019
4521 Clear 27 1006 61 10000 3.1 10 00:58 29.07.2019
4522 Clear 27 1007 61 10000 3.1 350 00:29 29.07.2019
4523 Clear 28 1007 54 10000 2.6 40 23:43 28.07.2019
4524 Clear 28 1007 54 10000 2.6 40 23:24 28.07.2019
4525 Clear 28 1007 54 10000 4.1 360 22:44 28.07.2019
4526 Clear 28 1007 54 10000 4.1 360 22:44 28.07.2019
4527 Clear 28 1007 54 10000 4.1 360 22:26 28.07.2019
4528 Clear 29 1007 48 10000 5.1 350 21:52 28.07.2019
4529 Clear 29 1006 45 10000 5.1 350 21:20 28.07.2019
4530 Clear 30 1006 45 10000 5.1 350 20:57 28.07.2019
4531 Clear 31 1006 43 10000 4.6 340 20:39 28.07.2019
4532 Clear 31 1005 43 10000 4.1 340 20:21 28.07.2019
4533 Clear 32 1005 38 10000 4.1 350 19:40 28.07.2019
4534 Clear 32 1005 35 10000 3.6 350 19:20 28.07.2019
4535 Clear 32 1004 35 10000 4.1 340 18:46 28.07.2019
4536 Clear 32 1004 36 10000 3.6 330 18:27 28.07.2019
4537 Clear 33 1004 36 10000 3.6 330 17:56 28.07.2019
4538 Clear 33 1004 36 10000 3.6 330 17:38 28.07.2019
4539 Clear 33 1004 36 10000 3.6 330 17:19 28.07.2019
4540 Clear 33 1004 36 10000 3.6 340 16:42 28.07.2019
4541 Clear 33 1004 36 10000 3.6 340 16:23 28.07.2019
4542 Clear 34 1004 30 10000 3.6 320 15:46 28.07.2019
4543 Clear 34 1004 30 10000 3.6 320 15:27 28.07.2019
4544 Clear 33 1005 33 10000 4.1 290 14:40 28.07.2019
4545 Clear 33 1005 36 10000 2.6 270 14:21 28.07.2019
4546 Clear 33 1005 36 10000 2.6 270 13:59 28.07.2019
4547 Clear 33 1005 36 10000 2.1 290 13:39 28.07.2019
4548 Clear 32 1005 33 10000 3.1 280 13:19 28.07.2019
4549 Clear 32 1006 35 10000 2.6 310 12:43 28.07.2019
4550 Clear 32 1006 35 10000 2.6 310 12:25 28.07.2019
4551 Clouds 30 1006 45 10000 1.5 40 11:50 28.07.2019
4552 Clouds 30 1006 45 10000 1.5 40 11:29 28.07.2019
4553 Clouds 29 1006 51 10000 2.1 330 10:59 28.07.2019
4554 Clouds 28 1006 54 10000 2.1 330 10:38 28.07.2019
4555 Clouds 28 1006 54 10000 2.1 360 10:18 28.07.2019
4556 Clouds 27 1006 61 10000 2.1 360 09:40 28.07.2019
4557 Clouds 27 1006 65 10000 3.1 330 09:21 28.07.2019
4558 Clouds 26 1006 69 10000 3.1 330 08:42 28.07.2019
4559 Clouds 26 1006 74 10000 2.6 330 08:22 28.07.2019
4560 Clouds 26 1006 74 10000 2.6 330 07:42 28.07.2019
4561 Clouds 26 1006 74 10000 2.6 330 07:24 28.07.2019
4562 Clouds 25 1005 78 10000 2.1 310 06:36 28.07.2019
4563 Clouds 25 1005 78 6000 1 0 05:21 28.07.2019
4564 Clear 25 1005 78 10000 2.6 360 02:39 28.07.2019
4565 Clear 26 1005 74 10000 2.6 360 01:59 28.07.2019
4566 Clear 26 1005 69 10000 2.6 340 01:18 28.07.2019
4567 Clear 26 1005 69 10000 2.6 340 00:42 28.07.2019
4568 Clear 26 1005 69 10000 2.1 350 23:54 27.07.2019
4569 Clear 27 1006 65 10000 3.1 350 23:29 27.07.2019
4570 Clear 27 1006 65 10000 3.6 340 22:47 27.07.2019
4571 Clear 27 1006 65 10000 3.6 340 22:29 27.07.2019
4572 Clear 27 1006 65 10000 3.6 340 21:59 27.07.2019
4573 Clear 28 1006 61 10000 4.6 350 21:38 27.07.2019
4574 Clear 28 1006 61 10000 4.6 350 21:19 27.07.2019
4575 Clear 28 1005 54 10000 5.7 340 20:45 27.07.2019
4576 Clouds 29 1005 51 10000 5.1 340 20:22 27.07.2019
4577 Clouds 30 1005 51 10000 5.1 340 19:42 27.07.2019
4578 Clouds 31 1004 45 10000 4.6 320 19:22 27.07.2019
4579 Clouds 31 1004 45 10000 4.6 320 18:49 27.07.2019
4580 Clouds 31 1004 45 10000 4.6 320 18:30 27.07.2019
4581 Clouds 32 1004 38 10000 3.6 330 17:52 27.07.2019
4582 Clouds 33 1004 38 10000 3.6 330 17:32 27.07.2019
4583 Clouds 33 1004 38 10000 3.6 330 17:32 27.07.2019
4584 Clear 33 1004 41 10000 3.6 320 16:57 27.07.2019
4585 Clear 33 1004 36 10000 4.1 330 16:38 27.07.2019
4586 Clear 33 1004 33 10000 4.6 310 16:18 27.07.2019
4587 Clear 33 1004 38 10000 4.6 310 15:43 27.07.2019
4588 Clear 33 1004 36 10000 4.6 320 15:19 27.07.2019
4589 Clear 33 1005 38 10000 4.1 290 14:46 27.07.2019
4590 Clear 33 1005 38 10000 4.1 290 14:27 27.07.2019
4591 Clear 32 1005 43 10000 4.6 300 13:51 27.07.2019
4592 Clear 32 1005 43 10000 4.6 300 13:25 27.07.2019
4593 Clear 32 1005 46 10000 4.1 300 12:54 27.07.2019
4594 Clear 32 1006 46 10000 4.1 280 12:36 27.07.2019
4595 Clear 31 1006 48 10000 4.6 280 12:18 27.07.2019
4596 Clear 30 1006 48 10000 3.6 310 11:39 27.07.2019
4597 Clouds 30 1006 45 6000 3.1 310 11:20 27.07.2019
4598 Clouds 29 1006 51 6000 3.6 260 10:41 27.07.2019
4599 Clouds 29 1006 51 6000 3.6 260 10:22 27.07.2019
4600 Clouds 28 1007 58 6000 0.5 350 09:41 27.07.2019
4601 Clouds 28 1007 58 6000 0.5 350 09:23 27.07.2019
4602 Clouds 27 1007 65 6000 2.1 290 08:49 27.07.2019
4603 Clouds 27 1007 65 6000 2.1 290 08:31 27.07.2019
4604 Mist 26 1007 74 4000 2.1 290 07:56 27.07.2019
4605 Mist 26 1007 74 4000 2.1 290 07:56 27.07.2019
4606 Mist 25 1007 78 4000 1.5 330 07:33 27.07.2019
4607 Mist 25 1006 78 4000 2.1 360 06:58 27.07.2019
4608 Mist 25 1006 83 4000 2.6 350 06:32 27.07.2019
4609 Clouds 25 1006 78 6000 2.6 360 05:54 27.07.2019
4610 Clouds 25 1006 78 6000 2.6 360 05:32 27.07.2019
4611 Clear 25 1006 83 6000 2.1 10 04:35 27.07.2019
4612 Clear 25 1006 83 6000 2.1 340 03:37 27.07.2019
4613 Clear 25 1006 78 6000 2.6 360 02:42 27.07.2019
4614 Clear 26 1006 78 6000 2.6 350 01:52 27.07.2019
4615 Clear 26 1006 78 6000 2.6 10 01:28 27.07.2019
4616 Clear 27 1007 74 10000 3.1 10 00:33 27.07.2019
4617 Clear 27 1007 74 10000 4.1 350 23:58 26.07.2019
4618 Clear 27 1008 69 10000 3.6 350 23:40 26.07.2019
4619 Clear 28 1008 65 10000 4.6 360 23:22 26.07.2019
4620 Clear 28 1008 69 10000 4.1 360 22:42 26.07.2019
4621 Clear 29 1008 66 10000 3.6 350 22:24 26.07.2019
4622 Clear 29 1008 66 10000 4.6 350 21:49 26.07.2019
4623 Clear 29 1008 62 10000 5.1 350 21:20 26.07.2019
4624 Clear 31 1007 58 10000 5.7 360 20:48 26.07.2019
4625 Clear 31 1007 58 10000 5.7 360 20:30 26.07.2019
4626 Clear 32 1006 46 10000 4.1 350 19:45 26.07.2019
4627 Clear 33 1006 46 10000 4.1 350 19:26 26.07.2019
4628 Clear 33 1006 38 10000 4.1 350 18:59 26.07.2019
4629 Clear 34 1006 32 10000 4.6 350 18:40 26.07.2019
4630 Clear 34 1006 32 10000 5.1 330 18:20 26.07.2019
4631 Clear 35 1006 32 10000 5.1 330 17:48 26.07.2019
4632 Clear 35 1006 30 10000 4.1 360 17:20 26.07.2019
4633 Clear 35 1006 30 10000 4.1 360 16:59 26.07.2019
4634 Clear 35 1006 30 10000 4.1 360 16:41 26.07.2019
4635 Clear 35 1006 30 10000 4.1 360 16:41 26.07.2019
4636 Clouds 36 1007 30 10000 4.6 340 16:21 26.07.2019
4637 Clouds 36 1007 30 10000 4.6 340 15:59 26.07.2019
4638 Clouds 36 1007 30 10000 4.6 340 15:40 26.07.2019
4639 Clouds 35 1007 28 6000 4.1 350 15:20 26.07.2019
4640 Clouds 35 1007 28 6000 4.1 350 14:44 26.07.2019
4641 Clouds 35 1008 36 6000 2.1 290 14:23 26.07.2019
4642 Clouds 34 1008 36 6000 2.1 290 13:47 26.07.2019
4643 Clouds 34 1008 36 6000 2.1 290 13:28 26.07.2019
4644 Clouds 33 1008 41 6000 3.6 300 12:49 26.07.2019
4645 Clouds 33 1008 41 6000 3.6 300 12:23 26.07.2019
4646 Clouds 32 1009 49 6000 2.1 330 11:56 26.07.2019
4647 Clouds 32 1009 49 6000 2.1 330 11:37 26.07.2019
4648 Clouds 31 1009 55 6000 3.1 350 11:18 26.07.2019
4649 Clouds 30 1009 58 6000 2.1 320 10:39 26.07.2019
4650 Clouds 30 1009 58 6000 2.1 320 10:20 26.07.2019
4651 Clouds 28 1009 61 6000 2.6 330 09:50 26.07.2019
4652 Clouds 28 1009 61 6000 2.6 330 09:28 26.07.2019
4653 Clouds 27 1009 69 6000 2.1 10 08:41 26.07.2019
4654 Mist 26 1009 74 4000 2.1 10 08:21 26.07.2019
4655 Mist 26 1010 74 4000 2.6 20 07:43 26.07.2019
4656 Mist 26 1010 74 4000 2.6 20 07:24 26.07.2019
4657 Mist 25 1009 78 4000 3.1 360 06:30 26.07.2019
4658 Clear 26 1009 78 6000 2.6 340 04:30 26.07.2019
4659 Clear 26 1009 78 6000 3.1 310 03:54 26.07.2019
4660 Clear 26 1010 83 10000 3.1 340 01:50 26.07.2019
4661 Clear 26 1010 83 10000 3.1 340 01:26 26.07.2019
4662 Clear 27 1010 78 10000 4.1 360 00:32 26.07.2019
4663 Clear 27 1010 74 10000 5.1 360 23:48 25.07.2019
4664 Clear 28 1010 74 10000 5.1 360 23:23 25.07.2019
4665 Clear 28 1010 74 10000 4.6 360 22:42 25.07.2019
4666 Clear 28 1010 74 10000 4.6 360 22:23 25.07.2019
4667 Clear 29 1009 70 10000 5.7 350 21:58 25.07.2019
4668 Clear 29 1009 70 10000 5.7 350 21:58 25.07.2019
4669 Clear 31 1009 52 10000 5.1 10 21:40 25.07.2019
4670 Clear 31 1009 40 10000 4.6 10 21:20 25.07.2019
4671 Clear 32 1008 46 10000 5.7 20 20:41 25.07.2019
4672 Clear 32 1008 46 10000 5.1 20 20:21 25.07.2019
4673 Clear 33 1008 38 10000 4.1 10 19:41 25.07.2019
4674 Clear 33 1008 38 10000 4.1 10 19:23 25.07.2019
4675 Clear 33 1008 33 10000 5.1 10 18:45 25.07.2019
4676 Clear 34 1007 30 10000 4.6 360 18:27 25.07.2019
4677 Clear 34 1007 30 10000 4.6 350 17:52 25.07.2019
4678 Clear 35 1007 30 10000 4.6 350 17:34 25.07.2019
4679 Clear 35 1007 32 10000 4.6 340 16:59 25.07.2019
4680 Clear 35 1007 32 10000 4.6 340 16:41 25.07.2019
4681 Clear 35 1008 32 10000 3.1 340 16:22 25.07.2019
4682 Clear 36 1008 26 10000 4.6 10 15:51 25.07.2019
4683 Clear 36 1008 26 10000 4.1 350 15:21 25.07.2019
4684 Clear 35 1008 28 10000 3.6 330 14:43 25.07.2019
4685 Clear 35 1008 28 10000 3.6 320 14:25 25.07.2019
4686 Clear 35 1008 28 10000 3.6 320 13:59 25.07.2019
4687 Clear 34 1008 32 10000 3.6 300 13:37 25.07.2019
4688 Clear 34 1008 34 10000 3.1 310 13:19 25.07.2019
4689 Clear 33 1009 36 10000 2.6 330 12:34 25.07.2019
4690 Clear 32 1009 40 6000 1.5 310 11:59 25.07.2019
4691 Clear 32 1009 40 6000 1.5 310 11:40 25.07.2019
4692 Clear 32 1009 40 6000 1.5 310 11:40 25.07.2019
4693 Haze 31 1010 51 3000 2.1 330 11:22 25.07.2019
4694 Haze 30 1010 51 3000 2.1 330 10:43 25.07.2019
4695 Haze 30 1010 62 3000 1.5 300 10:23 25.07.2019
4696 Haze 29 1010 62 3000 1.5 300 09:46 25.07.2019
4697 Haze 29 1010 62 3000 1.5 300 09:27 25.07.2019
4698 Mist 27 1010 69 3000 1.5 60 08:49 25.07.2019
4699 Mist 27 1010 69 3000 1.5 60 08:29 25.07.2019
4700 Mist 26 1010 74 3000 2.73 342.514 07:40 25.07.2019
4701 Mist 25 1009 78 3000 2.73 342.514 06:46 25.07.2019
4702 Mist 26 1009 78 3000 1.86 326.446 06:20 25.07.2019
4703 Mist 26 1009 78 3000 1.86 326.446 05:36 25.07.2019
4704 Clear 26 1009 74 6000 1.86 326.446 04:45 25.07.2019
4705 Clear 26 1009 74 6000 2.1 10 02:26 25.07.2019
4706 Clear 27 1009 69 10000 2.6 30 01:21 25.07.2019
4707 Clear 28 1009 65 10000 2.6 10 00:31 25.07.2019
4708 Clear 28 1009 65 10000 2.6 10 23:56 24.07.2019
4709 Clear 28 1009 65 10000 3.1 10 23:38 24.07.2019
4710 Clear 28 1009 61 10000 4.1 360 23:20 24.07.2019
4711 Clear 29 1009 58 10000 4.6 360 22:44 24.07.2019
4712 Clear 30 1009 51 10000 4.1 360 22:22 24.07.2019
4713 Clear 30 1009 51 10000 4.1 360 21:55 24.07.2019
4714 Clear 30 1009 51 10000 4.1 360 21:37 24.07.2019
4715 Clear 30 1009 51 10000 4.1 360 21:18 24.07.2019
4716 Clear 31 1008 45 10000 4.6 360 20:45 24.07.2019
4717 Clear 31 1008 45 10000 4.6 360 20:26 24.07.2019
4718 Clear 32 1008 40 10000 5.1 360 19:58 24.07.2019
4719 Clear 32 1007 38 10000 6.2 360 19:40 24.07.2019
4720 Clear 33 1007 41 10000 5.7 10 19:20 24.07.2019
4721 Clear 33 1006 38 10000 6.2 360 18:43 24.07.2019
4722 Clear 33 1006 38 10000 6.2 360 18:24 24.07.2019
4723 Clear 34 1006 36 10000 5.1 350 17:47 24.07.2019
4724 Clear 34 1006 34 10000 5.7 360 17:22 24.07.2019
4725 Clear 35 1006 34 10000 5.7 360 16:57 24.07.2019
4726 Clear 35 1006 34 10000 5.7 360 16:39 24.07.2019
4727 Clear 36 1006 23 10000 4.1 330 16:20 24.07.2019
4728 Clear 36 1006 23 10000 4.1 330 15:37 24.07.2019
4729 Clear 35 1006 30 10000 4.6 330 15:19 24.07.2019
4730 Clear 35 1006 22 10000 4.1 330 14:45 24.07.2019
4731 Clear 35 1007 23 10000 3.1 330 14:20 24.07.2019
4732 Clear 34 1007 28 10000 3.1 330 13:40 24.07.2019
4733 Clear 34 1007 26 10000 1.5 10 13:19 24.07.2019
4734 Clear 34 1007 26 10000 1.5 10 12:53 24.07.2019
4735 Clear 34 1007 26 10000 1.5 10 12:34 24.07.2019
4736 Clear 33 1007 33 10000 2.1 330 11:55 24.07.2019
4737 Clear 33 1007 33 10000 2.1 330 11:36 24.07.2019
4738 Clear 31 1008 48 6000 1.5 310 11:18 24.07.2019
4739 Clear 30 1008 48 6000 1.5 310 10:39 24.07.2019
4740 Clear 30 1008 51 6000 1.5 310 10:18 24.07.2019
4741 Haze 30 1008 62 3000 1 300 09:43 24.07.2019
4742 Mist 28 1008 61 3000 1.5 360 09:22 24.07.2019
4743 Mist 27 1008 74 3000 2.28 340.755 08:43 24.07.2019
4744 Mist 26 1008 74 3000 1.5 10 08:22 24.07.2019
4745 Mist 26 1008 74 3000 1.5 10 07:46 24.07.2019
4746 Mist 25 1007 83 2000 2.6 350 07:20 24.07.2019
4747 Mist 25 1007 83 2000 2.6 350 06:28 24.07.2019
4748 Mist 25 1007 83 3000 1.5 30 05:22 24.07.2019
4749 Clear 27 1007 74 10000 2.6 360 01:55 24.07.2019
4750 Clear 28 1007 61 10000 2.1 360 00:58 24.07.2019
4751 Clear 28 1007 61 10000 2.1 360 00:39 24.07.2019
4752 Clear 28 1008 61 10000 3.1 10 23:57 23.07.2019
4753 Clear 28 1008 61 10000 3.1 10 23:37 23.07.2019
4754 Clear 28 1008 61 10000 4.1 360 23:18 23.07.2019
4755 Clear 29 1007 62 10000 4.1 350 22:38 23.07.2019
4756 Clear 29 1007 62 10000 4.1 350 22:19 23.07.2019
4757 Clear 30 1007 58 10000 6.2 360 21:45 23.07.2019
4758 Clear 30 1007 58 10000 6.2 360 21:45 23.07.2019
4759 Clear 30 1007 58 10000 6.2 360 21:27 23.07.2019
4760 Clear 31 1007 55 10000 5.7 350 20:57 23.07.2019
4761 Clear 32 1006 49 10000 5.7 350 20:39 23.07.2019
4762 Clouds 32 1006 49 10000 5.7 10 20:19 23.07.2019
4763 Clouds 33 1006 43 10000 5.1 360 19:37 23.07.2019
4764 Clouds 33 1006 41 10000 5.7 350 19:18 23.07.2019
4765 Clouds 33 1006 38 10000 5.1 360 18:42 23.07.2019
4766 Clouds 35 1006 34 10000 5.1 350 18:22 23.07.2019
4767 Clouds 35 1005 26 10000 4.6 350 17:44 23.07.2019
4768 Clouds 36 1005 28 10000 4.1 350 17:23 23.07.2019
4769 Clouds 36 1005 28 10000 4.6 350 16:49 23.07.2019
4770 Clouds 36 1005 28 10000 4.6 350 16:27 23.07.2019
4771 Clouds 37 1006 27 10000 4.1 330 15:58 23.07.2019
4772 -273 0 0 0 0 0 15:39 23.07.2019
4773 Clouds 36 1006 32 10000 4.1 320 15:21 23.07.2019
4774 Clouds 36 1006 32 10000 4.1 310 14:37 23.07.2019
4775 Clear 35 1006 36 10000 4.1 340 14:19 23.07.2019
4776 Clear 35 1006 36 10000 4.1 340 13:56 23.07.2019
4777 Clear 35 1006 41 10000 4.1 310 13:38 23.07.2019
4778 Clear 35 1006 41 10000 3.6 320 13:19 23.07.2019
4779 Clear 34 1006 46 10000 2.1 320 12:44 23.07.2019
4780 Clouds 33 1006 49 6000 1.5 320 12:25 23.07.2019
4781 Clouds 33 1006 46 6000 2.6 330 11:45 23.07.2019
4782 Clouds 33 1006 46 6000 2.6 330 11:26 23.07.2019
4783 Clouds 30 1007 62 6000 3.1 310 10:54 23.07.2019
4784 Clouds 30 1007 62 6000 3.1 310 10:36 23.07.2019
4785 Clouds 29 1007 66 6000 1.5 360 10:18 23.07.2019
4786 Clouds 29 1007 66 6000 2.6 320 09:40 23.07.2019
4787 Clouds 28 1007 74 6000 3.1 320 09:18 23.07.2019
4788 Clouds 27 1007 74 6000 3.1 330 08:40 23.07.2019
4789 Clouds 26 1007 74 6000 3.6 320 08:19 23.07.2019
4790 Mist 26 1007 78 4000 3.1 330 07:51 23.07.2019
4791 Mist 26 1007 78 4000 3.1 330 07:33 23.07.2019
4792 Mist 26 1007 78 4000 3.1 350 06:38 23.07.2019
4793 Mist 26 1007 78 4000 2.6 20 05:34 23.07.2019
4794 Clear 26 1007 83 6000 2.6 300 01:57 23.07.2019
4795 Clear 27 1007 78 6000 2.6 340 01:27 23.07.2019
4796 Clear 27 1008 78 6000 1.5 350 00:28 23.07.2019
4797 Clear 28 1008 74 6000 2.6 350 23:41 22.07.2019
4798 Clear 28 1008 74 6000 4.1 330 23:21 22.07.2019
4799 Clear 28 1008 74 6000 4.1 330 22:58 22.07.2019
4800 Clear 28 1008 70 6000 3.6 360 22:40 22.07.2019
4801 Clear 29 1008 70 6000 4.6 360 22:20 22.07.2019
4802 Clear 29 1008 70 6000 4.6 360 22:20 22.07.2019
4803 Clear 29 1008 66 6000 4.6 360 21:42 22.07.2019
4804 Clear 30 1008 55 6000 4.6 360 21:21 22.07.2019
4805 Clear 31 1007 43 6000 3.6 350 20:48 22.07.2019
4806 Clear 32 1007 43 6000 3.6 350 20:29 22.07.2019
4807 Clear 33 1007 43 10000 4.1 350 19:54 22.07.2019
4808 Clear 33 1007 43 10000 4.1 350 19:36 22.07.2019
4809 Clear 33 1007 38 10000 4.1 340 19:18 22.07.2019
4810 Clear 33 1007 34 10000 4.1 340 18:40 22.07.2019
4811 Clear 34 1007 34 10000 5.1 360 18:22 22.07.2019
4812 Clear 34 1007 32 10000 3.6 330 17:42 22.07.2019
4813 Clear 35 1007 30 10000 3.1 360 17:23 22.07.2019
4814 Clear 35 1007 32 10000 4.6 330 16:41 22.07.2019
4815 Clear 35 1007 36 10000 3.1 340 16:21 22.07.2019
4816 Clear 34 1007 36 10000 3.1 340 15:59 22.07.2019
4817 Clear 34 1007 36 10000 3.1 340 15:37 22.07.2019
4818 Clear 34 1007 38 10000 2.6 310 15:18 22.07.2019
4819 Clear 34 1008 36 10000 2.6 340 14:43 22.07.2019
4820 Clear 34 1008 36 10000 2.1 330 14:21 22.07.2019
4821 Clear 34 1008 34 10000 3.6 290 13:48 22.07.2019
4822 Clear 34 1008 34 10000 3.6 290 13:29 22.07.2019
4823 Clear 32 1009 43 10000 2.6 330 12:47 22.07.2019
4824 Clear 32 1009 43 10000 2.6 330 12:28 22.07.2019
4825 Clear 31 1009 45 10000 2.1 350 11:45 22.07.2019
4826 Clear 31 1009 45 10000 2.1 350 11:25 22.07.2019
4827 Clouds 30 1009 51 10000 1 350 10:59 22.07.2019
4828 Clouds 29 1009 54 10000 3.6 320 10:33 22.07.2019
4829 Clouds 29 1009 54 10000 3.6 320 10:33 22.07.2019
4830 Clouds 28 1010 61 10000 2.1 310 09:45 22.07.2019
4831 Clouds 28 1010 61 10000 2.1 310 09:26 22.07.2019
4832 Clouds 28 1010 65 10000 3.1 290 08:57 22.07.2019
4833 Clouds 27 1010 69 10000 2.6 350 08:36 22.07.2019
4834 Clouds 26 1010 74 10000 2.6 340 08:18 22.07.2019
4835 Clouds 26 1010 74 10000 2.6 340 08:18 22.07.2019
4836 Clouds 26 1010 74 10000 2.6 320 07:43 22.07.2019
4837 Clouds 26 1010 74 10000 2.6 320 07:24 22.07.2019
4838 Clouds 25 1009 83 10000 2.6 360 04:56 22.07.2019
4839 Clouds 25 1009 78 10000 3.1 310 02:58 22.07.2019
4840 Clouds 26 1010 74 10000 3.1 340 00:58 22.07.2019
4841 Clear 26 1010 78 10000 4.1 360 00:38 22.07.2019
4842 Clear 26 1011 74 10000 3.6 350 00:18 22.07.2019
4843 Clear 26 1011 69 10000 4.1 350 23:43 21.07.2019
4844 Clear 27 1011 69 10000 3.6 350 22:57 21.07.2019
4845 Clear 27 1011 69 10000 4.1 340 22:38 21.07.2019
4846 Clear 27 1011 65 10000 4.1 350 22:20 21.07.2019
4847 Clear 28 1011 65 10000 4.1 350 21:49 21.07.2019
4848 Clear 28 1011 65 10000 4.1 350 21:25 21.07.2019
4849 Clear 29 1010 62 10000 5.1 340 20:57 21.07.2019
4850 Clear 29 1010 58 10000 5.1 360 20:39 21.07.2019
4851 Clear 29 1010 51 10000 4.6 350 20:21 21.07.2019
4852 Clear 30 1009 51 10000 5.7 350 19:48 21.07.2019
4853 Clear 30 1009 51 10000 5.7 350 19:28 21.07.2019
4854 Clear 31 1009 43 10000 5.1 350 18:51 21.07.2019
4855 Clear 32 1009 43 10000 5.1 350 18:28 21.07.2019
4856 Clear 33 1009 41 10000 5.1 350 17:56 21.07.2019
4857 Clear 33 1009 41 10000 5.1 350 17:38 21.07.2019
4858 Clear 33 1009 38 10000 4.6 360 17:18 21.07.2019
4859 Clear 33 1009 38 10000 4.6 360 16:41 21.07.2019
4860 Clear 33 1009 36 10000 4.1 360 16:22 21.07.2019
4861 Clear 33 1009 36 10000 4.1 360 16:22 21.07.2019
4862 Clear 33 1009 36 10000 4.1 360 15:41 21.07.2019
4863 Clear 33 1010 38 10000 4.1 310 15:21 21.07.2019
4864 Clear 33 1010 38 10000 4.1 310 15:21 21.07.2019
4865 Clear 33 1010 38 10000 4.1 310 14:44 21.07.2019
4866 Clear 33 1010 38 10000 4.1 310 14:25 21.07.2019
4867 Clear 32 1010 43 10000 5.1 320 13:53 21.07.2019
4868 Clear 32 1010 43 10000 5.1 320 13:34 21.07.2019
4869 Clear 31 1011 45 10000 5.1 320 12:58 21.07.2019
4870 Clear 31 1011 45 10000 5.1 320 12:39 21.07.2019
4871 Clouds 30 1011 48 10000 4.1 340 12:20 21.07.2019
4872 Clouds 30 1011 48 10000 4.1 340 11:45 21.07.2019
4873 Clouds 30 1011 51 10000 2.6 340 11:26 21.07.2019
4874 Clouds 29 1011 51 10000 2.6 340 10:43 21.07.2019
4875 Clouds 29 1011 51 10000 2.6 340 10:24 21.07.2019
4876 Clouds 28 1012 58 10000 3.6 320 09:55 21.07.2019
4877 Clouds 28 1012 58 10000 3.6 320 09:35 21.07.2019
4878 Clear 26 1012 65 10000 3.1 320 08:49 21.07.2019
4879 Clear 26 1012 65 10000 3.1 320 08:29 21.07.2019
4880 Clear 26 1012 65 10000 2.6 310 07:53 21.07.2019
4881 Clear 25 1012 69 6000 3.1 330 07:18 21.07.2019
4882 Clear 25 1012 69 6000 3.1 330 06:34 21.07.2019
4883 Clear 25 1012 69 10000 2.6 330 03:51 21.07.2019
4884 Clear 25 1012 69 10000 2.6 350 01:53 21.07.2019
4885 Clear 26 1013 61 10000 3.6 350 00:47 21.07.2019
4886 Clear 26 1013 61 10000 3.6 350 00:21 21.07.2019
4887 Clear 26 1013 61 10000 3.1 350 23:46 20.07.2019
4888 Clear 26 1013 61 10000 3.1 350 23:27 20.07.2019
4889 Clear 27 1013 57 10000 4.1 350 22:55 20.07.2019
4890 Clear 27 1013 57 10000 4.6 350 22:37 20.07.2019
4891 Clear 27 1013 57 10000 5.7 350 22:18 20.07.2019
4892 Clear 28 1013 51 10000 5.7 360 21:42 20.07.2019
4893 Clear 28 1013 51 10000 5.7 360 21:24 20.07.2019
4894 Clear 28 1012 48 10000 6.2 360 20:43 20.07.2019
4895 Clear 29 1012 48 10000 5.1 360 20:23 20.07.2019
4896 Clear 30 1012 45 10000 5.1 360 19:49 20.07.2019
4897 Clear 30 1012 45 10000 5.1 360 19:28 20.07.2019
4898 Clouds 31 1011 43 10000 5.7 360 18:56 20.07.2019
4899 Clouds 31 1011 43 10000 5.7 360 18:37 20.07.2019
4900 Clouds 31 1011 40 10000 4.1 340 18:18 20.07.2019
4901 Clouds 31 1011 38 10000 4.6 350 17:43 20.07.2019
4902 Clouds 32 1011 38 10000 5.1 350 17:19 20.07.2019
4903 Clouds 32 1011 43 10000 4.6 330 16:40 20.07.2019
4904 Clouds 32 1011 43 10000 4.1 360 16:22 20.07.2019
4905 Clear 32 1011 38 10000 4.6 360 15:42 20.07.2019
4906 Clear 32 1011 40 10000 4.1 350 15:21 20.07.2019
4907 Clear 32 1011 38 10000 4.6 350 14:49 20.07.2019
4908 Clear 32 1011 38 10000 4.6 350 14:30 20.07.2019
4909 Clear 32 1012 38 10000 4.6 360 13:58 20.07.2019
4910 Clear 31 1012 40 10000 4.6 340 13:38 20.07.2019
4911 Clear 32 1012 38 10000 5.7 320 13:19 20.07.2019
4912 Clear 31 1012 40 10000 5.1 350 12:49 20.07.2019
4913 Clear 30 1012 45 10000 4.1 360 12:20 20.07.2019
4914 Clear 30 1012 45 10000 4.6 20 11:49 20.07.2019
4915 Clear 30 1012 45 10000 4.6 20 11:22 20.07.2019
4916 Clouds 29 1012 51 10000 4.6 10 10:45 20.07.2019
4917 Clouds 28 1012 58 10000 4.1 10 10:25 20.07.2019
4918 Clouds 28 1012 58 10000 4.1 10 09:52 20.07.2019
4919 Clouds 28 1012 58 10000 4.1 10 09:27 20.07.2019
4920 Clouds 28 1012 58 10000 3.6 10 08:55 20.07.2019
4921 Clouds 26 1012 69 10000 3.6 10 08:24 20.07.2019
4922 Clouds 26 1012 69 10000 3.6 350 07:48 20.07.2019
4923 Clouds 25 1012 78 10000 4.1 360 06:47 20.07.2019
4924 Clouds 25 1012 78 10000 3.6 30 05:52 20.07.2019
4925 Clouds 25 1012 78 10000 4.1 40 04:31 20.07.2019
4926 Clouds 26 1012 74 10000 4.6 40 02:34 20.07.2019
4927 Clear 27 1012 65 10000 4.6 40 01:20 20.07.2019
4928 Clear 27 1013 65 10000 5.1 50 00:45 20.07.2019
4929 Clear 27 1012 65 10000 4.6 30 00:18 20.07.2019
4930 Clear 27 1013 61 10000 4.1 30 23:43 19.07.2019
4931 Clear 28 1013 61 10000 4.1 30 23:22 19.07.2019
4932 Clear 28 1012 61 10000 5.1 310 22:43 19.07.2019
4933 Clear 28 1012 61 10000 5.1 310 22:24 19.07.2019
4934 Clear 29 1012 62 10000 6.2 10 21:46 19.07.2019
4935 Clear 29 1012 62 10000 6.2 10 21:27 19.07.2019
4936 Clear 29 1011 55 10000 5.1 360 20:50 19.07.2019
4937 Clear 30 1011 55 10000 5.1 360 20:31 19.07.2019
4938 Clear 31 1011 52 10000 5.1 10 19:55 19.07.2019
4939 Clear 31 1011 52 10000 5.1 10 19:34 19.07.2019
4940 Clear 31 1011 46 10000 5.7 350 18:43 19.07.2019
4941 Clear 32 1010 38 10000 5.1 360 18:22 19.07.2019
4942 Clear 33 1010 38 10000 5.1 360 17:55 19.07.2019
4943 Clear 33 1010 38 10000 5.1 360 17:29 19.07.2019
4944 Clouds 33 1010 41 10000 5.7 10 16:49 19.07.2019
4945 Clouds 33 1010 41 10000 5.7 10 16:29 19.07.2019
4946 Clouds 34 1010 36 10000 4.6 320 15:56 19.07.2019
4947 Clouds 34 1010 36 10000 4.6 320 15:38 19.07.2019
4948 Clouds 34 1011 34 10000 4.1 340 15:20 19.07.2019
4949 Clouds 34 1011 34 10000 4.1 340 14:44 19.07.2019
4950 Clouds 34 1011 34 10000 4.1 340 14:25 19.07.2019
4951 Clouds 33 1011 38 10000 3.6 360 13:46 19.07.2019
4952 Clouds 33 1011 38 10000 3.6 360 13:27 19.07.2019
4953 Clouds 32 1011 40 10000 3.6 20 12:57 19.07.2019
4954 Clouds 32 1011 40 10000 3.6 20 12:37 19.07.2019
4955 Clouds 32 1011 40 10000 3.6 20 12:19 19.07.2019
4956 Clouds 31 1012 43 10000 2.1 50 11:44 19.07.2019
4957 Clouds 31 1012 43 10000 3.6 360 11:18 19.07.2019
4958 Clouds 31 1012 45 10000 4.1 30 10:48 19.07.2019
4959 Clouds 31 1012 45 10000 4.1 30 10:23 19.07.2019
4960 Clouds 30 1012 48 10000 4.1 40 09:58 19.07.2019
4961 Clouds 29 1012 54 10000 4.6 20 09:40 19.07.2019
4962 Clouds 28 1012 58 10000 4.6 30 09:21 19.07.2019
4963 Clouds 27 1012 65 10000 3.6 40 08:48 19.07.2019
4964 Clear 27 1012 69 10000 4.1 40 07:59 19.07.2019
4965 Clear 26 1012 74 10000 4.1 40 07:29 19.07.2019
4966 Clear 26 1011 74 10000 3.1 40 05:57 19.07.2019
4967 Clear 26 1011 74 10000 3.6 60 02:43 19.07.2019
4968 Clear 27 1011 69 10000 3.6 30 01:20 19.07.2019
4969 Clear 27 1011 69 10000 4.1 10 00:45 19.07.2019
4970 Clear 27 1011 69 10000 5.1 30 23:58 18.07.2019
4971 Clear 28 1012 65 10000 4.6 30 23:39 18.07.2019
4972 Clear 28 1012 65 10000 5.1 40 23:21 18.07.2019
4973 Clear 28 1011 65 10000 5.7 10 22:41 18.07.2019
4974 Clear 28 1011 65 10000 5.1 10 22:20 18.07.2019
4975 Clear 29 1011 62 10000 5.1 10 21:49 18.07.2019
4976 Clear 29 1011 62 10000 5.1 10 21:31 18.07.2019
4977 Clear 29 1010 62 10000 6.2 10 20:55 18.07.2019
4978 Clear 30 1010 62 10000 6.2 10 20:36 18.07.2019
4979 Clear 30 1009 62 10000 7.2 10 20:18 18.07.2019
4980 Clouds 30 1009 58 10000 7.2 360 19:45 18.07.2019
4981 Clouds 31 1008 49 10000 6.2 360 19:20 18.07.2019
4982 Clouds 33 1008 41 10000 5.1 350 18:49 18.07.2019
4983 Clouds 34 1008 41 10000 5.1 350 18:21 18.07.2019
4984 Clouds 34 1007 34 10000 4.6 350 17:45 18.07.2019
4985 Clouds 34 1007 34 10000 4.6 350 17:45 18.07.2019
4986 Clouds 35 1007 34 10000 4.6 350 17:26 18.07.2019
4987 Clouds 35 1007 36 10000 4.1 350 16:58 18.07.2019
4988 Clouds 35 1007 36 10000 4.1 350 16:40 18.07.2019
4989 Clouds 35 1007 34 10000 3.6 290 16:21 18.07.2019
4990 Clouds 35 1007 34 10000 3.6 290 15:55 18.07.2019
4991 Clouds 35 1007 30 10000 5.7 290 15:35 18.07.2019
4992 Clouds 35 1008 34 10000 4.6 300 14:55 18.07.2019
4993 Clouds 35 1008 34 10000 4.6 300 14:37 18.07.2019
4994 Clouds 35 1008 34 10000 3.1 280 13:57 18.07.2019
4995 Clouds 34 1008 36 10000 3.6 290 13:36 18.07.2019
4996 Clouds 34 1008 36 10000 3.6 290 13:18 18.07.2019
4997 Clouds 34 1008 36 10000 3.6 290 12:42 18.07.2019
4998 Clouds 34 1008 36 10000 3.6 290 12:18 18.07.2019
4999 Clear 33 1009 38 10000 3.1 330 11:50 18.07.2019
5000 Clear 33 1009 38 10000 3.1 330 11:27 18.07.2019
5001 Clear 33 1009 38 10000 3.1 330 11:27 18.07.2019
5002 Clear 32 1009 40 10000 3.1 300 10:52 18.07.2019
5003 Clear 32 1009 40 10000 2.6 340 10:18 18.07.2019
5004 Clear 32 1009 40 10000 2.6 340 09:44 18.07.2019
5005 Clear 31 1009 40 10000 2.1 340 09:21 18.07.2019
5006 Clear 31 1009 40 10000 2.1 340 08:42 18.07.2019
5007 Clear 30 1008 45 10000 2.89 345.118 08:19 18.07.2019
5008 Clear 30 1008 45 10000 2.89 345.118 07:37 18.07.2019
5009 Clear 28 1007 58 10000 2.89 345.118 06:59 18.07.2019
5010 Clear 28 1007 58 10000 2.89 345.118 06:34 18.07.2019
5011 Clear 28 1006 61 10000 2.1 80 04:20 18.07.2019
5012 Clear 28 1006 62 10000 2.1 70 02:52 18.07.2019
5013 Clear 29 1007 58 10000 3.1 30 01:37 18.07.2019
5014 Clear 29 1007 66 10000 3.1 10 00:26 18.07.2019
5015 Clear 29 1007 62 10000 3.6 360 23:49 17.07.2019
5016 Clear 30 1007 58 10000 4.1 360 23:19 17.07.2019
5017 Clear 30 1007 58 10000 4.6 360 22:44 17.07.2019
5018 Clear 30 1007 58 10000 4.6 360 22:23 17.07.2019
5019 Clear 30 1007 62 10000 5.1 360 21:59 17.07.2019
5020 Clear 30 1007 62 10000 5.1 360 21:41 17.07.2019
5021 Clear 31 1007 58 10000 5.1 350 21:21 17.07.2019
5022 Clear 31 1007 58 10000 5.1 350 20:58 17.07.2019
5023 Clear 32 1006 59 10000 4.6 360 20:39 17.07.2019
5024 Clear 32 1005 49 10000 4.6 340 20:20 17.07.2019
5025 Clear 33 1005 49 10000 4.6 340 19:43 17.07.2019
5026 Clear 34 1005 36 10000 4.6 340 19:22 17.07.2019
5027 Clear 34 1005 46 10000 5.7 350 18:58 17.07.2019
5028 Clear 34 1005 46 10000 5.7 350 18:39 17.07.2019
5029 Clear 35 1004 50 10000 5.7 340 18:20 17.07.2019
5030 Clear 38 1004 42 10000 6.2 340 17:45 17.07.2019
5031 Clear 38 1004 42 10000 6.2 340 17:24 17.07.2019
5032 Clear 40 1003 29 10000 4.1 300 16:43 17.07.2019
5033 Clear 40 1003 29 10000 4.1 300 16:23 17.07.2019
5034 Clear 40 1004 26 6000 4.1 310 15:52 17.07.2019
5035 Clear 40 1004 26 6000 4.6 310 15:32 17.07.2019
5036 Clear 40 1004 26 6000 4.6 310 15:32 17.07.2019
5037 Sand 40 1004 28 3000 5.1 310 14:58 17.07.2019
5038 Sand 40 1004 26 3000 6.7 280 14:40 17.07.2019
5039 Sand 40 1004 26 3000 6.7 280 14:21 17.07.2019
5040 Sand 41 1004 23 3000 6.7 300 13:59 17.07.2019
5041 Clear 40 1004 24 6000 4.6 280 13:40 17.07.2019
5042 Clear 40 1004 24 6000 4.6 280 13:19 17.07.2019
5043 Clear 41 1004 18 6000 6.7 250 12:39 17.07.2019
5044 Clear 41 1004 18 6000 6.7 250 12:20 17.07.2019
5045 Clear 40 1004 19 6000 7.2 210 11:44 17.07.2019
5046 Clear 40 1004 19 6000 7.2 210 11:21 17.07.2019
5047 Clear 39 1005 21 6000 5.7 220 10:50 17.07.2019
5048 Clear 39 1004 20 6000 7.2 220 10:29 17.07.2019
5049 Clear 38 1005 21 6000 7.7 230 09:58 17.07.2019
5050 Clear 37 1004 22 6000 6.7 200 09:39 17.07.2019
5051 Clear 37 1004 22 6000 6.7 200 09:20 17.07.2019
5052 Clouds 36 1004 22 10000 6.2 200 08:41 17.07.2019
5053 Clouds 36 1004 22 10000 6.2 200 08:22 17.07.2019
5054 Clouds 35 1004 24 10000 5.7 210 07:48 17.07.2019
5055 Clouds 35 1004 24 10000 6.2 230 07:23 17.07.2019
5056 Clear 33 1004 31 6000 3.6 230 06:54 17.07.2019
5057 Clear 33 1004 29 6000 4.6 230 06:29 17.07.2019
5058 Clear 33 1003 29 6000 4.6 270 05:48 17.07.2019
5059 Clear 33 1003 29 6000 4.6 270 05:28 17.07.2019
5060 Clear 36 1002 20 10000 5.1 200 04:37 17.07.2019
5061 Clear 36 1002 20 6000 4.6 190 03:19 17.07.2019
5062 Clear 36 1003 20 6000 3.6 190 01:59 17.07.2019
5063 Clear 36 1004 20 6000 3.1 170 01:26 17.07.2019
5064 Clear 36 1004 19 6000 3.1 170 00:48 17.07.2019
5065 Clear 35 1004 23 6000 2.1 180 00:26 17.07.2019
5066 Clear 35 1005 28 6000 1.5 170 23:58 16.07.2019
5067 Clear 35 1005 28 10000 2.6 130 23:36 16.07.2019
5068 Clear 35 1005 28 10000 2.6 130 23:18 16.07.2019
5069 Clear 35 1006 26 10000 4.1 100 22:42 16.07.2019
5070 Clear 35 1006 26 10000 4.1 100 22:20 16.07.2019
5071 Clear 36 1005 32 10000 3.1 70 21:45 16.07.2019
5072 Clear 36 1005 32 10000 3.1 70 21:22 16.07.2019
5073 Clear 37 1005 17 6000 2.1 60 20:58 16.07.2019
5074 Clear 37 1005 17 6000 2.1 60 20:39 16.07.2019
5075 Clear 37 1005 17 6000 2.1 60 20:21 16.07.2019
5076 Clear 38 1005 17 6000 2.1 60 19:51 16.07.2019
5077 Clear 38 1005 17 6000 2.1 60 19:28 16.07.2019
5078 Clear 38 1005 21 6000 2.6 20 18:57 16.07.2019
5079 Clear 38 1005 21 6000 2.1 360 18:38 16.07.2019
5080 Clear 38 1005 21 6000 2.1 360 18:19 16.07.2019
5081 Clear 38 1006 17 10000 1 350 17:42 16.07.2019
5082 Clear 39 1006 17 10000 1 350 17:21 16.07.2019
5083 Clear 38 1006 18 10000 0.5 320 16:45 16.07.2019
5084 Clear 38 1006 18 10000 0.5 320 16:23 16.07.2019
5085 Clear 38 1007 22 10000 2.6 340 15:55 16.07.2019
5086 Clear 38 1007 22 0 2.24 340 15:37 16.07.2019
5087 Clear 38 1007 21 10000 4.1 330 15:18 16.07.2019
5088 Clear 38 1007 21 10000 2.1 310 14:43 16.07.2019
5089 Clear 38 1007 21 10000 2.1 310 14:24 16.07.2019
5090 Clear 37 1008 23 10000 2.1 340 13:46 16.07.2019
5091 Clear 37 1008 23 10000 2.1 340 13:27 16.07.2019
5092 Clear 37 1008 23 10000 1.5 100 12:57 16.07.2019
5093 Clear 36 1008 28 10000 1 130 12:38 16.07.2019
5094 Clear 35 1008 28 10000 1 130 12:19 16.07.2019
5095 Clear 35 1009 32 10000 1.5 140 11:44 16.07.2019
5096 Clear 34 1009 32 10000 1.5 140 11:24 16.07.2019
5097 Clear 33 1009 33 10000 1 110 10:57 16.07.2019
5098 Clear 32 1009 40 10000 2.1 20 10:39 16.07.2019
5099 Clear 32 1009 40 10000 2.1 20 10:18 16.07.2019
5100 Clear 30 1009 48 10000 1.5 50 09:43 16.07.2019
5101 Clear 30 1009 48 10000 1.5 50 09:20 16.07.2019
5102 Clear 30 1009 54 10000 2.6 110 08:46 16.07.2019
5103 Clear 29 1009 54 10000 2.6 110 08:24 16.07.2019
5104 Clear 28 1009 58 6000 3.6 80 07:51 16.07.2019
5105 Clear 27 1009 61 6000 3.1 80 07:32 16.07.2019
5106 Clear 26 1008 69 6000 4.1 90 06:58 16.07.2019
5107 Clear 26 1008 69 6000 3.1 80 06:36 16.07.2019
5108 Clear 26 1008 74 6000 2.6 50 05:51 16.07.2019
5109 Clear 26 1008 74 6000 2.6 50 05:26 16.07.2019
5110 Clear 26 1008 74 10000 2.6 50 04:32 16.07.2019
5111 Clear 27 1008 69 10000 2.6 40 03:42 16.07.2019
5112 Clear 27 1008 69 10000 2.6 60 02:44 16.07.2019
5113 Clear 27 1008 69 10000 2.6 60 02:22 16.07.2019
5114 Clear 27 1009 74 10000 3.1 40 01:26 16.07.2019
5115 Clear 28 1009 65 10000 4.1 40 00:24 16.07.2019
5116 Clear 28 1009 65 10000 4.6 30 23:58 15.07.2019
5117 Clear 28 1009 65 10000 4.1 30 23:38 15.07.2019
5118 Clear 28 1009 66 10000 4.6 40 23:18 15.07.2019
5119 Clear 29 1009 66 10000 4.1 40 22:43 15.07.2019
5120 Clear 29 1009 66 10000 4.1 40 22:20 15.07.2019
5121 Clear 29 1009 66 10000 4.1 40 22:20 15.07.2019
5122 Clear 29 1009 66 10000 5.1 30 21:57 15.07.2019
5123 Clear 30 1009 62 10000 5.1 30 21:38 15.07.2019
5124 Clear 30 1009 62 10000 5.1 30 21:19 15.07.2019
5125 Clouds 30 1008 58 6000 4.6 10 20:44 15.07.2019
5126 Clouds 31 1008 58 6000 4.6 10 20:23 15.07.2019
5127 -273 0 0 0 0 0 19:56 15.07.2019
5128 Clouds 32 1008 49 6000 4.6 360 19:38 15.07.2019
5129 Clouds 32 1008 49 6000 4.6 360 19:18 15.07.2019
5130 Clouds 33 1008 43 6000 4.1 340 18:44 15.07.2019
5131 Clouds 33 1008 43 6000 4.1 340 18:21 15.07.2019
5132 Clouds 34 1007 38 6000 4.1 10 17:56 15.07.2019
5133 Clouds 34 1007 38 6000 4.1 10 17:37 15.07.2019
5134 Clouds 34 1007 38 6000 4.1 10 17:19 15.07.2019
5135 Clouds 34 1008 38 10000 4.1 350 16:57 15.07.2019
5136 Clouds 34 1008 38 10000 4.6 350 16:36 15.07.2019
5137 Clouds 34 1008 38 10000 4.6 350 16:18 15.07.2019
5138 Clear 34 1008 36 10000 3.1 20 15:38 15.07.2019
5139 Clear 34 1008 36 10000 3.1 20 15:38 15.07.2019
5140 Clear 34 1008 36 10000 3.1 20 15:20 15.07.2019
5141 Clear 35 1008 30 10000 4.1 340 14:55 15.07.2019
5142 -273 0 0 0 0 0 14:37 15.07.2019
5143 Clear 35 1008 30 10000 4.1 340 14:18 15.07.2019
5144 Clear 35 1008 30 10000 4.6 330 13:43 15.07.2019
5145 Clear 34 1008 30 10000 3.6 340 13:18 15.07.2019
5146 Clear 34 1008 30 10000 3.6 340 12:43 15.07.2019
5147 Clear 34 1008 30 10000 3.6 340 12:24 15.07.2019
5148 Clear 31 1008 43 10000 2.1 50 11:44 15.07.2019
5149 Clear 31 1008 43 10000 2.1 50 11:26 15.07.2019
5150 Clear 30 1008 48 10000 1.5 40 10:54 15.07.2019
5151 Clear 30 1008 48 10000 1.5 40 10:36 15.07.2019
5152 Clear 30 1008 48 10000 1.5 40 10:18 15.07.2019
5153 Clear 29 1008 54 10000 2.6 10 09:41 15.07.2019
5154 Clear 29 1008 54 10000 2.6 10 09:19 15.07.2019
5155 Clear 27 1008 69 10000 2.6 40 08:43 15.07.2019
5156 Clear 27 1008 69 10000 2.6 40 08:24 15.07.2019
5157 Clear 26 1008 69 10000 2.1 60 07:43 15.07.2019
5158 Clear 26 1008 69 10000 2.1 60 07:21 15.07.2019
5159 Clear 25 1007 73 10000 2.1 70 06:40 15.07.2019
5160 Clear 25 1007 73 10000 2.1 70 06:18 15.07.2019
5161 Clear 25 1007 73 10000 2.1 70 06:18 15.07.2019
5162 Clear 25 1007 78 10000 2.6 70 05:38 15.07.2019
5163 Clear 26 1008 74 10000 2.6 30 04:45 15.07.2019
5164 Clear 26 1008 74 10000 2.6 30 04:21 15.07.2019
5165 Clear 26 1008 69 10000 2.6 20 02:51 15.07.2019
5166 Clear 27 1008 69 10000 2.6 30 01:55 15.07.2019
5167 Clear 27 1008 69 10000 2.6 30 01:33 15.07.2019
5168 Clear 27 1008 65 10000 3.6 40 00:53 15.07.2019
5169 Clear 27 1008 65 10000 3.6 40 00:53 15.07.2019
5170 Clear 27 1008 69 10000 3.1 50 00:28 15.07.2019
5171 Clear 27 1008 65 10000 3.6 40 23:58 14.07.2019
5172 Clear 27 1008 65 10000 4.1 50 23:39 14.07.2019
5173 Clear 28 1008 65 10000 4.1 50 23:19 14.07.2019
5174 Clear 28 1008 65 10000 4.1 50 22:57 14.07.2019
5175 Clear 29 1009 62 10000 3.6 40 22:38 14.07.2019
5176 Clear 29 1009 62 10000 3.6 40 22:19 14.07.2019
5177 Clear 29 1008 66 10000 5.7 10 21:42 14.07.2019
5178 Clear 29 1008 66 10000 5.7 10 21:19 14.07.2019
5179 Clear 30 1008 55 10000 5.7 360 20:57 14.07.2019
5180 Clear 31 1008 45 10000 4.1 10 20:38 14.07.2019
5181 Clear 31 1008 45 10000 4.1 10 20:19 14.07.2019
5182 Clear 31 1007 43 10000 4.6 360 19:45 14.07.2019
5183 Clear 31 1007 43 10000 4.6 360 19:45 14.07.2019
5184 Clear 32 1007 43 10000 4.6 360 19:27 14.07.2019
5185 Clear 32 1007 40 10000 4.1 360 18:58 14.07.2019
5186 Clear 33 1007 38 10000 4.6 330 18:39 14.07.2019
5187 Clear 33 1007 38 10000 4.6 330 18:21 14.07.2019
5188 Clear 33 1007 38 10000 4.1 350 17:53 14.07.2019
5189 Clear 34 1007 36 10000 3.6 330 17:22 14.07.2019
5190 Clear 34 1007 36 10000 4.1 340 16:52 14.07.2019
5191 Clear 34 1007 36 10000 3.6 340 16:24 14.07.2019
5192 Clear 34 1007 36 10000 4.1 330 15:56 14.07.2019
5193 Clear 34 1007 34 10000 4.6 330 15:34 14.07.2019
5194 Clear 34 1007 30 10000 3.6 340 14:55 14.07.2019
5195 -273 0 0 0 0 0 14:36 14.07.2019
5196 Clear 34 1007 32 10000 4.6 330 14:18 14.07.2019
5197 Clear 34 1007 34 10000 5.1 340 13:44 14.07.2019
5198 Clear 34 1007 34 10000 5.1 340 13:21 14.07.2019
5199 Clear 32 1008 38 10000 2.1 350 12:43 14.07.2019
5200 Clear 32 1008 38 10000 2.1 350 12:22 14.07.2019
5201 Clear 31 1008 40 10000 3.1 30 11:56 14.07.2019
5202 Clear 31 1008 43 10000 3.6 10 11:37 14.07.2019
5203 Clear 31 1008 43 10000 3.6 10 11:19 14.07.2019
5204 Clear 30 1008 45 10000 4.6 20 10:42 14.07.2019
5205 Clear 30 1008 45 10000 4.6 20 10:19 14.07.2019
5206 Clear 29 1009 51 10000 3.6 10 09:44 14.07.2019
5207 Clear 29 1009 51 10000 3.6 10 09:24 14.07.2019
5208 Clear 27 1009 57 10000 3.6 360 08:44 14.07.2019
5209 Clear 26 1009 61 10000 3.6 10 07:58 14.07.2019
5210 Clear 26 1009 61 10000 3.1 10 07:39 14.07.2019
5211 Clear 25 1009 65 10000 2.6 10 06:58 14.07.2019
5212 Clear 24 1009 64 10000 1.5 50 05:45 14.07.2019
5213 Clear 25 1009 65 10000 2.1 360 03:48 14.07.2019
5214 Clear 25 1009 65 10000 2.1 360 03:30 14.07.2019
5215 Clear 25 1009 61 10000 4.1 20 02:41 14.07.2019
5216 Clear 25 1009 61 10000 4.1 20 02:22 14.07.2019
5217 Clear 25 1010 57 10000 3.6 360 01:34 14.07.2019
5218 Clear 26 1010 57 10000 3.1 360 00:57 14.07.2019
5219 Clear 26 1011 57 10000 3.1 10 00:39 14.07.2019
5220 Clear 26 1011 57 10000 3.1 10 00:19 14.07.2019
5221 Clear 26 1011 61 10000 5.1 10 23:45 13.07.2019
5222 Clear 26 1011 61 10000 5.1 10 23:25 13.07.2019
5223 Clear 27 1011 57 10000 4.1 10 22:55 13.07.2019
5224 Clear 27 1011 57 10000 5.1 10 22:37 13.07.2019
5225 Clear 27 1011 57 10000 5.1 10 22:18 13.07.2019
5226 Clear 28 1010 54 10000 5.1 360 21:42 13.07.2019
5227 Clear 28 1010 54 10000 5.1 360 21:19 13.07.2019
5228 Clear 29 1010 54 10000 6.2 10 20:42 13.07.2019
5229 Clear 29 1010 54 10000 6.2 10 20:24 13.07.2019
5230 Clear 30 1009 55 10000 6.2 360 19:45 13.07.2019
5231 Clear 31 1009 52 10000 5.7 360 19:26 13.07.2019
5232 Clear 32 1009 43 10000 4.6 350 18:44 13.07.2019
5233 Clear 32 1009 43 10000 4.6 350 18:21 13.07.2019
5234 Clear 33 1008 36 10000 4.1 320 17:38 13.07.2019
5235 Clear 33 1008 36 10000 4.1 320 17:20 13.07.2019
5236 Clear 34 1008 34 10000 5.1 310 16:56 13.07.2019
5237 Clear 34 1009 32 10000 4.1 350 16:37 13.07.2019
5238 Clear 34 1009 32 10000 4.1 350 16:19 13.07.2019
5239 Clear 34 1009 34 10000 3.6 310 15:42 13.07.2019
5240 Clear 34 1009 34 10000 3.6 310 15:20 13.07.2019
5241 Clear 33 1009 41 10000 3.6 320 14:42 13.07.2019
5242 Clear 33 1009 41 10000 3.6 320 14:22 13.07.2019
5243 Clear 33 1009 41 10000 4.6 310 13:46 13.07.2019
5244 Clear 33 1009 36 10000 3.1 330 13:24 13.07.2019
5245 Clear 33 1010 38 10000 2.6 310 12:59 13.07.2019
5246 Clear 32 1010 43 10000 3.1 300 12:36 13.07.2019
5247 Clear 32 1010 43 10000 3.1 300 12:18 13.07.2019
5248 Clear 31 1011 51 10000 2.6 20 11:40 13.07.2019
5249 Clear 30 1011 51 10000 2.6 20 11:19 13.07.2019
5250 Clear 30 1011 48 10000 2.6 350 10:44 13.07.2019
5251 Clear 30 1011 48 10000 2.6 350 10:23 13.07.2019
5252 Clouds 29 1011 54 10000 1 50 09:53 13.07.2019
5253 Clouds 29 1011 58 10000 2.1 10 09:31 13.07.2019
5254 Clouds 28 1011 61 10000 2.6 30 08:58 13.07.2019
5255 Clouds 27 1011 65 10000 3.1 10 08:32 13.07.2019
5256 Clouds 27 1011 65 10000 3.1 20 07:56 13.07.2019
5257 Clouds 27 1011 65 10000 2.6 30 07:29 13.07.2019
5258 Clear 26 1010 74 10000 2.6 10 06:37 13.07.2019
5259 Clear 26 1010 69 10000 3.1 10 05:57 13.07.2019
5260 Clear 26 1010 74 10000 3.6 360 04:42 13.07.2019
5261 Clear 26 1010 74 10000 3.6 360 04:22 13.07.2019
5262 Clear 26 1010 74 10000 3.1 360 03:55 13.07.2019
5263 Clear 26 1010 74 10000 3.6 10 03:37 13.07.2019
5264 Clear 27 1010 69 10000 3.6 40 01:54 13.07.2019
5265 Clear 27 1010 69 10000 3.6 40 01:36 13.07.2019
5266 Clear 27 1010 69 10000 3.6 40 01:18 13.07.2019
5267 Clear 28 1010 65 10000 3.6 40 00:50 13.07.2019
5268 Clear 28 1010 65 10000 3.6 60 00:18 13.07.2019
5269 Clear 29 1011 58 10000 4.1 20 23:43 12.07.2019
5270 Clear 29 1011 58 10000 4.1 20 23:24 12.07.2019
5271 Clear 29 1011 62 10000 4.6 360 22:43 12.07.2019
5272 Clear 29 1011 62 10000 4.6 360 22:24 12.07.2019
5273 Clear 30 1010 58 10000 4.6 360 21:42 12.07.2019
5274 Clear 30 1010 58 10000 4.6 360 21:22 12.07.2019
5275 Clear 31 1010 58 10000 5.7 10 20:54 12.07.2019
5276 Clear 32 1009 49 10000 5.1 350 20:24 12.07.2019
5277 Clear 32 1009 55 6000 5.7 340 19:59 12.07.2019
5278 Clear 33 1009 52 6000 6.7 350 19:41 12.07.2019
5279 Clear 33 1009 52 6000 6.7 350 19:23 12.07.2019
5280 Clear 34 1008 50 10000 6.2 350 18:41 12.07.2019
5281 Clear 35 1008 50 10000 6.2 350 18:21 12.07.2019
5282 Clear 37 1008 39 10000 5.1 340 17:49 12.07.2019
5283 Clear 37 1008 39 10000 5.1 340 17:28 12.07.2019
5284 Clear 38 1008 26 10000 4.6 300 16:45 12.07.2019
5285 Clear 39 1008 26 10000 4.6 300 16:21 12.07.2019
5286 Clear 39 1008 26 10000 4.6 300 15:42 12.07.2019
5287 Clear 39 1008 26 10000 4.6 300 15:22 12.07.2019
5288 Clear 38 1008 31 6000 4.1 300 14:58 12.07.2019
5289 Clear 38 1008 31 6000 4.1 300 14:39 12.07.2019
5290 Clear 38 1008 31 6000 4.1 300 14:20 12.07.2019
5291 Clear 42 1007 11 10000 1 210 13:42 12.07.2019
5292 Clear 42 1007 11 10000 1 210 13:20 12.07.2019
5293 Clear 36 1009 32 6000 3.1 300 12:40 12.07.2019
5294 Clear 36 1009 32 6000 3.1 300 12:21 12.07.2019
5295 Clear 35 1009 32 6000 3.6 300 11:45 12.07.2019
5296 Clear 35 1009 32 6000 3.6 300 11:23 12.07.2019
5297 Clear 34 1009 34 6000 3.6 320 10:44 12.07.2019
5298 Clear 34 1009 34 6000 3.6 320 10:25 12.07.2019
5299 Haze 33 1009 41 4000 2.6 310 09:55 12.07.2019
5300 Haze 33 1009 41 4000 3.1 290 09:36 12.07.2019
5301 Haze 33 1009 41 4000 3.1 290 09:18 12.07.2019
5302 Haze 30 1009 55 4000 2.1 310 08:42 12.07.2019
5303 Haze 30 1009 55 4000 2.1 310 08:42 12.07.2019
5304 Haze 30 1009 55 4000 2.1 310 08:20 12.07.2019
5305 Clear 30 1008 58 6000 3.9 320.477 07:47 12.07.2019
5306 Clear 30 1008 58 6000 3.9 320.477 07:27 12.07.2019
5307 Clear 29 1008 48 6000 3.9 320.477 06:29 12.07.2019
5308 Clear 29 1008 51 6000 1.88 328.681 05:50 12.07.2019
5309 Clear 29 1007 58 6000 1.5 130 03:46 12.07.2019
5310 Clear 29 1007 58 6000 2.1 10 01:50 12.07.2019
5311 Clear 30 1008 55 6000 2.1 10 01:32 12.07.2019
5312 Clear 30 1008 58 6000 2.39 339.391 00:34 12.07.2019
5313 Clear 29 1008 66 6000 1.5 20 23:55 11.07.2019
5314 Clear 29 1008 70 6000 2.1 20 23:37 11.07.2019
5315 Clear 29 1008 70 6000 2.1 20 23:18 11.07.2019
5316 Clear 30 1008 66 10000 4.6 340 22:42 11.07.2019
5317 Clear 30 1008 66 10000 4.6 340 22:23 11.07.2019
5318 Clear 32 1008 59 10000 5.1 350 21:43 11.07.2019
5319 Clear 32 1008 59 10000 5.1 350 21:20 11.07.2019
5320 Clear 32 1008 59 10000 5.1 350 21:20 11.07.2019
5321 Clear 32 1008 59 10000 5.1 350 21:20 11.07.2019
5322 Clear 32 1007 59 10000 4.6 340 20:58 11.07.2019
5323 Clear 33 1007 55 10000 4.6 340 20:40 11.07.2019
5324 Clear 33 1007 55 10000 4.6 340 20:22 11.07.2019
5325 Clear 34 1007 49 10000 4.1 350 19:48 11.07.2019
5326 Clear 35 1006 44 10000 4.6 350 19:30 11.07.2019
5327 Clear 36 1006 41 10000 5.1 340 18:57 11.07.2019
5328 Clear 36 1005 41 10000 4.1 350 18:38 11.07.2019
5329 Clear 36 1005 41 10000 4.1 350 18:20 11.07.2019
5330 Clear 37 1005 32 10000 5.1 350 17:43 11.07.2019
5331 Clear 37 1005 32 10000 5.1 350 17:25 11.07.2019
5332 Clear 37 1005 37 10000 4.1 330 16:52 11.07.2019
5333 Clear 38 1005 31 10000 4.6 340 16:24 11.07.2019
5334 Clear 38 1005 29 10000 4.6 320 15:55 11.07.2019
5335 Clear 37 1006 35 10000 4.1 340 15:36 11.07.2019
5336 Clear 37 1006 35 10000 4.1 340 15:18 11.07.2019
5337 Clear 37 1006 32 10000 3.6 340 14:43 11.07.2019
5338 Clear 37 1006 32 10000 3.6 340 14:21 11.07.2019
5339 Clear 36 1005 34 10000 3.6 330 13:47 11.07.2019
5340 Clear 36 1005 34 10000 3.6 330 13:28 11.07.2019
5341 Clear 35 1006 34 10000 3.6 320 12:46 11.07.2019
5342 Clear 35 1006 34 10000 3.6 320 12:28 11.07.2019
5343 Clear 35 1006 39 10000 3.6 320 11:59 11.07.2019
5344 Clear 35 1007 44 10000 3.1 300 11:41 11.07.2019
5345 Clear 34 1007 44 10000 3.1 300 11:22 11.07.2019
5346 Clear 32 1006 52 6000 3.1 290 10:46 11.07.2019
5347 Clear 32 1006 52 6000 3.1 290 10:19 11.07.2019
5348 Haze 31 1006 55 4000 1.5 0 09:48 11.07.2019
5349 Haze 30 1006 62 4000 1 0 09:29 11.07.2019
5350 Haze 29 1006 66 4000 2.6 310 08:53 11.07.2019
5351 Haze 28 1007 74 4000 2.1 330 08:27 11.07.2019
5352 Mist 28 1006 74 2000 1.5 0 07:55 11.07.2019
5353 Mist 27 1006 78 2000 1.5 0 07:36 11.07.2019
5354 Mist 26 1006 83 2000 1.5 300 06:41 11.07.2019
5355 Mist 26 1006 83 2000 1.5 300 05:53 11.07.2019
5356 Mist 26 1005 83 2000 2.87 323.382 05:30 11.07.2019
5357 Mist 26 1005 83 4000 2.6 310 04:55 11.07.2019
5358 Clear 27 1005 74 10000 2.6 310 02:41 11.07.2019
5359 Clear 27 1006 74 10000 2.6 300 01:41 11.07.2019
5360 Clear 28 1006 69 10000 3.6 360 00:31 11.07.2019
5361 Clear 28 1006 65 10000 3.6 350 23:49 10.07.2019
5362 Clear 29 1006 58 10000 3.6 350 23:20 10.07.2019
5363 Clear 29 1006 62 10000 3.6 350 22:52 10.07.2019
5364 Clear 30 1006 55 10000 3.6 350 22:22 10.07.2019
5365 Clear 32 1006 43 10000 3.6 340 21:48 10.07.2019
5366 Clear 31 1006 43 10000 3.6 340 21:28 10.07.2019
5367 Clear 32 1005 46 10000 3.6 340 20:58 10.07.2019
5368 Clear 32 1005 46 10000 3.6 340 20:40 10.07.2019
5369 Clear 32 1005 46 10000 3.6 340 20:19 10.07.2019
5370 Clear 33 1005 41 10000 4.1 360 19:54 10.07.2019
5371 Clear 33 1005 41 10000 4.1 360 19:22 10.07.2019
5372 Clear 33 1005 41 10000 4.1 360 19:22 10.07.2019
5373 Clear 33 1005 38 10000 5.1 350 18:59 10.07.2019
5374 Clear 34 1005 32 10000 5.7 360 18:41 10.07.2019
5375 Clear 35 1005 32 10000 5.7 360 18:22 10.07.2019
5376 Clear 36 1005 34 10000 5.7 340 17:42 10.07.2019
5377 Clear 36 1005 34 10000 5.7 340 17:23 10.07.2019
5378 Clear 36 1005 39 6000 5.1 310 16:39 10.07.2019
5379 Clear 36 1005 39 6000 5.1 310 16:19 10.07.2019
5380 Clear 35 1005 36 6000 4.6 330 15:47 10.07.2019
5381 Clear 35 1005 36 6000 4.6 330 15:23 10.07.2019
5382 Clear 35 1005 36 6000 3.6 340 14:43 10.07.2019
5383 Clear 35 1005 36 6000 3.6 340 14:24 10.07.2019
5384 Clear 35 1006 39 6000 3.1 330 13:53 10.07.2019
5385 Clear 35 1006 39 6000 3.1 330 13:19 10.07.2019
5386 Clear 33 1006 46 6000 3.1 310 12:58 10.07.2019
5387 Clear 33 1006 46 6000 3.1 310 12:39 10.07.2019
5388 Clear 33 1006 46 6000 3.1 310 12:20 10.07.2019
5389 Clear 33 1006 49 6000 2.6 290 11:47 10.07.2019
5390 Clear 32 1007 49 6000 2.1 330 11:21 10.07.2019
5391 Clear 31 1007 52 6000 2.6 330 10:52 10.07.2019
5392 Clear 30 1007 58 6000 2.1 300 10:23 10.07.2019
5393 Clouds 29 1007 66 6000 2.6 300 09:45 10.07.2019
5394 Clouds 29 1007 66 6000 2.6 300 09:21 10.07.2019
5395 Mist 28 1007 69 4000 2.6 360 08:57 10.07.2019
5396 Mist 28 1007 69 4000 2.1 310 08:38 10.07.2019
5397 Mist 28 1007 69 4000 2.1 310 08:20 10.07.2019
5398 Mist 26 1008 78 4000 2.1 300 07:42 10.07.2019
5399 Mist 26 1008 78 4000 2.1 300 07:22 10.07.2019
5400 Mist 26 1008 83 3000 3.1 310 06:31 10.07.2019
5401 Mist 26 1008 83 3000 3.6 300 05:40 10.07.2019
5402 Clear 27 1007 65 6000 2.6 280 04:30 10.07.2019
5403 Clear 28 1008 48 10000 1.5 300 01:49 10.07.2019
5404 Clear 28 1008 48 10000 1.5 300 01:49 10.07.2019
5405 Clear 29 1009 48 10000 3.6 320 00:43 10.07.2019
5406 Clear 30 1009 51 10000 3.6 320 23:42 09.07.2019
5407 Clear 30 1009 51 10000 3.6 320 23:23 09.07.2019
5408 Clear 30 1009 48 10000 4.1 330 22:57 09.07.2019
5409 Clear 31 1009 43 10000 4.1 330 22:36 09.07.2019
5410 Clear 31 1009 43 10000 4.1 330 22:18 09.07.2019
5411 Clear 32 1009 38 10000 4.1 330 21:43 09.07.2019
5412 Clear 32 1009 38 10000 4.1 330 21:25 09.07.2019
5413 Clear 33 1009 36 10000 4.1 330 20:44 09.07.2019
5414 Clear 33 1009 36 10000 4.1 330 20:26 09.07.2019
5415 Clear 34 1008 34 10000 4.6 320 19:44 09.07.2019
5416 Clear 34 1008 34 10000 4.6 320 19:26 09.07.2019
5417 Clear 35 1008 32 10000 4.6 320 18:49 09.07.2019
5418 Clear 35 1008 32 10000 4.6 320 18:27 09.07.2019
5419 Clear 36 1008 26 10000 5.1 320 17:58 09.07.2019
5420 Clear 37 1008 27 10000 4.1 330 17:40 09.07.2019
5421 Clear 37 1008 27 10000 4.1 330 17:21 09.07.2019
5422 Clear 36 1008 27 10000 4.6 310 16:50 09.07.2019
5423 Clear 36 1008 28 10000 4.6 310 16:26 09.07.2019
5424 Clear 36 1008 25 10000 4.1 340 15:57 09.07.2019
5425 Clear 36 1009 26 10000 5.1 330 15:36 09.07.2019
5426 Clear 36 1009 25 10000 4.1 310 14:59 09.07.2019
5427 Clear 36 1009 23 10000 4.6 330 14:40 09.07.2019
5428 Clear 36 1009 23 10000 4.6 330 14:21 09.07.2019
5429 Clear 35 1009 28 10000 4.1 300 13:46 09.07.2019
5430 Clear 35 1009 28 10000 4.1 300 13:28 09.07.2019
5431 Clear 35 1010 24 10000 3.6 340 12:59 09.07.2019
5432 Clear 32 1011 31 6000 2.6 320 12:38 09.07.2019
5433 Clear 32 1011 31 6000 2.6 320 12:18 09.07.2019
5434 Clear 32 1011 33 10000 2.6 330 11:41 09.07.2019
5435 Clear 33 1011 33 10000 2.6 330 11:22 09.07.2019
5436 Clear 32 1011 33 6000 3.1 310 10:58 09.07.2019
5437 Clear 32 1011 31 6000 2.6 320 10:35 09.07.2019
5438 Clear 31 1011 45 6000 2.1 300 09:59 09.07.2019
5439 Clear 30 1011 48 6000 1.5 320 09:38 09.07.2019
5440 Clear 30 1011 48 6000 1.5 320 09:19 09.07.2019
5441 Clear 28 1011 58 6000 2.1 320 08:44 09.07.2019
5442 Clear 24 1010 78 10000 2.6 20 04:19 05.07.2019
5443 Clear 25 1010 73 10000 3.1 350 03:39 05.07.2019
5444 Clear 25 1010 73 10000 3.1 350 03:20 05.07.2019
5445 Clear 25 1010 73 10000 2.6 10 02:52 05.07.2019
5446 Clear 25 1010 69 10000 3.6 360 01:56 05.07.2019
5447 Clear 26 1011 61 10000 3.6 350 01:28 05.07.2019
5448 Clear 26 1011 61 10000 4.1 350 00:51 05.07.2019
5449 Clear 26 1011 57 10000 4.1 340 00:31 05.07.2019
5450 Clear 27 1011 57 10000 4.1 20 23:40 04.07.2019
5451 Clear 27 1011 57 10000 4.1 20 23:19 04.07.2019
5452 Clear 28 1011 54 10000 4.6 360 22:42 04.07.2019
5453 Clear 28 1011 54 10000 4.6 360 22:23 04.07.2019
5454 Clear 29 1011 54 10000 6.2 340 21:45 04.07.2019
5455 Clear 29 1011 54 10000 6.2 340 21:26 04.07.2019
5456 Clear 29 1010 58 10000 6.2 340 20:59 04.07.2019
5457 Clear 30 1010 52 10000 5.1 360 20:38 04.07.2019
5458 Clear 31 1010 52 10000 5.1 360 20:20 04.07.2019
5459 Clear 32 1010 40 10000 5.1 360 19:42 04.07.2019
5460 Clear 32 1010 40 10000 5.1 360 19:22 04.07.2019
5461 Clear 32 1009 38 10000 4.6 340 18:56 04.07.2019
5462 Clear 33 1009 36 10000 4.6 340 18:37 04.07.2019
5463 Clear 33 1009 36 10000 4.6 340 18:18 04.07.2019
5464 Clear 33 1009 28 10000 5.1 350 17:43 04.07.2019
5465 Clear 34 1009 28 10000 5.1 350 17:19 04.07.2019
5466 Clear 35 1010 30 10000 4.6 20 15:57 04.07.2019
5467 Clear 35 1010 30 10000 4.6 20 15:39 04.07.2019
5468 Clear 35 1010 30 10000 4.6 20 15:18 04.07.2019
5469 Clear 35 1010 21 10000 5.1 10 14:44 04.07.2019
5470 Clear 35 1010 21 10000 5.1 10 14:25 04.07.2019
5471 Clear 35 1010 21 10000 4.6 360 13:58 04.07.2019
5472 Clear 35 1011 26 10000 3.6 360 13:40 04.07.2019
5473 Clear 35 1011 26 10000 3.6 360 13:22 04.07.2019
5474 Clear 33 1011 31 10000 4.6 10 12:40 04.07.2019
5475 Clear 33 1011 31 10000 4.6 10 12:21 04.07.2019
5476 Clear 33 1011 31 10000 4.1 10 11:57 04.07.2019
5477 Clear 32 1011 35 10000 4.1 10 11:37 04.07.2019
5478 Clear 32 1011 35 10000 4.1 10 11:19 04.07.2019
5479 Clear 31 1011 40 10000 4.1 30 10:40 04.07.2019
5480 Clear 31 1011 40 10000 4.1 30 10:20 04.07.2019
5481 Clear 30 1011 51 10000 4.1 20 09:41 04.07.2019
5482 Clear 30 1011 51 10000 4.1 20 09:41 04.07.2019
5483 Clear 29 1011 51 10000 4.1 20 09:23 04.07.2019
5484 Clear 28 1011 61 10000 4.6 50 08:56 04.07.2019
5485 Clear 28 1011 61 10000 4.6 50 08:23 04.07.2019
5486 Clear 26 1010 74 10000 4.6 70 07:44 04.07.2019
5487 Clear 26 1010 74 10000 4.6 70 07:22 04.07.2019
5488 Clear 25 1010 78 10000 2.6 60 06:51 04.07.2019
5489 Clear 25 1010 78 10000 2.6 60 05:52 04.07.2019
5490 Clear 25 1010 78 10000 2.6 60 05:33 04.07.2019
5491 Clear 26 1011 69 10000 2.1 40 02:43 04.07.2019
5492 Clear 27 1011 65 10000 3.1 30 01:42 04.07.2019
5493 Clear 27 1011 65 10000 3.1 30 01:21 04.07.2019
5494 Clear 28 1012 58 10000 3.6 40 23:58 03.07.2019
5495 Clear 28 1012 54 10000 4.6 10 23:40 03.07.2019
5496 Clear 28 1012 54 10000 4.6 10 23:20 03.07.2019
5497 Clear 29 1012 51 10000 5.1 360 22:44 03.07.2019
5498 Clear 29 1012 51 10000 5.1 360 22:25 03.07.2019
5499 Clear 29 1012 48 10000 5.7 360 21:59 03.07.2019
5500 Clear 30 1012 42 10000 5.7 360 21:41 03.07.2019
5501 Clear 30 1012 42 10000 5.7 360 21:23 03.07.2019
5502 Clear 31 1011 45 10000 6.2 10 20:46 03.07.2019
5503 Clear 31 1011 45 10000 6.2 10 20:24 03.07.2019
5504 Clear 33 1010 38 10000 4.6 10 19:51 03.07.2019
5505 Clear 33 1010 31 10000 4.6 360 19:32 03.07.2019
5506 Clear 33 1010 33 10000 4.6 350 18:49 03.07.2019
5507 Clear 34 1010 32 10000 4.6 340 18:30 03.07.2019
5508 Clear 34 1010 28 10000 3.6 330 17:57 03.07.2019
5509 Clear 34 1010 26 10000 4.6 340 17:39 03.07.2019
5510 Clear 35 1010 26 10000 4.6 340 17:18 03.07.2019
5511 Clear 35 1010 23 10000 3.6 340 16:43 03.07.2019
5512 Clear 35 1010 23 10000 3.6 340 16:22 03.07.2019
5513 Clear 36 1010 22 10000 4.1 340 15:50 03.07.2019
5514 Clear 36 1010 22 10000 4.1 340 15:31 03.07.2019
5515 Clear 36 1010 22 10000 5.1 320 14:58 03.07.2019
5516 Clear 36 1010 19 10000 4.6 340 14:38 03.07.2019
5517 Clear 36 1010 19 10000 4.6 340 14:19 03.07.2019
5518 Clear 35 1010 21 10000 4.1 360 13:42 03.07.2019
5519 Clear 35 1010 21 10000 4.1 360 13:23 03.07.2019
5520 Clear 34 1010 30 10000 3.1 40 12:45 03.07.2019
5521 Clear 34 1010 30 10000 3.1 40 12:18 03.07.2019
5522 Clear 34 1011 26 10000 3.1 40 11:43 03.07.2019
5523 Clear 33 1011 26 10000 3.1 40 11:22 03.07.2019
5524 Clear 32 1011 38 10000 3.1 40 10:43 03.07.2019
5525 Clear 32 1011 38 10000 3.1 40 10:24 03.07.2019
5526 Clear 31 1011 43 10000 2.6 30 09:56 03.07.2019
5527 Clear 31 1011 43 10000 3.1 30 09:38 03.07.2019
5528 Clear 31 1011 43 10000 3.1 30 09:19 03.07.2019
5529 Clear 28 1011 58 10000 3.1 60 08:47 03.07.2019
5530 Clear 28 1011 58 10000 3.1 60 08:25 03.07.2019
5531 Clear 27 1011 65 10000 2.1 70 07:39 03.07.2019
5532 Clear 27 1011 65 10000 2.1 70 07:18 03.07.2019
5533 Clear 26 1010 69 10000 2.1 60 06:19 03.07.2019
5534 Clear 26 1010 69 10000 2.6 60 05:29 03.07.2019
5535 Clear 27 1010 65 10000 1.5 30 04:28 03.07.2019
5536 Clear 27 1010 65 10000 2.1 50 03:22 03.07.2019
5537 Clear 28 1010 61 10000 3.1 50 01:42 03.07.2019
5538 Clear 28 1010 58 10000 4.1 50 01:21 03.07.2019
5539 Clear 28 1010 58 10000 4.1 50 00:42 03.07.2019
5540 Clear 29 1011 54 10000 5.1 50 23:59 02.07.2019
5541 Clear 29 1011 54 10000 5.1 50 23:37 02.07.2019
5542 Clear 29 1011 54 10000 5.1 50 23:19 02.07.2019
5543 Clear 29 1011 54 10000 5.7 40 22:55 02.07.2019
5544 Clear 30 1011 55 10000 5.7 40 22:37 02.07.2019
5545 Clear 30 1011 55 10000 5.7 40 22:18 02.07.2019
5546 Clear 31 1010 55 10000 5.1 20 21:42 02.07.2019
5547 Clear 31 1010 55 10000 5.1 20 21:21 02.07.2019
5548 Clear 31 1010 55 10000 5.1 30 20:58 02.07.2019
5549 Clear 32 1010 41 10000 5.1 30 20:39 02.07.2019
5550 Clear 33 1009 32 10000 4.1 10 20:20 02.07.2019
5551 Clear 34 1009 32 10000 4.1 10 19:42 02.07.2019
5552 Clear 34 1009 32 10000 4.1 10 19:23 02.07.2019
5553 Clear 34 1009 32 10000 4.1 10 19:23 02.07.2019
5554 Clouds 34 1009 28 10000 4.6 10 18:49 02.07.2019
5555 Clouds 35 1008 26 10000 4.1 10 18:19 02.07.2019
5556 Clouds 35 1008 26 10000 5.1 360 17:44 02.07.2019
5557 Clouds 35 1008 26 10000 5.1 360 17:24 02.07.2019
5558 Clouds 35 1008 26 10000 4.6 340 16:54 02.07.2019
5559 Clouds 36 1009 26 10000 4.1 350 16:35 02.07.2019
5560 Clouds 36 1009 25 10000 2.1 280 15:59 02.07.2019
5561 Clouds 36 1008 23 10000 4.6 310 15:38 02.07.2019
5562 Clouds 36 1009 20 10000 4.1 350 15:18 02.07.2019
5563 Clear 36 1009 18 10000 3.6 320 14:41 02.07.2019
5564 Clear 36 1009 18 10000 3.6 320 14:22 02.07.2019
5565 Clear 36 1009 15 10000 5.7 330 13:43 02.07.2019
5566 Clear 36 1009 25 10000 4.6 320 13:19 02.07.2019
5567 Clear 35 1009 28 10000 3.6 350 12:44 02.07.2019
5568 Clear 35 1009 28 10000 3.6 350 12:23 02.07.2019
5569 Clear 34 1010 32 10000 1 330 11:45 02.07.2019
5570 Clear 34 1010 32 10000 1 330 11:24 02.07.2019
5571 Clear 33 1010 33 10000 2.1 360 10:59 02.07.2019
5572 Clear 32 1010 35 10000 2.1 70 10:37 02.07.2019
5573 Clear 32 1010 35 10000 2.1 70 10:19 02.07.2019
5574 Clear 31 1010 45 10000 1.5 60 09:37 02.07.2019
5575 Clear 31 1010 45 10000 1.5 60 09:19 02.07.2019
5576 Clear 28 1010 65 10000 2.1 40 08:40 02.07.2019
5577 Clear 28 1010 65 10000 2.1 40 08:20 02.07.2019
5578 Clear 28 1010 69 10000 2.1 40 07:50 02.07.2019
5579 Clear 27 1010 69 10000 2.6 20 07:20 02.07.2019
5580 Clear 26 1009 74 10000 3.1 30 06:42 02.07.2019
5581 Clear 26 1009 74 10000 2.1 40 05:58 02.07.2019
5582 Clear 27 1009 65 10000 1.5 90 03:26 02.07.2019
5583 Clear 28 1010 65 10000 4.6 50 00:48 02.07.2019
5584 Clear 29 1010 62 10000 4.6 50 23:46 01.07.2019
5585 Clear 29 1010 62 10000 4.6 50 23:20 01.07.2019
5586 Clear 29 1010 62 10000 6.2 40 22:45 01.07.2019
5587 Clear 29 1010 62 10000 6.2 40 22:26 01.07.2019
5588 Clear 30 1010 62 10000 5.7 50 21:47 01.07.2019
5589 Clear 31 1010 62 10000 5.7 40 21:26 01.07.2019
5590 Clear 32 1009 52 10000 4.1 10 20:51 01.07.2019
5591 Clear 32 1009 49 10000 4.1 360 20:21 01.07.2019
5592 Clear 33 1009 43 10000 4.6 20 19:58 01.07.2019
5593 Clear 33 1009 46 10000 5.1 10 19:39 01.07.2019
5594 Clear 33 1009 46 10000 5.1 10 19:21 01.07.2019
5595 Clouds 33 1008 46 10000 4.6 360 18:51 01.07.2019
5596 Clouds 34 1008 41 10000 4.1 350 18:29 01.07.2019
5597 Clouds 33 1008 41 10000 4.1 350 18:29 01.07.2019
5598 Clouds 34 1008 38 10000 5.1 340 17:57 01.07.2019
5599 Clouds 34 1008 36 10000 5.1 30 17:39 01.07.2019
5600 Clouds 34 1008 36 10000 5.1 30 17:19 01.07.2019
5601 Clouds 36 1008 28 10000 3.6 320 16:46 01.07.2019
5602 Clear 35 1008 30 10000 3.6 310 16:25 01.07.2019
5603 Clear 35 1008 30 10000 3.6 320 15:46 01.07.2019
5604 Clear 35 1008 30 10000 3.6 320 15:26 01.07.2019
5605 Clear 35 1009 32 10000 3.6 300 14:57 01.07.2019
5606 Clear 35 1009 32 10000 3.6 300 14:37 01.07.2019
5607 Clear 35 1009 41 10000 2.6 350 14:18 01.07.2019
5608 Clear 33 1009 43 10000 2.1 340 13:39 01.07.2019
5609 Clear 33 1009 43 6000 2.6 310 13:21 01.07.2019
5610 Clear 32 1009 52 6000 2.6 350 12:42 01.07.2019
5611 Clear 32 1009 52 6000 2.6 10 12:23 01.07.2019
5612 Clear 32 1009 52 6000 2.6 10 11:58 01.07.2019
5613 Clear 31 1009 55 6000 2.6 340 11:38 01.07.2019
5614 Clear 31 1009 55 6000 3.1 340 11:18 01.07.2019
5615 Clear 29 1009 62 6000 2.1 340 10:45 01.07.2019
5616 Clear 29 1009 66 6000 3.6 300 10:21 01.07.2019
5617 Clear 29 1009 62 6000 2.6 340 09:45 01.07.2019
5618 Clear 29 1009 62 6000 2.6 340 09:26 01.07.2019
5619 Clear 28 1009 69 6000 2.6 340 08:58 01.07.2019
5620 Mist 27 1009 74 4000 2.1 20 08:35 01.07.2019
5621 Mist 26 1008 78 4000 3.1 20 07:37 01.07.2019
5622 Mist 26 1008 83 4000 1.5 20 06:51 01.07.2019
5623 Clear 26 1008 83 10000 1.5 350 05:23 01.07.2019
5624 Clear 28 1009 74 10000 4.1 360 01:22 01.07.2019
5625 Clear 28 1009 74 10000 4.1 360 00:44 01.07.2019
5626 Clear 28 1009 74 10000 4.1 360 00:44 01.07.2019
5627 Clear 28 1009 69 10000 3.6 20 00:21 01.07.2019
5628 Clear 28 1009 69 10000 3.6 20 23:39 30.06.2019
5629 Clear 29 1009 70 10000 4.1 10 23:18 30.06.2019
5630 Clear 29 1009 74 10000 4.1 360 22:39 30.06.2019
5631 Clear 30 1008 70 10000 4.1 350 22:19 30.06.2019
5632 Clear 30 1008 70 10000 5.1 360 21:41 30.06.2019
5633 Clear 30 1008 70 10000 5.1 360 21:41 30.06.2019
5634 Clear 30 1008 66 10000 5.1 350 21:19 30.06.2019
5635 Clear 31 1008 66 10000 5.1 350 20:55 30.06.2019
5636 Clear 32 1007 55 10000 4.6 350 20:36 30.06.2019
5637 Clear 33 1007 55 10000 4.6 350 20:18 30.06.2019
5638 Clear 33 1007 55 10000 4.6 350 20:18 30.06.2019
5639 Clear 33 1007 46 10000 5.1 350 19:43 30.06.2019
5640 Clear 33 1006 44 10000 4.6 330 19:24 30.06.2019
5641 Clear 34 1006 32 10000 4.6 310 18:26 30.06.2019
5642 Clear 35 1006 32 10000 4.6 310 17:59 30.06.2019
5643 Clear 35 1006 34 10000 5.1 320 17:38 30.06.2019
5644 Clear 35 1006 36 10000 4.6 340 17:18 30.06.2019
5645 Clear 36 1006 30 10000 3.1 300 16:46 30.06.2019
5646 Clear 35 1006 30 10000 3.6 310 16:26 30.06.2019
5647 Clear 35 1006 30 10000 3.6 310 15:38 30.06.2019
5648 Clear 35 1006 30 10000 4.1 330 15:19 30.06.2019
5649 Clear 34 1006 34 10000 3.6 320 14:50 30.06.2019
5650 Clear 34 1006 34 10000 3.6 320 14:50 30.06.2019
5651 Clear 34 1006 34 10000 3.6 320 14:30 30.06.2019
5652 Clear 34 1007 36 10000 4.1 300 13:48 30.06.2019
5653 Clear 34 1007 36 10000 4.1 300 13:29 30.06.2019
5654 Clear 33 1007 41 10000 4.1 290 12:53 30.06.2019
5655 Clear 33 1007 41 10000 4.1 290 12:29 30.06.2019
5656 Clear 33 1007 41 10000 3.1 290 11:58 30.06.2019
5657 Clear 32 1008 43 10000 2.6 290 11:39 30.06.2019
5658 Clear 31 1008 52 10000 2.1 310 11:20 30.06.2019
5659 Clear 31 1008 52 10000 2.1 310 11:20 30.06.2019
5660 Clear 30 1008 55 10000 2.6 250 10:54 30.06.2019
5661 Clear 30 1008 55 10000 2.6 250 10:36 30.06.2019
5662 Clear 30 1008 58 10000 2.6 290 10:18 30.06.2019
5663 Clouds 29 1008 62 10000 2.6 300 09:41 30.06.2019
5664 Clouds 28 1007 69 10000 2.1 320 09:19 30.06.2019
5665 Clouds 27 1007 69 10000 2.1 320 08:40 30.06.2019
5666 Clear 27 1007 69 10000 1.5 300 08:21 30.06.2019
5667 Clear 26 1007 74 10000 1.5 10 07:47 30.06.2019
5668 Clear 26 1007 74 10000 1 350 07:24 30.06.2019
5669 Clear 25 1007 83 10000 2.1 300 06:37 30.06.2019
5670 Clear 26 1007 65 10000 2.1 10 03:33 30.06.2019
5671 Clear 27 1007 57 10000 2.1 10 01:58 30.06.2019
5672 Clear 28 1007 61 10000 3.1 30 00:48 30.06.2019
5673 Clear 28 1007 61 10000 3.1 30 00:24 30.06.2019
5674 Clear 28 1007 58 10000 3.1 350 23:53 29.06.2019
5675 Clear 28 1007 54 10000 3.6 360 23:23 29.06.2019
5676 Clear 29 1007 54 10000 3.6 360 22:52 29.06.2019
5677 Clear 29 1007 54 10000 3.6 360 22:25 29.06.2019
5678 Clear 30 1007 48 10000 4.6 340 21:56 29.06.2019
5679 Clear 30 1007 55 10000 5.1 350 21:38 29.06.2019
5680 Clear 30 1007 55 10000 5.1 350 21:19 29.06.2019
5681 Clear 31 1007 52 10000 5.1 340 20:36 29.06.2019
5682 Clear 32 1006 49 10000 5.1 340 20:18 29.06.2019
5683 Clear 32 1006 49 10000 6.2 350 19:43 29.06.2019
5684 Clear 33 1005 36 10000 4.6 340 19:22 29.06.2019
5685 Clear 34 1005 30 10000 4.1 320 18:48 29.06.2019
5686 Clear 34 1005 30 10000 4.1 320 18:25 29.06.2019
5687 Clear 35 1005 30 10000 4.6 340 17:40 29.06.2019
5688 Clear 35 1005 32 10000 4.6 320 17:22 29.06.2019
5689 Clear 35 1005 32 10000 4.6 320 16:54 29.06.2019
5690 Clear 36 1005 28 10000 4.1 320 16:29 29.06.2019
5691 Clouds 36 1005 26 6000 3.6 290 15:42 29.06.2019
5692 Clouds 35 1005 36 6000 3.6 330 15:23 29.06.2019
5693 Clouds 35 1006 34 6000 3.6 310 14:43 29.06.2019
5694 Clouds 35 1006 32 6000 4.1 320 14:25 29.06.2019
5695 Clouds 34 1006 38 6000 4.1 310 13:46 29.06.2019
5696 Clouds 34 1006 38 6000 3.1 320 13:26 29.06.2019
5697 Clouds 32 1006 43 6000 3.6 280 12:49 29.06.2019
5698 Clouds 32 1006 43 6000 3.6 280 12:31 29.06.2019
5699 Clouds 32 1007 49 6000 2.6 320 11:53 29.06.2019
5700 Clouds 32 1007 49 6000 2.6 320 11:31 29.06.2019
5701 Clouds 31 1007 55 6000 2.1 280 10:53 29.06.2019
5702 Clouds 31 1007 55 6000 2.1 280 10:32 29.06.2019
5703 Clouds 30 1007 58 6000 2.6 320 09:59 29.06.2019
5704 Clouds 30 1007 66 6000 2.6 320 09:36 29.06.2019
5705 Clouds 28 1007 69 6000 2.1 290 08:42 29.06.2019
5706 Clear 27 1007 74 6000 2.1 310 07:46 29.06.2019
5707 Clear 27 1007 74 6000 2.1 310 07:21 29.06.2019
5708 Clear 26 1006 83 6000 2.6 310 06:44 29.06.2019
5709 Clear 26 1006 83 6000 2.6 310 06:21 29.06.2019
5710 Clear 27 1007 61 10000 1.5 350 02:37 29.06.2019
5711 Clear 28 1007 61 10000 3.1 20 00:57 29.06.2019
5712 Clear 28 1008 61 10000 3.1 360 00:23 29.06.2019
5713 Clear 29 1008 62 10000 3.1 10 23:27 28.06.2019
5714 Clear 29 1008 62 10000 3.1 10 22:57 28.06.2019
5715 Clear 29 1008 58 10000 3.6 10 22:37 28.06.2019
5716 Clear 30 1007 51 10000 4.6 360 21:52 28.06.2019
5717 Clear 30 1007 51 10000 4.6 360 21:25 28.06.2019
5718 Clear 31 1007 45 10000 4.6 340 20:49 28.06.2019
5719 Clear 31 1007 45 10000 4.6 340 20:28 28.06.2019
5720 Clear 31 1007 45 10000 4.6 340 19:57 28.06.2019
5721 Clouds 32 1006 49 10000 6.2 350 19:37 28.06.2019
5722 Clouds 32 1006 49 10000 6.2 350 19:18 28.06.2019
5723 Clouds 33 1006 43 10000 5.1 330 18:38 28.06.2019
5724 Clouds 34 1005 38 10000 5.1 330 18:20 28.06.2019
5725 Clear 34 1005 38 10000 5.1 320 17:33 28.06.2019
5726 Clear 35 1005 38 10000 5.1 320 16:54 28.06.2019
5727 Clear 35 1005 36 10000 4.1 320 16:29 28.06.2019
5728 Clear 35 1005 36 10000 4.6 320 15:49 28.06.2019
5729 Clear 35 1005 34 10000 5.1 320 15:26 28.06.2019
5730 Clear 35 1005 34 10000 5.1 320 14:59 28.06.2019
5731 Clear 35 1006 36 10000 4.6 340 14:39 28.06.2019
5732 Clear 34 1006 38 10000 4.6 340 14:20 28.06.2019
5733 Clear 34 1006 38 10000 4.1 330 13:45 28.06.2019
5734 Clear 34 1006 38 10000 4.1 330 13:22 28.06.2019
5735 Clear 33 1006 41 10000 3.6 330 12:50 28.06.2019
5736 Clear 33 1006 41 10000 3.6 330 12:25 28.06.2019
5737 Clear 31 1007 52 6000 3.1 350 11:29 28.06.2019
5738 Clear 30 1007 58 6000 2.6 360 10:47 28.06.2019
5739 Clear 30 1007 58 6000 2.6 360 10:23 28.06.2019
5740 Clear 30 1007 58 6000 2.1 330 10:00 28.06.2019
5741 Clear 29 1007 62 6000 2.1 330 09:41 28.06.2019
5742 Clouds 28 1008 65 6000 2.1 10 09:22 28.06.2019
5743 Clouds 27 1008 74 6000 3.1 30 08:42 28.06.2019
5744 Mist 27 1008 69 4000 2.6 360 08:23 28.06.2019
5745 Mist 26 1008 74 4000 3.6 360 07:42 28.06.2019
5746 Mist 26 1008 78 4000 2.6 350 06:49 28.06.2019
5747 Clear 27 1007 74 10000 3.1 60 03:57 28.06.2019
5748 Clear 28 1008 69 10000 5.1 30 00:46 28.06.2019
5749 Clear 29 1008 69 10000 4.1 30 00:19 28.06.2019
5750 Clear 29 1008 70 10000 4.6 30 23:43 27.06.2019
5751 Clear 29 1008 70 10000 4.6 30 23:22 27.06.2019
5752 Clear 29 1008 66 10000 4.6 50 22:43 27.06.2019
5753 Clear 30 1008 66 10000 4.6 50 22:25 27.06.2019
5754 Clear 31 1008 66 10000 5.1 50 21:58 27.06.2019
5755 Clear 31 1007 66 10000 6.7 30 21:39 27.06.2019
5756 Clear 32 1007 55 10000 6.2 20 21:20 27.06.2019
5757 Clear 33 1007 55 10000 6.2 20 20:48 27.06.2019
5758 Clear 34 1007 55 10000 6.2 20 20:30 27.06.2019
5759 Clear 35 1007 39 10000 5.7 20 19:50 27.06.2019
5760 Clear 35 1007 39 10000 5.7 20 19:29 27.06.2019
5761 Clear 36 1007 32 10000 5.1 10 18:53 27.06.2019
5762 Clear 36 1007 32 10000 5.1 10 18:32 27.06.2019
5763 Clear 37 1007 29 10000 5.1 330 17:58 27.06.2019
5764 Clear 37 1007 29 10000 5.1 330 17:37 27.06.2019
5765 Clear 38 1007 27 10000 5.1 340 17:19 27.06.2019
5766 Clear 38 1007 29 10000 5.1 330 16:39 27.06.2019
5767 Clear 38 1007 29 10000 5.1 330 16:19 27.06.2019
5768 Clear 38 1008 29 10000 5.1 330 15:45 27.06.2019
5769 Clear 38 1008 29 10000 5.1 330 15:24 27.06.2019
5770 Clear 38 1008 27 10000 4.6 350 14:52 27.06.2019
5771 Clear 38 1008 27 10000 4.6 350 14:30 27.06.2019
5772 Clear 38 1009 27 10000 5.1 340 13:50 27.06.2019
5773 Clear 38 1009 27 10000 5.1 340 13:32 27.06.2019
5774 Clear 37 1009 29 10000 4.1 320 12:58 27.06.2019
5775 Clear 37 1009 21 10000 2.6 350 12:38 27.06.2019
5776 Clear 37 1009 21 10000 2.6 350 12:19 27.06.2019
5777 Clear 37 1009 22 10000 4.1 20 11:42 27.06.2019
5778 Clear 37 1009 22 10000 4.1 20 11:21 27.06.2019
5779 Clear 36 1009 22 10000 4.1 20 10:55 27.06.2019
5780 Clear 36 1010 22 10000 3.6 40 10:36 27.06.2019
5781 Clear 36 1010 22 10000 3.6 40 10:18 27.06.2019
5782 Clear 35 1010 24 10000 3.6 40 09:37 27.06.2019
5783 Clear 34 1010 35 10000 3.1 60 09:19 27.06.2019
5784 Clear 32 1010 35 10000 3.1 60 08:44 27.06.2019
5785 Clear 30 1010 36 0 3.66 26.46 08:22 27.06.2019
5786 Clear 30 1010 36 0 3.66 26.46 07:39 27.06.2019
5787 Clear 28 1009 48 10000 2.6 30 06:55 27.06.2019
5788 Clear 28 1009 48 10000 2.6 30 06:29 27.06.2019
5789 Clear 28 1009 58 10000 2.6 70 03:50 27.06.2019
5790 Clear 28 1010 61 10000 3.1 80 02:40 27.06.2019
5791 Clear 29 1010 62 10000 3.6 60 01:18 27.06.2019
5792 Clear 29 1010 62 10000 3.6 60 00:47 27.06.2019
5793 Clear 29 1010 62 10000 3.6 60 00:25 27.06.2019
5794 Clear 29 1011 66 10000 4.1 50 23:45 26.06.2019
5795 Clear 30 1011 66 10000 5.1 40 23:22 26.06.2019
5796 Clear 30 1011 66 10000 5.1 40 23:22 26.06.2019
5797 Clear 30 1011 66 10000 5.1 40 22:55 26.06.2019
5798 Clear 30 1011 66 10000 4.6 40 22:37 26.06.2019
5799 Clear 31 1011 62 10000 6.2 30 22:18 26.06.2019
5800 Clear 32 1011 59 10000 5.7 40 21:41 26.06.2019
5801 Clear 32 1011 59 10000 5.7 40 21:19 26.06.2019
5802 Clear 33 1010 38 10000 5.1 360 20:50 26.06.2019
5803 Clear 34 1010 38 10000 5.1 360 20:31 26.06.2019
5804 Clear 35 1010 36 10000 5.7 20 19:59 26.06.2019
5805 Clear 35 1010 36 10000 5.1 10 19:40 26.06.2019
5806 Clear 36 1009 32 10000 4.6 360 19:21 26.06.2019
5807 Clear 36 1009 32 10000 4.6 360 18:45 26.06.2019
5808 Clear 37 1009 27 10000 5.7 340 18:22 26.06.2019
5809 Clear 38 1009 27 10000 5.7 340 17:54 26.06.2019
5810 Clear 38 1009 27 10000 5.7 340 17:27 26.06.2019
5811 Clear 39 1009 20 10000 5.1 350 16:52 26.06.2019
5812 Clear 39 1009 20 10000 5.1 350 16:30 26.06.2019
5813 Clear 39 1009 20 10000 4.6 320 15:58 26.06.2019
5814 Clear 39 1009 20 10000 4.6 330 15:30 26.06.2019
5815 Clear 39 1009 20 10000 4.6 330 14:58 26.06.2019
5816 Clear 38 1009 24 10000 4.6 30 14:37 26.06.2019
5817 Clear 38 1009 24 10000 4.6 30 14:37 26.06.2019
5818 Clear 38 1009 27 10000 4.1 350 14:19 26.06.2019
5819 Clear 38 1009 25 10000 3.1 350 13:41 26.06.2019
5820 Clear 37 1009 23 10000 3.1 350 13:19 26.06.2019
5821 Clear 37 1010 20 10000 4.1 20 12:41 26.06.2019
5822 Clear 37 1010 20 10000 4.1 20 12:41 26.06.2019
5823 Clear 37 1010 20 10000 3.1 20 12:22 26.06.2019
5824 Clear 37 1010 20 10000 3.1 20 11:42 26.06.2019
5825 Clear 36 1010 23 10000 2.6 30 11:19 26.06.2019
5826 Clear 35 1010 26 10000 3.1 20 10:41 26.06.2019
5827 Clear 35 1010 28 10000 3.1 40 10:21 26.06.2019
5828 Clear 34 1010 28 10000 3.1 40 09:41 26.06.2019
5829 Clear 32 1010 35 10000 2.6 30 09:18 26.06.2019
5830 Clear 30 1010 45 10000 2.6 50 08:41 26.06.2019
5831 Clear 30 1010 48 10000 2.6 40 08:19 26.06.2019
5832 Clear 26 1010 58 10000 1.5 60 07:45 26.06.2019
5833 Clear 26 1010 69 10000 1.5 70 06:38 26.06.2019
5834 Clear 26 1010 69 10000 1.5 70 06:20 26.06.2019
5835 Clear 29 1010 62 10000 3.6 50 00:59 26.06.2019
5836 Clear 30 1011 58 10000 3.6 50 00:20 26.06.2019
5837 Clear 30 1011 58 10000 3.6 50 23:45 25.06.2019
5838 Clear 30 1011 58 10000 3.6 50 23:27 25.06.2019
5839 Clear 31 1011 55 10000 4.1 50 22:56 25.06.2019
5840 Clear 31 1011 55 10000 4.1 50 22:37 25.06.2019
5841 Clear 32 1010 52 10000 5.1 10 22:19 25.06.2019
5842 Clear 33 1010 49 10000 5.1 10 21:41 25.06.2019
5843 Clear 33 1010 49 10000 5.1 10 21:21 25.06.2019
5844 Clear 33 1010 34 10000 5.1 20 20:44 25.06.2019
5845 Clear 33 1010 34 10000 5.1 20 20:44 25.06.2019
5846 Clear 34 1009 34 10000 4.6 20 20:21 25.06.2019
5847 Clear 35 1009 34 10000 4.6 20 19:45 25.06.2019
5848 Clear 35 1009 34 10000 4.6 20 19:45 25.06.2019
5849 Clear 36 1009 25 10000 5.1 360 19:23 25.06.2019
5850 Clear 36 1009 25 10000 5.1 360 18:47 25.06.2019
5851 Clear 36 1009 25 10000 5.1 360 18:29 25.06.2019
5852 -273 0 0 0 0 0 18:01 25.06.2019
5853 -273 0 0 0 0 0 18:01 25.06.2019
5854 -273 0 0 0 0 0 18:01 25.06.2019
5855 -273 0 0 0 0 0 18:01 25.06.2019
5856 -273 0 0 0 0 0 17:30 25.06.2019
5857 Clear 37 1008 25 10000 5.1 360 17:29 25.06.2019
5858 Clear 37 1008 24 10000 4.6 20 16:57 25.06.2019
5859 Clear 38 1008 24 10000 4.6 20 16:39 25.06.2019
5860 Clear 38 1008 21 10000 4.6 360 16:21 25.06.2019
5861 Clear 38 1009 22 10000 3.6 30 15:42 25.06.2019
5862 Clear 37 1009 25 10000 4.6 40 15:24 25.06.2019
5863 Clear 37 1009 27 10000 4.6 20 14:54 25.06.2019
5864 Clear 37 1009 27 10000 4.6 20 14:35 25.06.2019
5865 Clear 35 1009 30 10000 5.7 360 13:47 25.06.2019
5866 Clear 35 1009 30 10000 5.7 360 13:28 25.06.2019
5867 Clear 35 1010 32 10000 5.1 30 12:44 25.06.2019
5868 Clear 35 1010 30 10000 4.1 10 12:25 25.06.2019
5869 Clear 35 1010 34 10000 4.1 10 11:56 25.06.2019
5870 Clear 34 1010 34 10000 4.1 10 11:38 25.06.2019
5871 Clear 33 1010 38 10000 4.6 20 11:20 25.06.2019
5872 Clear 32 1010 43 10000 4.6 10 10:43 25.06.2019
5873 Clear 31 1010 48 10000 3.1 360 10:22 25.06.2019
5874 Clear 30 1010 58 10000 2.1 340 09:55 25.06.2019
5875 Clear 30 1010 58 10000 2.1 340 09:37 25.06.2019
5876 Clear 29 1010 61 10000 2.6 40 09:18 25.06.2019
5877 Clear 28 1010 61 10000 2.6 40 08:42 25.06.2019
5878 Clear 28 1010 58 6000 3.1 30 08:23 25.06.2019
5879 Clear 27 1010 65 6000 2.1 40 07:39 25.06.2019
5880 Mist 25 1010 83 4000 2.1 70 06:54 25.06.2019
5881 Mist 25 1010 83 4000 2.1 70 06:36 25.06.2019
5882 Clear 26 1010 78 10000 3.6 40 02:47 25.06.2019
5883 Clear 27 1010 69 10000 4.1 40 01:41 25.06.2019
5884 Clear 27 1010 69 10000 4.1 40 00:37 25.06.2019
5885 Clear 28 1011 61 10000 4.6 10 23:56 24.06.2019
5886 Clear 28 1011 61 10000 4.6 10 23:38 24.06.2019
5887 Clear 28 1011 61 10000 4.6 10 23:38 24.06.2019
5888 Clear 28 1010 61 10000 5.7 10 23:20 24.06.2019
5889 Clear 29 1011 58 10000 5.1 360 22:41 24.06.2019
5890 Clear 29 1011 54 10000 5.1 10 22:19 24.06.2019
5891 Clear 30 1010 51 10000 5.7 360 21:39 24.06.2019
5892 Clear 30 1010 48 10000 5.1 10 21:19 24.06.2019
5893 Clear 31 1010 48 10000 5.1 10 20:57 24.06.2019
5894 Clear 31 1010 48 10000 6.7 10 20:39 24.06.2019
5895 Clear 32 1009 46 10000 6.7 10 20:20 24.06.2019
5896 Clear 32 1009 46 10000 7.2 360 19:46 24.06.2019
5897 Clear 34 1009 36 10000 6.2 20 19:21 24.06.2019
5898 Clear 34 1009 30 10000 5.7 20 18:47 24.06.2019
5899 Clear 35 1009 30 10000 5.7 20 18:27 24.06.2019
5900 Clear 35 1008 26 10000 5.7 20 17:56 24.06.2019
5901 Clear 36 1008 26 10000 5.7 360 17:35 24.06.2019
5902 Clear 36 1008 28 10000 6.2 360 16:48 24.06.2019
5903 Clear 36 1008 28 10000 6.2 360 16:21 24.06.2019
5904 Clear 36 1008 28 10000 6.2 360 15:59 24.06.2019
5905 Clear 35 1008 30 10000 5.1 360 15:38 24.06.2019
5906 Clear 35 1009 32 10000 7.2 360 15:19 24.06.2019
5907 Clear 36 1009 30 10000 8.2 10 14:34 24.06.2019
5908 Clear 35 1010 32 10000 5.7 10 13:50 24.06.2019
5909 Clear 35 1010 32 10000 5.7 10 13:29 24.06.2019
5910 Clear 34 1010 36 10000 5.7 360 12:44 24.06.2019
5911 Clear 33 1010 38 10000 5.7 360 12:22 24.06.2019
5912 Clear 33 1010 38 10000 5.1 30 11:56 24.06.2019
5913 Clear 33 1010 38 10000 5.1 30 11:38 24.06.2019
5914 Clear 32 1010 45 10000 4.6 30 11:18 24.06.2019
5915 Clear 31 1011 48 10000 4.6 30 10:42 24.06.2019
5916 Clear 30 1011 51 10000 4.6 40 10:20 24.06.2019
5917 Clear 29 1011 51 10000 4.1 20 09:48 24.06.2019
5918 Clear 28 1011 61 10000 4.1 30 09:20 24.06.2019
5919 Clear 27 1011 69 6000 3.6 40 08:51 24.06.2019
5920 Mist 26 1011 74 4000 3.6 50 08:25 24.06.2019
5921 Mist 26 1011 74 4000 3.6 50 07:44 24.06.2019
5922 Mist 25 1011 78 4000 4.1 30 07:25 24.06.2019
5923 Mist 25 1011 78 4000 4.1 40 06:31 24.06.2019
5924 Clouds 25 1011 78 6000 3.6 50 05:57 24.06.2019
5925 Clear 25 1010 78 10000 3.6 30 04:59 24.06.2019
5926 Clear 25 1010 83 10000 3.1 20 04:21 24.06.2019
5927 Clear 25 1010 83 10000 3.1 40 02:55 24.06.2019
5928 Clear 25 1010 83 10000 4.1 40 01:59 24.06.2019
5929 Clear 25 1010 83 10000 4.1 50 01:41 24.06.2019
5930 Clear 26 1011 78 10000 4.1 50 01:21 24.06.2019
5931 Clear 26 1011 78 10000 4.1 50 00:38 24.06.2019
5932 Clear 26 1011 74 10000 4.1 50 00:18 24.06.2019
5933 Clear 26 1011 69 10000 5.1 40 23:43 23.06.2019
5934 Clear 27 1011 69 10000 5.1 40 23:21 23.06.2019
5935 Clear 28 1011 61 10000 5.1 40 22:42 23.06.2019
5936 Clear 28 1011 61 10000 6.2 40 22:20 23.06.2019
5937 Clear 29 1010 54 10000 6.7 40 21:44 23.06.2019
5938 Clear 29 1010 54 10000 6.7 40 21:25 23.06.2019
5939 Clear 30 1010 51 10000 6.2 40 20:58 23.06.2019
5940 Clear 31 1010 48 10000 6.2 20 20:40 23.06.2019
5941 Clear 31 1009 45 10000 5.7 10 20:21 23.06.2019
5942 Clear 31 1009 45 10000 5.7 10 19:43 23.06.2019
5943 Clear 31 1009 46 10000 5.7 360 19:21 23.06.2019
5944 Clear 32 1009 41 10000 5.7 20 18:52 23.06.2019
5945 Clear 33 1009 41 10000 5.7 360 18:22 23.06.2019
5946 Clear 33 1009 36 10000 3.1 10 17:50 23.06.2019
5947 Clear 34 1009 36 10000 5.1 360 17:25 23.06.2019
5948 Clear 34 1009 34 10000 5.7 360 16:55 23.06.2019
5949 Clear 34 1009 34 10000 5.7 360 16:36 23.06.2019
5950 Clear 34 1009 38 6000 4.6 330 16:18 23.06.2019
5951 Clear 34 1009 38 6000 4.6 330 15:40 23.06.2019
5952 Clear 34 1009 38 6000 4.6 340 15:20 23.06.2019
5953 Clear 33 1010 41 6000 5.7 320 14:40 23.06.2019
5954 Clear 33 1010 41 6000 5.7 320 14:22 23.06.2019
5955 Clear 33 1010 41 6000 5.7 320 13:57 23.06.2019
5956 Clear 33 1010 41 6000 5.7 320 13:57 23.06.2019
5957 Clear 33 1010 43 6000 4.1 340 13:38 23.06.2019
5958 Clear 32 1010 46 6000 5.1 340 13:18 23.06.2019
5959 Clear 32 1010 43 6000 4.6 360 12:42 23.06.2019
5960 Clear 31 1011 51 6000 4.1 340 12:21 23.06.2019
5961 Clear 30 1011 51 6000 4.1 340 11:55 23.06.2019
5962 Clear 30 1011 51 6000 4.1 340 11:36 23.06.2019
5963 Clouds 30 1011 58 6000 3.1 340 11:18 23.06.2019
5964 Clouds 29 1011 58 6000 3.1 340 10:41 23.06.2019
5965 Clouds 28 1011 61 6000 2.6 340 10:18 23.06.2019
5966 Clouds 28 1011 61 6000 2.6 340 09:39 23.06.2019
5967 Clouds 28 1011 61 6000 2.6 360 09:19 23.06.2019
5968 Clouds 27 1011 65 6000 2.6 20 08:42 23.06.2019
5969 Clouds 27 1011 65 6000 2.6 20 08:24 23.06.2019
5970 Clear 26 1011 74 6000 3.1 10 07:52 23.06.2019
5971 Clear 26 1011 74 6000 3.1 10 07:20 23.06.2019
5972 Clear 25 1011 78 6000 3.1 340 06:54 23.06.2019
5973 Clear 25 1010 78 6000 4.1 360 05:54 23.06.2019
5974 Clear 25 1010 78 10000 3.1 350 03:41 23.06.2019
5975 Clear 25 1010 78 10000 4.1 350 01:54 23.06.2019
5976 Clear 25 1010 78 10000 4.6 350 01:35 23.06.2019
5977 Clear 26 1011 74 10000 4.6 350 00:36 23.06.2019
5978 Clear 26 1011 74 10000 4.1 340 23:54 22.06.2019
5979 Clear 27 1011 69 10000 4.6 340 23:27 22.06.2019
5980 Clear 28 1011 58 10000 4.1 350 22:49 22.06.2019
5981 Clear 28 1011 58 10000 4.1 350 22:31 22.06.2019
5982 Clear 28 1011 58 10000 4.1 350 21:59 22.06.2019
5983 Clear 29 1011 54 10000 4.1 340 21:37 22.06.2019
5984 Clear 29 1011 51 10000 5.1 340 21:19 22.06.2019
5985 Clear 29 1010 48 10000 4.6 340 20:50 22.06.2019
5986 Clear 29 1010 48 10000 4.6 340 20:50 22.06.2019
5987 Clear 30 1010 48 10000 4.6 340 20:25 22.06.2019
5988 Clear 30 1010 43 10000 5.1 350 19:47 22.06.2019
5989 Clear 31 1010 40 10000 5.7 350 19:23 22.06.2019
5990 Clear 32 1009 38 10000 5.1 340 18:48 22.06.2019
5991 Clear 32 1009 38 10000 5.1 340 18:30 22.06.2019
5992 Clouds 33 1009 34 10000 5.1 330 17:56 22.06.2019
5993 Clouds 34 1009 34 10000 5.1 330 17:34 22.06.2019
5994 Clouds 33 1009 36 10000 5.7 320 16:51 22.06.2019
5995 Clouds 33 1009 36 10000 4.1 340 16:25 22.06.2019
5996 Clouds 34 1010 34 10000 4.6 300 15:56 22.06.2019
5997 Clouds 34 1010 34 10000 4.6 300 15:37 22.06.2019
5998 Clouds 34 1010 34 10000 5.1 330 15:19 22.06.2019
5999 Clouds 34 1010 36 10000 3.6 330 14:37 22.06.2019
6000 Clouds 34 1010 36 10000 3.6 350 14:18 22.06.2019
6001 Clouds 33 1010 36 10000 4.6 330 13:41 22.06.2019
6002 Clouds 33 1011 36 10000 5.7 290 13:21 22.06.2019
6003 Clouds 32 1011 40 10000 4.1 360 12:50 22.06.2019
6004 Clouds 32 1011 40 10000 4.1 360 12:32 22.06.2019
6005 Clouds 32 1011 40 10000 5.1 340 11:58 22.06.2019
6006 Clouds 31 1011 40 10000 5.1 340 11:33 22.06.2019
6007 Clouds 30 1011 45 10000 4.1 330 10:50 22.06.2019
6008 Clouds 30 1011 45 10000 4.1 330 10:21 22.06.2019
6009 Clouds 28 1012 58 10000 3.1 330 09:49 22.06.2019
6010 Clouds 28 1012 58 10000 3.1 330 09:22 22.06.2019
6011 Clouds 27 1012 61 10000 3.6 340 08:43 22.06.2019
6012 Clouds 27 1012 61 10000 3.6 340 08:23 22.06.2019
6013 Clouds 26 1012 69 10000 3.1 320 07:33 22.06.2019
6014 Clouds 25 1012 78 6000 2.6 300 06:55 22.06.2019
6015 Clear 25 1011 73 6000 3.1 330 05:23 22.06.2019
6016 Clear 25 1011 69 10000 2.6 360 02:33 22.06.2019
6017 Clear 26 1011 61 10000 3.6 360 01:22 22.06.2019
6018 Clear 26 1011 61 10000 3.6 350 00:46 22.06.2019
6019 Clear 26 1012 54 10000 3.6 350 00:22 22.06.2019
6020 Clear 27 1011 51 10000 3.6 340 23:44 21.06.2019
6021 Clear 27 1012 48 10000 3.1 360 23:22 21.06.2019
6022 Clear 28 1012 48 10000 4.1 10 22:52 21.06.2019
6023 Clear 28 1012 48 10000 4.1 10 22:24 21.06.2019
6024 Clear 28 1012 48 10000 4.6 360 21:55 21.06.2019
6025 Clear 29 1011 42 10000 5.1 360 21:37 21.06.2019
6026 Clear 30 1011 42 10000 4.6 360 21:18 21.06.2019
6027 Clear 30 1011 37 10000 4.6 340 20:44 21.06.2019
6028 Clear 31 1010 35 10000 4.6 10 20:22 21.06.2019
6029 Clear 31 1010 35 10000 4.6 10 19:35 21.06.2019
6030 Clear 32 1010 33 10000 5.1 340 18:54 21.06.2019
6031 Clear 32 1010 33 10000 5.1 340 18:34 21.06.2019
6032 Clear 33 1010 29 10000 5.7 360 17:47 21.06.2019
6033 Clear 33 1010 29 10000 5.7 360 17:29 21.06.2019
6034 Clear 34 1009 28 10000 5.7 340 16:42 21.06.2019
6035 Clear 34 1010 28 10000 5.7 340 16:22 21.06.2019
6036 Clear 34 1010 28 10000 5.1 360 15:45 21.06.2019
6037 Clear 34 1010 28 10000 5.1 360 15:24 21.06.2019
6038 Clear 34 1010 32 6000 4.1 340 14:53 21.06.2019
6039 Clear 34 1010 32 6000 4.1 340 14:31 21.06.2019
6040 Clear 34 1010 32 6000 4.1 340 13:58 21.06.2019
6041 Clear 33 1010 33 6000 4.6 340 13:36 21.06.2019
6042 Clear 33 1010 33 6000 4.6 340 13:18 21.06.2019
6043 Clear 33 1011 33 6000 5.1 330 12:42 21.06.2019
6044 Clear 33 1011 36 6000 5.1 340 12:22 21.06.2019
6045 Clear 32 1011 40 6000 4.1 350 11:48 21.06.2019
6046 Clear 32 1011 40 6000 4.1 350 11:27 21.06.2019
6047 Clouds 31 1011 40 10000 4.6 20 10:56 21.06.2019
6048 Clouds 30 1011 37 10000 5.1 20 10:38 21.06.2019
6049 Clouds 29 1011 42 10000 5.1 20 10:19 21.06.2019
6050 Clouds 28 1011 54 10000 4.1 360 09:41 21.06.2019
6051 Clouds 28 1011 51 10000 4.1 10 09:21 21.06.2019
6052 Clouds 27 1011 61 10000 4.6 20 08:44 21.06.2019
6053 Clouds 26 1011 69 6000 4.1 40 08:24 21.06.2019
6054 Clouds 25 1011 78 6000 4.6 30 07:54 21.06.2019
6055 Clouds 25 1011 78 6000 4.6 30 07:36 21.06.2019
6056 Clouds 25 1011 78 6000 4.1 40 06:58 21.06.2019
6057 Clear 24 1010 78 6000 4.1 30 06:24 21.06.2019
6058 Clear 24 1010 78 6000 3.6 30 05:32 21.06.2019
6059 Clear 24 1010 83 10000 5.1 30 04:31 21.06.2019
6060 Clear 25 1010 78 10000 4.6 30 03:35 21.06.2019
6061 Clear 25 1010 78 10000 4.6 30 02:58 21.06.2019
6062 Clear 26 1010 69 10000 5.7 40 01:58 21.06.2019
6063 Clear 26 1010 65 10000 5.1 40 01:25 21.06.2019
6064 Clear 26 1010 65 10000 5.1 40 00:27 21.06.2019
6065 Clear 27 1010 61 10000 5.1 50 23:53 20.06.2019
6066 Clear 27 1010 61 10000 5.1 50 23:24 20.06.2019
6067 Clear 27 1010 57 10000 6.2 40 22:59 20.06.2019
6068 Clear 28 1010 51 10000 6.2 30 22:40 20.06.2019
6069 Clear 29 1010 48 10000 6.2 20 22:21 20.06.2019
6070 Clear 29 1010 42 10000 6.2 30 21:54 20.06.2019
6071 Clear 29 1010 42 10000 6.2 30 21:36 20.06.2019
6072 Clear 29 1010 42 10000 6.2 30 21:18 20.06.2019
6073 Clear 30 1009 45 10000 6.2 20 20:41 20.06.2019
6074 Clear 30 1009 45 10000 7.2 10 20:21 20.06.2019
6075 Clear 31 1009 40 10000 6.7 10 19:43 20.06.2019
6076 Clear 31 1009 38 10000 7.2 10 19:19 20.06.2019
6077 Clear 32 1009 38 10000 7.2 10 18:57 20.06.2019
6078 Clear 33 1008 33 10000 7.2 20 18:38 20.06.2019
6079 Clear 33 1008 32 10000 6.7 10 18:20 20.06.2019
6080 Clear 34 1008 32 10000 5.7 360 17:45 20.06.2019
6081 Clear 35 1008 30 10000 6.2 360 17:25 20.06.2019
6082 Clear 36 1008 26 10000 6.2 10 16:42 20.06.2019
6083 Clear 36 1008 26 10000 6.2 360 16:19 20.06.2019
6084 Clear 36 1008 26 10000 5.7 10 15:56 20.06.2019
6085 Clear 36 1008 26 10000 5.7 10 15:37 20.06.2019
6086 Clear 36 1008 25 10000 5.1 360 15:18 20.06.2019
6087 Clear 36 1008 26 10000 4.6 40 14:42 20.06.2019
6088 Clear 36 1009 26 10000 3.6 360 14:21 20.06.2019
6089 Clear 36 1009 26 10000 3.6 360 13:40 20.06.2019
6090 Clear 35 1009 30 10000 4.6 10 13:19 20.06.2019
6091 Clear 34 1010 32 10000 4.1 20 12:44 20.06.2019
6092 Clear 33 1010 33 10000 3.6 30 12:22 20.06.2019
6093 Clear 33 1010 33 10000 3.6 30 11:44 20.06.2019
6094 Clear 32 1011 33 10000 3.6 10 11:23 20.06.2019
6095 Clear 32 1011 33 10000 3.6 10 10:45 20.06.2019
6096 Clear 32 1011 33 10000 3.6 10 10:45 20.06.2019
6097 Clear 31 1010 37 10000 4.6 40 10:25 20.06.2019
6098 Clear 30 1010 37 10000 4.6 40 09:58 20.06.2019
6099 Clear 30 1010 37 10000 4.6 40 09:38 20.06.2019
6100 Clear 29 1011 45 10000 4.6 40 09:20 20.06.2019
6101 Clear 28 1011 45 10000 4.6 40 08:45 20.06.2019
6102 Clear 28 1011 45 10000 4.6 40 08:26 20.06.2019
6103 Clear 27 1011 51 10000 4.1 60 07:51 20.06.2019
6104 Clear 27 1011 51 10000 4.1 60 07:27 20.06.2019
6105 Clear 26 1010 57 10000 3.6 40 06:25 20.06.2019
6106 Clear 26 1010 54 10000 3.6 40 04:53 20.06.2019
6107 Clear 27 1010 51 10000 3.1 50 02:29 20.06.2019
6108 Clear 28 1010 48 10000 5.1 50 00:34 20.06.2019
6109 Clear 29 1011 48 10000 4.6 30 23:49 19.06.2019
6110 Clear 29 1011 48 10000 4.6 30 23:30 19.06.2019
6111 Clear 30 1011 48 10000 4.6 40 22:57 19.06.2019
6112 Clear 30 1011 48 10000 4.6 40 22:39 19.06.2019
6113 Clear 31 1011 45 10000 5.1 40 22:18 19.06.2019
6114 Clear 31 1011 45 10000 5.1 40 22:18 19.06.2019
6115 Clear 32 1010 40 10000 4.6 40 21:42 19.06.2019
6116 Clear 32 1010 35 10000 3.6 40 21:23 19.06.2019
6117 Clear 32 1010 33 10000 4.1 30 20:42 19.06.2019
6118 Clear 33 1010 33 10000 3.6 20 20:22 19.06.2019
6119 Clear 34 1010 32 10000 4.1 10 19:51 19.06.2019
6120 Clear 34 1010 32 10000 4.1 10 19:29 19.06.2019
6121 Clear 34 1010 32 10000 4.1 10 18:57 19.06.2019
6122 Clear 35 1010 28 10000 3.6 340 18:28 19.06.2019
6123 Clear 37 1010 22 10000 3.6 360 17:53 19.06.2019
6124 Clear 37 1010 22 10000 3.6 360 17:33 19.06.2019
6125 -273 0 0 0 0 0 16:57 19.06.2019
6126 Clear 36 1010 26 10000 3.6 350 16:38 19.06.2019
6127 Clear 36 1010 22 10000 5.1 320 16:20 19.06.2019
6128 Clear 37 1010 27 10000 2.6 300 15:48 19.06.2019
6129 Clear 37 1010 27 10000 2.6 300 15:25 19.06.2019
6130 Clear 36 1010 30 10000 2.1 310 14:50 19.06.2019
6131 Clear 36 1010 30 10000 2.1 310 14:30 19.06.2019
6132 Clear 36 1011 28 10000 3.6 340 13:59 19.06.2019
6133 Clear 36 1011 28 10000 4.1 290 13:40 19.06.2019
6134 Clear 36 1011 26 10000 3.1 300 13:21 19.06.2019
6135 Clear 36 1011 26 10000 3.1 300 12:43 19.06.2019
6136 Clear 35 1011 28 10000 3.1 350 12:21 19.06.2019
6137 Clear 35 1011 30 10000 2.1 30 11:45 19.06.2019
6138 Clear 34 1011 30 10000 2.1 30 11:25 19.06.2019
6139 Clear 33 1011 31 10000 1 80 10:57 19.06.2019
6140 Clear 33 1011 31 10000 1 80 10:38 19.06.2019
6141 Clear 33 1011 31 10000 1 80 10:19 19.06.2019
6142 Clear 31 1011 40 10000 1 10 09:39 19.06.2019
6143 Clear 30 1011 42 10000 2.6 40 09:19 19.06.2019
6144 Clear 30 1011 48 10000 2.6 60 08:49 19.06.2019
6145 Clear 29 1011 48 10000 2.6 60 08:28 19.06.2019
6146 Clear 28 1011 51 10000 2.1 60 07:47 19.06.2019
6147 Clear 27 1011 57 10000 1.5 70 07:25 19.06.2019
6148 Clear 27 1011 57 10000 1.5 70 06:52 19.06.2019
6149 Clear 27 1011 57 10000 1.5 70 06:28 19.06.2019
6150 Clear 28 1010 51 10000 1.5 30 05:49 19.06.2019
6151 Clear 28 1010 51 10000 1.5 50 04:34 19.06.2019
6152 Clear 28 1011 54 10000 1.5 30 03:33 19.06.2019
6153 Clear 29 1011 51 10000 3.1 50 02:26 19.06.2019
6154 Clear 29 1011 54 10000 3.6 60 01:23 19.06.2019
6155 Clear 30 1011 55 10000 3.6 60 00:43 19.06.2019
6156 Clear 30 1011 55 10000 3.6 60 00:43 19.06.2019
6157 Clear 30 1011 55 10000 3.6 60 00:20 19.06.2019
6158 Clear 30 1011 58 10000 4.1 50 23:52 18.06.2019
6159 Clear 30 1011 58 10000 4.1 50 23:28 18.06.2019
6160 Clear 31 1012 52 10000 4.6 50 22:49 18.06.2019
6161 Clear 32 1012 40 10000 5.7 30 22:25 18.06.2019
6162 Clear 32 1012 40 10000 5.7 30 22:25 18.06.2019
6163 Clear 32 1012 40 10000 5.7 30 21:58 18.06.2019
6164 Clear 32 1012 40 10000 5.7 30 21:39 18.06.2019
6165 Clear 32 1011 33 10000 4.1 10 21:21 18.06.2019
6166 Clear 33 1011 33 10000 4.1 10 20:44 18.06.2019
6167 Clear 33 1011 33 10000 4.1 10 20:25 18.06.2019
6168 Clear 34 1011 32 10000 3.6 340 19:47 18.06.2019
6169 Clear 35 1011 28 10000 4.6 350 19:25 18.06.2019
6170 Clear 35 1011 28 10000 4.6 350 18:59 18.06.2019
6171 Clear 35 1011 28 10000 4.6 350 18:39 18.06.2019
6172 Clear 35 1011 30 10000 4.6 350 18:21 18.06.2019
6173 Clear 35 1011 30 10000 4.6 350 17:40 18.06.2019
6174 Clear 36 1011 28 10000 4.6 340 17:20 18.06.2019
6175 Clear 36 1011 26 10000 5.1 320 16:47 18.06.2019
6176 Clear 36 1012 28 10000 5.1 340 16:27 18.06.2019
6177 Clear 36 1012 25 10000 3.6 320 15:55 18.06.2019
6178 Clear 36 1012 25 10000 3.6 320 15:36 18.06.2019
6179 Clear 36 1012 25 10000 3.6 320 15:36 18.06.2019
6180 Clear 36 1012 25 10000 3.6 320 15:18 18.06.2019
6181 Clear 36 1012 25 10000 3.6 310 14:42 18.06.2019
6182 Clear 35 1012 30 10000 3.1 300 14:22 18.06.2019
6183 Clear 35 1012 26 10000 2.6 360 13:53 18.06.2019
6184 Clear 35 1012 26 10000 2.6 360 13:32 18.06.2019
6185 Clear 33 1013 31 10000 1.5 50 12:59 18.06.2019
6186 Clear 33 1013 31 10000 1.5 50 12:41 18.06.2019
6187 Clear 33 1013 32 10000 2.1 320 12:23 18.06.2019
6188 Clear 33 1013 38 10000 2.1 330 11:42 18.06.2019
6189 Clear 32 1013 38 10000 1 310 11:21 18.06.2019
6190 Clear 32 1013 38 10000 2.1 310 10:57 18.06.2019
6191 Clear 32 1013 38 10000 2.1 310 10:37 18.06.2019
6192 Clear 31 1013 45 10000 1 360 10:18 18.06.2019
6193 Clear 30 1013 48 10000 3.73 292.03 09:39 18.06.2019
6194 Clear 29 1013 51 10000 0.5 10 09:18 18.06.2019
6195 Clear 28 1013 54 10000 2.1 40 08:43 18.06.2019
6196 Clear 28 1013 61 6000 1.5 350 08:21 18.06.2019
6197 Clear 26 1013 74 6000 1.3 53.412 07:41 18.06.2019
6198 Clear 25 1012 78 6000 1.5 50 07:20 18.06.2019
6199 Clear 25 1012 78 6000 1.5 50 06:33 18.06.2019
6200 Clear 25 1012 78 10000 1.5 70 05:20 18.06.2019
6201 Clear 27 1011 69 10000 2.1 50 02:53 18.06.2019
6202 Clear 26 1012 74 10000 1.5 50 01:55 18.06.2019
6203 Clear 27 1012 69 10000 2.6 40 01:25 18.06.2019
6204 Clear 27 1012 69 10000 3.6 70 00:55 18.06.2019
6205 Clear 27 1012 65 10000 2.1 10 00:27 18.06.2019
6206 Clear 28 1013 61 10000 3.6 350 23:41 17.06.2019
6207 Clear 28 1013 58 10000 4.1 360 23:20 17.06.2019
6208 Clear 28 1013 58 10000 4.1 360 22:56 17.06.2019
6209 Clear 28 1012 61 10000 4.1 360 22:37 17.06.2019
6210 Clear 28 1012 61 10000 4.6 350 22:19 17.06.2019
6211 Clear 29 1012 58 10000 5.1 360 21:42 17.06.2019
6212 Clear 29 1012 58 10000 5.1 350 21:21 17.06.2019
6213 Clear 30 1011 55 10000 5.1 350 20:38 17.06.2019
6214 Clouds 30 1011 52 10000 5.1 350 20:20 17.06.2019
6215 Clouds 32 1010 43 10000 4.6 350 19:43 17.06.2019
6216 Clouds 32 1010 38 10000 3.6 350 19:24 17.06.2019
6217 Clouds 32 1010 38 10000 3.6 350 18:58 17.06.2019
6218 Clouds 33 1010 36 10000 4.1 350 18:38 17.06.2019
6219 Clouds 33 1010 33 10000 4.6 320 18:18 17.06.2019
6220 Clouds 33 1010 33 10000 4.6 320 18:18 17.06.2019
6221 Clouds 33 1010 33 10000 4.6 320 18:18 17.06.2019
6222 Clouds 33 1010 36 10000 4.6 330 17:47 17.06.2019
6223 Clouds 33 1010 36 10000 4.6 330 17:29 17.06.2019
6224 Clouds 34 1010 34 10000 4.6 310 16:55 17.06.2019
6225 Clouds 34 1009 30 10000 3.1 280 16:37 17.06.2019
6226 Clouds 34 1009 30 10000 3.1 280 16:19 17.06.2019
6227 Clouds 34 1010 32 10000 4.6 300 15:43 17.06.2019
6228 Clouds 34 1010 32 10000 4.6 300 15:20 17.06.2019
6229 Clouds 34 1010 32 10000 4.6 300 15:20 17.06.2019
6230 Clouds 34 1010 32 10000 4.6 280 14:55 17.06.2019
6231 Clouds 34 1010 34 10000 5.1 330 14:34 17.06.2019
6232 Clouds 34 1010 34 10000 5.1 330 14:34 17.06.2019
6233 Clouds 33 1010 36 10000 3.1 310 13:58 17.06.2019
6234 Clouds 33 1010 36 10000 4.1 250 13:40 17.06.2019
6235 Clouds 33 1010 36 10000 4.1 250 13:20 17.06.2019
6236 Clear 32 1011 35 10000 4.1 290 12:39 17.06.2019
6237 Clear 32 1011 35 10000 4.1 290 12:19 17.06.2019
6238 Clear 31 1011 38 10000 3.6 290 11:43 17.06.2019
6239 Clear 31 1011 40 10000 3.6 270 11:24 17.06.2019
6240 Clear 31 1011 40 10000 3.6 270 10:47 17.06.2019
6241 Clear 31 1011 40 10000 2.6 280 10:29 17.06.2019
6242 Clear 29 1011 51 6000 2.6 260 09:56 17.06.2019
6243 Clear 28 1011 58 6000 2.6 250 09:34 17.06.2019
6244 Clear 27 1011 61 6000 2.1 270 08:55 17.06.2019
6245 Clear 26 1011 69 6000 2.1 320 08:36 17.06.2019
6246 Clear 26 1011 69 6000 2.1 320 08:18 17.06.2019
6247 Clear 25 1010 73 6000 2.6 320 07:38 17.06.2019
6248 Clear 25 1010 73 10000 2.6 320 07:18 17.06.2019
6249 Clear 25 1010 73 10000 1.5 300 06:22 17.06.2019
6250 Clear 24 1009 78 10000 1 360 05:29 17.06.2019
6251 Clear 24 1009 73 10000 1.5 300 04:32 17.06.2019
6252 Clear 25 1009 69 10000 1.5 300 03:32 17.06.2019
6253 Clear 25 1009 65 10000 3.1 310 02:49 17.06.2019
6254 Clear 25 1009 65 10000 3.1 310 02:31 17.06.2019
6255 Clear 26 1009 61 10000 3.6 310 01:38 17.06.2019
6256 Clear 26 1010 61 10000 3.1 330 00:58 17.06.2019
6257 Clear 27 1010 54 10000 2.6 310 00:38 17.06.2019
6258 Clear 27 1010 57 10000 2.6 310 00:20 17.06.2019
6259 Clear 27 1010 57 10000 3.1 310 23:40 16.06.2019
6260 Clear 27 1010 57 10000 3.1 310 23:20 16.06.2019
6261 Clear 28 1010 51 10000 3.6 310 22:47 16.06.2019
6262 Clear 28 1010 51 10000 3.6 310 22:21 16.06.2019
6263 Clear 28 1010 51 10000 4.1 320 21:59 16.06.2019
6264 Clear 29 1010 48 10000 4.1 320 21:40 16.06.2019
6265 Clear 29 1010 48 10000 4.1 320 21:21 16.06.2019
6266 Clear 29 1009 48 10000 3.1 320 20:55 16.06.2019
6267 Clear 30 1009 42 10000 5.1 300 20:37 16.06.2019
6268 Clear 30 1009 42 10000 5.1 300 20:18 16.06.2019
6269 Clear 31 1008 43 10000 5.1 300 19:39 16.06.2019
6270 Clear 31 1008 43 10000 5.1 300 19:21 16.06.2019
6271 Clear 31 1008 43 10000 6.2 330 18:57 16.06.2019
6272 Clear 31 1008 43 10000 6.2 330 18:57 16.06.2019
6273 Clear 32 1008 35 10000 6.2 320 18:38 16.06.2019
6274 Clear 32 1008 35 10000 6.2 320 18:19 16.06.2019
6275 Clear 35 1007 23 10000 7.7 260 17:42 16.06.2019
6276 Clear 35 1007 23 10000 7.7 260 17:22 16.06.2019
6277 Clear 35 1007 23 10000 7.7 260 17:22 16.06.2019
6278 Clear 35 1007 23 10000 7.7 270 16:56 16.06.2019
6279 Clear 35 1007 23 10000 7.7 270 16:56 16.06.2019
6280 Clear 35 1007 23 10000 7.7 270 16:56 16.06.2019
6281 Clear 35 1007 22 10000 6.7 260 16:38 16.06.2019
6282 Clear 36 1007 22 10000 6.7 260 16:19 16.06.2019
6283 Clear 36 1007 23 10000 7.7 260 15:41 16.06.2019
6284 Clear 36 1007 23 10000 7.7 260 15:23 16.06.2019
6285 Clear 35 1008 26 10000 5.1 270 14:43 16.06.2019
6286 Clear 35 1008 26 10000 5.1 270 14:23 16.06.2019
6287 Clear 35 1008 26 10000 6.2 250 13:52 16.06.2019
6288 Clear 34 1008 28 10000 8.2 260 13:27 16.06.2019
6289 Clear 34 1009 28 10000 7.7 260 12:58 16.06.2019
6290 Clear 33 1009 29 10000 5.7 250 12:38 16.06.2019
6291 Clear 33 1009 29 10000 5.7 250 12:19 16.06.2019
6292 Clear 32 1009 33 10000 4.6 260 11:45 16.06.2019
6293 Clear 31 1009 33 10000 4.6 260 11:20 16.06.2019
6294 Clear 31 1009 33 10000 4.1 260 10:45 16.06.2019
6295 Clear 31 1009 33 10000 4.1 260 10:22 16.06.2019
6296 Clear 30 1009 35 10000 2.6 270 09:56 16.06.2019
6297 Clear 30 1009 40 10000 3.1 230 09:36 16.06.2019
6298 Clear 30 1009 40 10000 3.1 230 09:18 16.06.2019
6299 Clear 28 1009 58 10000 2.6 240 08:40 16.06.2019
6300 Clear 27 1009 58 10000 2.6 240 08:19 16.06.2019
6301 Clear 26 1009 65 10000 3.1 230 07:44 16.06.2019
6302 Clear 25 1008 73 10000 2.6 220 06:59 16.06.2019
6303 Clear 25 1008 73 10000 2.6 220 06:39 16.06.2019
6304 Clear 24 1008 78 10000 2.28 286.37 05:50 16.06.2019
6305 Clear 24 1008 78 10000 2.6 320 04:54 16.06.2019
6306 Clear 24 1008 78 10000 3.1 310 03:57 16.06.2019
6307 Clear 24 1008 78 10000 3.1 280 03:32 16.06.2019
6308 Clear 25 1008 73 10000 4.1 310 02:33 16.06.2019
6309 Clear 26 1008 69 10000 4.6 310 01:47 16.06.2019
6310 Clear 26 1008 69 10000 4.6 310 01:27 16.06.2019
6311 Clear 27 1008 61 10000 4.6 300 00:40 16.06.2019
6312 Clear 27 1008 57 10000 4.6 300 00:21 16.06.2019
6313 Clear 27 1008 57 10000 4.6 300 23:45 15.06.2019
6314 Clear 28 1009 51 10000 4.6 320 23:25 15.06.2019
6315 Clear 29 1009 48 10000 5.1 310 22:50 15.06.2019
6316 Clear 29 1008 51 10000 4.6 310 22:27 15.06.2019
6317 Clear 30 1008 51 10000 5.1 320 21:57 15.06.2019
6318 Clear 30 1008 51 10000 5.7 310 21:39 15.06.2019
6319 Clear 30 1007 45 10000 5.1 320 21:18 15.06.2019
6320 Clear 31 1007 35 10000 2.6 310 20:42 15.06.2019
6321 Clear 32 1007 35 10000 2.6 310 20:22 15.06.2019
6322 Clear 32 1007 35 10000 2.6 310 20:22 15.06.2019
6323 Clouds 33 1007 33 10000 3.1 340 19:43 15.06.2019
6324 Clouds 33 1007 33 10000 3.1 340 19:24 15.06.2019
6325 Clouds 33 1006 31 10000 3.1 310 18:41 15.06.2019
6326 Clouds 33 1006 31 10000 3.1 310 18:21 15.06.2019
6327 Clouds 33 1007 30 10000 3.6 280 17:44 15.06.2019
6328 Clouds 34 1007 30 10000 3.6 280 17:25 15.06.2019
6329 Clouds 34 1007 32 10000 2.6 300 16:49 15.06.2019
6330 Clouds 34 1007 30 10000 2.6 320 16:20 15.06.2019
6331 Clouds 34 1007 34 10000 3.6 290 15:45 15.06.2019
6332 Clouds 34 1007 34 10000 3.6 290 15:24 15.06.2019
6333 Clouds 34 1007 32 10000 3.6 320 14:54 15.06.2019
6334 Clouds 34 1007 34 10000 2.6 270 14:36 15.06.2019
6335 Clouds 34 1007 34 10000 2.6 270 14:18 15.06.2019
6336 Clouds 33 1008 36 10000 3.1 310 13:42 15.06.2019
6337 Clouds 33 1008 36 10000 3.1 310 13:19 15.06.2019
6338 Clouds 32 1008 38 10000 3.6 320 12:52 15.06.2019
6339 Clouds 32 1008 38 10000 3.6 320 12:52 15.06.2019
6340 Clouds 32 1008 38 10000 3.1 310 12:27 15.06.2019
6341 Clouds 32 1009 40 10000 3.1 290 11:54 15.06.2019
6342 Clouds 31 1009 40 10000 3.1 290 11:34 15.06.2019
6343 Clouds 30 1009 45 6000 1.5 330 10:55 15.06.2019
6344 Clouds 29 1009 48 6000 1.5 330 10:37 15.06.2019
6345 Clouds 29 1009 48 6000 1.5 330 10:19 15.06.2019
6346 Haze 27 1009 61 4000 2.1 320 09:43 15.06.2019
6347 Haze 27 1009 61 4000 2.1 320 09:23 15.06.2019
6348 Haze 26 1009 69 4000 2.25 316.528 08:53 15.06.2019
6349 Haze 26 1009 69 4000 2.25 316.528 08:32 15.06.2019
6350 Clouds 25 1009 73 6000 1.5 350 07:50 15.06.2019
6351 Clouds 25 1009 73 6000 1.5 350 07:50 15.06.2019
6352 Clouds 25 1009 73 6000 1.5 350 07:24 15.06.2019
6353 Clouds 25 1008 83 6000 2.6 350 06:41 15.06.2019
6354 Clouds 24 1008 83 6000 2.6 350 06:18 15.06.2019
6355 Clouds 24 1008 83 6000 2.1 360 05:27 15.06.2019
6356 Clouds 24 1008 83 10000 2.6 30 04:44 15.06.2019
6357 Clouds 24 1008 83 10000 2.6 30 04:44 15.06.2019
6358 Clouds 24 1008 83 10000 2.6 30 04:44 15.06.2019
6359 Clouds 24 1008 83 10000 2.6 30 04:44 15.06.2019
6360 Clouds 24 1008 83 10000 2.6 30 04:44 15.06.2019
6361 Clouds 25 1008 78 10000 2.1 60 03:44 15.06.2019
6362 Clouds 25 1008 78 10000 2.1 50 02:56 15.06.2019
6363 Clouds 25 1008 78 10000 2.6 10 02:22 15.06.2019
6364 Clouds 26 1009 74 10000 3.1 40 01:45 15.06.2019
6365 Clouds 26 1008 74 10000 2.6 50 00:57 15.06.2019
6366 Clouds 26 1009 74 10000 3.6 50 00:39 15.06.2019
6367 Clouds 27 1009 69 10000 3.1 60 23:55 14.06.2019
6368 Clouds 27 1009 69 10000 3.6 50 23:26 14.06.2019
6369 Clouds 27 1009 69 10000 4.1 50 22:55 14.06.2019
6370 Clouds 28 1009 65 10000 4.6 30 22:37 14.06.2019
6371 Clouds 28 1009 65 10000 4.6 30 22:19 14.06.2019
6372 Clouds 29 1009 58 10000 4.6 10 21:40 14.06.2019
6373 Clouds 29 1009 58 10000 4.6 10 21:22 14.06.2019
6374 Clouds 30 1009 40 10000 4.1 340 20:43 14.06.2019
6375 Clouds 31 1009 40 10000 4.1 340 20:19 14.06.2019
6376 Clouds 31 1008 38 10000 3.6 350 19:56 14.06.2019
6377 Clouds 31 1008 38 10000 3.1 350 19:36 14.06.2019
6378 Clouds 31 1008 33 10000 4.1 330 19:18 14.06.2019
6379 Clouds 32 1008 33 10000 3.6 350 18:42 14.06.2019
6380 Clouds 32 1008 33 10000 3.6 350 18:24 14.06.2019
6381 Clouds 32 1008 35 10000 4.6 320 17:55 14.06.2019
6382 Clouds 32 1008 35 10000 4.6 320 17:37 14.06.2019
6383 Clouds 32 1008 35 10000 4.6 320 17:19 14.06.2019
6384 Clouds 32 1008 35 6000 3.6 330 16:45 14.06.2019
6385 Clouds 32 1008 35 6000 3.6 330 16:20 14.06.2019
6386 Clouds 32 1008 35 6000 3.6 330 16:20 14.06.2019
6387 Clouds 32 1008 35 6000 4.1 340 15:57 14.06.2019
6388 Clouds 32 1008 38 6000 3.6 290 15:38 14.06.2019
6389 Clouds 32 1008 38 6000 3.6 290 15:18 14.06.2019
6390 Clouds 32 1009 40 6000 3.1 330 14:40 14.06.2019
6391 Clouds 32 1009 40 6000 3.1 330 14:21 14.06.2019
6392 Clouds 31 1009 43 6000 3.6 300 13:44 14.06.2019
6393 Clouds 31 1009 43 6000 3.6 300 13:24 14.06.2019
6394 Clouds 30 1010 48 6000 3.1 330 12:44 14.06.2019
6395 Clouds 30 1010 48 6000 3.1 330 12:26 14.06.2019
6396 Clouds 31 1010 43 6000 2.6 320 11:58 14.06.2019
6397 Clouds 29 1010 48 6000 1.5 10 11:39 14.06.2019
6398 Clouds 29 1010 48 6000 1.5 10 11:20 14.06.2019
6399 Clouds 28 1011 54 6000 2.1 320 10:44 14.06.2019
6400 Clouds 28 1011 54 6000 2.1 320 10:20 14.06.2019
6401 Clouds 27 1010 61 6000 2.1 320 09:48 14.06.2019
6402 Clouds 27 1010 61 6000 2.1 320 09:25 14.06.2019
6403 Clouds 27 1010 61 6000 2.1 320 09:25 14.06.2019
6404 Clouds 25 1010 73 3000 3.6 300 08:47 14.06.2019
6405 Clouds 25 1010 73 3000 3.6 300 08:20 14.06.2019
6406 Mist 24 1010 78 4000 3.6 320 07:52 14.06.2019
6407 Mist 24 1010 78 4000 3.6 320 07:52 14.06.2019
6408 Mist 24 1010 78 4000 3.6 320 07:22 14.06.2019
6409 Clouds 24 1010 78 6000 3.6 330 06:48 14.06.2019
6410 -273 0 0 0 0 0 05:58 14.06.2019
6411 Clouds 24 1010 78 6000 2.1 310 05:33 14.06.2019
6412 Clear 24 1010 78 10000 2.6 290 04:51 14.06.2019
6413 Clear 24 1010 69 10000 1.5 290 03:59 14.06.2019
6414 Clear 24 1010 64 10000 3.1 330 03:26 14.06.2019
6415 Clear 24 1010 64 10000 2.6 300 02:58 14.06.2019
6416 Clear 25 1010 61 10000 3.1 340 02:35 14.06.2019
6417 Clear 25 1011 57 10000 3.1 340 01:35 14.06.2019
6418 Clear 25 1011 57 10000 4.1 330 00:36 14.06.2019
6419 Clear 25 1011 57 10000 4.1 330 00:18 14.06.2019
6420 Clear 26 1011 54 10000 3.6 340 23:48 13.06.2019
6421 Clear 26 1012 54 10000 4.6 320 23:25 13.06.2019
6422 Clear 27 1012 51 10000 4.1 330 22:40 13.06.2019
6423 Clear 27 1012 51 10000 4.1 330 22:22 13.06.2019
6424 Clear 27 1012 51 10000 4.6 320 21:58 13.06.2019
6425 Clear 28 1012 48 10000 4.6 350 21:36 13.06.2019
6426 Clear 28 1012 48 10000 4.6 350 21:18 13.06.2019
6427 Clear 28 1011 42 10000 5.1 320 20:44 13.06.2019
6428 Clear 29 1011 42 10000 5.1 320 20:20 13.06.2019
6429 Clear 29 1011 42 10000 5.1 320 20:20 13.06.2019
6430 Clouds 29 1011 40 10000 4.6 330 19:43 13.06.2019
6431 Clouds 30 1011 40 10000 4.6 330 19:25 13.06.2019
6432 Clouds 31 1011 38 10000 5.1 330 18:58 13.06.2019
6433 Clouds 31 1010 38 10000 5.1 330 18:40 13.06.2019
6434 Clouds 31 1010 38 10000 5.1 330 18:22 13.06.2019
6435 Clouds 31 1011 35 10000 4.6 320 17:45 13.06.2019
6436 Clouds 32 1011 35 10000 4.6 320 17:21 13.06.2019
6437 Clouds 32 1010 35 10000 4.6 320 16:58 13.06.2019
6438 Clouds 32 1010 35 10000 4.6 320 16:40 13.06.2019
6439 Clouds 32 1010 35 10000 4.6 320 16:20 13.06.2019
6440 Clouds 32 1011 35 10000 4.1 330 15:41 13.06.2019
6441 Clouds 32 1011 35 10000 4.1 330 15:22 13.06.2019
6442 Clouds 32 1011 33 10000 4.1 280 14:50 13.06.2019
6443 Clouds 32 1011 35 10000 4.6 340 14:31 13.06.2019
6444 Clouds 32 1011 35 10000 2.1 330 13:55 13.06.2019
6445 Clear 31 1012 38 10000 4.1 330 13:37 13.06.2019
6446 Clear 31 1012 38 10000 4.1 330 13:19 13.06.2019
6447 Clear 31 1012 38 10000 4.1 310 12:41 13.06.2019
6448 Clear 31 1012 38 10000 4.1 310 12:21 13.06.2019
6449 Clear 30 1013 42 10000 4.6 300 11:46 13.06.2019
6450 Clear 30 1013 42 10000 4.6 300 11:28 13.06.2019
6451 Clear 29 1013 45 10000 3.1 330 10:51 13.06.2019
6452 Clear 29 1013 45 10000 3.1 330 10:31 13.06.2019
6453 -273 0 0 0 0 0 09:58 13.06.2019
6454 Clear 28 1013 45 0 2.24 320 09:40 13.06.2019
6455 Clear 27 1013 57 10000 2.6 350 09:22 13.06.2019
6456 Clear 27 1013 57 0 2.24 350 08:43 13.06.2019
6457 Clear 26 1012 65 10000 3.68 337.731 08:23 13.06.2019
6458 Clear 26 1012 65 10000 3.68 337.731 07:50 13.06.2019
6459 Clear 25 1012 65 10000 3.68 337.731 07:25 13.06.2019
6460 Clear 25 1012 69 10000 3.68 337.731 06:45 13.06.2019
6461 Clear 25 1012 69 10000 2.94 348.782 06:22 13.06.2019
6462 Clear 25 1012 69 10000 1.5 40 05:54 13.06.2019
6463 Clear 25 1011 69 10000 1.5 50 05:36 13.06.2019
6464 Clear 25 1011 69 10000 1.5 50 04:55 13.06.2019
6465 Clear 26 1013 65 10000 2.6 30 02:23 13.06.2019
6466 Clear 26 1013 65 10000 3.1 360 00:47 13.06.2019
6467 Clear 27 1014 61 10000 3.1 360 23:52 12.06.2019
6468 Clear 27 1014 61 10000 3.1 360 23:23 12.06.2019
6469 Clear 28 1014 58 10000 3.6 360 22:44 12.06.2019
6470 Clear 28 1014 58 10000 3.6 360 22:25 12.06.2019
6471 Clear 29 1013 58 10000 4.6 360 21:56 12.06.2019
6472 Clear 29 1013 58 10000 4.6 360 21:37 12.06.2019
6473 Clear 29 1013 58 10000 4.6 360 21:18 12.06.2019
6474 Clear 29 1013 58 10000 4.6 360 21:18 12.06.2019
6475 Clear 30 1013 51 10000 4.1 350 20:38 12.06.2019
6476 Clear 30 1013 51 10000 4.1 350 20:20 12.06.2019
6477 Clouds 31 1012 45 10000 5.1 350 19:42 12.06.2019
6478 Clouds 31 1012 45 10000 5.1 350 19:23 12.06.2019
6479 Clouds 32 1012 35 10000 4.1 330 18:57 12.06.2019
6480 Clouds 32 1012 35 10000 4.1 330 18:39 12.06.2019
6481 Clouds 32 1012 35 10000 4.1 330 18:19 12.06.2019
6482 Clear 33 1011 36 0 4.02 340 17:44 12.06.2019
6483 Clouds 33 1012 33 10000 3.6 330 17:21 12.06.2019
6484 Clear 33 1012 33 0 3.58 330 16:42 12.06.2019
6485 Clouds 33 1012 33 10000 4.6 290 16:23 12.06.2019
6486 Clouds 33 1012 33 10000 4.6 290 15:54 12.06.2019
6487 Clouds 33 1012 31 10000 29.3 310 15:32 12.06.2019
6488 Clouds 33 1012 31 10000 29.3 310 14:50 12.06.2019
6489 Clear 32 1012 35 10000 4.1 270 14:30 12.06.2019
6490 Clear 32 1012 35 10000 4.1 270 13:55 12.06.2019
6491 Clear 32 1012 35 10000 4.1 270 13:37 12.06.2019
6492 Clear 32 1012 35 10000 4.1 270 13:18 12.06.2019
6493 Clear 32 1013 33 10000 4.1 300 12:39 12.06.2019
6494 Clear 31 1013 38 6000 2.6 310 12:19 12.06.2019
6495 Clear 31 1013 38 0 2.24 310 11:47 12.06.2019
6496 Clouds 29 1013 51 6000 1.5 320 11:29 12.06.2019
6497 Clouds 29 1013 51 6000 1.5 320 10:55 12.06.2019
6498 Clouds 29 1013 51 6000 1.5 320 10:36 12.06.2019
6499 Clouds 27 1013 61 6000 3.28 294.995 09:59 12.06.2019
6500 Clouds 27 1013 61 6000 3.28 294.995 09:40 12.06.2019
6501 Clouds 26 1013 61 6000 2.86 327.6 09:18 12.06.2019
6502 Clouds 24 1012 78 6000 2.1 350 08:27 12.06.2019
6503 Clouds 24 1012 78 6000 2.1 350 07:56 12.06.2019
6504 Clouds 24 1012 78 6000 2.1 350 07:18 12.06.2019
6505 Clouds 24 1012 78 6000 2.6 320 06:33 12.06.2019
6506 Clear 25 1011 73 6000 2.1 350 05:25 12.06.2019
6507 Clear 26 1012 54 10000 2.6 10 02:22 12.06.2019
6508 Clouds 27 1012 61 10000 3.1 360 00:46 12.06.2019
6509 Clouds 27 1012 65 10000 4.1 360 23:57 11.06.2019
6510 Clouds 28 1012 62 10000 3.6 360 23:39 11.06.2019
6511 Clouds 29 1012 62 10000 3.6 360 23:20 11.06.2019
6512 Clouds 29 1012 62 10000 3.6 360 22:41 11.06.2019
6513 Clouds 29 1012 62 10000 3.6 360 22:18 11.06.2019
6514 Clouds 29 1012 62 10000 5.1 350 21:55 11.06.2019
6515 Clouds 29 1012 62 6000 5.1 350 21:36 11.06.2019
6516 Clouds 29 1012 62 6000 5.1 350 21:18 11.06.2019
6517 Clouds 30 1011 58 6000 5.7 360 20:42 11.06.2019
6518 Clouds 30 1011 58 6000 5.7 360 20:22 11.06.2019
6519 Clouds 31 1010 55 6000 6.2 350 19:51 11.06.2019
6520 -273 0 0 0 0 0 19:29 11.06.2019
6521 Clouds 33 1009 52 10000 7.7 360 18:49 11.06.2019
6522 Clouds 33 1009 52 10000 7.7 360 18:20 11.06.2019
6523 Clouds 36 1008 22 10000 6.7 320 17:42 11.06.2019
6524 Clouds 37 1008 22 10000 6.7 320 17:22 11.06.2019
6525 Clouds 37 1008 15 10000 5.1 270 16:46 11.06.2019
6526 Clouds 38 1008 15 10000 5.1 270 16:24 11.06.2019
6527 Clouds 38 1008 16 10000 5.1 240 15:59 11.06.2019
6528 Clouds 38 1008 18 10000 5.1 240 15:41 11.06.2019
6529 Clouds 38 1008 18 10000 5.1 240 15:20 11.06.2019
6530 Clouds 38 1008 16 10000 4.6 240 14:44 11.06.2019
6531 Clouds 38 1008 16 10000 4.6 240 14:20 11.06.2019
6532 Clouds 39 1008 16 10000 6.7 220 13:50 11.06.2019
6533 Clear 38 1008 17 6000 5.7 40 13:23 11.06.2019
6534 Clear 37 1009 22 6000 3.6 230 12:43 11.06.2019
6535 Clear 36 1009 22 6000 3.6 230 12:23 11.06.2019
6536 Clear 36 1009 22 6000 4.6 210 11:58 11.06.2019
6537 Clear 36 1009 22 6000 3.1 250 11:38 11.06.2019
6538 Clear 36 1009 22 6000 3.1 250 11:19 11.06.2019
6539 Clear 35 1009 21 6000 3.1 240 10:43 11.06.2019
6540 Clear 34 1009 21 6000 3.1 240 10:24 11.06.2019
6541 Clear 34 1009 21 6000 3.6 220 09:46 11.06.2019
6542 Clear 33 1010 27 6000 3.6 240 09:23 11.06.2019
6543 Clear 32 1009 35 6000 2.6 250 08:44 11.06.2019
6544 Clear 31 1009 35 6000 2.6 250 08:24 11.06.2019
6545 Mist 29 1009 69 3000 1.5 40 07:38 11.06.2019
6546 Mist 26 1008 74 3000 2.1 60 06:56 11.06.2019
6547 Mist 26 1008 74 3000 4.6 90 06:30 11.06.2019
6548 Mist 25 1008 83 3000 1.5 50 04:53 11.06.2019
6549 Mist 26 1008 78 3000 3.1 40 02:54 11.06.2019
6550 Dust 27 1008 74 4000 3.1 30 01:33 11.06.2019
6551 Clear 28 1008 69 6000 3.6 40 00:46 11.06.2019
6552 Clear 28 1008 69 6000 5.1 50 23:47 10.06.2019
6553 Clouds 28 1008 69 6000 5.1 50 23:25 10.06.2019
6554 Clouds 29 1008 66 6000 4.1 50 22:55 10.06.2019
6555 Clouds 29 1008 66 6000 6.2 40 22:37 10.06.2019
6556 Clouds 29 1008 66 6000 6.2 40 22:19 10.06.2019
6557 Clear 30 1008 52 10000 5.1 40 21:40 10.06.2019
6558 Clear 31 1008 52 10000 5.1 40 21:22 10.06.2019
6559 Clear 31 1008 48 10000 5.1 20 20:46 10.06.2019
6560 Clear 34 1007 23 10000 2.1 10 20:24 10.06.2019
6561 Clouds 34 1007 23 10000 2.6 360 19:55 10.06.2019
6562 Clouds 34 1007 23 10000 1 330 19:36 10.06.2019
6563 Clouds 34 1007 23 10000 3.1 310 19:18 10.06.2019
6564 Clouds 34 1007 23 10000 3.1 310 18:54 10.06.2019
6565 Clouds 35 1007 23 10000 2.6 300 18:36 10.06.2019
6566 Clouds 35 1007 21 10000 4.6 320 18:18 10.06.2019
6567 Clouds 35 1007 23 10000 3.6 330 17:39 10.06.2019
6568 Clouds 35 1007 24 10000 4.6 270 17:19 10.06.2019
6569 Clouds 35 1007 23 10000 4.6 290 16:42 10.06.2019
6570 Clouds 36 1007 23 10000 4.6 290 16:24 10.06.2019
6571 Clouds 35 1007 21 10000 5.1 280 15:42 10.06.2019
6572 Clouds 35 1007 21 10000 5.1 280 15:24 10.06.2019
6573 Clouds 36 1007 20 10000 3.6 250 14:55 10.06.2019
6574 Clouds 36 1007 20 10000 5.1 260 14:36 10.06.2019
6575 Clouds 35 1007 21 10000 4.1 220 14:18 10.06.2019
6576 Clouds 35 1008 23 10000 5.1 240 13:42 10.06.2019
6577 Clouds 35 1008 23 10000 5.1 240 13:21 10.06.2019
6578 Clear 34 1008 28 10000 6.7 260 12:43 10.06.2019
6579 Clear 34 1008 28 10000 6.7 260 12:25 10.06.2019
6580 Clear 32 1008 38 10000 4.1 230 11:44 10.06.2019
6581 Clear 32 1008 38 10000 4.1 230 11:26 10.06.2019
6582 Clear 31 1008 42 6000 5.1 210 10:43 10.06.2019
6583 Clear 30 1008 42 6000 5.1 210 10:21 10.06.2019
6584 Clear 30 1008 42 6000 5.7 210 09:57 10.06.2019
6585 Clear 29 1009 58 6000 3.1 260 09:38 10.06.2019
6586 Clear 28 1009 58 6000 3.1 260 09:19 10.06.2019
6587 Haze 27 1008 69 4000 2.1 230 08:45 10.06.2019
6588 Haze 26 1008 69 4000 3.6 220 08:25 10.06.2019
6589 Haze 25 1008 73 4000 2.1 260 07:21 10.06.2019
6590 Clear 25 1008 73 6000 2.6 290 04:30 10.06.2019
6591 Clear 26 1008 69 6000 1 90 01:59 10.06.2019
6592 Clear 27 1008 65 6000 2.1 360 01:26 10.06.2019
6593 Clear 27 1008 65 6000 2.1 350 00:58 10.06.2019
6594 Clear 27 1008 65 6000 1.5 360 00:23 10.06.2019
6595 Clear 28 1008 51 6000 1.5 10 23:44 09.06.2019
6596 Clear 29 1008 51 6000 1.5 10 23:20 09.06.2019
6597 Clear 29 1008 51 6000 1.5 10 22:45 09.06.2019
6598 Clear 30 1008 42 6000 2.6 350 22:25 09.06.2019
6599 Clear 31 1008 33 10000 1 30 21:46 09.06.2019
6600 Clear 31 1008 33 10000 1 30 21:27 09.06.2019
6601 Clear 31 1008 31 10000 2.1 360 20:45 09.06.2019
6602 Clear 31 1008 31 10000 2.1 360 20:24 09.06.2019
6603 Clear 31 1008 31 10000 2.1 350 19:58 09.06.2019
6604 Clear 31 1008 29 10000 2.6 330 19:39 09.06.2019
6605 Clear 32 1008 29 10000 2.6 330 19:18 09.06.2019
6606 Clear 32 1008 29 10000 3.1 330 18:42 09.06.2019
6607 Clear 32 1008 29 10000 3.1 330 18:24 09.06.2019
6608 Clear 33 1008 27 10000 4.1 310 17:48 09.06.2019
6609 Clear 33 1008 27 10000 3.1 260 17:28 09.06.2019
6610 Clear 33 1008 26 10000 3.6 250 16:55 09.06.2019
6611 Clear 33 1008 27 10000 4.6 260 16:37 09.06.2019
6612 Clear 33 1008 27 10000 4.6 260 16:19 09.06.2019
6613 Clear 33 1008 27 10000 3.6 300 15:47 09.06.2019
6614 Clear 33 1009 26 10000 3.6 260 15:28 09.06.2019
6615 Clear 33 1009 27 10000 5.1 290 14:46 09.06.2019
6616 Clear 33 1009 29 10000 4.1 270 14:27 09.06.2019
6617 Clear 32 1009 33 10000 4.1 290 13:56 09.06.2019
6618 Clear 32 1010 33 10000 4.1 250 13:36 09.06.2019
6619 Clear 32 1010 35 10000 3.6 270 12:46 09.06.2019
6620 Clear 30 1010 42 10000 3.1 250 12:27 09.06.2019
6621 Clear 30 1010 42 10000 4.6 220 11:48 09.06.2019
6622 Clear 30 1011 37 10000 5.1 330 11:29 09.06.2019
6623 Clear 27 1011 57 6000 2.6 260 10:47 09.06.2019
6624 Clear 27 1011 57 6000 2.6 260 10:25 09.06.2019
6625 Clear 26 1012 61 6000 2.6 310 09:56 09.06.2019
6626 Clear 25 1011 69 6000 2.1 340 09:37 09.06.2019
6627 Clear 25 1011 69 6000 2.1 340 09:18 09.06.2019
6628 Clear 24 1011 73 6000 2.6 350 08:42 09.06.2019
6629 Clear 24 1011 73 6000 2.1 320 07:51 09.06.2019
6630 Clear 23 1011 78 6000 2.6 310 06:40 09.06.2019
6631 Clear 22 1011 88 6000 2.6 320 05:52 09.06.2019
6632 Clear 23 1011 73 10000 2.6 300 02:55 09.06.2019
6633 Clear 24 1012 61 10000 2.1 310 01:37 09.06.2019
6634 Clear 24 1012 61 10000 2.1 310 01:37 09.06.2019
6635 Clear 25 1012 61 10000 2.1 310 01:18 09.06.2019
6636 Clear 25 1012 61 10000 2.1 300 00:29 09.06.2019
6637 Clear 26 1012 54 10000 2.6 350 23:41 08.06.2019
6638 Clear 26 1012 54 10000 2.6 350 23:22 08.06.2019
6639 Clear 26 1012 54 10000 3.1 10 22:55 08.06.2019
6640 Clear 26 1012 54 10000 3.6 360 22:36 08.06.2019
6641 Clear 26 1012 54 10000 3.6 360 22:18 08.06.2019
6642 Clear 27 1012 51 10000 5.1 360 21:40 08.06.2019
6643 Clear 27 1012 51 10000 5.1 360 21:21 08.06.2019
6644 Clear 28 1012 51 10000 5.7 360 20:45 08.06.2019
6645 Clear 28 1012 51 10000 5.7 360 20:25 08.06.2019
6646 Clear 28 1012 51 10000 5.7 360 20:25 08.06.2019
6647 Clear 29 1011 39 10000 5.1 320 19:55 08.06.2019
6648 Clear 29 1011 37 10000 5.1 320 19:36 08.06.2019
6649 Clear 30 1011 37 10000 5.1 320 19:18 08.06.2019
6650 Clear 30 1011 38 10000 4.1 310 18:41 08.06.2019
6651 Clear 31 1011 38 10000 4.1 310 18:22 08.06.2019
6652 Clouds 32 1010 29 10000 3.1 300 17:44 08.06.2019
6653 Clouds 32 1010 29 10000 3.1 300 17:22 08.06.2019
6654 Clouds 33 1011 29 10000 3.6 300 16:48 08.06.2019
6655 Clouds 33 1011 29 10000 3.6 300 16:29 08.06.2019
6656 Clouds 33 1011 31 10000 3.6 320 15:52 08.06.2019
6657 Clouds 32 1011 33 10000 4.6 290 15:33 08.06.2019
6658 Clouds 31 1011 35 10000 3.6 320 14:48 08.06.2019
6659 Clouds 31 1011 35 10000 4.6 320 14:29 08.06.2019
6660 Clouds 31 1011 35 10000 4.6 330 13:49 08.06.2019
6661 Clouds 31 1012 33 10000 3.6 330 12:53 08.06.2019
6662 Clouds 31 1012 35 10000 3.6 320 12:33 08.06.2019
6663 Clouds 29 1012 45 10000 3.6 330 11:51 08.06.2019
6664 Clouds 29 1013 45 10000 3.6 330 11:27 08.06.2019
6665 Clouds 27 1013 51 10000 3.6 310 10:48 08.06.2019
6666 Clouds 27 1013 51 10000 3.6 310 10:26 08.06.2019
6667 Clouds 26 1013 57 10000 2.6 310 09:58 08.06.2019
6668 Clouds 26 1013 57 10000 2.6 310 09:33 08.06.2019
6669 Clouds 25 1014 61 10000 2.6 20 08:48 08.06.2019
6670 Clouds 23 1014 73 10000 2.6 20 08:20 08.06.2019
6671 Clouds 22 1014 78 10000 3.1 360 07:26 08.06.2019
6672 Clouds 22 1013 78 6000 3.1 340 06:44 08.06.2019
6673 Clear 22 1013 78 10000 3.6 360 03:37 08.06.2019
6674 Clear 23 1013 69 10000 3.6 10 02:20 08.06.2019
6675 Clear 23 1014 64 10000 4.1 10 00:31 08.06.2019
6676 Clear 24 1014 64 10000 4.1 360 23:59 07.06.2019
6677 Clear 25 1014 57 10000 4.1 20 23:21 07.06.2019
6678 Clear 25 1015 57 10000 4.1 10 22:53 07.06.2019
6679 Clear 25 1015 57 10000 4.6 10 22:33 07.06.2019
6680 Clear 26 1015 54 10000 4.6 10 21:56 07.06.2019
6681 Clear 26 1015 50 10000 6.2 20 21:37 07.06.2019
6682 Clear 26 1015 50 10000 6.2 20 21:19 07.06.2019
6683 Clear 26 1014 44 10000 6.7 30 20:42 07.06.2019
6684 Clear 27 1014 44 10000 6.7 30 20:23 07.06.2019
6685 Clear 27 1014 47 10000 5.7 10 19:46 07.06.2019
6686 Clear 28 1013 45 10000 7.7 10 19:19 07.06.2019
6687 Clouds 29 1013 42 10000 7.2 10 18:45 07.06.2019
6688 Clouds 30 1013 40 10000 7.2 10 18:27 07.06.2019
6689 Clouds 31 1012 35 10000 7.2 20 17:46 07.06.2019
6690 Clouds 32 1012 35 10000 7.2 20 17:23 07.06.2019
6691 Clouds 33 1012 31 10000 6.7 20 16:42 07.06.2019
6692 Clouds 33 1012 31 10000 6.7 20 16:22 07.06.2019
6693 Clear 33 1012 31 10000 5.7 10 15:49 07.06.2019
6694 Clear